<?xml version="1.0" encoding="UTF-8" standalone="no" ?>
<gpx xmlns="http://www.topografix.com/GPX/1/1" xmlns:xsi="http://www.w3.org/2001/XMLSchema-instance" xsi:schemaLocation="http://www.topografix.com/GPX/1/1 http://www.topografix.com/GPX/1/1/gpx.xsd" version="1.1" creator="VisuGPX - https://www.visugpx.com">
  <metadata>
    <name>CAMINO PRIMITVO &quot; OVIEDO - SAN JUAN</name>
    <desc><![CDATA[1ere étape Oviedo San Juan, plus longue que prévue à cause d'un hébergement éloigné du depart du Camino à Oviedo. La destination originelle était Grado mais des pélerins croisés en chemin nous ont recommandé de prolongé jusqu'a SAN JUAN. Les 250m de dénivelé entre Grado et San Juan on vite été oubliés après l'accueil reçu a l'albergue et l'ambiance du lieu.]]></desc>
  </metadata>
  <trk>
    <name><![CDATA[2016-07-06-01]]></name>
    <trkseg>
      <trkpt lat="43.3702" lon="-5.83696">
        <ele>194.3</ele>
        <time>2016-07-06T05:28:31Z</time>
      </trkpt>
      <trkpt lat="43.37104" lon="-5.83769">
        <ele>193</ele>
        <time>2016-07-06T05:28:56Z</time>
      </trkpt>
      <trkpt lat="43.37096" lon="-5.83784">
        <ele>193</ele>
        <time>2016-07-06T05:29:09Z</time>
      </trkpt>
      <trkpt lat="43.3709" lon="-5.83765">
        <ele>193</ele>
        <time>2016-07-06T05:29:13Z</time>
      </trkpt>
      <trkpt lat="43.37083" lon="-5.83756">
        <ele>196.5</ele>
        <time>2016-07-06T05:29:32Z</time>
      </trkpt>
      <trkpt lat="43.37076" lon="-5.83747">
        <ele>197.5</ele>
        <time>2016-07-06T05:29:46Z</time>
      </trkpt>
      <trkpt lat="43.37072" lon="-5.83759">
        <ele>197.4</ele>
        <time>2016-07-06T05:29:56Z</time>
      </trkpt>
      <trkpt lat="43.37071" lon="-5.83773">
        <ele>197.7</ele>
        <time>2016-07-06T05:30:01Z</time>
      </trkpt>
      <trkpt lat="43.3707" lon="-5.83785">
        <ele>198.2</ele>
        <time>2016-07-06T05:30:07Z</time>
      </trkpt>
      <trkpt lat="43.37068" lon="-5.83798">
        <ele>197.7</ele>
        <time>2016-07-06T05:30:21Z</time>
      </trkpt>
      <trkpt lat="43.37059" lon="-5.83805">
        <ele>196</ele>
        <time>2016-07-06T05:30:38Z</time>
      </trkpt>
      <trkpt lat="43.37049" lon="-5.83801">
        <ele>196</ele>
        <time>2016-07-06T05:30:43Z</time>
      </trkpt>
      <trkpt lat="43.3704" lon="-5.83798">
        <ele>196</ele>
        <time>2016-07-06T05:30:48Z</time>
      </trkpt>
      <trkpt lat="43.37029" lon="-5.83796">
        <ele>196</ele>
        <time>2016-07-06T05:30:54Z</time>
      </trkpt>
      <trkpt lat="43.37019" lon="-5.83794">
        <ele>195.8</ele>
        <time>2016-07-06T05:31:00Z</time>
      </trkpt>
      <trkpt lat="43.3701" lon="-5.83793">
        <ele>195.7</ele>
        <time>2016-07-06T05:31:07Z</time>
      </trkpt>
      <trkpt lat="43.37" lon="-5.83796">
        <ele>195.6</ele>
        <time>2016-07-06T05:31:13Z</time>
      </trkpt>
      <trkpt lat="43.3699" lon="-5.838">
        <ele>195.3</ele>
        <time>2016-07-06T05:31:21Z</time>
      </trkpt>
      <trkpt lat="43.36982" lon="-5.83807">
        <ele>195.2</ele>
        <time>2016-07-06T05:31:28Z</time>
      </trkpt>
      <trkpt lat="43.36972" lon="-5.8381">
        <ele>195.1</ele>
        <time>2016-07-06T05:31:37Z</time>
      </trkpt>
      <trkpt lat="43.36964" lon="-5.83813">
        <ele>194.9</ele>
        <time>2016-07-06T05:31:46Z</time>
      </trkpt>
      <trkpt lat="43.36954" lon="-5.83816">
        <ele>194.8</ele>
        <time>2016-07-06T05:31:55Z</time>
      </trkpt>
      <trkpt lat="43.36946" lon="-5.83822">
        <ele>194.5</ele>
        <time>2016-07-06T05:32:02Z</time>
      </trkpt>
      <trkpt lat="43.36936" lon="-5.83823">
        <ele>194.3</ele>
        <time>2016-07-06T05:32:09Z</time>
      </trkpt>
      <trkpt lat="43.36928" lon="-5.83819">
        <ele>194.3</ele>
        <time>2016-07-06T05:32:15Z</time>
      </trkpt>
      <trkpt lat="43.36919" lon="-5.83825">
        <ele>194.2</ele>
        <time>2016-07-06T05:32:22Z</time>
      </trkpt>
      <trkpt lat="43.36912" lon="-5.83833">
        <ele>194.2</ele>
        <time>2016-07-06T05:32:28Z</time>
      </trkpt>
      <trkpt lat="43.36904" lon="-5.83841">
        <ele>194.3</ele>
        <time>2016-07-06T05:32:35Z</time>
      </trkpt>
      <trkpt lat="43.36897" lon="-5.83853">
        <ele>194.4</ele>
        <time>2016-07-06T05:32:41Z</time>
      </trkpt>
      <trkpt lat="43.36893" lon="-5.83866">
        <ele>194.5</ele>
        <time>2016-07-06T05:32:47Z</time>
      </trkpt>
      <trkpt lat="43.36892" lon="-5.83878">
        <ele>194.7</ele>
        <time>2016-07-06T05:32:53Z</time>
      </trkpt>
      <trkpt lat="43.36884" lon="-5.83888">
        <ele>194.9</ele>
        <time>2016-07-06T05:33:02Z</time>
      </trkpt>
      <trkpt lat="43.36876" lon="-5.83894">
        <ele>195.2</ele>
        <time>2016-07-06T05:33:08Z</time>
      </trkpt>
      <trkpt lat="43.3687" lon="-5.83904">
        <ele>195.6</ele>
        <time>2016-07-06T05:33:14Z</time>
      </trkpt>
      <trkpt lat="43.36863" lon="-5.83913">
        <ele>195.9</ele>
        <time>2016-07-06T05:33:20Z</time>
      </trkpt>
      <trkpt lat="43.36857" lon="-5.83924">
        <ele>196.2</ele>
        <time>2016-07-06T05:33:30Z</time>
      </trkpt>
      <trkpt lat="43.36851" lon="-5.83934">
        <ele>196.6</ele>
        <time>2016-07-06T05:33:36Z</time>
      </trkpt>
      <trkpt lat="43.36844" lon="-5.83942">
        <ele>196.9</ele>
        <time>2016-07-06T05:33:44Z</time>
      </trkpt>
      <trkpt lat="43.36836" lon="-5.8395">
        <ele>197</ele>
        <time>2016-07-06T05:33:51Z</time>
      </trkpt>
      <trkpt lat="43.36827" lon="-5.83958">
        <ele>197.1</ele>
        <time>2016-07-06T05:33:58Z</time>
      </trkpt>
      <trkpt lat="43.3682" lon="-5.83966">
        <ele>197.4</ele>
        <time>2016-07-06T05:34:05Z</time>
      </trkpt>
      <trkpt lat="43.36812" lon="-5.83972">
        <ele>197.8</ele>
        <time>2016-07-06T05:34:12Z</time>
      </trkpt>
      <trkpt lat="43.36803" lon="-5.83978">
        <ele>198.2</ele>
        <time>2016-07-06T05:34:20Z</time>
      </trkpt>
      <trkpt lat="43.36794" lon="-5.83981">
        <ele>198.3</ele>
        <time>2016-07-06T05:34:25Z</time>
      </trkpt>
      <trkpt lat="43.36786" lon="-5.8399">
        <ele>198.6</ele>
        <time>2016-07-06T05:34:32Z</time>
      </trkpt>
      <trkpt lat="43.3678" lon="-5.84">
        <ele>199.1</ele>
        <time>2016-07-06T05:34:41Z</time>
      </trkpt>
      <trkpt lat="43.36772" lon="-5.84006">
        <ele>199.5</ele>
        <time>2016-07-06T05:34:50Z</time>
      </trkpt>
      <trkpt lat="43.36763" lon="-5.84004">
        <ele>199.7</ele>
        <time>2016-07-06T05:34:58Z</time>
      </trkpt>
      <trkpt lat="43.36753" lon="-5.84007">
        <ele>199.9</ele>
        <time>2016-07-06T05:35:06Z</time>
      </trkpt>
      <trkpt lat="43.36743" lon="-5.84008">
        <ele>200.1</ele>
        <time>2016-07-06T05:35:12Z</time>
      </trkpt>
      <trkpt lat="43.36736" lon="-5.84018">
        <ele>200.3</ele>
        <time>2016-07-06T05:35:18Z</time>
      </trkpt>
      <trkpt lat="43.36728" lon="-5.84026">
        <ele>200.7</ele>
        <time>2016-07-06T05:35:25Z</time>
      </trkpt>
      <trkpt lat="43.36718" lon="-5.84033">
        <ele>200.7</ele>
        <time>2016-07-06T05:35:34Z</time>
      </trkpt>
      <trkpt lat="43.36709" lon="-5.84039">
        <ele>200.8</ele>
        <time>2016-07-06T05:35:40Z</time>
      </trkpt>
      <trkpt lat="43.36699" lon="-5.84038">
        <ele>201</ele>
        <time>2016-07-06T05:35:45Z</time>
      </trkpt>
      <trkpt lat="43.36689" lon="-5.8404">
        <ele>201.4</ele>
        <time>2016-07-06T05:35:52Z</time>
      </trkpt>
      <trkpt lat="43.3668" lon="-5.84043">
        <ele>201.9</ele>
        <time>2016-07-06T05:36:00Z</time>
      </trkpt>
      <trkpt lat="43.36674" lon="-5.84053">
        <ele>202.3</ele>
        <time>2016-07-06T05:36:07Z</time>
      </trkpt>
      <trkpt lat="43.36667" lon="-5.84063">
        <ele>202.9</ele>
        <time>2016-07-06T05:36:15Z</time>
      </trkpt>
      <trkpt lat="43.36661" lon="-5.84074">
        <ele>203.5</ele>
        <time>2016-07-06T05:36:22Z</time>
      </trkpt>
      <trkpt lat="43.36656" lon="-5.84083">
        <ele>204</ele>
        <time>2016-07-06T05:36:29Z</time>
      </trkpt>
      <trkpt lat="43.36651" lon="-5.84096">
        <ele>204.3</ele>
        <time>2016-07-06T05:36:35Z</time>
      </trkpt>
      <trkpt lat="43.36649" lon="-5.84109">
        <ele>204.6</ele>
        <time>2016-07-06T05:36:42Z</time>
      </trkpt>
      <trkpt lat="43.36647" lon="-5.84122">
        <ele>204.8</ele>
        <time>2016-07-06T05:36:48Z</time>
      </trkpt>
      <trkpt lat="43.36645" lon="-5.84135">
        <ele>204.8</ele>
        <time>2016-07-06T05:36:55Z</time>
      </trkpt>
      <trkpt lat="43.36641" lon="-5.84147">
        <ele>204.9</ele>
        <time>2016-07-06T05:37:03Z</time>
      </trkpt>
      <trkpt lat="43.36636" lon="-5.84159">
        <ele>205.3</ele>
        <time>2016-07-06T05:37:10Z</time>
      </trkpt>
      <trkpt lat="43.36629" lon="-5.84169">
        <ele>206.2</ele>
        <time>2016-07-06T05:37:18Z</time>
      </trkpt>
      <trkpt lat="43.36627" lon="-5.84181">
        <ele>206.6</ele>
        <time>2016-07-06T05:37:25Z</time>
      </trkpt>
      <trkpt lat="43.36622" lon="-5.84193">
        <ele>206.9</ele>
        <time>2016-07-06T05:37:33Z</time>
      </trkpt>
      <trkpt lat="43.36618" lon="-5.84204">
        <ele>207.3</ele>
        <time>2016-07-06T05:37:42Z</time>
      </trkpt>
      <trkpt lat="43.36619" lon="-5.84217">
        <ele>207.4</ele>
        <time>2016-07-06T05:37:52Z</time>
      </trkpt>
      <trkpt lat="43.36619" lon="-5.8423">
        <ele>207.9</ele>
        <time>2016-07-06T05:38:00Z</time>
      </trkpt>
      <trkpt lat="43.36619" lon="-5.84243">
        <ele>207.9</ele>
        <time>2016-07-06T05:38:07Z</time>
      </trkpt>
      <trkpt lat="43.36619" lon="-5.84257">
        <ele>208</ele>
        <time>2016-07-06T05:38:13Z</time>
      </trkpt>
      <trkpt lat="43.3662" lon="-5.8427">
        <ele>208.1</ele>
        <time>2016-07-06T05:38:18Z</time>
      </trkpt>
      <trkpt lat="43.36617" lon="-5.84282">
        <ele>208.2</ele>
        <time>2016-07-06T05:38:25Z</time>
      </trkpt>
      <trkpt lat="43.36608" lon="-5.84289">
        <ele>208.1</ele>
        <time>2016-07-06T05:38:36Z</time>
      </trkpt>
      <trkpt lat="43.36612" lon="-5.84301">
        <ele>208.4</ele>
        <time>2016-07-06T05:39:04Z</time>
      </trkpt>
      <trkpt lat="43.36621" lon="-5.84304">
        <ele>208.6</ele>
        <time>2016-07-06T05:39:16Z</time>
      </trkpt>
      <trkpt lat="43.3662" lon="-5.84292">
        <ele>208</ele>
        <time>2016-07-06T05:40:08Z</time>
      </trkpt>
      <trkpt lat="43.36615" lon="-5.8428">
        <ele>207.9</ele>
        <time>2016-07-06T05:40:15Z</time>
      </trkpt>
      <trkpt lat="43.36609" lon="-5.8427">
        <ele>208.1</ele>
        <time>2016-07-06T05:40:22Z</time>
      </trkpt>
      <trkpt lat="43.366" lon="-5.84269">
        <ele>208.7</ele>
        <time>2016-07-06T05:40:29Z</time>
      </trkpt>
      <trkpt lat="43.3659" lon="-5.84269">
        <ele>208.9</ele>
        <time>2016-07-06T05:40:35Z</time>
      </trkpt>
      <trkpt lat="43.3658" lon="-5.84268">
        <ele>209.1</ele>
        <time>2016-07-06T05:40:42Z</time>
      </trkpt>
      <trkpt lat="43.36571" lon="-5.84274">
        <ele>209.4</ele>
        <time>2016-07-06T05:40:49Z</time>
      </trkpt>
      <trkpt lat="43.36567" lon="-5.84286">
        <ele>209.8</ele>
        <time>2016-07-06T05:40:56Z</time>
      </trkpt>
      <trkpt lat="43.36557" lon="-5.84292">
        <ele>210.4</ele>
        <time>2016-07-06T05:41:03Z</time>
      </trkpt>
      <trkpt lat="43.36549" lon="-5.84297">
        <ele>210.7</ele>
        <time>2016-07-06T05:41:10Z</time>
      </trkpt>
      <trkpt lat="43.36542" lon="-5.84306">
        <ele>211.2</ele>
        <time>2016-07-06T05:41:18Z</time>
      </trkpt>
      <trkpt lat="43.3654" lon="-5.84318">
        <ele>211.4</ele>
        <time>2016-07-06T05:41:23Z</time>
      </trkpt>
      <trkpt lat="43.36538" lon="-5.84332">
        <ele>212</ele>
        <time>2016-07-06T05:41:29Z</time>
      </trkpt>
      <trkpt lat="43.36531" lon="-5.84342">
        <ele>212.3</ele>
        <time>2016-07-06T05:41:35Z</time>
      </trkpt>
      <trkpt lat="43.36523" lon="-5.84349">
        <ele>212.5</ele>
        <time>2016-07-06T05:41:40Z</time>
      </trkpt>
      <trkpt lat="43.36515" lon="-5.84358">
        <ele>212.8</ele>
        <time>2016-07-06T05:41:46Z</time>
      </trkpt>
      <trkpt lat="43.36509" lon="-5.84367">
        <ele>213.1</ele>
        <time>2016-07-06T05:41:52Z</time>
      </trkpt>
      <trkpt lat="43.36506" lon="-5.84379">
        <ele>213.6</ele>
        <time>2016-07-06T05:41:59Z</time>
      </trkpt>
      <trkpt lat="43.36497" lon="-5.84385">
        <ele>213.9</ele>
        <time>2016-07-06T05:42:05Z</time>
      </trkpt>
      <trkpt lat="43.36492" lon="-5.84396">
        <ele>214.2</ele>
        <time>2016-07-06T05:42:11Z</time>
      </trkpt>
      <trkpt lat="43.36487" lon="-5.84409">
        <ele>215.3</ele>
        <time>2016-07-06T05:42:19Z</time>
      </trkpt>
      <trkpt lat="43.36481" lon="-5.84418">
        <ele>216.5</ele>
        <time>2016-07-06T05:42:28Z</time>
      </trkpt>
      <trkpt lat="43.3648" lon="-5.84431">
        <ele>217.2</ele>
        <time>2016-07-06T05:42:37Z</time>
      </trkpt>
      <trkpt lat="43.36475" lon="-5.84443">
        <ele>217.9</ele>
        <time>2016-07-06T05:42:46Z</time>
      </trkpt>
      <trkpt lat="43.3647" lon="-5.84453">
        <ele>219.2</ele>
        <time>2016-07-06T05:42:59Z</time>
      </trkpt>
      <trkpt lat="43.36467" lon="-5.84465">
        <ele>220.4</ele>
        <time>2016-07-06T05:43:11Z</time>
      </trkpt>
      <trkpt lat="43.36464" lon="-5.84477">
        <ele>220.9</ele>
        <time>2016-07-06T05:43:19Z</time>
      </trkpt>
      <trkpt lat="43.36458" lon="-5.84468">
        <ele>224.1</ele>
        <time>2016-07-06T05:43:48Z</time>
      </trkpt>
      <trkpt lat="43.36451" lon="-5.84457">
        <ele>225.2</ele>
        <time>2016-07-06T05:44:02Z</time>
      </trkpt>
      <trkpt lat="43.36443" lon="-5.84452">
        <ele>225.6</ele>
        <time>2016-07-06T05:44:07Z</time>
      </trkpt>
      <trkpt lat="43.36434" lon="-5.84447">
        <ele>225.9</ele>
        <time>2016-07-06T05:44:11Z</time>
      </trkpt>
      <trkpt lat="43.36425" lon="-5.84443">
        <ele>226.1</ele>
        <time>2016-07-06T05:44:15Z</time>
      </trkpt>
      <trkpt lat="43.36415" lon="-5.84437">
        <ele>226.8</ele>
        <time>2016-07-06T05:44:19Z</time>
      </trkpt>
      <trkpt lat="43.36406" lon="-5.84429">
        <ele>227.5</ele>
        <time>2016-07-06T05:44:23Z</time>
      </trkpt>
      <trkpt lat="43.36399" lon="-5.84419">
        <ele>228.3</ele>
        <time>2016-07-06T05:44:28Z</time>
      </trkpt>
      <trkpt lat="43.36398" lon="-5.84406">
        <ele>229.1</ele>
        <time>2016-07-06T05:44:37Z</time>
      </trkpt>
      <trkpt lat="43.36389" lon="-5.844">
        <ele>230</ele>
        <time>2016-07-06T05:44:48Z</time>
      </trkpt>
      <trkpt lat="43.36379" lon="-5.84397">
        <ele>232</ele>
        <time>2016-07-06T05:45:10Z</time>
      </trkpt>
      <trkpt lat="43.3637" lon="-5.84398">
        <ele>232.4</ele>
        <time>2016-07-06T05:45:15Z</time>
      </trkpt>
      <trkpt lat="43.36361" lon="-5.84394">
        <ele>232.9</ele>
        <time>2016-07-06T05:45:22Z</time>
      </trkpt>
      <trkpt lat="43.3635" lon="-5.84394">
        <ele>233</ele>
        <time>2016-07-06T05:45:30Z</time>
      </trkpt>
      <trkpt lat="43.3634" lon="-5.84397">
        <ele>234.5</ele>
        <time>2016-07-06T05:45:39Z</time>
      </trkpt>
      <trkpt lat="43.3633" lon="-5.84399">
        <ele>234.9</ele>
        <time>2016-07-06T05:45:44Z</time>
      </trkpt>
      <trkpt lat="43.36321" lon="-5.84399">
        <ele>235.2</ele>
        <time>2016-07-06T05:45:49Z</time>
      </trkpt>
      <trkpt lat="43.36311" lon="-5.84398">
        <ele>235.5</ele>
        <time>2016-07-06T05:45:55Z</time>
      </trkpt>
      <trkpt lat="43.36301" lon="-5.84394">
        <ele>235.8</ele>
        <time>2016-07-06T05:46:00Z</time>
      </trkpt>
      <trkpt lat="43.36292" lon="-5.84392">
        <ele>236.1</ele>
        <time>2016-07-06T05:46:06Z</time>
      </trkpt>
      <trkpt lat="43.36282" lon="-5.8439">
        <ele>237</ele>
        <time>2016-07-06T05:46:14Z</time>
      </trkpt>
      <trkpt lat="43.36273" lon="-5.84388">
        <ele>237.6</ele>
        <time>2016-07-06T05:46:21Z</time>
      </trkpt>
      <trkpt lat="43.36265" lon="-5.84379">
        <ele>238.1</ele>
        <time>2016-07-06T05:46:29Z</time>
      </trkpt>
      <trkpt lat="43.36255" lon="-5.84379">
        <ele>240</ele>
        <time>2016-07-06T05:46:51Z</time>
      </trkpt>
      <trkpt lat="43.36253" lon="-5.84391">
        <ele>241</ele>
        <time>2016-07-06T05:47:15Z</time>
      </trkpt>
      <trkpt lat="43.36251" lon="-5.84403">
        <ele>241.7</ele>
        <time>2016-07-06T05:48:40Z</time>
      </trkpt>
      <trkpt lat="43.3626" lon="-5.84406">
        <ele>242.4</ele>
        <time>2016-07-06T05:50:11Z</time>
      </trkpt>
      <trkpt lat="43.36257" lon="-5.84417">
        <ele>242.1</ele>
        <time>2016-07-06T05:50:25Z</time>
      </trkpt>
      <trkpt lat="43.36259" lon="-5.84405">
        <ele>242.5</ele>
        <time>2016-07-06T05:50:51Z</time>
      </trkpt>
      <trkpt lat="43.36265" lon="-5.84395">
        <ele>242.7</ele>
        <time>2016-07-06T05:51:16Z</time>
      </trkpt>
      <trkpt lat="43.36275" lon="-5.84396">
        <ele>242.6</ele>
        <time>2016-07-06T05:51:27Z</time>
      </trkpt>
      <trkpt lat="43.36284" lon="-5.84401">
        <ele>242.4</ele>
        <time>2016-07-06T05:51:36Z</time>
      </trkpt>
      <trkpt lat="43.36291" lon="-5.84412">
        <ele>242.3</ele>
        <time>2016-07-06T05:51:42Z</time>
      </trkpt>
      <trkpt lat="43.36293" lon="-5.84424">
        <ele>241.9</ele>
        <time>2016-07-06T05:51:49Z</time>
      </trkpt>
      <trkpt lat="43.3629" lon="-5.8444">
        <ele>241</ele>
        <time>2016-07-06T05:51:58Z</time>
      </trkpt>
      <trkpt lat="43.36289" lon="-5.84453">
        <ele>241.5</ele>
        <time>2016-07-06T05:52:06Z</time>
      </trkpt>
      <trkpt lat="43.36285" lon="-5.84467">
        <ele>241.2</ele>
        <time>2016-07-06T05:52:15Z</time>
      </trkpt>
      <trkpt lat="43.36282" lon="-5.84478">
        <ele>241</ele>
        <time>2016-07-06T05:52:20Z</time>
      </trkpt>
      <trkpt lat="43.36278" lon="-5.8449">
        <ele>240.5</ele>
        <time>2016-07-06T05:52:28Z</time>
      </trkpt>
      <trkpt lat="43.36283" lon="-5.84502">
        <ele>239.8</ele>
        <time>2016-07-06T05:52:50Z</time>
      </trkpt>
      <trkpt lat="43.36291" lon="-5.84507">
        <ele>239.3</ele>
        <time>2016-07-06T05:53:02Z</time>
      </trkpt>
      <trkpt lat="43.36295" lon="-5.84519">
        <ele>238.5</ele>
        <time>2016-07-06T05:53:10Z</time>
      </trkpt>
      <trkpt lat="43.36302" lon="-5.8453">
        <ele>238.2</ele>
        <time>2016-07-06T05:53:16Z</time>
      </trkpt>
      <trkpt lat="43.3631" lon="-5.84539">
        <ele>237.7</ele>
        <time>2016-07-06T05:53:22Z</time>
      </trkpt>
      <trkpt lat="43.36317" lon="-5.84548">
        <ele>237.2</ele>
        <time>2016-07-06T05:53:31Z</time>
      </trkpt>
      <trkpt lat="43.36324" lon="-5.84556">
        <ele>236.4</ele>
        <time>2016-07-06T05:53:50Z</time>
      </trkpt>
      <trkpt lat="43.36325" lon="-5.84569">
        <ele>235.7</ele>
        <time>2016-07-06T05:54:35Z</time>
      </trkpt>
      <trkpt lat="43.36326" lon="-5.84582">
        <ele>235</ele>
        <time>2016-07-06T05:54:59Z</time>
      </trkpt>
      <trkpt lat="43.36333" lon="-5.84595">
        <ele>234</ele>
        <time>2016-07-06T05:55:04Z</time>
      </trkpt>
      <trkpt lat="43.36344" lon="-5.8461">
        <ele>233</ele>
        <time>2016-07-06T05:55:09Z</time>
      </trkpt>
      <trkpt lat="43.36352" lon="-5.84619">
        <ele>234</ele>
        <time>2016-07-06T05:55:15Z</time>
      </trkpt>
      <trkpt lat="43.36358" lon="-5.84609">
        <ele>233.9</ele>
        <time>2016-07-06T05:55:37Z</time>
      </trkpt>
      <trkpt lat="43.36368" lon="-5.84606">
        <ele>233.5</ele>
        <time>2016-07-06T05:55:53Z</time>
      </trkpt>
      <trkpt lat="43.36377" lon="-5.84614">
        <ele>233</ele>
        <time>2016-07-06T05:55:59Z</time>
      </trkpt>
      <trkpt lat="43.36382" lon="-5.84625">
        <ele>232.5</ele>
        <time>2016-07-06T05:56:06Z</time>
      </trkpt>
      <trkpt lat="43.36386" lon="-5.84638">
        <ele>232</ele>
        <time>2016-07-06T05:56:16Z</time>
      </trkpt>
      <trkpt lat="43.36389" lon="-5.8465">
        <ele>231.7</ele>
        <time>2016-07-06T05:56:23Z</time>
      </trkpt>
      <trkpt lat="43.3639" lon="-5.84663">
        <ele>231.6</ele>
        <time>2016-07-06T05:56:30Z</time>
      </trkpt>
      <trkpt lat="43.36391" lon="-5.84675">
        <ele>231.2</ele>
        <time>2016-07-06T05:56:51Z</time>
      </trkpt>
      <trkpt lat="43.36391" lon="-5.84689">
        <ele>230.8</ele>
        <time>2016-07-06T05:57:02Z</time>
      </trkpt>
      <trkpt lat="43.36399" lon="-5.84696">
        <ele>230.4</ele>
        <time>2016-07-06T05:57:18Z</time>
      </trkpt>
      <trkpt lat="43.36404" lon="-5.84708">
        <ele>229.8</ele>
        <time>2016-07-06T05:57:28Z</time>
      </trkpt>
      <trkpt lat="43.36407" lon="-5.84721">
        <ele>229.6</ele>
        <time>2016-07-06T05:57:35Z</time>
      </trkpt>
      <trkpt lat="43.36409" lon="-5.84735">
        <ele>229.3</ele>
        <time>2016-07-06T05:57:43Z</time>
      </trkpt>
      <trkpt lat="43.3641" lon="-5.84748">
        <ele>228.9</ele>
        <time>2016-07-06T05:57:51Z</time>
      </trkpt>
      <trkpt lat="43.36414" lon="-5.84759">
        <ele>228.5</ele>
        <time>2016-07-06T05:58:10Z</time>
      </trkpt>
      <trkpt lat="43.3642" lon="-5.84769">
        <ele>227.8</ele>
        <time>2016-07-06T05:58:31Z</time>
      </trkpt>
      <trkpt lat="43.36417" lon="-5.84781">
        <ele>227.8</ele>
        <time>2016-07-06T05:58:45Z</time>
      </trkpt>
      <trkpt lat="43.36422" lon="-5.84792">
        <ele>227.9</ele>
        <time>2016-07-06T05:58:57Z</time>
      </trkpt>
      <trkpt lat="43.36428" lon="-5.84802">
        <ele>228</ele>
        <time>2016-07-06T05:59:06Z</time>
      </trkpt>
      <trkpt lat="43.36433" lon="-5.84812">
        <ele>228</ele>
        <time>2016-07-06T05:59:13Z</time>
      </trkpt>
      <trkpt lat="43.36434" lon="-5.84826">
        <ele>227.8</ele>
        <time>2016-07-06T05:59:20Z</time>
      </trkpt>
      <trkpt lat="43.36433" lon="-5.84838">
        <ele>227.8</ele>
        <time>2016-07-06T05:59:26Z</time>
      </trkpt>
      <trkpt lat="43.36437" lon="-5.8485">
        <ele>227.9</ele>
        <time>2016-07-06T05:59:33Z</time>
      </trkpt>
      <trkpt lat="43.36441" lon="-5.84861">
        <ele>227.9</ele>
        <time>2016-07-06T05:59:39Z</time>
      </trkpt>
      <trkpt lat="43.36441" lon="-5.84874">
        <ele>228.2</ele>
        <time>2016-07-06T05:59:45Z</time>
      </trkpt>
      <trkpt lat="43.36442" lon="-5.84887">
        <ele>228.4</ele>
        <time>2016-07-06T05:59:52Z</time>
      </trkpt>
      <trkpt lat="43.36445" lon="-5.849">
        <ele>225</ele>
        <time>2016-07-06T06:00:01Z</time>
      </trkpt>
      <trkpt lat="43.36449" lon="-5.84912">
        <ele>228.9</ele>
        <time>2016-07-06T06:00:10Z</time>
      </trkpt>
      <trkpt lat="43.36452" lon="-5.84924">
        <ele>230.3</ele>
        <time>2016-07-06T06:00:18Z</time>
      </trkpt>
      <trkpt lat="43.36456" lon="-5.84936">
        <ele>230.9</ele>
        <time>2016-07-06T06:00:26Z</time>
      </trkpt>
      <trkpt lat="43.36461" lon="-5.84947">
        <ele>231.4</ele>
        <time>2016-07-06T06:00:33Z</time>
      </trkpt>
      <trkpt lat="43.3646" lon="-5.8496">
        <ele>231.8</ele>
        <time>2016-07-06T06:00:40Z</time>
      </trkpt>
      <trkpt lat="43.36458" lon="-5.84974">
        <ele>232.5</ele>
        <time>2016-07-06T06:00:49Z</time>
      </trkpt>
      <trkpt lat="43.36456" lon="-5.84987">
        <ele>232.9</ele>
        <time>2016-07-06T06:00:59Z</time>
      </trkpt>
      <trkpt lat="43.3646" lon="-5.84999">
        <ele>233.4</ele>
        <time>2016-07-06T06:01:11Z</time>
      </trkpt>
      <trkpt lat="43.36463" lon="-5.85011">
        <ele>233.6</ele>
        <time>2016-07-06T06:01:19Z</time>
      </trkpt>
      <trkpt lat="43.36463" lon="-5.85025">
        <ele>234</ele>
        <time>2016-07-06T06:01:27Z</time>
      </trkpt>
      <trkpt lat="43.36465" lon="-5.85037">
        <ele>234.1</ele>
        <time>2016-07-06T06:01:35Z</time>
      </trkpt>
      <trkpt lat="43.3647" lon="-5.85049">
        <ele>234.5</ele>
        <time>2016-07-06T06:01:46Z</time>
      </trkpt>
      <trkpt lat="43.36474" lon="-5.85062">
        <ele>234.5</ele>
        <time>2016-07-06T06:01:55Z</time>
      </trkpt>
      <trkpt lat="43.36476" lon="-5.85075">
        <ele>234.6</ele>
        <time>2016-07-06T06:02:03Z</time>
      </trkpt>
      <trkpt lat="43.36483" lon="-5.85086">
        <ele>234.8</ele>
        <time>2016-07-06T06:02:09Z</time>
      </trkpt>
      <trkpt lat="43.3649" lon="-5.85095">
        <ele>234.7</ele>
        <time>2016-07-06T06:02:14Z</time>
      </trkpt>
      <trkpt lat="43.36497" lon="-5.85105">
        <ele>234.7</ele>
        <time>2016-07-06T06:02:19Z</time>
      </trkpt>
      <trkpt lat="43.36504" lon="-5.85114">
        <ele>234.7</ele>
        <time>2016-07-06T06:02:25Z</time>
      </trkpt>
      <trkpt lat="43.36508" lon="-5.85126">
        <ele>234.8</ele>
        <time>2016-07-06T06:02:33Z</time>
      </trkpt>
      <trkpt lat="43.36509" lon="-5.85139">
        <ele>235</ele>
        <time>2016-07-06T06:02:41Z</time>
      </trkpt>
      <trkpt lat="43.36511" lon="-5.85151">
        <ele>235.2</ele>
        <time>2016-07-06T06:02:52Z</time>
      </trkpt>
      <trkpt lat="43.3651" lon="-5.85165">
        <ele>235.3</ele>
        <time>2016-07-06T06:02:59Z</time>
      </trkpt>
      <trkpt lat="43.36506" lon="-5.85177">
        <ele>235.3</ele>
        <time>2016-07-06T06:03:09Z</time>
      </trkpt>
      <trkpt lat="43.36502" lon="-5.8519">
        <ele>235.4</ele>
        <time>2016-07-06T06:03:18Z</time>
      </trkpt>
      <trkpt lat="43.36503" lon="-5.85203">
        <ele>235.7</ele>
        <time>2016-07-06T06:03:28Z</time>
      </trkpt>
      <trkpt lat="43.36503" lon="-5.85218">
        <ele>236</ele>
        <time>2016-07-06T06:03:35Z</time>
      </trkpt>
      <trkpt lat="43.36504" lon="-5.8523">
        <ele>235.8</ele>
        <time>2016-07-06T06:03:42Z</time>
      </trkpt>
      <trkpt lat="43.36497" lon="-5.8524">
        <ele>235.7</ele>
        <time>2016-07-06T06:03:52Z</time>
      </trkpt>
      <trkpt lat="43.3649" lon="-5.8525">
        <ele>235.9</ele>
        <time>2016-07-06T06:03:59Z</time>
      </trkpt>
      <trkpt lat="43.36486" lon="-5.85261">
        <ele>236.1</ele>
        <time>2016-07-06T06:04:13Z</time>
      </trkpt>
      <trkpt lat="43.36494" lon="-5.85269">
        <ele>236.3</ele>
        <time>2016-07-06T06:04:21Z</time>
      </trkpt>
      <trkpt lat="43.36502" lon="-5.85278">
        <ele>236.3</ele>
        <time>2016-07-06T06:04:27Z</time>
      </trkpt>
      <trkpt lat="43.36507" lon="-5.8529">
        <ele>236.3</ele>
        <time>2016-07-06T06:04:33Z</time>
      </trkpt>
      <trkpt lat="43.3651" lon="-5.85304">
        <ele>236.5</ele>
        <time>2016-07-06T06:04:39Z</time>
      </trkpt>
      <trkpt lat="43.36511" lon="-5.85316">
        <ele>236.6</ele>
        <time>2016-07-06T06:04:44Z</time>
      </trkpt>
      <trkpt lat="43.36509" lon="-5.85328">
        <ele>236.7</ele>
        <time>2016-07-06T06:04:51Z</time>
      </trkpt>
      <trkpt lat="43.36507" lon="-5.85341">
        <ele>236.8</ele>
        <time>2016-07-06T06:04:59Z</time>
      </trkpt>
      <trkpt lat="43.36507" lon="-5.85354">
        <ele>236.6</ele>
        <time>2016-07-06T06:05:08Z</time>
      </trkpt>
      <trkpt lat="43.36506" lon="-5.85367">
        <ele>236.9</ele>
        <time>2016-07-06T06:05:18Z</time>
      </trkpt>
      <trkpt lat="43.36505" lon="-5.85379">
        <ele>236.7</ele>
        <time>2016-07-06T06:05:25Z</time>
      </trkpt>
      <trkpt lat="43.36505" lon="-5.85392">
        <ele>236.4</ele>
        <time>2016-07-06T06:05:32Z</time>
      </trkpt>
      <trkpt lat="43.36504" lon="-5.85404">
        <ele>236.2</ele>
        <time>2016-07-06T06:05:40Z</time>
      </trkpt>
      <trkpt lat="43.36503" lon="-5.85418">
        <ele>236.3</ele>
        <time>2016-07-06T06:05:48Z</time>
      </trkpt>
      <trkpt lat="43.365" lon="-5.8543">
        <ele>236.4</ele>
        <time>2016-07-06T06:05:58Z</time>
      </trkpt>
      <trkpt lat="43.36498" lon="-5.85442">
        <ele>236.6</ele>
        <time>2016-07-06T06:06:07Z</time>
      </trkpt>
      <trkpt lat="43.36491" lon="-5.85451">
        <ele>236.7</ele>
        <time>2016-07-06T06:06:15Z</time>
      </trkpt>
      <trkpt lat="43.36489" lon="-5.85463">
        <ele>237</ele>
        <time>2016-07-06T06:06:21Z</time>
      </trkpt>
      <trkpt lat="43.36485" lon="-5.85475">
        <ele>237.3</ele>
        <time>2016-07-06T06:06:27Z</time>
      </trkpt>
      <trkpt lat="43.36484" lon="-5.85488">
        <ele>237.7</ele>
        <time>2016-07-06T06:06:34Z</time>
      </trkpt>
      <trkpt lat="43.36482" lon="-5.85501">
        <ele>237.9</ele>
        <time>2016-07-06T06:06:41Z</time>
      </trkpt>
      <trkpt lat="43.3648" lon="-5.85515">
        <ele>238.4</ele>
        <time>2016-07-06T06:06:47Z</time>
      </trkpt>
      <trkpt lat="43.36479" lon="-5.85527">
        <ele>238.7</ele>
        <time>2016-07-06T06:06:53Z</time>
      </trkpt>
      <trkpt lat="43.3648" lon="-5.85541">
        <ele>238.9</ele>
        <time>2016-07-06T06:07:01Z</time>
      </trkpt>
      <trkpt lat="43.36481" lon="-5.85553">
        <ele>238.9</ele>
        <time>2016-07-06T06:07:15Z</time>
      </trkpt>
      <trkpt lat="43.36484" lon="-5.85566">
        <ele>238.4</ele>
        <time>2016-07-06T06:07:26Z</time>
      </trkpt>
      <trkpt lat="43.36478" lon="-5.85577">
        <ele>237</ele>
        <time>2016-07-06T06:07:55Z</time>
      </trkpt>
      <trkpt lat="43.36482" lon="-5.85589">
        <ele>237.6</ele>
        <time>2016-07-06T06:08:09Z</time>
      </trkpt>
      <trkpt lat="43.36488" lon="-5.85599">
        <ele>237.5</ele>
        <time>2016-07-06T06:08:16Z</time>
      </trkpt>
      <trkpt lat="43.3648" lon="-5.85607">
        <ele>237.3</ele>
        <time>2016-07-06T06:08:23Z</time>
      </trkpt>
      <trkpt lat="43.36475" lon="-5.85617">
        <ele>237.7</ele>
        <time>2016-07-06T06:08:37Z</time>
      </trkpt>
      <trkpt lat="43.36474" lon="-5.85632">
        <ele>238.5</ele>
        <time>2016-07-06T06:08:43Z</time>
      </trkpt>
      <trkpt lat="43.36472" lon="-5.85644">
        <ele>238.9</ele>
        <time>2016-07-06T06:08:48Z</time>
      </trkpt>
      <trkpt lat="43.36466" lon="-5.85654">
        <ele>239</ele>
        <time>2016-07-06T06:08:57Z</time>
      </trkpt>
      <trkpt lat="43.36459" lon="-5.85665">
        <ele>238.9</ele>
        <time>2016-07-06T06:09:06Z</time>
      </trkpt>
      <trkpt lat="43.36454" lon="-5.85675">
        <ele>238.9</ele>
        <time>2016-07-06T06:09:13Z</time>
      </trkpt>
      <trkpt lat="43.36446" lon="-5.85685">
        <ele>239.2</ele>
        <time>2016-07-06T06:09:20Z</time>
      </trkpt>
      <trkpt lat="43.3644" lon="-5.85695">
        <ele>239.5</ele>
        <time>2016-07-06T06:09:26Z</time>
      </trkpt>
      <trkpt lat="43.36434" lon="-5.85705">
        <ele>239.6</ele>
        <time>2016-07-06T06:09:33Z</time>
      </trkpt>
      <trkpt lat="43.36426" lon="-5.85711">
        <ele>239.9</ele>
        <time>2016-07-06T06:09:39Z</time>
      </trkpt>
      <trkpt lat="43.36416" lon="-5.85714">
        <ele>240.2</ele>
        <time>2016-07-06T06:09:46Z</time>
      </trkpt>
      <trkpt lat="43.36409" lon="-5.85723">
        <ele>240.2</ele>
        <time>2016-07-06T06:09:54Z</time>
      </trkpt>
      <trkpt lat="43.364" lon="-5.85728">
        <ele>240.1</ele>
        <time>2016-07-06T06:10:00Z</time>
      </trkpt>
      <trkpt lat="43.36391" lon="-5.85735">
        <ele>240.3</ele>
        <time>2016-07-06T06:10:08Z</time>
      </trkpt>
      <trkpt lat="43.36384" lon="-5.85743">
        <ele>240.4</ele>
        <time>2016-07-06T06:10:13Z</time>
      </trkpt>
      <trkpt lat="43.36376" lon="-5.85751">
        <ele>240.7</ele>
        <time>2016-07-06T06:10:18Z</time>
      </trkpt>
      <trkpt lat="43.36367" lon="-5.85757">
        <ele>241.1</ele>
        <time>2016-07-06T06:10:25Z</time>
      </trkpt>
      <trkpt lat="43.36358" lon="-5.85762">
        <ele>241.5</ele>
        <time>2016-07-06T06:10:32Z</time>
      </trkpt>
      <trkpt lat="43.36353" lon="-5.85772">
        <ele>241.7</ele>
        <time>2016-07-06T06:10:37Z</time>
      </trkpt>
      <trkpt lat="43.36345" lon="-5.85781">
        <ele>242.1</ele>
        <time>2016-07-06T06:10:44Z</time>
      </trkpt>
      <trkpt lat="43.36336" lon="-5.85788">
        <ele>242.6</ele>
        <time>2016-07-06T06:10:52Z</time>
      </trkpt>
      <trkpt lat="43.36328" lon="-5.85797">
        <ele>243</ele>
        <time>2016-07-06T06:11:00Z</time>
      </trkpt>
      <trkpt lat="43.36324" lon="-5.85809">
        <ele>243.3</ele>
        <time>2016-07-06T06:11:08Z</time>
      </trkpt>
      <trkpt lat="43.36316" lon="-5.85816">
        <ele>244.1</ele>
        <time>2016-07-06T06:11:18Z</time>
      </trkpt>
      <trkpt lat="43.36307" lon="-5.85818">
        <ele>244.8</ele>
        <time>2016-07-06T06:11:28Z</time>
      </trkpt>
      <trkpt lat="43.363" lon="-5.85826">
        <ele>245.2</ele>
        <time>2016-07-06T06:11:34Z</time>
      </trkpt>
      <trkpt lat="43.36291" lon="-5.85832">
        <ele>245.7</ele>
        <time>2016-07-06T06:11:42Z</time>
      </trkpt>
      <trkpt lat="43.36282" lon="-5.85834">
        <ele>246.4</ele>
        <time>2016-07-06T06:12:05Z</time>
      </trkpt>
      <trkpt lat="43.36273" lon="-5.85837">
        <ele>246.6</ele>
        <time>2016-07-06T06:12:27Z</time>
      </trkpt>
      <trkpt lat="43.36263" lon="-5.85841">
        <ele>247.2</ele>
        <time>2016-07-06T06:12:59Z</time>
      </trkpt>
      <trkpt lat="43.36255" lon="-5.85847">
        <ele>247.3</ele>
        <time>2016-07-06T06:13:07Z</time>
      </trkpt>
      <trkpt lat="43.36252" lon="-5.85859">
        <ele>247.6</ele>
        <time>2016-07-06T06:13:15Z</time>
      </trkpt>
      <trkpt lat="43.36254" lon="-5.85872">
        <ele>247.9</ele>
        <time>2016-07-06T06:13:25Z</time>
      </trkpt>
      <trkpt lat="43.36262" lon="-5.85878">
        <ele>248.2</ele>
        <time>2016-07-06T06:13:34Z</time>
      </trkpt>
      <trkpt lat="43.36272" lon="-5.8588">
        <ele>248.6</ele>
        <time>2016-07-06T06:13:44Z</time>
      </trkpt>
      <trkpt lat="43.3628" lon="-5.85874">
        <ele>248.4</ele>
        <time>2016-07-06T06:13:56Z</time>
      </trkpt>
      <trkpt lat="43.3629" lon="-5.85874">
        <ele>248.1</ele>
        <time>2016-07-06T06:14:04Z</time>
      </trkpt>
      <trkpt lat="43.363" lon="-5.85879">
        <ele>248.1</ele>
        <time>2016-07-06T06:14:11Z</time>
      </trkpt>
      <trkpt lat="43.36309" lon="-5.85885">
        <ele>248.1</ele>
        <time>2016-07-06T06:14:18Z</time>
      </trkpt>
      <trkpt lat="43.36317" lon="-5.85891">
        <ele>248</ele>
        <time>2016-07-06T06:14:24Z</time>
      </trkpt>
      <trkpt lat="43.36326" lon="-5.85897">
        <ele>248.2</ele>
        <time>2016-07-06T06:14:31Z</time>
      </trkpt>
      <trkpt lat="43.36334" lon="-5.85904">
        <ele>248.2</ele>
        <time>2016-07-06T06:14:36Z</time>
      </trkpt>
      <trkpt lat="43.36342" lon="-5.85913">
        <ele>248.3</ele>
        <time>2016-07-06T06:14:42Z</time>
      </trkpt>
      <trkpt lat="43.36347" lon="-5.85923">
        <ele>248.5</ele>
        <time>2016-07-06T06:14:48Z</time>
      </trkpt>
      <trkpt lat="43.36352" lon="-5.85934">
        <ele>249.1</ele>
        <time>2016-07-06T06:14:55Z</time>
      </trkpt>
      <trkpt lat="43.36356" lon="-5.85946">
        <ele>249.2</ele>
        <time>2016-07-06T06:15:02Z</time>
      </trkpt>
      <trkpt lat="43.36365" lon="-5.85953">
        <ele>249.2</ele>
        <time>2016-07-06T06:15:07Z</time>
      </trkpt>
      <trkpt lat="43.36372" lon="-5.85963">
        <ele>249.3</ele>
        <time>2016-07-06T06:15:13Z</time>
      </trkpt>
      <trkpt lat="43.36369" lon="-5.85977">
        <ele>249.4</ele>
        <time>2016-07-06T06:15:21Z</time>
      </trkpt>
      <trkpt lat="43.36363" lon="-5.85989">
        <ele>249.6</ele>
        <time>2016-07-06T06:15:26Z</time>
      </trkpt>
      <trkpt lat="43.36362" lon="-5.86003">
        <ele>249.9</ele>
        <time>2016-07-06T06:15:33Z</time>
      </trkpt>
      <trkpt lat="43.36363" lon="-5.86017">
        <ele>250</ele>
        <time>2016-07-06T06:15:40Z</time>
      </trkpt>
      <trkpt lat="43.36359" lon="-5.86033">
        <ele>250</ele>
        <time>2016-07-06T06:15:47Z</time>
      </trkpt>
      <trkpt lat="43.36359" lon="-5.86046">
        <ele>249.5</ele>
        <time>2016-07-06T06:15:57Z</time>
      </trkpt>
      <trkpt lat="43.36356" lon="-5.86058">
        <ele>249.6</ele>
        <time>2016-07-06T06:16:07Z</time>
      </trkpt>
      <trkpt lat="43.36355" lon="-5.86071">
        <ele>249.6</ele>
        <time>2016-07-06T06:16:16Z</time>
      </trkpt>
      <trkpt lat="43.36358" lon="-5.86084">
        <ele>250.1</ele>
        <time>2016-07-06T06:16:24Z</time>
      </trkpt>
      <trkpt lat="43.36365" lon="-5.86095">
        <ele>250.3</ele>
        <time>2016-07-06T06:16:32Z</time>
      </trkpt>
      <trkpt lat="43.36368" lon="-5.86108">
        <ele>250.5</ele>
        <time>2016-07-06T06:16:40Z</time>
      </trkpt>
      <trkpt lat="43.36369" lon="-5.86121">
        <ele>250.8</ele>
        <time>2016-07-06T06:16:47Z</time>
      </trkpt>
      <trkpt lat="43.36374" lon="-5.86133">
        <ele>250.5</ele>
        <time>2016-07-06T06:16:53Z</time>
      </trkpt>
      <trkpt lat="43.36373" lon="-5.86147">
        <ele>250.3</ele>
        <time>2016-07-06T06:17:01Z</time>
      </trkpt>
      <trkpt lat="43.36367" lon="-5.86158">
        <ele>250.3</ele>
        <time>2016-07-06T06:17:09Z</time>
      </trkpt>
      <trkpt lat="43.36364" lon="-5.86169">
        <ele>250.4</ele>
        <time>2016-07-06T06:17:16Z</time>
      </trkpt>
      <trkpt lat="43.36366" lon="-5.86182">
        <ele>250.7</ele>
        <time>2016-07-06T06:17:23Z</time>
      </trkpt>
      <trkpt lat="43.36369" lon="-5.86194">
        <ele>251</ele>
        <time>2016-07-06T06:17:31Z</time>
      </trkpt>
      <trkpt lat="43.36369" lon="-5.86207">
        <ele>251.1</ele>
        <time>2016-07-06T06:17:38Z</time>
      </trkpt>
      <trkpt lat="43.36375" lon="-5.86218">
        <ele>251.3</ele>
        <time>2016-07-06T06:17:45Z</time>
      </trkpt>
      <trkpt lat="43.36379" lon="-5.86231">
        <ele>251.4</ele>
        <time>2016-07-06T06:17:52Z</time>
      </trkpt>
      <trkpt lat="43.36381" lon="-5.86244">
        <ele>251.5</ele>
        <time>2016-07-06T06:18:01Z</time>
      </trkpt>
      <trkpt lat="43.36382" lon="-5.86257">
        <ele>251.5</ele>
        <time>2016-07-06T06:18:08Z</time>
      </trkpt>
      <trkpt lat="43.36385" lon="-5.86269">
        <ele>251.6</ele>
        <time>2016-07-06T06:18:15Z</time>
      </trkpt>
      <trkpt lat="43.36394" lon="-5.86276">
        <ele>251.5</ele>
        <time>2016-07-06T06:18:20Z</time>
      </trkpt>
      <trkpt lat="43.36394" lon="-5.8629">
        <ele>251.2</ele>
        <time>2016-07-06T06:18:28Z</time>
      </trkpt>
      <trkpt lat="43.36398" lon="-5.86302">
        <ele>251.1</ele>
        <time>2016-07-06T06:18:35Z</time>
      </trkpt>
      <trkpt lat="43.36406" lon="-5.86308">
        <ele>251.1</ele>
        <time>2016-07-06T06:18:41Z</time>
      </trkpt>
      <trkpt lat="43.36413" lon="-5.86317">
        <ele>250.9</ele>
        <time>2016-07-06T06:18:48Z</time>
      </trkpt>
      <trkpt lat="43.36417" lon="-5.86329">
        <ele>250.6</ele>
        <time>2016-07-06T06:18:54Z</time>
      </trkpt>
      <trkpt lat="43.36425" lon="-5.86338">
        <ele>250.4</ele>
        <time>2016-07-06T06:19:00Z</time>
      </trkpt>
      <trkpt lat="43.36431" lon="-5.86348">
        <ele>250.4</ele>
        <time>2016-07-06T06:19:05Z</time>
      </trkpt>
      <trkpt lat="43.36439" lon="-5.86356">
        <ele>250.3</ele>
        <time>2016-07-06T06:19:11Z</time>
      </trkpt>
      <trkpt lat="43.36444" lon="-5.86367">
        <ele>250.1</ele>
        <time>2016-07-06T06:19:17Z</time>
      </trkpt>
      <trkpt lat="43.36445" lon="-5.86381">
        <ele>250.1</ele>
        <time>2016-07-06T06:19:24Z</time>
      </trkpt>
      <trkpt lat="43.36452" lon="-5.8639">
        <ele>250</ele>
        <time>2016-07-06T06:19:32Z</time>
      </trkpt>
      <trkpt lat="43.36452" lon="-5.86405">
        <ele>249.8</ele>
        <time>2016-07-06T06:19:38Z</time>
      </trkpt>
      <trkpt lat="43.36452" lon="-5.86419">
        <ele>249.6</ele>
        <time>2016-07-06T06:19:44Z</time>
      </trkpt>
      <trkpt lat="43.36457" lon="-5.86431">
        <ele>249.5</ele>
        <time>2016-07-06T06:19:53Z</time>
      </trkpt>
      <trkpt lat="43.36458" lon="-5.86445">
        <ele>249.2</ele>
        <time>2016-07-06T06:20:14Z</time>
      </trkpt>
      <trkpt lat="43.36463" lon="-5.86456">
        <ele>249.1</ele>
        <time>2016-07-06T06:20:20Z</time>
      </trkpt>
      <trkpt lat="43.36468" lon="-5.86467">
        <ele>249</ele>
        <time>2016-07-06T06:20:26Z</time>
      </trkpt>
      <trkpt lat="43.36473" lon="-5.86479">
        <ele>249</ele>
        <time>2016-07-06T06:20:32Z</time>
      </trkpt>
      <trkpt lat="43.36473" lon="-5.86492">
        <ele>248.8</ele>
        <time>2016-07-06T06:20:39Z</time>
      </trkpt>
      <trkpt lat="43.36476" lon="-5.86504">
        <ele>248.6</ele>
        <time>2016-07-06T06:20:45Z</time>
      </trkpt>
      <trkpt lat="43.36481" lon="-5.86514">
        <ele>248.5</ele>
        <time>2016-07-06T06:20:52Z</time>
      </trkpt>
      <trkpt lat="43.36482" lon="-5.86528">
        <ele>248.5</ele>
        <time>2016-07-06T06:20:59Z</time>
      </trkpt>
      <trkpt lat="43.36489" lon="-5.86538">
        <ele>248.6</ele>
        <time>2016-07-06T06:21:05Z</time>
      </trkpt>
      <trkpt lat="43.36495" lon="-5.8655">
        <ele>248.4</ele>
        <time>2016-07-06T06:21:13Z</time>
      </trkpt>
      <trkpt lat="43.36504" lon="-5.86557">
        <ele>248.3</ele>
        <time>2016-07-06T06:21:18Z</time>
      </trkpt>
      <trkpt lat="43.36513" lon="-5.86562">
        <ele>248.3</ele>
        <time>2016-07-06T06:21:22Z</time>
      </trkpt>
      <trkpt lat="43.36522" lon="-5.86567">
        <ele>248.6</ele>
        <time>2016-07-06T06:21:29Z</time>
      </trkpt>
      <trkpt lat="43.36525" lon="-5.86579">
        <ele>248.4</ele>
        <time>2016-07-06T06:21:36Z</time>
      </trkpt>
      <trkpt lat="43.36532" lon="-5.86587">
        <ele>248.3</ele>
        <time>2016-07-06T06:21:42Z</time>
      </trkpt>
      <trkpt lat="43.36539" lon="-5.86596">
        <ele>248.2</ele>
        <time>2016-07-06T06:21:48Z</time>
      </trkpt>
      <trkpt lat="43.36545" lon="-5.86605">
        <ele>248.2</ele>
        <time>2016-07-06T06:21:54Z</time>
      </trkpt>
      <trkpt lat="43.36543" lon="-5.86618">
        <ele>248.1</ele>
        <time>2016-07-06T06:22:00Z</time>
      </trkpt>
      <trkpt lat="43.36546" lon="-5.8663">
        <ele>247.8</ele>
        <time>2016-07-06T06:22:08Z</time>
      </trkpt>
      <trkpt lat="43.36548" lon="-5.86643">
        <ele>247.7</ele>
        <time>2016-07-06T06:22:15Z</time>
      </trkpt>
      <trkpt lat="43.36548" lon="-5.86655">
        <ele>247.5</ele>
        <time>2016-07-06T06:22:20Z</time>
      </trkpt>
      <trkpt lat="43.36549" lon="-5.86669">
        <ele>247</ele>
        <time>2016-07-06T06:22:29Z</time>
      </trkpt>
      <trkpt lat="43.36553" lon="-5.86682">
        <ele>246.1</ele>
        <time>2016-07-06T06:22:36Z</time>
      </trkpt>
      <trkpt lat="43.36555" lon="-5.86694">
        <ele>246.5</ele>
        <time>2016-07-06T06:22:44Z</time>
      </trkpt>
      <trkpt lat="43.36558" lon="-5.86708">
        <ele>246.7</ele>
        <time>2016-07-06T06:22:51Z</time>
      </trkpt>
      <trkpt lat="43.36561" lon="-5.86721">
        <ele>246.6</ele>
        <time>2016-07-06T06:22:58Z</time>
      </trkpt>
      <trkpt lat="43.36565" lon="-5.86733">
        <ele>246.5</ele>
        <time>2016-07-06T06:23:07Z</time>
      </trkpt>
      <trkpt lat="43.36568" lon="-5.86745">
        <ele>246.3</ele>
        <time>2016-07-06T06:23:15Z</time>
      </trkpt>
      <trkpt lat="43.36563" lon="-5.86756">
        <ele>245.2</ele>
        <time>2016-07-06T06:23:31Z</time>
      </trkpt>
      <trkpt lat="43.36557" lon="-5.86766">
        <ele>245.1</ele>
        <time>2016-07-06T06:23:40Z</time>
      </trkpt>
      <trkpt lat="43.36559" lon="-5.86779">
        <ele>244.5</ele>
        <time>2016-07-06T06:23:49Z</time>
      </trkpt>
      <trkpt lat="43.36559" lon="-5.86794">
        <ele>244.2</ele>
        <time>2016-07-06T06:23:56Z</time>
      </trkpt>
      <trkpt lat="43.36558" lon="-5.86808">
        <ele>243.9</ele>
        <time>2016-07-06T06:24:05Z</time>
      </trkpt>
      <trkpt lat="43.36556" lon="-5.8682">
        <ele>243.4</ele>
        <time>2016-07-06T06:24:13Z</time>
      </trkpt>
      <trkpt lat="43.36552" lon="-5.86832">
        <ele>242.8</ele>
        <time>2016-07-06T06:24:21Z</time>
      </trkpt>
      <trkpt lat="43.36554" lon="-5.86846">
        <ele>241.9</ele>
        <time>2016-07-06T06:24:29Z</time>
      </trkpt>
      <trkpt lat="43.36552" lon="-5.8686">
        <ele>241.4</ele>
        <time>2016-07-06T06:24:36Z</time>
      </trkpt>
      <trkpt lat="43.36547" lon="-5.8687">
        <ele>240.7</ele>
        <time>2016-07-06T06:24:43Z</time>
      </trkpt>
      <trkpt lat="43.36547" lon="-5.86885">
        <ele>240.1</ele>
        <time>2016-07-06T06:24:50Z</time>
      </trkpt>
      <trkpt lat="43.36552" lon="-5.86897">
        <ele>239.6</ele>
        <time>2016-07-06T06:24:55Z</time>
      </trkpt>
      <trkpt lat="43.36556" lon="-5.8691">
        <ele>238.8</ele>
        <time>2016-07-06T06:25:01Z</time>
      </trkpt>
      <trkpt lat="43.36563" lon="-5.86921">
        <ele>238.3</ele>
        <time>2016-07-06T06:25:07Z</time>
      </trkpt>
      <trkpt lat="43.36569" lon="-5.8693">
        <ele>238</ele>
        <time>2016-07-06T06:25:12Z</time>
      </trkpt>
      <trkpt lat="43.36576" lon="-5.8694">
        <ele>237.7</ele>
        <time>2016-07-06T06:25:17Z</time>
      </trkpt>
      <trkpt lat="43.36583" lon="-5.86949">
        <ele>237.3</ele>
        <time>2016-07-06T06:25:24Z</time>
      </trkpt>
      <trkpt lat="43.36585" lon="-5.86962">
        <ele>237.1</ele>
        <time>2016-07-06T06:25:32Z</time>
      </trkpt>
      <trkpt lat="43.36588" lon="-5.86974">
        <ele>237.7</ele>
        <time>2016-07-06T06:25:42Z</time>
      </trkpt>
      <trkpt lat="43.36589" lon="-5.86987">
        <ele>240.5</ele>
        <time>2016-07-06T06:25:57Z</time>
      </trkpt>
      <trkpt lat="43.36597" lon="-5.86994">
        <ele>242.1</ele>
        <time>2016-07-06T06:26:10Z</time>
      </trkpt>
      <trkpt lat="43.36605" lon="-5.87">
        <ele>242.5</ele>
        <time>2016-07-06T06:26:22Z</time>
      </trkpt>
      <trkpt lat="43.36612" lon="-5.87011">
        <ele>242.5</ele>
        <time>2016-07-06T06:26:33Z</time>
      </trkpt>
      <trkpt lat="43.3662" lon="-5.87018">
        <ele>242.5</ele>
        <time>2016-07-06T06:26:41Z</time>
      </trkpt>
      <trkpt lat="43.36629" lon="-5.87016">
        <ele>243</ele>
        <time>2016-07-06T06:26:50Z</time>
      </trkpt>
      <trkpt lat="43.36636" lon="-5.87007">
        <ele>243.5</ele>
        <time>2016-07-06T06:26:59Z</time>
      </trkpt>
      <trkpt lat="43.3664" lon="-5.86995">
        <ele>244</ele>
        <time>2016-07-06T06:27:07Z</time>
      </trkpt>
      <trkpt lat="43.36645" lon="-5.86983">
        <ele>244.5</ele>
        <time>2016-07-06T06:27:16Z</time>
      </trkpt>
      <trkpt lat="43.36651" lon="-5.86972">
        <ele>244.7</ele>
        <time>2016-07-06T06:27:24Z</time>
      </trkpt>
      <trkpt lat="43.36657" lon="-5.86961">
        <ele>245</ele>
        <time>2016-07-06T06:27:31Z</time>
      </trkpt>
      <trkpt lat="43.36662" lon="-5.8695">
        <ele>245.1</ele>
        <time>2016-07-06T06:27:37Z</time>
      </trkpt>
      <trkpt lat="43.36667" lon="-5.8694">
        <ele>245.3</ele>
        <time>2016-07-06T06:27:43Z</time>
      </trkpt>
      <trkpt lat="43.36675" lon="-5.86932">
        <ele>245.9</ele>
        <time>2016-07-06T06:27:50Z</time>
      </trkpt>
      <trkpt lat="43.36684" lon="-5.86934">
        <ele>246</ele>
        <time>2016-07-06T06:27:57Z</time>
      </trkpt>
      <trkpt lat="43.36694" lon="-5.86935">
        <ele>246.2</ele>
        <time>2016-07-06T06:28:05Z</time>
      </trkpt>
      <trkpt lat="43.36703" lon="-5.86942">
        <ele>246.5</ele>
        <time>2016-07-06T06:28:12Z</time>
      </trkpt>
      <trkpt lat="43.36711" lon="-5.86948">
        <ele>247.1</ele>
        <time>2016-07-06T06:28:18Z</time>
      </trkpt>
      <trkpt lat="43.36717" lon="-5.86958">
        <ele>247.3</ele>
        <time>2016-07-06T06:28:24Z</time>
      </trkpt>
      <trkpt lat="43.36723" lon="-5.86968">
        <ele>247.6</ele>
        <time>2016-07-06T06:28:30Z</time>
      </trkpt>
      <trkpt lat="43.36727" lon="-5.86979">
        <ele>247.8</ele>
        <time>2016-07-06T06:28:39Z</time>
      </trkpt>
      <trkpt lat="43.36736" lon="-5.86986">
        <ele>248.3</ele>
        <time>2016-07-06T06:28:51Z</time>
      </trkpt>
      <trkpt lat="43.36745" lon="-5.86992">
        <ele>249.1</ele>
        <time>2016-07-06T06:29:00Z</time>
      </trkpt>
      <trkpt lat="43.36752" lon="-5.86999">
        <ele>250.1</ele>
        <time>2016-07-06T06:29:12Z</time>
      </trkpt>
      <trkpt lat="43.36757" lon="-5.8701">
        <ele>250.9</ele>
        <time>2016-07-06T06:29:27Z</time>
      </trkpt>
      <trkpt lat="43.36766" lon="-5.87014">
        <ele>251.2</ele>
        <time>2016-07-06T06:29:37Z</time>
      </trkpt>
      <trkpt lat="43.36775" lon="-5.87019">
        <ele>251.9</ele>
        <time>2016-07-06T06:29:46Z</time>
      </trkpt>
      <trkpt lat="43.36783" lon="-5.87027">
        <ele>252.3</ele>
        <time>2016-07-06T06:29:53Z</time>
      </trkpt>
      <trkpt lat="43.36792" lon="-5.87035">
        <ele>252.6</ele>
        <time>2016-07-06T06:29:59Z</time>
      </trkpt>
      <trkpt lat="43.368" lon="-5.87045">
        <ele>252.8</ele>
        <time>2016-07-06T06:30:05Z</time>
      </trkpt>
      <trkpt lat="43.36806" lon="-5.87057">
        <ele>253</ele>
        <time>2016-07-06T06:30:11Z</time>
      </trkpt>
      <trkpt lat="43.36813" lon="-5.87067">
        <ele>253</ele>
        <time>2016-07-06T06:30:16Z</time>
      </trkpt>
      <trkpt lat="43.36819" lon="-5.87077">
        <ele>253.1</ele>
        <time>2016-07-06T06:30:21Z</time>
      </trkpt>
      <trkpt lat="43.36824" lon="-5.87089">
        <ele>253.2</ele>
        <time>2016-07-06T06:30:27Z</time>
      </trkpt>
      <trkpt lat="43.36829" lon="-5.87101">
        <ele>253.2</ele>
        <time>2016-07-06T06:30:33Z</time>
      </trkpt>
      <trkpt lat="43.36832" lon="-5.87114">
        <ele>253.3</ele>
        <time>2016-07-06T06:30:40Z</time>
      </trkpt>
      <trkpt lat="43.36827" lon="-5.87126">
        <ele>253.5</ele>
        <time>2016-07-06T06:30:47Z</time>
      </trkpt>
      <trkpt lat="43.36825" lon="-5.87139">
        <ele>252.7</ele>
        <time>2016-07-06T06:30:53Z</time>
      </trkpt>
      <trkpt lat="43.36827" lon="-5.87152">
        <ele>252.1</ele>
        <time>2016-07-06T06:30:59Z</time>
      </trkpt>
      <trkpt lat="43.36826" lon="-5.87165">
        <ele>251.7</ele>
        <time>2016-07-06T06:31:06Z</time>
      </trkpt>
      <trkpt lat="43.36824" lon="-5.87179">
        <ele>251.6</ele>
        <time>2016-07-06T06:31:13Z</time>
      </trkpt>
      <trkpt lat="43.36816" lon="-5.87189">
        <ele>251.2</ele>
        <time>2016-07-06T06:31:19Z</time>
      </trkpt>
      <trkpt lat="43.36806" lon="-5.87195">
        <ele>251.1</ele>
        <time>2016-07-06T06:31:25Z</time>
      </trkpt>
      <trkpt lat="43.36797" lon="-5.87199">
        <ele>251.2</ele>
        <time>2016-07-06T06:31:30Z</time>
      </trkpt>
      <trkpt lat="43.36791" lon="-5.87209">
        <ele>250.9</ele>
        <time>2016-07-06T06:31:40Z</time>
      </trkpt>
      <trkpt lat="43.36792" lon="-5.87223">
        <ele>250.3</ele>
        <time>2016-07-06T06:31:48Z</time>
      </trkpt>
      <trkpt lat="43.36792" lon="-5.87235">
        <ele>250.2</ele>
        <time>2016-07-06T06:31:54Z</time>
      </trkpt>
      <trkpt lat="43.36793" lon="-5.87248">
        <ele>250.2</ele>
        <time>2016-07-06T06:32:02Z</time>
      </trkpt>
      <trkpt lat="43.36794" lon="-5.87261">
        <ele>250.2</ele>
        <time>2016-07-06T06:32:09Z</time>
      </trkpt>
      <trkpt lat="43.36792" lon="-5.87274">
        <ele>250</ele>
        <time>2016-07-06T06:32:15Z</time>
      </trkpt>
      <trkpt lat="43.36791" lon="-5.87289">
        <ele>249.6</ele>
        <time>2016-07-06T06:32:21Z</time>
      </trkpt>
      <trkpt lat="43.36792" lon="-5.87302">
        <ele>249.9</ele>
        <time>2016-07-06T06:32:28Z</time>
      </trkpt>
      <trkpt lat="43.36799" lon="-5.87311">
        <ele>250</ele>
        <time>2016-07-06T06:32:33Z</time>
      </trkpt>
      <trkpt lat="43.36801" lon="-5.87324">
        <ele>249.3</ele>
        <time>2016-07-06T06:32:42Z</time>
      </trkpt>
      <trkpt lat="43.36803" lon="-5.87337">
        <ele>248.8</ele>
        <time>2016-07-06T06:32:50Z</time>
      </trkpt>
      <trkpt lat="43.36804" lon="-5.8735">
        <ele>248.1</ele>
        <time>2016-07-06T06:32:58Z</time>
      </trkpt>
      <trkpt lat="43.36803" lon="-5.87364">
        <ele>247.5</ele>
        <time>2016-07-06T06:33:06Z</time>
      </trkpt>
      <trkpt lat="43.36801" lon="-5.87377">
        <ele>247.2</ele>
        <time>2016-07-06T06:33:13Z</time>
      </trkpt>
      <trkpt lat="43.36793" lon="-5.87387">
        <ele>246.8</ele>
        <time>2016-07-06T06:33:18Z</time>
      </trkpt>
      <trkpt lat="43.36785" lon="-5.87396">
        <ele>246.3</ele>
        <time>2016-07-06T06:33:26Z</time>
      </trkpt>
      <trkpt lat="43.36777" lon="-5.87401">
        <ele>246.3</ele>
        <time>2016-07-06T06:33:31Z</time>
      </trkpt>
      <trkpt lat="43.36768" lon="-5.87407">
        <ele>246.2</ele>
        <time>2016-07-06T06:33:37Z</time>
      </trkpt>
      <trkpt lat="43.3676" lon="-5.87414">
        <ele>246.1</ele>
        <time>2016-07-06T06:33:43Z</time>
      </trkpt>
      <trkpt lat="43.36757" lon="-5.87427">
        <ele>245.6</ele>
        <time>2016-07-06T06:33:54Z</time>
      </trkpt>
      <trkpt lat="43.36764" lon="-5.87438">
        <ele>245.6</ele>
        <time>2016-07-06T06:34:03Z</time>
      </trkpt>
      <trkpt lat="43.36768" lon="-5.87451">
        <ele>245.8</ele>
        <time>2016-07-06T06:34:10Z</time>
      </trkpt>
      <trkpt lat="43.36768" lon="-5.87465">
        <ele>245.9</ele>
        <time>2016-07-06T06:34:17Z</time>
      </trkpt>
      <trkpt lat="43.36769" lon="-5.87479">
        <ele>246</ele>
        <time>2016-07-06T06:34:24Z</time>
      </trkpt>
      <trkpt lat="43.36768" lon="-5.87491">
        <ele>245.5</ele>
        <time>2016-07-06T06:34:32Z</time>
      </trkpt>
      <trkpt lat="43.3677" lon="-5.87504">
        <ele>245.5</ele>
        <time>2016-07-06T06:35:05Z</time>
      </trkpt>
      <trkpt lat="43.36779" lon="-5.87504">
        <ele>245.2</ele>
        <time>2016-07-06T06:35:13Z</time>
      </trkpt>
      <trkpt lat="43.36789" lon="-5.87498">
        <ele>245.9</ele>
        <time>2016-07-06T06:35:22Z</time>
      </trkpt>
      <trkpt lat="43.36797" lon="-5.87492">
        <ele>246.6</ele>
        <time>2016-07-06T06:35:29Z</time>
      </trkpt>
      <trkpt lat="43.36806" lon="-5.87489">
        <ele>247.1</ele>
        <time>2016-07-06T06:35:41Z</time>
      </trkpt>
      <trkpt lat="43.36816" lon="-5.8749">
        <ele>247.3</ele>
        <time>2016-07-06T06:35:49Z</time>
      </trkpt>
      <trkpt lat="43.36826" lon="-5.87492">
        <ele>248</ele>
        <time>2016-07-06T06:35:56Z</time>
      </trkpt>
      <trkpt lat="43.36835" lon="-5.87491">
        <ele>249.6</ele>
        <time>2016-07-06T06:36:20Z</time>
      </trkpt>
      <trkpt lat="43.36844" lon="-5.87488">
        <ele>252.7</ele>
        <time>2016-07-06T06:39:02Z</time>
      </trkpt>
      <trkpt lat="43.36851" lon="-5.87498">
        <ele>252.7</ele>
        <time>2016-07-06T06:39:11Z</time>
      </trkpt>
      <trkpt lat="43.3685" lon="-5.87511">
        <ele>252.5</ele>
        <time>2016-07-06T06:39:23Z</time>
      </trkpt>
      <trkpt lat="43.36847" lon="-5.87523">
        <ele>252.4</ele>
        <time>2016-07-06T06:39:31Z</time>
      </trkpt>
      <trkpt lat="43.36847" lon="-5.87536">
        <ele>251.9</ele>
        <time>2016-07-06T06:39:39Z</time>
      </trkpt>
      <trkpt lat="43.36852" lon="-5.87548">
        <ele>251.9</ele>
        <time>2016-07-06T06:39:46Z</time>
      </trkpt>
      <trkpt lat="43.36857" lon="-5.87559">
        <ele>251.5</ele>
        <time>2016-07-06T06:39:54Z</time>
      </trkpt>
      <trkpt lat="43.36859" lon="-5.87571">
        <ele>251.5</ele>
        <time>2016-07-06T06:40:01Z</time>
      </trkpt>
      <trkpt lat="43.36861" lon="-5.87584">
        <ele>250.9</ele>
        <time>2016-07-06T06:40:08Z</time>
      </trkpt>
      <trkpt lat="43.36862" lon="-5.87597">
        <ele>250.6</ele>
        <time>2016-07-06T06:40:16Z</time>
      </trkpt>
      <trkpt lat="43.36865" lon="-5.87608">
        <ele>250.1</ele>
        <time>2016-07-06T06:40:25Z</time>
      </trkpt>
      <trkpt lat="43.36869" lon="-5.87622">
        <ele>250</ele>
        <time>2016-07-06T06:40:34Z</time>
      </trkpt>
      <trkpt lat="43.36871" lon="-5.87634">
        <ele>249.9</ele>
        <time>2016-07-06T06:40:41Z</time>
      </trkpt>
      <trkpt lat="43.36874" lon="-5.87647">
        <ele>249.3</ele>
        <time>2016-07-06T06:40:49Z</time>
      </trkpt>
      <trkpt lat="43.36877" lon="-5.87659">
        <ele>249</ele>
        <time>2016-07-06T06:40:56Z</time>
      </trkpt>
      <trkpt lat="43.36882" lon="-5.87672">
        <ele>248.6</ele>
        <time>2016-07-06T06:41:03Z</time>
      </trkpt>
      <trkpt lat="43.36887" lon="-5.87684">
        <ele>248.9</ele>
        <time>2016-07-06T06:41:09Z</time>
      </trkpt>
      <trkpt lat="43.3689" lon="-5.87697">
        <ele>249.7</ele>
        <time>2016-07-06T06:41:16Z</time>
      </trkpt>
      <trkpt lat="43.36896" lon="-5.87708">
        <ele>248.5</ele>
        <time>2016-07-06T06:41:24Z</time>
      </trkpt>
      <trkpt lat="43.36901" lon="-5.87718">
        <ele>247.9</ele>
        <time>2016-07-06T06:41:33Z</time>
      </trkpt>
      <trkpt lat="43.36903" lon="-5.87732">
        <ele>247.8</ele>
        <time>2016-07-06T06:41:42Z</time>
      </trkpt>
      <trkpt lat="43.36901" lon="-5.87745">
        <ele>247.8</ele>
        <time>2016-07-06T06:41:52Z</time>
      </trkpt>
      <trkpt lat="43.36899" lon="-5.87759">
        <ele>247.8</ele>
        <time>2016-07-06T06:42:02Z</time>
      </trkpt>
      <trkpt lat="43.36896" lon="-5.87772">
        <ele>247.6</ele>
        <time>2016-07-06T06:42:09Z</time>
      </trkpt>
      <trkpt lat="43.36896" lon="-5.87786">
        <ele>247.4</ele>
        <time>2016-07-06T06:42:16Z</time>
      </trkpt>
      <trkpt lat="43.36893" lon="-5.878">
        <ele>247.2</ele>
        <time>2016-07-06T06:42:23Z</time>
      </trkpt>
      <trkpt lat="43.3689" lon="-5.87813">
        <ele>247</ele>
        <time>2016-07-06T06:42:30Z</time>
      </trkpt>
      <trkpt lat="43.36888" lon="-5.87826">
        <ele>246.8</ele>
        <time>2016-07-06T06:42:36Z</time>
      </trkpt>
      <trkpt lat="43.36887" lon="-5.8784">
        <ele>246.4</ele>
        <time>2016-07-06T06:42:43Z</time>
      </trkpt>
      <trkpt lat="43.36888" lon="-5.87852">
        <ele>246.2</ele>
        <time>2016-07-06T06:42:50Z</time>
      </trkpt>
      <trkpt lat="43.3689" lon="-5.87866">
        <ele>246.2</ele>
        <time>2016-07-06T06:42:57Z</time>
      </trkpt>
      <trkpt lat="43.36891" lon="-5.87879">
        <ele>246.3</ele>
        <time>2016-07-06T06:43:04Z</time>
      </trkpt>
      <trkpt lat="43.36891" lon="-5.87891">
        <ele>246.3</ele>
        <time>2016-07-06T06:43:10Z</time>
      </trkpt>
      <trkpt lat="43.36887" lon="-5.87903">
        <ele>246.3</ele>
        <time>2016-07-06T06:43:18Z</time>
      </trkpt>
      <trkpt lat="43.36884" lon="-5.87914">
        <ele>246.3</ele>
        <time>2016-07-06T06:43:26Z</time>
      </trkpt>
      <trkpt lat="43.3688" lon="-5.87926">
        <ele>246.1</ele>
        <time>2016-07-06T06:43:34Z</time>
      </trkpt>
      <trkpt lat="43.36877" lon="-5.87938">
        <ele>245.8</ele>
        <time>2016-07-06T06:43:41Z</time>
      </trkpt>
      <trkpt lat="43.36875" lon="-5.87951">
        <ele>245.7</ele>
        <time>2016-07-06T06:43:48Z</time>
      </trkpt>
      <trkpt lat="43.36874" lon="-5.87964">
        <ele>245.6</ele>
        <time>2016-07-06T06:43:54Z</time>
      </trkpt>
      <trkpt lat="43.36873" lon="-5.87976">
        <ele>245.6</ele>
        <time>2016-07-06T06:44:01Z</time>
      </trkpt>
      <trkpt lat="43.36871" lon="-5.8799">
        <ele>245.9</ele>
        <time>2016-07-06T06:44:08Z</time>
      </trkpt>
      <trkpt lat="43.36869" lon="-5.88003">
        <ele>246.1</ele>
        <time>2016-07-06T06:44:14Z</time>
      </trkpt>
      <trkpt lat="43.36868" lon="-5.88017">
        <ele>246.1</ele>
        <time>2016-07-06T06:44:21Z</time>
      </trkpt>
      <trkpt lat="43.36866" lon="-5.8803">
        <ele>246.1</ele>
        <time>2016-07-06T06:44:27Z</time>
      </trkpt>
      <trkpt lat="43.36864" lon="-5.88043">
        <ele>246</ele>
        <time>2016-07-06T06:44:33Z</time>
      </trkpt>
      <trkpt lat="43.36863" lon="-5.88056">
        <ele>245.8</ele>
        <time>2016-07-06T06:44:40Z</time>
      </trkpt>
      <trkpt lat="43.36862" lon="-5.88068">
        <ele>246.3</ele>
        <time>2016-07-06T06:44:47Z</time>
      </trkpt>
      <trkpt lat="43.3686" lon="-5.8808">
        <ele>246.6</ele>
        <time>2016-07-06T06:44:54Z</time>
      </trkpt>
      <trkpt lat="43.36859" lon="-5.88093">
        <ele>246.7</ele>
        <time>2016-07-06T06:45:01Z</time>
      </trkpt>
      <trkpt lat="43.36859" lon="-5.88105">
        <ele>246.8</ele>
        <time>2016-07-06T06:45:09Z</time>
      </trkpt>
      <trkpt lat="43.36857" lon="-5.88118">
        <ele>246.8</ele>
        <time>2016-07-06T06:45:16Z</time>
      </trkpt>
      <trkpt lat="43.36866" lon="-5.88124">
        <ele>247.2</ele>
        <time>2016-07-06T06:45:26Z</time>
      </trkpt>
      <trkpt lat="43.36876" lon="-5.88125">
        <ele>247.5</ele>
        <time>2016-07-06T06:45:36Z</time>
      </trkpt>
      <trkpt lat="43.36886" lon="-5.88125">
        <ele>247.9</ele>
        <time>2016-07-06T06:45:43Z</time>
      </trkpt>
      <trkpt lat="43.36895" lon="-5.88122">
        <ele>248.4</ele>
        <time>2016-07-06T06:45:52Z</time>
      </trkpt>
      <trkpt lat="43.36905" lon="-5.88118">
        <ele>249.5</ele>
        <time>2016-07-06T06:46:01Z</time>
      </trkpt>
      <trkpt lat="43.36914" lon="-5.88113">
        <ele>250.1</ele>
        <time>2016-07-06T06:46:09Z</time>
      </trkpt>
      <trkpt lat="43.36922" lon="-5.88107">
        <ele>250.5</ele>
        <time>2016-07-06T06:46:17Z</time>
      </trkpt>
      <trkpt lat="43.36931" lon="-5.88102">
        <ele>250.7</ele>
        <time>2016-07-06T06:46:23Z</time>
      </trkpt>
      <trkpt lat="43.36939" lon="-5.88095">
        <ele>251.4</ele>
        <time>2016-07-06T06:46:31Z</time>
      </trkpt>
      <trkpt lat="43.36948" lon="-5.88088">
        <ele>251.7</ele>
        <time>2016-07-06T06:46:38Z</time>
      </trkpt>
      <trkpt lat="43.36956" lon="-5.88081">
        <ele>252.3</ele>
        <time>2016-07-06T06:46:46Z</time>
      </trkpt>
      <trkpt lat="43.36963" lon="-5.88071">
        <ele>253</ele>
        <time>2016-07-06T06:46:55Z</time>
      </trkpt>
      <trkpt lat="43.36971" lon="-5.88063">
        <ele>253.5</ele>
        <time>2016-07-06T06:47:02Z</time>
      </trkpt>
      <trkpt lat="43.36977" lon="-5.88053">
        <ele>254.1</ele>
        <time>2016-07-06T06:47:11Z</time>
      </trkpt>
      <trkpt lat="43.36983" lon="-5.88044">
        <ele>254.5</ele>
        <time>2016-07-06T06:47:17Z</time>
      </trkpt>
      <trkpt lat="43.36989" lon="-5.88035">
        <ele>254.9</ele>
        <time>2016-07-06T06:47:24Z</time>
      </trkpt>
      <trkpt lat="43.36999" lon="-5.88033">
        <ele>255.1</ele>
        <time>2016-07-06T06:47:31Z</time>
      </trkpt>
      <trkpt lat="43.37008" lon="-5.88034">
        <ele>255.3</ele>
        <time>2016-07-06T06:47:38Z</time>
      </trkpt>
      <trkpt lat="43.37018" lon="-5.88031">
        <ele>255.4</ele>
        <time>2016-07-06T06:47:46Z</time>
      </trkpt>
      <trkpt lat="43.37025" lon="-5.88022">
        <ele>255</ele>
        <time>2016-07-06T06:47:55Z</time>
      </trkpt>
      <trkpt lat="43.37033" lon="-5.88014">
        <ele>254.9</ele>
        <time>2016-07-06T06:48:05Z</time>
      </trkpt>
      <trkpt lat="43.37042" lon="-5.88019">
        <ele>255.1</ele>
        <time>2016-07-06T06:48:13Z</time>
      </trkpt>
      <trkpt lat="43.37049" lon="-5.88027">
        <ele>255.3</ele>
        <time>2016-07-06T06:48:21Z</time>
      </trkpt>
      <trkpt lat="43.37052" lon="-5.88039">
        <ele>256.2</ele>
        <time>2016-07-06T06:48:31Z</time>
      </trkpt>
      <trkpt lat="43.37052" lon="-5.88052">
        <ele>256.9</ele>
        <time>2016-07-06T06:48:38Z</time>
      </trkpt>
      <trkpt lat="43.37051" lon="-5.88066">
        <ele>257.5</ele>
        <time>2016-07-06T06:48:45Z</time>
      </trkpt>
      <trkpt lat="43.37049" lon="-5.88078">
        <ele>257.6</ele>
        <time>2016-07-06T06:48:53Z</time>
      </trkpt>
      <trkpt lat="43.37048" lon="-5.88091">
        <ele>258</ele>
        <time>2016-07-06T06:49:02Z</time>
      </trkpt>
      <trkpt lat="43.37047" lon="-5.88104">
        <ele>258.9</ele>
        <time>2016-07-06T06:49:10Z</time>
      </trkpt>
      <trkpt lat="43.37044" lon="-5.88115">
        <ele>260.1</ele>
        <time>2016-07-06T06:49:18Z</time>
      </trkpt>
      <trkpt lat="43.3704" lon="-5.88127">
        <ele>260.7</ele>
        <time>2016-07-06T06:49:26Z</time>
      </trkpt>
      <trkpt lat="43.37037" lon="-5.88139">
        <ele>261.3</ele>
        <time>2016-07-06T06:49:34Z</time>
      </trkpt>
      <trkpt lat="43.37031" lon="-5.88149">
        <ele>262.2</ele>
        <time>2016-07-06T06:49:43Z</time>
      </trkpt>
      <trkpt lat="43.37026" lon="-5.8816">
        <ele>262.9</ele>
        <time>2016-07-06T06:49:51Z</time>
      </trkpt>
      <trkpt lat="43.3702" lon="-5.88169">
        <ele>263.4</ele>
        <time>2016-07-06T06:49:59Z</time>
      </trkpt>
      <trkpt lat="43.37014" lon="-5.8818">
        <ele>264.8</ele>
        <time>2016-07-06T06:50:08Z</time>
      </trkpt>
      <trkpt lat="43.3701" lon="-5.88193">
        <ele>266.1</ele>
        <time>2016-07-06T06:50:17Z</time>
      </trkpt>
      <trkpt lat="43.37007" lon="-5.88205">
        <ele>266.7</ele>
        <time>2016-07-06T06:50:25Z</time>
      </trkpt>
      <trkpt lat="43.37007" lon="-5.88218">
        <ele>267.6</ele>
        <time>2016-07-06T06:50:34Z</time>
      </trkpt>
      <trkpt lat="43.3701" lon="-5.8823">
        <ele>268.6</ele>
        <time>2016-07-06T06:50:42Z</time>
      </trkpt>
      <trkpt lat="43.37015" lon="-5.88241">
        <ele>269.7</ele>
        <time>2016-07-06T06:50:49Z</time>
      </trkpt>
      <trkpt lat="43.3702" lon="-5.88251">
        <ele>270.3</ele>
        <time>2016-07-06T06:50:56Z</time>
      </trkpt>
      <trkpt lat="43.37025" lon="-5.88263">
        <ele>270.7</ele>
        <time>2016-07-06T06:51:04Z</time>
      </trkpt>
      <trkpt lat="43.3703" lon="-5.88273">
        <ele>271.5</ele>
        <time>2016-07-06T06:51:12Z</time>
      </trkpt>
      <trkpt lat="43.37033" lon="-5.88285">
        <ele>272.2</ele>
        <time>2016-07-06T06:51:19Z</time>
      </trkpt>
      <trkpt lat="43.37036" lon="-5.88297">
        <ele>273</ele>
        <time>2016-07-06T06:51:27Z</time>
      </trkpt>
      <trkpt lat="43.3704" lon="-5.8831">
        <ele>273.6</ele>
        <time>2016-07-06T06:51:35Z</time>
      </trkpt>
      <trkpt lat="43.37043" lon="-5.88323">
        <ele>274.3</ele>
        <time>2016-07-06T06:51:43Z</time>
      </trkpt>
      <trkpt lat="43.37046" lon="-5.88335">
        <ele>274.7</ele>
        <time>2016-07-06T06:51:51Z</time>
      </trkpt>
      <trkpt lat="43.37049" lon="-5.88348">
        <ele>275.2</ele>
        <time>2016-07-06T06:51:58Z</time>
      </trkpt>
      <trkpt lat="43.37051" lon="-5.88361">
        <ele>275.6</ele>
        <time>2016-07-06T06:52:05Z</time>
      </trkpt>
      <trkpt lat="43.37055" lon="-5.88373">
        <ele>275.8</ele>
        <time>2016-07-06T06:52:12Z</time>
      </trkpt>
      <trkpt lat="43.3706" lon="-5.88384">
        <ele>276.3</ele>
        <time>2016-07-06T06:52:20Z</time>
      </trkpt>
      <trkpt lat="43.37065" lon="-5.88395">
        <ele>276.1</ele>
        <time>2016-07-06T06:52:28Z</time>
      </trkpt>
      <trkpt lat="43.37069" lon="-5.88407">
        <ele>275.9</ele>
        <time>2016-07-06T06:52:37Z</time>
      </trkpt>
      <trkpt lat="43.37069" lon="-5.8842">
        <ele>275.8</ele>
        <time>2016-07-06T06:52:45Z</time>
      </trkpt>
      <trkpt lat="43.37067" lon="-5.88432">
        <ele>276</ele>
        <time>2016-07-06T06:52:53Z</time>
      </trkpt>
      <trkpt lat="43.37067" lon="-5.88445">
        <ele>276.1</ele>
        <time>2016-07-06T06:53:03Z</time>
      </trkpt>
      <trkpt lat="43.3707" lon="-5.88457">
        <ele>275.9</ele>
        <time>2016-07-06T06:53:11Z</time>
      </trkpt>
      <trkpt lat="43.37075" lon="-5.8847">
        <ele>275</ele>
        <time>2016-07-06T06:53:19Z</time>
      </trkpt>
      <trkpt lat="43.37078" lon="-5.88482">
        <ele>274.1</ele>
        <time>2016-07-06T06:53:26Z</time>
      </trkpt>
      <trkpt lat="43.37079" lon="-5.88497">
        <ele>273.4</ele>
        <time>2016-07-06T06:53:33Z</time>
      </trkpt>
      <trkpt lat="43.37083" lon="-5.88509">
        <ele>272.6</ele>
        <time>2016-07-06T06:53:40Z</time>
      </trkpt>
      <trkpt lat="43.37085" lon="-5.88523">
        <ele>271.8</ele>
        <time>2016-07-06T06:53:47Z</time>
      </trkpt>
      <trkpt lat="43.37084" lon="-5.88536">
        <ele>271.4</ele>
        <time>2016-07-06T06:53:54Z</time>
      </trkpt>
      <trkpt lat="43.37082" lon="-5.88549">
        <ele>271.2</ele>
        <time>2016-07-06T06:54:01Z</time>
      </trkpt>
      <trkpt lat="43.3708" lon="-5.88561">
        <ele>271</ele>
        <time>2016-07-06T06:54:09Z</time>
      </trkpt>
      <trkpt lat="43.37079" lon="-5.88575">
        <ele>271.3</ele>
        <time>2016-07-06T06:54:19Z</time>
      </trkpt>
      <trkpt lat="43.37078" lon="-5.88588">
        <ele>271.6</ele>
        <time>2016-07-06T06:54:27Z</time>
      </trkpt>
      <trkpt lat="43.37076" lon="-5.88602">
        <ele>271.9</ele>
        <time>2016-07-06T06:54:35Z</time>
      </trkpt>
      <trkpt lat="43.37076" lon="-5.88615">
        <ele>272.3</ele>
        <time>2016-07-06T06:54:42Z</time>
      </trkpt>
      <trkpt lat="43.37075" lon="-5.88628">
        <ele>273</ele>
        <time>2016-07-06T06:54:50Z</time>
      </trkpt>
      <trkpt lat="43.37075" lon="-5.88641">
        <ele>273.7</ele>
        <time>2016-07-06T06:54:57Z</time>
      </trkpt>
      <trkpt lat="43.37076" lon="-5.88654">
        <ele>274</ele>
        <time>2016-07-06T06:55:04Z</time>
      </trkpt>
      <trkpt lat="43.37078" lon="-5.88666">
        <ele>274.2</ele>
        <time>2016-07-06T06:55:13Z</time>
      </trkpt>
      <trkpt lat="43.3708" lon="-5.88679">
        <ele>274.7</ele>
        <time>2016-07-06T06:55:21Z</time>
      </trkpt>
      <trkpt lat="43.37081" lon="-5.88692">
        <ele>275.2</ele>
        <time>2016-07-06T06:55:28Z</time>
      </trkpt>
      <trkpt lat="43.37081" lon="-5.88705">
        <ele>275.8</ele>
        <time>2016-07-06T06:55:35Z</time>
      </trkpt>
      <trkpt lat="43.37084" lon="-5.88718">
        <ele>276.3</ele>
        <time>2016-07-06T06:55:42Z</time>
      </trkpt>
      <trkpt lat="43.37085" lon="-5.88731">
        <ele>276.3</ele>
        <time>2016-07-06T06:55:50Z</time>
      </trkpt>
      <trkpt lat="43.37088" lon="-5.88743">
        <ele>276.2</ele>
        <time>2016-07-06T06:55:58Z</time>
      </trkpt>
      <trkpt lat="43.37091" lon="-5.88755">
        <ele>276.2</ele>
        <time>2016-07-06T06:56:06Z</time>
      </trkpt>
      <trkpt lat="43.37092" lon="-5.88768">
        <ele>275.9</ele>
        <time>2016-07-06T06:56:14Z</time>
      </trkpt>
      <trkpt lat="43.37091" lon="-5.88781">
        <ele>275.6</ele>
        <time>2016-07-06T06:56:20Z</time>
      </trkpt>
      <trkpt lat="43.37091" lon="-5.88794">
        <ele>274.9</ele>
        <time>2016-07-06T06:56:28Z</time>
      </trkpt>
      <trkpt lat="43.37088" lon="-5.88806">
        <ele>274.3</ele>
        <time>2016-07-06T06:56:36Z</time>
      </trkpt>
      <trkpt lat="43.37086" lon="-5.88819">
        <ele>273.9</ele>
        <time>2016-07-06T06:56:44Z</time>
      </trkpt>
      <trkpt lat="43.37082" lon="-5.88832">
        <ele>272.7</ele>
        <time>2016-07-06T06:56:51Z</time>
      </trkpt>
      <trkpt lat="43.37079" lon="-5.88844">
        <ele>271.9</ele>
        <time>2016-07-06T06:56:58Z</time>
      </trkpt>
      <trkpt lat="43.37079" lon="-5.88857">
        <ele>271.1</ele>
        <time>2016-07-06T06:57:08Z</time>
      </trkpt>
      <trkpt lat="43.37079" lon="-5.8887">
        <ele>269.9</ele>
        <time>2016-07-06T06:57:17Z</time>
      </trkpt>
      <trkpt lat="43.37081" lon="-5.88884">
        <ele>269</ele>
        <time>2016-07-06T06:57:26Z</time>
      </trkpt>
      <trkpt lat="43.37086" lon="-5.88895">
        <ele>268.4</ele>
        <time>2016-07-06T06:57:33Z</time>
      </trkpt>
      <trkpt lat="43.37091" lon="-5.88905">
        <ele>267.8</ele>
        <time>2016-07-06T06:57:40Z</time>
      </trkpt>
      <trkpt lat="43.37096" lon="-5.88916">
        <ele>266.7</ele>
        <time>2016-07-06T06:57:47Z</time>
      </trkpt>
      <trkpt lat="43.37101" lon="-5.88926">
        <ele>265.6</ele>
        <time>2016-07-06T06:57:55Z</time>
      </trkpt>
      <trkpt lat="43.37109" lon="-5.88934">
        <ele>265</ele>
        <time>2016-07-06T06:58:03Z</time>
      </trkpt>
      <trkpt lat="43.37118" lon="-5.88938">
        <ele>264.7</ele>
        <time>2016-07-06T06:58:09Z</time>
      </trkpt>
      <trkpt lat="43.37127" lon="-5.88942">
        <ele>264.2</ele>
        <time>2016-07-06T06:58:15Z</time>
      </trkpt>
      <trkpt lat="43.37137" lon="-5.88944">
        <ele>263.9</ele>
        <time>2016-07-06T06:58:23Z</time>
      </trkpt>
      <trkpt lat="43.37146" lon="-5.88947">
        <ele>263.7</ele>
        <time>2016-07-06T06:58:31Z</time>
      </trkpt>
      <trkpt lat="43.37156" lon="-5.88947">
        <ele>263.5</ele>
        <time>2016-07-06T06:58:38Z</time>
      </trkpt>
      <trkpt lat="43.37165" lon="-5.88947">
        <ele>263.4</ele>
        <time>2016-07-06T06:58:45Z</time>
      </trkpt>
      <trkpt lat="43.37174" lon="-5.88946">
        <ele>263.4</ele>
        <time>2016-07-06T06:58:52Z</time>
      </trkpt>
      <trkpt lat="43.37183" lon="-5.88949">
        <ele>263.5</ele>
        <time>2016-07-06T06:59:00Z</time>
      </trkpt>
      <trkpt lat="43.37189" lon="-5.88959">
        <ele>264</ele>
        <time>2016-07-06T06:59:09Z</time>
      </trkpt>
      <trkpt lat="43.37185" lon="-5.88971">
        <ele>264.6</ele>
        <time>2016-07-06T06:59:20Z</time>
      </trkpt>
      <trkpt lat="43.37177" lon="-5.88977">
        <ele>265.4</ele>
        <time>2016-07-06T06:59:28Z</time>
      </trkpt>
      <trkpt lat="43.37168" lon="-5.88983">
        <ele>266.1</ele>
        <time>2016-07-06T06:59:36Z</time>
      </trkpt>
      <trkpt lat="43.37159" lon="-5.88988">
        <ele>266.4</ele>
        <time>2016-07-06T06:59:44Z</time>
      </trkpt>
      <trkpt lat="43.37149" lon="-5.88993">
        <ele>266.5</ele>
        <time>2016-07-06T06:59:52Z</time>
      </trkpt>
      <trkpt lat="43.37141" lon="-5.88999">
        <ele>266.7</ele>
        <time>2016-07-06T07:00:00Z</time>
      </trkpt>
      <trkpt lat="43.37134" lon="-5.89009">
        <ele>267.2</ele>
        <time>2016-07-06T07:00:11Z</time>
      </trkpt>
      <trkpt lat="43.37128" lon="-5.89019">
        <ele>267.9</ele>
        <time>2016-07-06T07:00:18Z</time>
      </trkpt>
      <trkpt lat="43.37122" lon="-5.89029">
        <ele>268.3</ele>
        <time>2016-07-06T07:00:25Z</time>
      </trkpt>
      <trkpt lat="43.37117" lon="-5.89041">
        <ele>268.5</ele>
        <time>2016-07-06T07:00:32Z</time>
      </trkpt>
      <trkpt lat="43.37113" lon="-5.89053">
        <ele>268.4</ele>
        <time>2016-07-06T07:00:39Z</time>
      </trkpt>
      <trkpt lat="43.37108" lon="-5.89064">
        <ele>268.4</ele>
        <time>2016-07-06T07:00:46Z</time>
      </trkpt>
      <trkpt lat="43.37102" lon="-5.89076">
        <ele>268.3</ele>
        <time>2016-07-06T07:00:54Z</time>
      </trkpt>
      <trkpt lat="43.37098" lon="-5.89087">
        <ele>268.2</ele>
        <time>2016-07-06T07:01:02Z</time>
      </trkpt>
      <trkpt lat="43.37094" lon="-5.891">
        <ele>268.1</ele>
        <time>2016-07-06T07:01:10Z</time>
      </trkpt>
      <trkpt lat="43.37096" lon="-5.89114">
        <ele>267.7</ele>
        <time>2016-07-06T07:01:18Z</time>
      </trkpt>
      <trkpt lat="43.37099" lon="-5.89127">
        <ele>267.6</ele>
        <time>2016-07-06T07:01:27Z</time>
      </trkpt>
      <trkpt lat="43.37103" lon="-5.89138">
        <ele>267.6</ele>
        <time>2016-07-06T07:01:35Z</time>
      </trkpt>
      <trkpt lat="43.37106" lon="-5.89151">
        <ele>267.5</ele>
        <time>2016-07-06T07:01:44Z</time>
      </trkpt>
      <trkpt lat="43.37108" lon="-5.89164">
        <ele>267.7</ele>
        <time>2016-07-06T07:01:53Z</time>
      </trkpt>
      <trkpt lat="43.3711" lon="-5.89178">
        <ele>268.1</ele>
        <time>2016-07-06T07:02:02Z</time>
      </trkpt>
      <trkpt lat="43.37113" lon="-5.8919">
        <ele>269.4</ele>
        <time>2016-07-06T07:02:12Z</time>
      </trkpt>
      <trkpt lat="43.37116" lon="-5.89203">
        <ele>270.3</ele>
        <time>2016-07-06T07:02:21Z</time>
      </trkpt>
      <trkpt lat="43.37118" lon="-5.89216">
        <ele>271.5</ele>
        <time>2016-07-06T07:02:30Z</time>
      </trkpt>
      <trkpt lat="43.37123" lon="-5.89228">
        <ele>272.8</ele>
        <time>2016-07-06T07:02:39Z</time>
      </trkpt>
      <trkpt lat="43.37126" lon="-5.89241">
        <ele>273.7</ele>
        <time>2016-07-06T07:02:47Z</time>
      </trkpt>
      <trkpt lat="43.3713" lon="-5.89254">
        <ele>274.5</ele>
        <time>2016-07-06T07:02:55Z</time>
      </trkpt>
      <trkpt lat="43.37133" lon="-5.89267">
        <ele>275.2</ele>
        <time>2016-07-06T07:03:03Z</time>
      </trkpt>
      <trkpt lat="43.37136" lon="-5.8928">
        <ele>275.9</ele>
        <time>2016-07-06T07:03:11Z</time>
      </trkpt>
      <trkpt lat="43.37137" lon="-5.89294">
        <ele>276.3</ele>
        <time>2016-07-06T07:03:19Z</time>
      </trkpt>
      <trkpt lat="43.37138" lon="-5.89307">
        <ele>276.5</ele>
        <time>2016-07-06T07:03:27Z</time>
      </trkpt>
      <trkpt lat="43.3714" lon="-5.8932">
        <ele>277</ele>
        <time>2016-07-06T07:03:38Z</time>
      </trkpt>
      <trkpt lat="43.37143" lon="-5.89333">
        <ele>277.4</ele>
        <time>2016-07-06T07:03:48Z</time>
      </trkpt>
      <trkpt lat="43.37144" lon="-5.89347">
        <ele>277.7</ele>
        <time>2016-07-06T07:03:55Z</time>
      </trkpt>
      <trkpt lat="43.37143" lon="-5.8936">
        <ele>277.9</ele>
        <time>2016-07-06T07:04:03Z</time>
      </trkpt>
      <trkpt lat="43.37144" lon="-5.89372">
        <ele>277.7</ele>
        <time>2016-07-06T07:04:15Z</time>
      </trkpt>
      <trkpt lat="43.37147" lon="-5.89385">
        <ele>277.4</ele>
        <time>2016-07-06T07:04:24Z</time>
      </trkpt>
      <trkpt lat="43.37149" lon="-5.89398">
        <ele>277.2</ele>
        <time>2016-07-06T07:04:33Z</time>
      </trkpt>
      <trkpt lat="43.37154" lon="-5.89409">
        <ele>276.7</ele>
        <time>2016-07-06T07:04:41Z</time>
      </trkpt>
      <trkpt lat="43.37157" lon="-5.89421">
        <ele>276</ele>
        <time>2016-07-06T07:04:48Z</time>
      </trkpt>
      <trkpt lat="43.3716" lon="-5.89434">
        <ele>275.3</ele>
        <time>2016-07-06T07:04:54Z</time>
      </trkpt>
      <trkpt lat="43.37162" lon="-5.89448">
        <ele>274.7</ele>
        <time>2016-07-06T07:05:00Z</time>
      </trkpt>
      <trkpt lat="43.37162" lon="-5.8946">
        <ele>273.9</ele>
        <time>2016-07-06T07:05:07Z</time>
      </trkpt>
      <trkpt lat="43.37159" lon="-5.89472">
        <ele>273.6</ele>
        <time>2016-07-06T07:05:14Z</time>
      </trkpt>
      <trkpt lat="43.37158" lon="-5.89485">
        <ele>273.4</ele>
        <time>2016-07-06T07:05:22Z</time>
      </trkpt>
      <trkpt lat="43.37161" lon="-5.89497">
        <ele>273.4</ele>
        <time>2016-07-06T07:05:30Z</time>
      </trkpt>
      <trkpt lat="43.37165" lon="-5.8951">
        <ele>274.5</ele>
        <time>2016-07-06T07:05:39Z</time>
      </trkpt>
      <trkpt lat="43.37169" lon="-5.89521">
        <ele>275.2</ele>
        <time>2016-07-06T07:05:46Z</time>
      </trkpt>
      <trkpt lat="43.37174" lon="-5.89533">
        <ele>276</ele>
        <time>2016-07-06T07:05:54Z</time>
      </trkpt>
      <trkpt lat="43.37179" lon="-5.89545">
        <ele>276.8</ele>
        <time>2016-07-06T07:06:02Z</time>
      </trkpt>
      <trkpt lat="43.37183" lon="-5.89557">
        <ele>278</ele>
        <time>2016-07-06T07:06:10Z</time>
      </trkpt>
      <trkpt lat="43.37188" lon="-5.89568">
        <ele>279</ele>
        <time>2016-07-06T07:06:18Z</time>
      </trkpt>
      <trkpt lat="43.37191" lon="-5.8958">
        <ele>279.8</ele>
        <time>2016-07-06T07:06:25Z</time>
      </trkpt>
      <trkpt lat="43.37197" lon="-5.89591">
        <ele>280.8</ele>
        <time>2016-07-06T07:06:33Z</time>
      </trkpt>
      <trkpt lat="43.37203" lon="-5.89601">
        <ele>281.7</ele>
        <time>2016-07-06T07:06:41Z</time>
      </trkpt>
      <trkpt lat="43.3721" lon="-5.89611">
        <ele>282.6</ele>
        <time>2016-07-06T07:06:49Z</time>
      </trkpt>
      <trkpt lat="43.37217" lon="-5.8962">
        <ele>283.3</ele>
        <time>2016-07-06T07:06:56Z</time>
      </trkpt>
      <trkpt lat="43.37222" lon="-5.8963">
        <ele>284</ele>
        <time>2016-07-06T07:07:04Z</time>
      </trkpt>
      <trkpt lat="43.37227" lon="-5.89642">
        <ele>284.6</ele>
        <time>2016-07-06T07:07:12Z</time>
      </trkpt>
      <trkpt lat="43.37229" lon="-5.89655">
        <ele>285.3</ele>
        <time>2016-07-06T07:07:21Z</time>
      </trkpt>
      <trkpt lat="43.37229" lon="-5.89667">
        <ele>286</ele>
        <time>2016-07-06T07:07:30Z</time>
      </trkpt>
      <trkpt lat="43.37232" lon="-5.8968">
        <ele>287</ele>
        <time>2016-07-06T07:07:39Z</time>
      </trkpt>
      <trkpt lat="43.37236" lon="-5.89692">
        <ele>287.8</ele>
        <time>2016-07-06T07:07:48Z</time>
      </trkpt>
      <trkpt lat="43.37242" lon="-5.89703">
        <ele>289.1</ele>
        <time>2016-07-06T07:07:58Z</time>
      </trkpt>
      <trkpt lat="43.37246" lon="-5.89715">
        <ele>290.2</ele>
        <time>2016-07-06T07:08:06Z</time>
      </trkpt>
      <trkpt lat="43.3725" lon="-5.89727">
        <ele>290.8</ele>
        <time>2016-07-06T07:08:12Z</time>
      </trkpt>
      <trkpt lat="43.37252" lon="-5.89739">
        <ele>291.8</ele>
        <time>2016-07-06T07:08:19Z</time>
      </trkpt>
      <trkpt lat="43.37248" lon="-5.89751">
        <ele>293.6</ele>
        <time>2016-07-06T07:08:40Z</time>
      </trkpt>
      <trkpt lat="43.37245" lon="-5.89762">
        <ele>293.7</ele>
        <time>2016-07-06T07:08:50Z</time>
      </trkpt>
      <trkpt lat="43.37246" lon="-5.89775">
        <ele>292.7</ele>
        <time>2016-07-06T07:09:00Z</time>
      </trkpt>
      <trkpt lat="43.37249" lon="-5.89788">
        <ele>291.6</ele>
        <time>2016-07-06T07:09:08Z</time>
      </trkpt>
      <trkpt lat="43.37249" lon="-5.898">
        <ele>290.2</ele>
        <time>2016-07-06T07:09:42Z</time>
      </trkpt>
      <trkpt lat="43.37254" lon="-5.89812">
        <ele>289.6</ele>
        <time>2016-07-06T07:09:55Z</time>
      </trkpt>
      <trkpt lat="43.37261" lon="-5.89822">
        <ele>289.4</ele>
        <time>2016-07-06T07:10:03Z</time>
      </trkpt>
      <trkpt lat="43.37267" lon="-5.89832">
        <ele>288.9</ele>
        <time>2016-07-06T07:10:10Z</time>
      </trkpt>
      <trkpt lat="43.37275" lon="-5.8984">
        <ele>288.6</ele>
        <time>2016-07-06T07:10:18Z</time>
      </trkpt>
      <trkpt lat="43.37283" lon="-5.89849">
        <ele>288.4</ele>
        <time>2016-07-06T07:10:26Z</time>
      </trkpt>
      <trkpt lat="43.37288" lon="-5.8986">
        <ele>288</ele>
        <time>2016-07-06T07:10:34Z</time>
      </trkpt>
      <trkpt lat="43.37291" lon="-5.89872">
        <ele>287.5</ele>
        <time>2016-07-06T07:10:41Z</time>
      </trkpt>
      <trkpt lat="43.37293" lon="-5.89885">
        <ele>286.9</ele>
        <time>2016-07-06T07:10:50Z</time>
      </trkpt>
      <trkpt lat="43.37296" lon="-5.89899">
        <ele>286.5</ele>
        <time>2016-07-06T07:10:58Z</time>
      </trkpt>
      <trkpt lat="43.37297" lon="-5.89913">
        <ele>286.4</ele>
        <time>2016-07-06T07:11:06Z</time>
      </trkpt>
      <trkpt lat="43.37299" lon="-5.89925">
        <ele>286.3</ele>
        <time>2016-07-06T07:11:13Z</time>
      </trkpt>
      <trkpt lat="43.37301" lon="-5.89938">
        <ele>285.7</ele>
        <time>2016-07-06T07:11:20Z</time>
      </trkpt>
      <trkpt lat="43.37302" lon="-5.89952">
        <ele>285.1</ele>
        <time>2016-07-06T07:11:28Z</time>
      </trkpt>
      <trkpt lat="43.37301" lon="-5.89965">
        <ele>284.7</ele>
        <time>2016-07-06T07:11:37Z</time>
      </trkpt>
      <trkpt lat="43.37296" lon="-5.89976">
        <ele>284.1</ele>
        <time>2016-07-06T07:11:44Z</time>
      </trkpt>
      <trkpt lat="43.37293" lon="-5.89989">
        <ele>283.7</ele>
        <time>2016-07-06T07:11:53Z</time>
      </trkpt>
      <trkpt lat="43.3729" lon="-5.90002">
        <ele>283.2</ele>
        <time>2016-07-06T07:12:01Z</time>
      </trkpt>
      <trkpt lat="43.3729" lon="-5.90016">
        <ele>282.7</ele>
        <time>2016-07-06T07:12:10Z</time>
      </trkpt>
      <trkpt lat="43.37293" lon="-5.90029">
        <ele>282.5</ele>
        <time>2016-07-06T07:12:18Z</time>
      </trkpt>
      <trkpt lat="43.37296" lon="-5.90041">
        <ele>282.6</ele>
        <time>2016-07-06T07:12:25Z</time>
      </trkpt>
      <trkpt lat="43.37301" lon="-5.90053">
        <ele>282.4</ele>
        <time>2016-07-06T07:12:32Z</time>
      </trkpt>
      <trkpt lat="43.37305" lon="-5.90065">
        <ele>282.2</ele>
        <time>2016-07-06T07:12:39Z</time>
      </trkpt>
      <trkpt lat="43.37309" lon="-5.90077">
        <ele>282.1</ele>
        <time>2016-07-06T07:12:45Z</time>
      </trkpt>
      <trkpt lat="43.37309" lon="-5.90089">
        <ele>281.9</ele>
        <time>2016-07-06T07:12:51Z</time>
      </trkpt>
      <trkpt lat="43.37308" lon="-5.90103">
        <ele>281.7</ele>
        <time>2016-07-06T07:12:58Z</time>
      </trkpt>
      <trkpt lat="43.37305" lon="-5.90117">
        <ele>281.5</ele>
        <time>2016-07-06T07:13:06Z</time>
      </trkpt>
      <trkpt lat="43.37303" lon="-5.9013">
        <ele>280.3</ele>
        <time>2016-07-06T07:13:13Z</time>
      </trkpt>
      <trkpt lat="43.37304" lon="-5.90143">
        <ele>279.1</ele>
        <time>2016-07-06T07:13:20Z</time>
      </trkpt>
      <trkpt lat="43.37305" lon="-5.90156">
        <ele>278.1</ele>
        <time>2016-07-06T07:13:27Z</time>
      </trkpt>
      <trkpt lat="43.37305" lon="-5.9017">
        <ele>276.5</ele>
        <time>2016-07-06T07:13:34Z</time>
      </trkpt>
      <trkpt lat="43.37306" lon="-5.90183">
        <ele>274.7</ele>
        <time>2016-07-06T07:13:42Z</time>
      </trkpt>
      <trkpt lat="43.37309" lon="-5.90196">
        <ele>271.6</ele>
        <time>2016-07-06T07:13:58Z</time>
      </trkpt>
      <trkpt lat="43.37317" lon="-5.90202">
        <ele>270.3</ele>
        <time>2016-07-06T07:14:05Z</time>
      </trkpt>
      <trkpt lat="43.37327" lon="-5.90202">
        <ele>269.6</ele>
        <time>2016-07-06T07:14:14Z</time>
      </trkpt>
      <trkpt lat="43.37337" lon="-5.90201">
        <ele>268.5</ele>
        <time>2016-07-06T07:14:22Z</time>
      </trkpt>
      <trkpt lat="43.37346" lon="-5.902">
        <ele>264.9</ele>
        <time>2016-07-06T07:14:55Z</time>
      </trkpt>
      <trkpt lat="43.37355" lon="-5.90196">
        <ele>263.2</ele>
        <time>2016-07-06T07:16:50Z</time>
      </trkpt>
      <trkpt lat="43.3736" lon="-5.90186">
        <ele>262.1</ele>
        <time>2016-07-06T07:17:11Z</time>
      </trkpt>
      <trkpt lat="43.37368" lon="-5.90178">
        <ele>261.6</ele>
        <time>2016-07-06T07:17:20Z</time>
      </trkpt>
      <trkpt lat="43.37378" lon="-5.90177">
        <ele>261.3</ele>
        <time>2016-07-06T07:17:28Z</time>
      </trkpt>
      <trkpt lat="43.37386" lon="-5.90186">
        <ele>260.7</ele>
        <time>2016-07-06T07:17:35Z</time>
      </trkpt>
      <trkpt lat="43.37392" lon="-5.90197">
        <ele>260.4</ele>
        <time>2016-07-06T07:17:43Z</time>
      </trkpt>
      <trkpt lat="43.37399" lon="-5.90207">
        <ele>260.1</ele>
        <time>2016-07-06T07:17:51Z</time>
      </trkpt>
      <trkpt lat="43.37403" lon="-5.90219">
        <ele>260</ele>
        <time>2016-07-06T07:17:58Z</time>
      </trkpt>
      <trkpt lat="43.37408" lon="-5.90231">
        <ele>259.7</ele>
        <time>2016-07-06T07:18:05Z</time>
      </trkpt>
      <trkpt lat="43.37414" lon="-5.9024">
        <ele>259.5</ele>
        <time>2016-07-06T07:18:12Z</time>
      </trkpt>
      <trkpt lat="43.37421" lon="-5.9025">
        <ele>259.4</ele>
        <time>2016-07-06T07:18:21Z</time>
      </trkpt>
      <trkpt lat="43.37426" lon="-5.90261">
        <ele>259.6</ele>
        <time>2016-07-06T07:18:29Z</time>
      </trkpt>
      <trkpt lat="43.3743" lon="-5.90273">
        <ele>259.9</ele>
        <time>2016-07-06T07:18:37Z</time>
      </trkpt>
      <trkpt lat="43.37434" lon="-5.90285">
        <ele>260.3</ele>
        <time>2016-07-06T07:18:45Z</time>
      </trkpt>
      <trkpt lat="43.37437" lon="-5.90299">
        <ele>260.5</ele>
        <time>2016-07-06T07:18:53Z</time>
      </trkpt>
      <trkpt lat="43.37441" lon="-5.90311">
        <ele>260.8</ele>
        <time>2016-07-06T07:19:00Z</time>
      </trkpt>
      <trkpt lat="43.37445" lon="-5.90322">
        <ele>261.1</ele>
        <time>2016-07-06T07:19:08Z</time>
      </trkpt>
      <trkpt lat="43.37449" lon="-5.90334">
        <ele>261.3</ele>
        <time>2016-07-06T07:19:16Z</time>
      </trkpt>
      <trkpt lat="43.37455" lon="-5.90344">
        <ele>261.5</ele>
        <time>2016-07-06T07:19:24Z</time>
      </trkpt>
      <trkpt lat="43.37461" lon="-5.90354">
        <ele>261.4</ele>
        <time>2016-07-06T07:19:32Z</time>
      </trkpt>
      <trkpt lat="43.37468" lon="-5.90364">
        <ele>261.5</ele>
        <time>2016-07-06T07:19:40Z</time>
      </trkpt>
      <trkpt lat="43.37475" lon="-5.90373">
        <ele>261</ele>
        <time>2016-07-06T07:19:48Z</time>
      </trkpt>
      <trkpt lat="43.37483" lon="-5.9038">
        <ele>260.1</ele>
        <time>2016-07-06T07:19:56Z</time>
      </trkpt>
      <trkpt lat="43.37492" lon="-5.90386">
        <ele>259.6</ele>
        <time>2016-07-06T07:20:04Z</time>
      </trkpt>
      <trkpt lat="43.37497" lon="-5.90397">
        <ele>259.1</ele>
        <time>2016-07-06T07:20:13Z</time>
      </trkpt>
      <trkpt lat="43.37501" lon="-5.90409">
        <ele>257.9</ele>
        <time>2016-07-06T07:20:23Z</time>
      </trkpt>
      <trkpt lat="43.37507" lon="-5.9042">
        <ele>257.5</ele>
        <time>2016-07-06T07:20:31Z</time>
      </trkpt>
      <trkpt lat="43.37515" lon="-5.90426">
        <ele>256.3</ele>
        <time>2016-07-06T07:20:41Z</time>
      </trkpt>
      <trkpt lat="43.37521" lon="-5.90436">
        <ele>255.5</ele>
        <time>2016-07-06T07:20:50Z</time>
      </trkpt>
      <trkpt lat="43.37519" lon="-5.90449">
        <ele>254.1</ele>
        <time>2016-07-06T07:20:58Z</time>
      </trkpt>
      <trkpt lat="43.37516" lon="-5.90462">
        <ele>253.5</ele>
        <time>2016-07-06T07:21:06Z</time>
      </trkpt>
      <trkpt lat="43.37515" lon="-5.90475">
        <ele>253.8</ele>
        <time>2016-07-06T07:21:13Z</time>
      </trkpt>
      <trkpt lat="43.37514" lon="-5.90489">
        <ele>254.1</ele>
        <time>2016-07-06T07:21:21Z</time>
      </trkpt>
      <trkpt lat="43.37516" lon="-5.90502">
        <ele>254.1</ele>
        <time>2016-07-06T07:21:29Z</time>
      </trkpt>
      <trkpt lat="43.37518" lon="-5.90516">
        <ele>253.9</ele>
        <time>2016-07-06T07:21:36Z</time>
      </trkpt>
      <trkpt lat="43.3752" lon="-5.9053">
        <ele>254.7</ele>
        <time>2016-07-06T07:21:43Z</time>
      </trkpt>
      <trkpt lat="43.37523" lon="-5.90541">
        <ele>255.1</ele>
        <time>2016-07-06T07:21:49Z</time>
      </trkpt>
      <trkpt lat="43.37527" lon="-5.90554">
        <ele>254.1</ele>
        <time>2016-07-06T07:21:56Z</time>
      </trkpt>
      <trkpt lat="43.3753" lon="-5.90566">
        <ele>252.7</ele>
        <time>2016-07-06T07:22:05Z</time>
      </trkpt>
      <trkpt lat="43.37534" lon="-5.90578">
        <ele>252.1</ele>
        <time>2016-07-06T07:22:12Z</time>
      </trkpt>
      <trkpt lat="43.37541" lon="-5.90587">
        <ele>252</ele>
        <time>2016-07-06T07:22:20Z</time>
      </trkpt>
      <trkpt lat="43.37548" lon="-5.90595">
        <ele>251.2</ele>
        <time>2016-07-06T07:22:27Z</time>
      </trkpt>
      <trkpt lat="43.37554" lon="-5.90606">
        <ele>250.9</ele>
        <time>2016-07-06T07:22:36Z</time>
      </trkpt>
      <trkpt lat="43.37558" lon="-5.90617">
        <ele>251.2</ele>
        <time>2016-07-06T07:22:44Z</time>
      </trkpt>
      <trkpt lat="43.37564" lon="-5.90628">
        <ele>251.5</ele>
        <time>2016-07-06T07:22:52Z</time>
      </trkpt>
      <trkpt lat="43.37568" lon="-5.9064">
        <ele>251.6</ele>
        <time>2016-07-06T07:22:59Z</time>
      </trkpt>
      <trkpt lat="43.37569" lon="-5.90653">
        <ele>251.6</ele>
        <time>2016-07-06T07:23:06Z</time>
      </trkpt>
      <trkpt lat="43.37572" lon="-5.90666">
        <ele>251.6</ele>
        <time>2016-07-06T07:23:13Z</time>
      </trkpt>
      <trkpt lat="43.37572" lon="-5.90679">
        <ele>251.6</ele>
        <time>2016-07-06T07:23:21Z</time>
      </trkpt>
      <trkpt lat="43.37572" lon="-5.90694">
        <ele>251.2</ele>
        <time>2016-07-06T07:23:28Z</time>
      </trkpt>
      <trkpt lat="43.37574" lon="-5.90706">
        <ele>250.8</ele>
        <time>2016-07-06T07:23:35Z</time>
      </trkpt>
      <trkpt lat="43.37581" lon="-5.90716">
        <ele>250.2</ele>
        <time>2016-07-06T07:23:44Z</time>
      </trkpt>
      <trkpt lat="43.3759" lon="-5.90721">
        <ele>249.7</ele>
        <time>2016-07-06T07:23:55Z</time>
      </trkpt>
      <trkpt lat="43.37599" lon="-5.90727">
        <ele>249.6</ele>
        <time>2016-07-06T07:24:05Z</time>
      </trkpt>
      <trkpt lat="43.37606" lon="-5.90735">
        <ele>250.2</ele>
        <time>2016-07-06T07:24:13Z</time>
      </trkpt>
      <trkpt lat="43.37612" lon="-5.90746">
        <ele>251.2</ele>
        <time>2016-07-06T07:24:21Z</time>
      </trkpt>
      <trkpt lat="43.3762" lon="-5.90754">
        <ele>252.2</ele>
        <time>2016-07-06T07:24:29Z</time>
      </trkpt>
      <trkpt lat="43.37628" lon="-5.9076">
        <ele>252.4</ele>
        <time>2016-07-06T07:24:36Z</time>
      </trkpt>
      <trkpt lat="43.37637" lon="-5.90765">
        <ele>252.5</ele>
        <time>2016-07-06T07:24:45Z</time>
      </trkpt>
      <trkpt lat="43.37645" lon="-5.90772">
        <ele>252.8</ele>
        <time>2016-07-06T07:24:53Z</time>
      </trkpt>
      <trkpt lat="43.3765" lon="-5.90784">
        <ele>253.1</ele>
        <time>2016-07-06T07:25:05Z</time>
      </trkpt>
      <trkpt lat="43.37649" lon="-5.90797">
        <ele>254.2</ele>
        <time>2016-07-06T07:25:15Z</time>
      </trkpt>
      <trkpt lat="43.37646" lon="-5.9081">
        <ele>255.5</ele>
        <time>2016-07-06T07:25:27Z</time>
      </trkpt>
      <trkpt lat="43.37644" lon="-5.90823">
        <ele>256.6</ele>
        <time>2016-07-06T07:25:37Z</time>
      </trkpt>
      <trkpt lat="43.37648" lon="-5.90835">
        <ele>257.3</ele>
        <time>2016-07-06T07:25:45Z</time>
      </trkpt>
      <trkpt lat="43.37652" lon="-5.90847">
        <ele>258.5</ele>
        <time>2016-07-06T07:25:53Z</time>
      </trkpt>
      <trkpt lat="43.37658" lon="-5.90857">
        <ele>259.4</ele>
        <time>2016-07-06T07:26:01Z</time>
      </trkpt>
      <trkpt lat="43.37666" lon="-5.90865">
        <ele>260.2</ele>
        <time>2016-07-06T07:26:10Z</time>
      </trkpt>
      <trkpt lat="43.37667" lon="-5.90852">
        <ele>262.8</ele>
        <time>2016-07-06T07:26:38Z</time>
      </trkpt>
      <trkpt lat="43.3767" lon="-5.9084">
        <ele>263</ele>
        <time>2016-07-06T07:27:01Z</time>
      </trkpt>
      <trkpt lat="43.37673" lon="-5.90828">
        <ele>264</ele>
        <time>2016-07-06T07:27:15Z</time>
      </trkpt>
      <trkpt lat="43.37669" lon="-5.90839">
        <ele>264.4</ele>
        <time>2016-07-06T07:27:46Z</time>
      </trkpt>
      <trkpt lat="43.37667" lon="-5.90852">
        <ele>264.5</ele>
        <time>2016-07-06T07:27:57Z</time>
      </trkpt>
      <trkpt lat="43.37668" lon="-5.90865">
        <ele>264.1</ele>
        <time>2016-07-06T07:28:06Z</time>
      </trkpt>
      <trkpt lat="43.3767" lon="-5.90877">
        <ele>264.1</ele>
        <time>2016-07-06T07:28:13Z</time>
      </trkpt>
      <trkpt lat="43.37675" lon="-5.90889">
        <ele>264.4</ele>
        <time>2016-07-06T07:28:20Z</time>
      </trkpt>
      <trkpt lat="43.37677" lon="-5.90901">
        <ele>264.6</ele>
        <time>2016-07-06T07:28:28Z</time>
      </trkpt>
      <trkpt lat="43.37679" lon="-5.90914">
        <ele>264.7</ele>
        <time>2016-07-06T07:28:38Z</time>
      </trkpt>
      <trkpt lat="43.37679" lon="-5.90927">
        <ele>264.5</ele>
        <time>2016-07-06T07:28:47Z</time>
      </trkpt>
      <trkpt lat="43.37682" lon="-5.90938">
        <ele>264.6</ele>
        <time>2016-07-06T07:29:04Z</time>
      </trkpt>
      <trkpt lat="43.37681" lon="-5.90951">
        <ele>258.5</ele>
        <time>2016-07-06T07:33:54Z</time>
      </trkpt>
      <trkpt lat="43.37685" lon="-5.90963">
        <ele>258.1</ele>
        <time>2016-07-06T07:34:05Z</time>
      </trkpt>
      <trkpt lat="43.37689" lon="-5.90976">
        <ele>257.3</ele>
        <time>2016-07-06T07:34:14Z</time>
      </trkpt>
      <trkpt lat="43.37694" lon="-5.90987">
        <ele>257.2</ele>
        <time>2016-07-06T07:34:22Z</time>
      </trkpt>
      <trkpt lat="43.37699" lon="-5.90997">
        <ele>257.2</ele>
        <time>2016-07-06T07:34:29Z</time>
      </trkpt>
      <trkpt lat="43.37705" lon="-5.91008">
        <ele>257.4</ele>
        <time>2016-07-06T07:34:37Z</time>
      </trkpt>
      <trkpt lat="43.37711" lon="-5.91018">
        <ele>257.4</ele>
        <time>2016-07-06T07:34:45Z</time>
      </trkpt>
      <trkpt lat="43.37717" lon="-5.9103">
        <ele>257.3</ele>
        <time>2016-07-06T07:34:54Z</time>
      </trkpt>
      <trkpt lat="43.37723" lon="-5.9104">
        <ele>256.9</ele>
        <time>2016-07-06T07:35:03Z</time>
      </trkpt>
      <trkpt lat="43.3773" lon="-5.91049">
        <ele>256.2</ele>
        <time>2016-07-06T07:35:12Z</time>
      </trkpt>
      <trkpt lat="43.37737" lon="-5.91058">
        <ele>255.7</ele>
        <time>2016-07-06T07:35:21Z</time>
      </trkpt>
      <trkpt lat="43.37743" lon="-5.91067">
        <ele>254.4</ele>
        <time>2016-07-06T07:35:29Z</time>
      </trkpt>
      <trkpt lat="43.37751" lon="-5.91076">
        <ele>253.2</ele>
        <time>2016-07-06T07:35:36Z</time>
      </trkpt>
      <trkpt lat="43.37756" lon="-5.91086">
        <ele>252.1</ele>
        <time>2016-07-06T07:35:43Z</time>
      </trkpt>
      <trkpt lat="43.37761" lon="-5.91097">
        <ele>250.8</ele>
        <time>2016-07-06T07:35:50Z</time>
      </trkpt>
      <trkpt lat="43.37766" lon="-5.91108">
        <ele>249</ele>
        <time>2016-07-06T07:36:04Z</time>
      </trkpt>
      <trkpt lat="43.3777" lon="-5.91119">
        <ele>246.3</ele>
        <time>2016-07-06T07:36:27Z</time>
      </trkpt>
      <trkpt lat="43.37775" lon="-5.9113">
        <ele>243.8</ele>
        <time>2016-07-06T07:36:58Z</time>
      </trkpt>
      <trkpt lat="43.37781" lon="-5.9114">
        <ele>241.4</ele>
        <time>2016-07-06T07:37:37Z</time>
      </trkpt>
      <trkpt lat="43.37788" lon="-5.91149">
        <ele>240</ele>
        <time>2016-07-06T07:37:48Z</time>
      </trkpt>
      <trkpt lat="43.3779" lon="-5.91162">
        <ele>238.7</ele>
        <time>2016-07-06T07:37:59Z</time>
      </trkpt>
      <trkpt lat="43.37792" lon="-5.91174">
        <ele>237.2</ele>
        <time>2016-07-06T07:38:07Z</time>
      </trkpt>
      <trkpt lat="43.37796" lon="-5.91187">
        <ele>235.8</ele>
        <time>2016-07-06T07:38:16Z</time>
      </trkpt>
      <trkpt lat="43.37799" lon="-5.91199">
        <ele>234.5</ele>
        <time>2016-07-06T07:38:24Z</time>
      </trkpt>
      <trkpt lat="43.37801" lon="-5.91211">
        <ele>233.5</ele>
        <time>2016-07-06T07:38:32Z</time>
      </trkpt>
      <trkpt lat="43.37804" lon="-5.91224">
        <ele>232</ele>
        <time>2016-07-06T07:38:40Z</time>
      </trkpt>
      <trkpt lat="43.37808" lon="-5.91237">
        <ele>230.6</ele>
        <time>2016-07-06T07:38:48Z</time>
      </trkpt>
      <trkpt lat="43.37811" lon="-5.9125">
        <ele>229.1</ele>
        <time>2016-07-06T07:38:55Z</time>
      </trkpt>
      <trkpt lat="43.37814" lon="-5.91262">
        <ele>227.6</ele>
        <time>2016-07-06T07:39:02Z</time>
      </trkpt>
      <trkpt lat="43.37816" lon="-5.91275">
        <ele>225.9</ele>
        <time>2016-07-06T07:39:09Z</time>
      </trkpt>
      <trkpt lat="43.37817" lon="-5.91289">
        <ele>223.8</ele>
        <time>2016-07-06T07:39:18Z</time>
      </trkpt>
      <trkpt lat="43.37818" lon="-5.91301">
        <ele>222.3</ele>
        <time>2016-07-06T07:39:25Z</time>
      </trkpt>
      <trkpt lat="43.37817" lon="-5.91314">
        <ele>220.5</ele>
        <time>2016-07-06T07:39:32Z</time>
      </trkpt>
      <trkpt lat="43.37817" lon="-5.91326">
        <ele>218.5</ele>
        <time>2016-07-06T07:39:39Z</time>
      </trkpt>
      <trkpt lat="43.37819" lon="-5.9134">
        <ele>216.5</ele>
        <time>2016-07-06T07:39:46Z</time>
      </trkpt>
      <trkpt lat="43.3782" lon="-5.91352">
        <ele>214.7</ele>
        <time>2016-07-06T07:39:53Z</time>
      </trkpt>
      <trkpt lat="43.37822" lon="-5.91366">
        <ele>212.5</ele>
        <time>2016-07-06T07:40:01Z</time>
      </trkpt>
      <trkpt lat="43.37826" lon="-5.91378">
        <ele>210.3</ele>
        <time>2016-07-06T07:40:08Z</time>
      </trkpt>
      <trkpt lat="43.37828" lon="-5.91391">
        <ele>208</ele>
        <time>2016-07-06T07:40:16Z</time>
      </trkpt>
      <trkpt lat="43.37831" lon="-5.91404">
        <ele>205.5</ele>
        <time>2016-07-06T07:40:24Z</time>
      </trkpt>
      <trkpt lat="43.37833" lon="-5.91417">
        <ele>203.7</ele>
        <time>2016-07-06T07:40:32Z</time>
      </trkpt>
      <trkpt lat="43.37833" lon="-5.9143">
        <ele>201.9</ele>
        <time>2016-07-06T07:40:39Z</time>
      </trkpt>
      <trkpt lat="43.37834" lon="-5.91443">
        <ele>200.2</ele>
        <time>2016-07-06T07:40:46Z</time>
      </trkpt>
      <trkpt lat="43.37832" lon="-5.91456">
        <ele>198</ele>
        <time>2016-07-06T07:40:54Z</time>
      </trkpt>
      <trkpt lat="43.37833" lon="-5.91469">
        <ele>195.8</ele>
        <time>2016-07-06T07:41:03Z</time>
      </trkpt>
      <trkpt lat="43.37834" lon="-5.91482">
        <ele>194.4</ele>
        <time>2016-07-06T07:41:11Z</time>
      </trkpt>
      <trkpt lat="43.3784" lon="-5.91493">
        <ele>192.2</ele>
        <time>2016-07-06T07:41:20Z</time>
      </trkpt>
      <trkpt lat="43.37848" lon="-5.91499">
        <ele>189.2</ele>
        <time>2016-07-06T07:41:32Z</time>
      </trkpt>
      <trkpt lat="43.37852" lon="-5.91511">
        <ele>186.5</ele>
        <time>2016-07-06T07:41:43Z</time>
      </trkpt>
      <trkpt lat="43.37855" lon="-5.91524">
        <ele>184.6</ele>
        <time>2016-07-06T07:41:51Z</time>
      </trkpt>
      <trkpt lat="43.37855" lon="-5.91537">
        <ele>182.2</ele>
        <time>2016-07-06T07:42:00Z</time>
      </trkpt>
      <trkpt lat="43.37853" lon="-5.9155">
        <ele>179.6</ele>
        <time>2016-07-06T07:42:09Z</time>
      </trkpt>
      <trkpt lat="43.37851" lon="-5.91562">
        <ele>177.7</ele>
        <time>2016-07-06T07:42:16Z</time>
      </trkpt>
      <trkpt lat="43.37846" lon="-5.91573">
        <ele>176.1</ele>
        <time>2016-07-06T07:42:23Z</time>
      </trkpt>
      <trkpt lat="43.37843" lon="-5.91584">
        <ele>174.9</ele>
        <time>2016-07-06T07:42:30Z</time>
      </trkpt>
      <trkpt lat="43.3784" lon="-5.91597">
        <ele>173.4</ele>
        <time>2016-07-06T07:42:38Z</time>
      </trkpt>
      <trkpt lat="43.37842" lon="-5.9161">
        <ele>171.5</ele>
        <time>2016-07-06T07:42:46Z</time>
      </trkpt>
      <trkpt lat="43.37845" lon="-5.91622">
        <ele>170.2</ele>
        <time>2016-07-06T07:42:53Z</time>
      </trkpt>
      <trkpt lat="43.37846" lon="-5.91635">
        <ele>169.1</ele>
        <time>2016-07-06T07:43:01Z</time>
      </trkpt>
      <trkpt lat="43.3785" lon="-5.91647">
        <ele>168.2</ele>
        <time>2016-07-06T07:43:09Z</time>
      </trkpt>
      <trkpt lat="43.37852" lon="-5.9166">
        <ele>167.7</ele>
        <time>2016-07-06T07:43:18Z</time>
      </trkpt>
      <trkpt lat="43.37856" lon="-5.91671">
        <ele>167.7</ele>
        <time>2016-07-06T07:43:26Z</time>
      </trkpt>
      <trkpt lat="43.37861" lon="-5.91683">
        <ele>167.9</ele>
        <time>2016-07-06T07:43:35Z</time>
      </trkpt>
      <trkpt lat="43.37864" lon="-5.91695">
        <ele>168</ele>
        <time>2016-07-06T07:43:42Z</time>
      </trkpt>
      <trkpt lat="43.37867" lon="-5.91708">
        <ele>168.7</ele>
        <time>2016-07-06T07:43:50Z</time>
      </trkpt>
      <trkpt lat="43.37869" lon="-5.91722">
        <ele>169.2</ele>
        <time>2016-07-06T07:43:58Z</time>
      </trkpt>
      <trkpt lat="43.37871" lon="-5.91735">
        <ele>169.5</ele>
        <time>2016-07-06T07:44:06Z</time>
      </trkpt>
      <trkpt lat="43.37874" lon="-5.91747">
        <ele>169.9</ele>
        <time>2016-07-06T07:44:14Z</time>
      </trkpt>
      <trkpt lat="43.37875" lon="-5.9176">
        <ele>170.1</ele>
        <time>2016-07-06T07:44:23Z</time>
      </trkpt>
      <trkpt lat="43.37876" lon="-5.91773">
        <ele>170.4</ele>
        <time>2016-07-06T07:44:33Z</time>
      </trkpt>
      <trkpt lat="43.37876" lon="-5.91786">
        <ele>170.3</ele>
        <time>2016-07-06T07:44:44Z</time>
      </trkpt>
      <trkpt lat="43.37876" lon="-5.91799">
        <ele>169.3</ele>
        <time>2016-07-06T07:44:54Z</time>
      </trkpt>
      <trkpt lat="43.37876" lon="-5.91811">
        <ele>167.9</ele>
        <time>2016-07-06T07:45:03Z</time>
      </trkpt>
      <trkpt lat="43.37879" lon="-5.91824">
        <ele>165.7</ele>
        <time>2016-07-06T07:45:11Z</time>
      </trkpt>
      <trkpt lat="43.37881" lon="-5.91837">
        <ele>163</ele>
        <time>2016-07-06T07:45:21Z</time>
      </trkpt>
      <trkpt lat="43.37881" lon="-5.91849">
        <ele>161.2</ele>
        <time>2016-07-06T07:45:28Z</time>
      </trkpt>
      <trkpt lat="43.3788" lon="-5.91861">
        <ele>159.6</ele>
        <time>2016-07-06T07:45:34Z</time>
      </trkpt>
      <trkpt lat="43.37875" lon="-5.91874">
        <ele>158</ele>
        <time>2016-07-06T07:45:41Z</time>
      </trkpt>
      <trkpt lat="43.37869" lon="-5.91885">
        <ele>156.5</ele>
        <time>2016-07-06T07:45:50Z</time>
      </trkpt>
      <trkpt lat="43.37868" lon="-5.91898">
        <ele>155.8</ele>
        <time>2016-07-06T07:45:59Z</time>
      </trkpt>
      <trkpt lat="43.3787" lon="-5.9191">
        <ele>156</ele>
        <time>2016-07-06T07:46:08Z</time>
      </trkpt>
      <trkpt lat="43.3787" lon="-5.91924">
        <ele>156.8</ele>
        <time>2016-07-06T07:46:16Z</time>
      </trkpt>
      <trkpt lat="43.3787" lon="-5.91937">
        <ele>157.7</ele>
        <time>2016-07-06T07:46:24Z</time>
      </trkpt>
      <trkpt lat="43.37872" lon="-5.9195">
        <ele>158.7</ele>
        <time>2016-07-06T07:46:34Z</time>
      </trkpt>
      <trkpt lat="43.37876" lon="-5.91962">
        <ele>160.1</ele>
        <time>2016-07-06T07:46:43Z</time>
      </trkpt>
      <trkpt lat="43.37885" lon="-5.91967">
        <ele>162.6</ele>
        <time>2016-07-06T07:46:56Z</time>
      </trkpt>
      <trkpt lat="43.37894" lon="-5.91972">
        <ele>164.4</ele>
        <time>2016-07-06T07:47:08Z</time>
      </trkpt>
      <trkpt lat="43.37903" lon="-5.91976">
        <ele>165.8</ele>
        <time>2016-07-06T07:47:17Z</time>
      </trkpt>
      <trkpt lat="43.37912" lon="-5.91981">
        <ele>166.8</ele>
        <time>2016-07-06T07:47:25Z</time>
      </trkpt>
      <trkpt lat="43.3792" lon="-5.91987">
        <ele>167.6</ele>
        <time>2016-07-06T07:47:34Z</time>
      </trkpt>
      <trkpt lat="43.37927" lon="-5.91995">
        <ele>168.6</ele>
        <time>2016-07-06T07:47:42Z</time>
      </trkpt>
      <trkpt lat="43.37933" lon="-5.92005">
        <ele>169.3</ele>
        <time>2016-07-06T07:47:51Z</time>
      </trkpt>
      <trkpt lat="43.37939" lon="-5.92015">
        <ele>170.6</ele>
        <time>2016-07-06T07:48:00Z</time>
      </trkpt>
      <trkpt lat="43.37944" lon="-5.92026">
        <ele>172.8</ele>
        <time>2016-07-06T07:48:10Z</time>
      </trkpt>
      <trkpt lat="43.37942" lon="-5.92039">
        <ele>174.6</ele>
        <time>2016-07-06T07:48:22Z</time>
      </trkpt>
      <trkpt lat="43.37934" lon="-5.92044">
        <ele>177.9</ele>
        <time>2016-07-06T07:48:49Z</time>
      </trkpt>
      <trkpt lat="43.37927" lon="-5.92054">
        <ele>178.1</ele>
        <time>2016-07-06T07:48:59Z</time>
      </trkpt>
      <trkpt lat="43.37923" lon="-5.92066">
        <ele>178.1</ele>
        <time>2016-07-06T07:49:08Z</time>
      </trkpt>
      <trkpt lat="43.37917" lon="-5.92076">
        <ele>178.1</ele>
        <time>2016-07-06T07:49:17Z</time>
      </trkpt>
      <trkpt lat="43.37911" lon="-5.92086">
        <ele>178</ele>
        <time>2016-07-06T07:49:28Z</time>
      </trkpt>
      <trkpt lat="43.37904" lon="-5.92093">
        <ele>178.1</ele>
        <time>2016-07-06T07:49:54Z</time>
      </trkpt>
      <trkpt lat="43.37895" lon="-5.92094">
        <ele>176.9</ele>
        <time>2016-07-06T07:50:31Z</time>
      </trkpt>
      <trkpt lat="43.37888" lon="-5.92105">
        <ele>176.7</ele>
        <time>2016-07-06T07:50:41Z</time>
      </trkpt>
      <trkpt lat="43.37883" lon="-5.92116">
        <ele>176.5</ele>
        <time>2016-07-06T07:50:53Z</time>
      </trkpt>
      <trkpt lat="43.37882" lon="-5.92129">
        <ele>176.4</ele>
        <time>2016-07-06T07:51:01Z</time>
      </trkpt>
      <trkpt lat="43.37881" lon="-5.92142">
        <ele>176.4</ele>
        <time>2016-07-06T07:51:09Z</time>
      </trkpt>
      <trkpt lat="43.37879" lon="-5.92156">
        <ele>175.7</ele>
        <time>2016-07-06T07:51:18Z</time>
      </trkpt>
      <trkpt lat="43.37877" lon="-5.92169">
        <ele>175.8</ele>
        <time>2016-07-06T07:51:25Z</time>
      </trkpt>
      <trkpt lat="43.37877" lon="-5.92182">
        <ele>175.5</ele>
        <time>2016-07-06T07:51:34Z</time>
      </trkpt>
      <trkpt lat="43.37875" lon="-5.92194">
        <ele>173.7</ele>
        <time>2016-07-06T07:51:51Z</time>
      </trkpt>
      <trkpt lat="43.37874" lon="-5.92207">
        <ele>172.1</ele>
        <time>2016-07-06T07:52:02Z</time>
      </trkpt>
      <trkpt lat="43.37874" lon="-5.9222">
        <ele>167.7</ele>
        <time>2016-07-06T07:52:21Z</time>
      </trkpt>
      <trkpt lat="43.3787" lon="-5.92232">
        <ele>165.8</ele>
        <time>2016-07-06T07:52:31Z</time>
      </trkpt>
      <trkpt lat="43.37867" lon="-5.92244">
        <ele>164.6</ele>
        <time>2016-07-06T07:52:38Z</time>
      </trkpt>
      <trkpt lat="43.37862" lon="-5.92256">
        <ele>163.7</ele>
        <time>2016-07-06T07:52:46Z</time>
      </trkpt>
      <trkpt lat="43.37857" lon="-5.92267">
        <ele>162.7</ele>
        <time>2016-07-06T07:52:54Z</time>
      </trkpt>
      <trkpt lat="43.37853" lon="-5.92278">
        <ele>158.5</ele>
        <time>2016-07-06T07:53:18Z</time>
      </trkpt>
      <trkpt lat="43.37846" lon="-5.92288">
        <ele>157.6</ele>
        <time>2016-07-06T07:53:29Z</time>
      </trkpt>
      <trkpt lat="43.37841" lon="-5.92299">
        <ele>156.3</ele>
        <time>2016-07-06T07:53:37Z</time>
      </trkpt>
      <trkpt lat="43.37837" lon="-5.9231">
        <ele>155.5</ele>
        <time>2016-07-06T07:53:46Z</time>
      </trkpt>
      <trkpt lat="43.37832" lon="-5.92321">
        <ele>154.2</ele>
        <time>2016-07-06T07:53:55Z</time>
      </trkpt>
      <trkpt lat="43.3783" lon="-5.92334">
        <ele>153</ele>
        <time>2016-07-06T07:54:04Z</time>
      </trkpt>
      <trkpt lat="43.37828" lon="-5.92346">
        <ele>152.2</ele>
        <time>2016-07-06T07:54:12Z</time>
      </trkpt>
      <trkpt lat="43.37826" lon="-5.92359">
        <ele>151.4</ele>
        <time>2016-07-06T07:54:21Z</time>
      </trkpt>
      <trkpt lat="43.37824" lon="-5.92371">
        <ele>150.2</ele>
        <time>2016-07-06T07:54:29Z</time>
      </trkpt>
      <trkpt lat="43.37826" lon="-5.92384">
        <ele>149.2</ele>
        <time>2016-07-06T07:54:38Z</time>
      </trkpt>
      <trkpt lat="43.37828" lon="-5.92396">
        <ele>147.6</ele>
        <time>2016-07-06T07:54:47Z</time>
      </trkpt>
      <trkpt lat="43.37832" lon="-5.92408">
        <ele>145.9</ele>
        <time>2016-07-06T07:54:57Z</time>
      </trkpt>
      <trkpt lat="43.37837" lon="-5.9242">
        <ele>143.9</ele>
        <time>2016-07-06T07:55:07Z</time>
      </trkpt>
      <trkpt lat="43.37841" lon="-5.92431">
        <ele>141.8</ele>
        <time>2016-07-06T07:55:17Z</time>
      </trkpt>
      <trkpt lat="43.37847" lon="-5.92441">
        <ele>139.8</ele>
        <time>2016-07-06T07:55:26Z</time>
      </trkpt>
      <trkpt lat="43.37851" lon="-5.92453">
        <ele>137.9</ele>
        <time>2016-07-06T07:55:35Z</time>
      </trkpt>
      <trkpt lat="43.37852" lon="-5.92467">
        <ele>136.2</ele>
        <time>2016-07-06T07:55:44Z</time>
      </trkpt>
      <trkpt lat="43.37856" lon="-5.92479">
        <ele>134.3</ele>
        <time>2016-07-06T07:55:52Z</time>
      </trkpt>
      <trkpt lat="43.37861" lon="-5.9249">
        <ele>132</ele>
        <time>2016-07-06T07:56:01Z</time>
      </trkpt>
      <trkpt lat="43.37867" lon="-5.925">
        <ele>129.8</ele>
        <time>2016-07-06T07:56:10Z</time>
      </trkpt>
      <trkpt lat="43.37873" lon="-5.92511">
        <ele>128.2</ele>
        <time>2016-07-06T07:56:17Z</time>
      </trkpt>
      <trkpt lat="43.37878" lon="-5.92521">
        <ele>127</ele>
        <time>2016-07-06T07:56:24Z</time>
      </trkpt>
      <trkpt lat="43.37882" lon="-5.92533">
        <ele>125.4</ele>
        <time>2016-07-06T07:56:32Z</time>
      </trkpt>
      <trkpt lat="43.37883" lon="-5.92545">
        <ele>123.7</ele>
        <time>2016-07-06T07:56:40Z</time>
      </trkpt>
      <trkpt lat="43.37885" lon="-5.92559">
        <ele>122.1</ele>
        <time>2016-07-06T07:56:49Z</time>
      </trkpt>
      <trkpt lat="43.37889" lon="-5.92571">
        <ele>120.6</ele>
        <time>2016-07-06T07:56:57Z</time>
      </trkpt>
      <trkpt lat="43.37896" lon="-5.92579">
        <ele>118.9</ele>
        <time>2016-07-06T07:57:07Z</time>
      </trkpt>
      <trkpt lat="43.37904" lon="-5.92586">
        <ele>117.4</ele>
        <time>2016-07-06T07:57:15Z</time>
      </trkpt>
      <trkpt lat="43.37912" lon="-5.92593">
        <ele>116.2</ele>
        <time>2016-07-06T07:57:22Z</time>
      </trkpt>
      <trkpt lat="43.3792" lon="-5.92599">
        <ele>114.6</ele>
        <time>2016-07-06T07:57:29Z</time>
      </trkpt>
      <trkpt lat="43.37929" lon="-5.92606">
        <ele>113.1</ele>
        <time>2016-07-06T07:57:38Z</time>
      </trkpt>
      <trkpt lat="43.37938" lon="-5.92612">
        <ele>111.8</ele>
        <time>2016-07-06T07:57:47Z</time>
      </trkpt>
      <trkpt lat="43.37946" lon="-5.92615">
        <ele>110.7</ele>
        <time>2016-07-06T07:57:54Z</time>
      </trkpt>
      <trkpt lat="43.37956" lon="-5.92621">
        <ele>109.6</ele>
        <time>2016-07-06T07:58:02Z</time>
      </trkpt>
      <trkpt lat="43.37964" lon="-5.92626">
        <ele>108.6</ele>
        <time>2016-07-06T07:58:10Z</time>
      </trkpt>
      <trkpt lat="43.37973" lon="-5.92631">
        <ele>107.9</ele>
        <time>2016-07-06T07:58:17Z</time>
      </trkpt>
      <trkpt lat="43.3798" lon="-5.92638">
        <ele>107.1</ele>
        <time>2016-07-06T07:58:24Z</time>
      </trkpt>
      <trkpt lat="43.37988" lon="-5.92645">
        <ele>106.6</ele>
        <time>2016-07-06T07:58:31Z</time>
      </trkpt>
      <trkpt lat="43.37997" lon="-5.9265">
        <ele>106.4</ele>
        <time>2016-07-06T07:58:39Z</time>
      </trkpt>
      <trkpt lat="43.38006" lon="-5.92656">
        <ele>106.1</ele>
        <time>2016-07-06T07:58:48Z</time>
      </trkpt>
      <trkpt lat="43.38015" lon="-5.92662">
        <ele>105.9</ele>
        <time>2016-07-06T07:58:56Z</time>
      </trkpt>
      <trkpt lat="43.38022" lon="-5.9267">
        <ele>106</ele>
        <time>2016-07-06T07:59:05Z</time>
      </trkpt>
      <trkpt lat="43.3803" lon="-5.92677">
        <ele>105.9</ele>
        <time>2016-07-06T07:59:13Z</time>
      </trkpt>
      <trkpt lat="43.38036" lon="-5.92687">
        <ele>105.8</ele>
        <time>2016-07-06T07:59:22Z</time>
      </trkpt>
      <trkpt lat="43.38042" lon="-5.92698">
        <ele>105.5</ele>
        <time>2016-07-06T07:59:30Z</time>
      </trkpt>
      <trkpt lat="43.38048" lon="-5.92708">
        <ele>105.1</ele>
        <time>2016-07-06T07:59:38Z</time>
      </trkpt>
      <trkpt lat="43.38054" lon="-5.9272">
        <ele>104.9</ele>
        <time>2016-07-06T07:59:46Z</time>
      </trkpt>
      <trkpt lat="43.38059" lon="-5.92732">
        <ele>105.2</ele>
        <time>2016-07-06T07:59:54Z</time>
      </trkpt>
      <trkpt lat="43.38063" lon="-5.92745">
        <ele>105.3</ele>
        <time>2016-07-06T08:00:01Z</time>
      </trkpt>
      <trkpt lat="43.38065" lon="-5.92757">
        <ele>105.3</ele>
        <time>2016-07-06T08:00:08Z</time>
      </trkpt>
      <trkpt lat="43.38068" lon="-5.9277">
        <ele>104.9</ele>
        <time>2016-07-06T08:00:15Z</time>
      </trkpt>
      <trkpt lat="43.38071" lon="-5.92782">
        <ele>105.3</ele>
        <time>2016-07-06T08:00:22Z</time>
      </trkpt>
      <trkpt lat="43.38075" lon="-5.92793">
        <ele>105.3</ele>
        <time>2016-07-06T08:00:29Z</time>
      </trkpt>
      <trkpt lat="43.38079" lon="-5.92805">
        <ele>105</ele>
        <time>2016-07-06T08:00:37Z</time>
      </trkpt>
      <trkpt lat="43.38085" lon="-5.92816">
        <ele>105.5</ele>
        <time>2016-07-06T08:00:45Z</time>
      </trkpt>
      <trkpt lat="43.38091" lon="-5.92826">
        <ele>105.6</ele>
        <time>2016-07-06T08:00:53Z</time>
      </trkpt>
      <trkpt lat="43.38098" lon="-5.92835">
        <ele>105.6</ele>
        <time>2016-07-06T08:01:01Z</time>
      </trkpt>
      <trkpt lat="43.38106" lon="-5.92844">
        <ele>106.1</ele>
        <time>2016-07-06T08:01:09Z</time>
      </trkpt>
      <trkpt lat="43.38113" lon="-5.9285">
        <ele>106.4</ele>
        <time>2016-07-06T08:01:16Z</time>
      </trkpt>
      <trkpt lat="43.38121" lon="-5.92857">
        <ele>106.6</ele>
        <time>2016-07-06T08:01:24Z</time>
      </trkpt>
      <trkpt lat="43.3813" lon="-5.92864">
        <ele>106.7</ele>
        <time>2016-07-06T08:01:32Z</time>
      </trkpt>
      <trkpt lat="43.38137" lon="-5.92872">
        <ele>106.7</ele>
        <time>2016-07-06T08:01:40Z</time>
      </trkpt>
      <trkpt lat="43.38145" lon="-5.92881">
        <ele>106.9</ele>
        <time>2016-07-06T08:01:48Z</time>
      </trkpt>
      <trkpt lat="43.38151" lon="-5.92891">
        <ele>107</ele>
        <time>2016-07-06T08:01:56Z</time>
      </trkpt>
      <trkpt lat="43.38156" lon="-5.92904">
        <ele>107.2</ele>
        <time>2016-07-06T08:02:04Z</time>
      </trkpt>
      <trkpt lat="43.38156" lon="-5.92917">
        <ele>107.4</ele>
        <time>2016-07-06T08:02:12Z</time>
      </trkpt>
      <trkpt lat="43.38154" lon="-5.9293">
        <ele>107.5</ele>
        <time>2016-07-06T08:02:21Z</time>
      </trkpt>
      <trkpt lat="43.38152" lon="-5.92943">
        <ele>107.7</ele>
        <time>2016-07-06T08:02:30Z</time>
      </trkpt>
      <trkpt lat="43.38148" lon="-5.92955">
        <ele>108.2</ele>
        <time>2016-07-06T08:02:38Z</time>
      </trkpt>
      <trkpt lat="43.38144" lon="-5.92968">
        <ele>108.6</ele>
        <time>2016-07-06T08:02:45Z</time>
      </trkpt>
      <trkpt lat="43.38142" lon="-5.9298">
        <ele>109.1</ele>
        <time>2016-07-06T08:02:52Z</time>
      </trkpt>
      <trkpt lat="43.38139" lon="-5.92992">
        <ele>109.5</ele>
        <time>2016-07-06T08:02:59Z</time>
      </trkpt>
      <trkpt lat="43.38138" lon="-5.93006">
        <ele>109.9</ele>
        <time>2016-07-06T08:03:07Z</time>
      </trkpt>
      <trkpt lat="43.38138" lon="-5.93019">
        <ele>109.9</ele>
        <time>2016-07-06T08:03:15Z</time>
      </trkpt>
      <trkpt lat="43.38138" lon="-5.93031">
        <ele>109.9</ele>
        <time>2016-07-06T08:03:22Z</time>
      </trkpt>
      <trkpt lat="43.3814" lon="-5.93045">
        <ele>109.9</ele>
        <time>2016-07-06T08:03:30Z</time>
      </trkpt>
      <trkpt lat="43.38144" lon="-5.93057">
        <ele>109.7</ele>
        <time>2016-07-06T08:03:38Z</time>
      </trkpt>
      <trkpt lat="43.38149" lon="-5.93068">
        <ele>109.7</ele>
        <time>2016-07-06T08:03:47Z</time>
      </trkpt>
      <trkpt lat="43.38155" lon="-5.93079">
        <ele>109.7</ele>
        <time>2016-07-06T08:03:56Z</time>
      </trkpt>
      <trkpt lat="43.38164" lon="-5.93088">
        <ele>109.2</ele>
        <time>2016-07-06T08:04:04Z</time>
      </trkpt>
      <trkpt lat="43.38171" lon="-5.93095">
        <ele>108.9</ele>
        <time>2016-07-06T08:04:12Z</time>
      </trkpt>
      <trkpt lat="43.38179" lon="-5.93101">
        <ele>107.9</ele>
        <time>2016-07-06T08:04:20Z</time>
      </trkpt>
      <trkpt lat="43.38189" lon="-5.93106">
        <ele>107</ele>
        <time>2016-07-06T08:04:28Z</time>
      </trkpt>
      <trkpt lat="43.38198" lon="-5.93107">
        <ele>106.4</ele>
        <time>2016-07-06T08:04:36Z</time>
      </trkpt>
      <trkpt lat="43.38207" lon="-5.93106">
        <ele>105.7</ele>
        <time>2016-07-06T08:04:43Z</time>
      </trkpt>
      <trkpt lat="43.38217" lon="-5.93104">
        <ele>105</ele>
        <time>2016-07-06T08:04:51Z</time>
      </trkpt>
      <trkpt lat="43.38226" lon="-5.93102">
        <ele>104.2</ele>
        <time>2016-07-06T08:05:00Z</time>
      </trkpt>
      <trkpt lat="43.38236" lon="-5.93101">
        <ele>103.6</ele>
        <time>2016-07-06T08:05:09Z</time>
      </trkpt>
      <trkpt lat="43.38245" lon="-5.93096">
        <ele>103.3</ele>
        <time>2016-07-06T08:05:17Z</time>
      </trkpt>
      <trkpt lat="43.38253" lon="-5.93091">
        <ele>102.9</ele>
        <time>2016-07-06T08:05:24Z</time>
      </trkpt>
      <trkpt lat="43.38263" lon="-5.93085">
        <ele>101.8</ele>
        <time>2016-07-06T08:05:32Z</time>
      </trkpt>
      <trkpt lat="43.38273" lon="-5.93083">
        <ele>100.9</ele>
        <time>2016-07-06T08:05:40Z</time>
      </trkpt>
      <trkpt lat="43.38282" lon="-5.93086">
        <ele>100.4</ele>
        <time>2016-07-06T08:05:47Z</time>
      </trkpt>
      <trkpt lat="43.38289" lon="-5.93095">
        <ele>99.9</ele>
        <time>2016-07-06T08:05:55Z</time>
      </trkpt>
      <trkpt lat="43.38296" lon="-5.93103">
        <ele>99.6</ele>
        <time>2016-07-06T08:06:04Z</time>
      </trkpt>
      <trkpt lat="43.38303" lon="-5.93113">
        <ele>99.6</ele>
        <time>2016-07-06T08:06:12Z</time>
      </trkpt>
      <trkpt lat="43.38309" lon="-5.93124">
        <ele>99.8</ele>
        <time>2016-07-06T08:06:21Z</time>
      </trkpt>
      <trkpt lat="43.38315" lon="-5.93134">
        <ele>99.8</ele>
        <time>2016-07-06T08:06:29Z</time>
      </trkpt>
      <trkpt lat="43.38319" lon="-5.93146">
        <ele>99.1</ele>
        <time>2016-07-06T08:06:36Z</time>
      </trkpt>
      <trkpt lat="43.38323" lon="-5.93157">
        <ele>99</ele>
        <time>2016-07-06T08:06:42Z</time>
      </trkpt>
      <trkpt lat="43.38328" lon="-5.93169">
        <ele>99.1</ele>
        <time>2016-07-06T08:06:51Z</time>
      </trkpt>
      <trkpt lat="43.38335" lon="-5.93178">
        <ele>99.5</ele>
        <time>2016-07-06T08:07:00Z</time>
      </trkpt>
      <trkpt lat="43.38343" lon="-5.93185">
        <ele>99.8</ele>
        <time>2016-07-06T08:07:08Z</time>
      </trkpt>
      <trkpt lat="43.38351" lon="-5.93194">
        <ele>100</ele>
        <time>2016-07-06T08:07:16Z</time>
      </trkpt>
      <trkpt lat="43.38359" lon="-5.93201">
        <ele>100.3</ele>
        <time>2016-07-06T08:07:24Z</time>
      </trkpt>
      <trkpt lat="43.38366" lon="-5.93209">
        <ele>100.5</ele>
        <time>2016-07-06T08:07:33Z</time>
      </trkpt>
      <trkpt lat="43.38372" lon="-5.93219">
        <ele>100.7</ele>
        <time>2016-07-06T08:07:41Z</time>
      </trkpt>
      <trkpt lat="43.38378" lon="-5.93231">
        <ele>101.3</ele>
        <time>2016-07-06T08:07:49Z</time>
      </trkpt>
      <trkpt lat="43.38383" lon="-5.93242">
        <ele>102.6</ele>
        <time>2016-07-06T08:07:56Z</time>
      </trkpt>
      <trkpt lat="43.38387" lon="-5.93253">
        <ele>104</ele>
        <time>2016-07-06T08:08:04Z</time>
      </trkpt>
      <trkpt lat="43.38392" lon="-5.93265">
        <ele>104.6</ele>
        <time>2016-07-06T08:08:11Z</time>
      </trkpt>
      <trkpt lat="43.38397" lon="-5.93276">
        <ele>105.3</ele>
        <time>2016-07-06T08:08:19Z</time>
      </trkpt>
      <trkpt lat="43.38403" lon="-5.93285">
        <ele>106</ele>
        <time>2016-07-06T08:08:26Z</time>
      </trkpt>
      <trkpt lat="43.3841" lon="-5.93294">
        <ele>106.8</ele>
        <time>2016-07-06T08:08:34Z</time>
      </trkpt>
      <trkpt lat="43.38418" lon="-5.93302">
        <ele>108.1</ele>
        <time>2016-07-06T08:08:43Z</time>
      </trkpt>
      <trkpt lat="43.38424" lon="-5.93313">
        <ele>108.9</ele>
        <time>2016-07-06T08:08:51Z</time>
      </trkpt>
      <trkpt lat="43.38428" lon="-5.93326">
        <ele>110</ele>
        <time>2016-07-06T08:08:59Z</time>
      </trkpt>
      <trkpt lat="43.38432" lon="-5.93337">
        <ele>110.8</ele>
        <time>2016-07-06T08:09:06Z</time>
      </trkpt>
      <trkpt lat="43.38437" lon="-5.93348">
        <ele>111.3</ele>
        <time>2016-07-06T08:09:13Z</time>
      </trkpt>
      <trkpt lat="43.38443" lon="-5.93359">
        <ele>112.3</ele>
        <time>2016-07-06T08:09:21Z</time>
      </trkpt>
      <trkpt lat="43.38449" lon="-5.93369">
        <ele>113.1</ele>
        <time>2016-07-06T08:09:29Z</time>
      </trkpt>
      <trkpt lat="43.38455" lon="-5.93378">
        <ele>113.6</ele>
        <time>2016-07-06T08:09:37Z</time>
      </trkpt>
      <trkpt lat="43.38461" lon="-5.93389">
        <ele>114.1</ele>
        <time>2016-07-06T08:09:45Z</time>
      </trkpt>
      <trkpt lat="43.38467" lon="-5.934">
        <ele>114.5</ele>
        <time>2016-07-06T08:09:54Z</time>
      </trkpt>
      <trkpt lat="43.38474" lon="-5.9341">
        <ele>116.6</ele>
        <time>2016-07-06T08:11:36Z</time>
      </trkpt>
      <trkpt lat="43.3848" lon="-5.9342">
        <ele>116.7</ele>
        <time>2016-07-06T08:11:46Z</time>
      </trkpt>
      <trkpt lat="43.38486" lon="-5.9343">
        <ele>117</ele>
        <time>2016-07-06T08:11:56Z</time>
      </trkpt>
      <trkpt lat="43.38493" lon="-5.9344">
        <ele>117.4</ele>
        <time>2016-07-06T08:12:05Z</time>
      </trkpt>
      <trkpt lat="43.38498" lon="-5.9345">
        <ele>118</ele>
        <time>2016-07-06T08:12:13Z</time>
      </trkpt>
      <trkpt lat="43.38504" lon="-5.93461">
        <ele>118.8</ele>
        <time>2016-07-06T08:12:25Z</time>
      </trkpt>
      <trkpt lat="43.38509" lon="-5.93473">
        <ele>119.4</ele>
        <time>2016-07-06T08:12:35Z</time>
      </trkpt>
      <trkpt lat="43.38514" lon="-5.93483">
        <ele>119.9</ele>
        <time>2016-07-06T08:12:43Z</time>
      </trkpt>
      <trkpt lat="43.3852" lon="-5.93493">
        <ele>120.7</ele>
        <time>2016-07-06T08:12:52Z</time>
      </trkpt>
      <trkpt lat="43.38527" lon="-5.93502">
        <ele>121.2</ele>
        <time>2016-07-06T08:13:01Z</time>
      </trkpt>
      <trkpt lat="43.38532" lon="-5.93514">
        <ele>121.8</ele>
        <time>2016-07-06T08:13:10Z</time>
      </trkpt>
      <trkpt lat="43.38539" lon="-5.93522">
        <ele>122.5</ele>
        <time>2016-07-06T08:13:19Z</time>
      </trkpt>
      <trkpt lat="43.38544" lon="-5.93533">
        <ele>123.2</ele>
        <time>2016-07-06T08:13:27Z</time>
      </trkpt>
      <trkpt lat="43.38549" lon="-5.93545">
        <ele>124.1</ele>
        <time>2016-07-06T08:13:36Z</time>
      </trkpt>
      <trkpt lat="43.38554" lon="-5.93556">
        <ele>124.9</ele>
        <time>2016-07-06T08:13:44Z</time>
      </trkpt>
      <trkpt lat="43.3856" lon="-5.93566">
        <ele>125.4</ele>
        <time>2016-07-06T08:13:53Z</time>
      </trkpt>
      <trkpt lat="43.38566" lon="-5.93577">
        <ele>125.8</ele>
        <time>2016-07-06T08:14:01Z</time>
      </trkpt>
      <trkpt lat="43.38571" lon="-5.93587">
        <ele>126.5</ele>
        <time>2016-07-06T08:14:09Z</time>
      </trkpt>
      <trkpt lat="43.38577" lon="-5.93597">
        <ele>127.3</ele>
        <time>2016-07-06T08:14:17Z</time>
      </trkpt>
      <trkpt lat="43.38583" lon="-5.93607">
        <ele>128</ele>
        <time>2016-07-06T08:14:25Z</time>
      </trkpt>
      <trkpt lat="43.38589" lon="-5.93618">
        <ele>128.7</ele>
        <time>2016-07-06T08:14:34Z</time>
      </trkpt>
      <trkpt lat="43.38595" lon="-5.93628">
        <ele>129.6</ele>
        <time>2016-07-06T08:14:42Z</time>
      </trkpt>
      <trkpt lat="43.386" lon="-5.93638">
        <ele>130.7</ele>
        <time>2016-07-06T08:14:52Z</time>
      </trkpt>
      <trkpt lat="43.38607" lon="-5.93648">
        <ele>131.5</ele>
        <time>2016-07-06T08:15:00Z</time>
      </trkpt>
      <trkpt lat="43.38614" lon="-5.93658">
        <ele>132.8</ele>
        <time>2016-07-06T08:15:09Z</time>
      </trkpt>
      <trkpt lat="43.38619" lon="-5.93668">
        <ele>134.2</ele>
        <time>2016-07-06T08:15:18Z</time>
      </trkpt>
      <trkpt lat="43.38625" lon="-5.93678">
        <ele>135.6</ele>
        <time>2016-07-06T08:15:27Z</time>
      </trkpt>
      <trkpt lat="43.38631" lon="-5.93688">
        <ele>137</ele>
        <time>2016-07-06T08:15:36Z</time>
      </trkpt>
      <trkpt lat="43.38635" lon="-5.93701">
        <ele>138</ele>
        <time>2016-07-06T08:15:45Z</time>
      </trkpt>
      <trkpt lat="43.38639" lon="-5.93713">
        <ele>138.7</ele>
        <time>2016-07-06T08:15:54Z</time>
      </trkpt>
      <trkpt lat="43.38643" lon="-5.93724">
        <ele>139.6</ele>
        <time>2016-07-06T08:16:03Z</time>
      </trkpt>
      <trkpt lat="43.38647" lon="-5.93736">
        <ele>140.6</ele>
        <time>2016-07-06T08:16:13Z</time>
      </trkpt>
      <trkpt lat="43.38652" lon="-5.93747">
        <ele>141.3</ele>
        <time>2016-07-06T08:16:23Z</time>
      </trkpt>
      <trkpt lat="43.38659" lon="-5.93756">
        <ele>143</ele>
        <time>2016-07-06T08:16:48Z</time>
      </trkpt>
      <trkpt lat="43.38667" lon="-5.93763">
        <ele>143.8</ele>
        <time>2016-07-06T08:17:12Z</time>
      </trkpt>
      <trkpt lat="43.38672" lon="-5.93773">
        <ele>144.1</ele>
        <time>2016-07-06T08:17:21Z</time>
      </trkpt>
      <trkpt lat="43.38673" lon="-5.93786">
        <ele>144.2</ele>
        <time>2016-07-06T08:17:30Z</time>
      </trkpt>
      <trkpt lat="43.38676" lon="-5.93798">
        <ele>144.5</ele>
        <time>2016-07-06T08:17:39Z</time>
      </trkpt>
      <trkpt lat="43.38678" lon="-5.93811">
        <ele>145.4</ele>
        <time>2016-07-06T08:17:48Z</time>
      </trkpt>
      <trkpt lat="43.38681" lon="-5.93824">
        <ele>146.3</ele>
        <time>2016-07-06T08:17:56Z</time>
      </trkpt>
      <trkpt lat="43.38682" lon="-5.93837">
        <ele>147.1</ele>
        <time>2016-07-06T08:18:04Z</time>
      </trkpt>
      <trkpt lat="43.38682" lon="-5.9385">
        <ele>147.7</ele>
        <time>2016-07-06T08:18:12Z</time>
      </trkpt>
      <trkpt lat="43.38684" lon="-5.93863">
        <ele>148.2</ele>
        <time>2016-07-06T08:18:21Z</time>
      </trkpt>
      <trkpt lat="43.38682" lon="-5.93877">
        <ele>148.9</ele>
        <time>2016-07-06T08:18:29Z</time>
      </trkpt>
      <trkpt lat="43.38682" lon="-5.9389">
        <ele>149.4</ele>
        <time>2016-07-06T08:18:36Z</time>
      </trkpt>
      <trkpt lat="43.38681" lon="-5.93902">
        <ele>149.7</ele>
        <time>2016-07-06T08:18:43Z</time>
      </trkpt>
      <trkpt lat="43.38683" lon="-5.93915">
        <ele>150</ele>
        <time>2016-07-06T08:18:50Z</time>
      </trkpt>
      <trkpt lat="43.38685" lon="-5.93927">
        <ele>150.2</ele>
        <time>2016-07-06T08:18:58Z</time>
      </trkpt>
      <trkpt lat="43.38688" lon="-5.93939">
        <ele>150.7</ele>
        <time>2016-07-06T08:19:05Z</time>
      </trkpt>
      <trkpt lat="43.38695" lon="-5.93947">
        <ele>151.2</ele>
        <time>2016-07-06T08:19:11Z</time>
      </trkpt>
      <trkpt lat="43.38703" lon="-5.93958">
        <ele>151.6</ele>
        <time>2016-07-06T08:19:18Z</time>
      </trkpt>
      <trkpt lat="43.38711" lon="-5.93963">
        <ele>151.9</ele>
        <time>2016-07-06T08:19:23Z</time>
      </trkpt>
      <trkpt lat="43.38715" lon="-5.93976">
        <ele>152.7</ele>
        <time>2016-07-06T08:19:31Z</time>
      </trkpt>
      <trkpt lat="43.3872" lon="-5.93987">
        <ele>153.8</ele>
        <time>2016-07-06T08:19:39Z</time>
      </trkpt>
      <trkpt lat="43.38725" lon="-5.93998">
        <ele>154.8</ele>
        <time>2016-07-06T08:19:47Z</time>
      </trkpt>
      <trkpt lat="43.3873" lon="-5.94009">
        <ele>155.6</ele>
        <time>2016-07-06T08:19:55Z</time>
      </trkpt>
      <trkpt lat="43.38736" lon="-5.9402">
        <ele>156.5</ele>
        <time>2016-07-06T08:20:03Z</time>
      </trkpt>
      <trkpt lat="43.38739" lon="-5.94033">
        <ele>157.9</ele>
        <time>2016-07-06T08:20:12Z</time>
      </trkpt>
      <trkpt lat="43.38744" lon="-5.94043">
        <ele>158.9</ele>
        <time>2016-07-06T08:20:20Z</time>
      </trkpt>
      <trkpt lat="43.38749" lon="-5.94054">
        <ele>159.6</ele>
        <time>2016-07-06T08:20:28Z</time>
      </trkpt>
      <trkpt lat="43.38754" lon="-5.94064">
        <ele>160.2</ele>
        <time>2016-07-06T08:20:36Z</time>
      </trkpt>
      <trkpt lat="43.3876" lon="-5.94074">
        <ele>160.6</ele>
        <time>2016-07-06T08:20:44Z</time>
      </trkpt>
      <trkpt lat="43.38766" lon="-5.94085">
        <ele>161.9</ele>
        <time>2016-07-06T08:20:55Z</time>
      </trkpt>
      <trkpt lat="43.38774" lon="-5.94091">
        <ele>163.1</ele>
        <time>2016-07-06T08:21:04Z</time>
      </trkpt>
      <trkpt lat="43.38784" lon="-5.94095">
        <ele>164.4</ele>
        <time>2016-07-06T08:21:13Z</time>
      </trkpt>
      <trkpt lat="43.38794" lon="-5.94096">
        <ele>165.8</ele>
        <time>2016-07-06T08:21:24Z</time>
      </trkpt>
      <trkpt lat="43.38803" lon="-5.94095">
        <ele>166.8</ele>
        <time>2016-07-06T08:21:33Z</time>
      </trkpt>
      <trkpt lat="43.3881" lon="-5.94086">
        <ele>168</ele>
        <time>2016-07-06T08:21:44Z</time>
      </trkpt>
      <trkpt lat="43.38817" lon="-5.94078">
        <ele>169.6</ele>
        <time>2016-07-06T08:21:53Z</time>
      </trkpt>
      <trkpt lat="43.38823" lon="-5.94069">
        <ele>170.2</ele>
        <time>2016-07-06T08:22:00Z</time>
      </trkpt>
      <trkpt lat="43.38831" lon="-5.94063">
        <ele>171.5</ele>
        <time>2016-07-06T08:22:11Z</time>
      </trkpt>
      <trkpt lat="43.38841" lon="-5.94063">
        <ele>172.2</ele>
        <time>2016-07-06T08:22:20Z</time>
      </trkpt>
      <trkpt lat="43.38851" lon="-5.94065">
        <ele>173</ele>
        <time>2016-07-06T08:22:29Z</time>
      </trkpt>
      <trkpt lat="43.3886" lon="-5.94068">
        <ele>174.2</ele>
        <time>2016-07-06T08:22:37Z</time>
      </trkpt>
      <trkpt lat="43.38869" lon="-5.94072">
        <ele>175</ele>
        <time>2016-07-06T08:22:44Z</time>
      </trkpt>
      <trkpt lat="43.38878" lon="-5.94077">
        <ele>176</ele>
        <time>2016-07-06T08:22:53Z</time>
      </trkpt>
      <trkpt lat="43.38886" lon="-5.94082">
        <ele>176.7</ele>
        <time>2016-07-06T08:23:01Z</time>
      </trkpt>
      <trkpt lat="43.38894" lon="-5.94087">
        <ele>178.5</ele>
        <time>2016-07-06T08:23:21Z</time>
      </trkpt>
      <trkpt lat="43.38901" lon="-5.94097">
        <ele>179.3</ele>
        <time>2016-07-06T08:23:31Z</time>
      </trkpt>
      <trkpt lat="43.38906" lon="-5.94108">
        <ele>180.2</ele>
        <time>2016-07-06T08:23:40Z</time>
      </trkpt>
      <trkpt lat="43.3891" lon="-5.9412">
        <ele>180.7</ele>
        <time>2016-07-06T08:23:49Z</time>
      </trkpt>
      <trkpt lat="43.38913" lon="-5.94132">
        <ele>181.8</ele>
        <time>2016-07-06T08:23:59Z</time>
      </trkpt>
      <trkpt lat="43.38914" lon="-5.94146">
        <ele>182.5</ele>
        <time>2016-07-06T08:24:09Z</time>
      </trkpt>
      <trkpt lat="43.38914" lon="-5.94158">
        <ele>183.2</ele>
        <time>2016-07-06T08:24:19Z</time>
      </trkpt>
      <trkpt lat="43.38912" lon="-5.94171">
        <ele>184</ele>
        <time>2016-07-06T08:24:27Z</time>
      </trkpt>
      <trkpt lat="43.3891" lon="-5.94183">
        <ele>184.7</ele>
        <time>2016-07-06T08:24:34Z</time>
      </trkpt>
      <trkpt lat="43.38907" lon="-5.94195">
        <ele>185.6</ele>
        <time>2016-07-06T08:24:41Z</time>
      </trkpt>
      <trkpt lat="43.38904" lon="-5.94209">
        <ele>186.1</ele>
        <time>2016-07-06T08:24:48Z</time>
      </trkpt>
      <trkpt lat="43.38901" lon="-5.94223">
        <ele>186.4</ele>
        <time>2016-07-06T08:24:55Z</time>
      </trkpt>
      <trkpt lat="43.38898" lon="-5.94235">
        <ele>187.1</ele>
        <time>2016-07-06T08:25:02Z</time>
      </trkpt>
      <trkpt lat="43.38896" lon="-5.94248">
        <ele>187.4</ele>
        <time>2016-07-06T08:25:09Z</time>
      </trkpt>
      <trkpt lat="43.38892" lon="-5.94261">
        <ele>188.2</ele>
        <time>2016-07-06T08:25:21Z</time>
      </trkpt>
      <trkpt lat="43.3889" lon="-5.94273">
        <ele>188.6</ele>
        <time>2016-07-06T08:25:29Z</time>
      </trkpt>
      <trkpt lat="43.38886" lon="-5.94286">
        <ele>189</ele>
        <time>2016-07-06T08:25:37Z</time>
      </trkpt>
      <trkpt lat="43.38883" lon="-5.94298">
        <ele>189.5</ele>
        <time>2016-07-06T08:25:45Z</time>
      </trkpt>
      <trkpt lat="43.3888" lon="-5.94311">
        <ele>189.8</ele>
        <time>2016-07-06T08:25:53Z</time>
      </trkpt>
      <trkpt lat="43.38879" lon="-5.94323">
        <ele>190.3</ele>
        <time>2016-07-06T08:26:01Z</time>
      </trkpt>
      <trkpt lat="43.38878" lon="-5.94336">
        <ele>190.9</ele>
        <time>2016-07-06T08:26:10Z</time>
      </trkpt>
      <trkpt lat="43.38878" lon="-5.94349">
        <ele>191.6</ele>
        <time>2016-07-06T08:26:18Z</time>
      </trkpt>
      <trkpt lat="43.38879" lon="-5.94362">
        <ele>192.4</ele>
        <time>2016-07-06T08:26:28Z</time>
      </trkpt>
      <trkpt lat="43.38879" lon="-5.94375">
        <ele>193.6</ele>
        <time>2016-07-06T08:26:38Z</time>
      </trkpt>
      <trkpt lat="43.38879" lon="-5.94388">
        <ele>194.7</ele>
        <time>2016-07-06T08:26:47Z</time>
      </trkpt>
      <trkpt lat="43.38882" lon="-5.944">
        <ele>195.7</ele>
        <time>2016-07-06T08:26:56Z</time>
      </trkpt>
      <trkpt lat="43.38883" lon="-5.94414">
        <ele>196.8</ele>
        <time>2016-07-06T08:27:06Z</time>
      </trkpt>
      <trkpt lat="43.38882" lon="-5.94427">
        <ele>197.6</ele>
        <time>2016-07-06T08:27:16Z</time>
      </trkpt>
      <trkpt lat="43.38887" lon="-5.94438">
        <ele>198.2</ele>
        <time>2016-07-06T08:27:26Z</time>
      </trkpt>
      <trkpt lat="43.38893" lon="-5.94448">
        <ele>199.4</ele>
        <time>2016-07-06T08:27:35Z</time>
      </trkpt>
      <trkpt lat="43.38898" lon="-5.94459">
        <ele>200.1</ele>
        <time>2016-07-06T08:27:43Z</time>
      </trkpt>
      <trkpt lat="43.38902" lon="-5.94471">
        <ele>200.5</ele>
        <time>2016-07-06T08:27:52Z</time>
      </trkpt>
      <trkpt lat="43.38905" lon="-5.94483">
        <ele>200.5</ele>
        <time>2016-07-06T08:28:01Z</time>
      </trkpt>
      <trkpt lat="43.38911" lon="-5.94494">
        <ele>200.3</ele>
        <time>2016-07-06T08:28:10Z</time>
      </trkpt>
      <trkpt lat="43.38918" lon="-5.94502">
        <ele>200.1</ele>
        <time>2016-07-06T08:28:20Z</time>
      </trkpt>
      <trkpt lat="43.38928" lon="-5.94498">
        <ele>199.8</ele>
        <time>2016-07-06T08:28:29Z</time>
      </trkpt>
      <trkpt lat="43.38936" lon="-5.94492">
        <ele>199.2</ele>
        <time>2016-07-06T08:28:38Z</time>
      </trkpt>
      <trkpt lat="43.38945" lon="-5.94488">
        <ele>198.9</ele>
        <time>2016-07-06T08:28:46Z</time>
      </trkpt>
      <trkpt lat="43.38954" lon="-5.94485">
        <ele>199.1</ele>
        <time>2016-07-06T08:28:54Z</time>
      </trkpt>
      <trkpt lat="43.38963" lon="-5.94483">
        <ele>199.4</ele>
        <time>2016-07-06T08:29:03Z</time>
      </trkpt>
      <trkpt lat="43.38973" lon="-5.9448">
        <ele>199.5</ele>
        <time>2016-07-06T08:29:14Z</time>
      </trkpt>
      <trkpt lat="43.38982" lon="-5.94481">
        <ele>199.8</ele>
        <time>2016-07-06T08:29:23Z</time>
      </trkpt>
      <trkpt lat="43.38991" lon="-5.94485">
        <ele>200.1</ele>
        <time>2016-07-06T08:29:30Z</time>
      </trkpt>
      <trkpt lat="43.38999" lon="-5.94492">
        <ele>200.6</ele>
        <time>2016-07-06T08:29:38Z</time>
      </trkpt>
      <trkpt lat="43.39006" lon="-5.945">
        <ele>201.2</ele>
        <time>2016-07-06T08:29:46Z</time>
      </trkpt>
      <trkpt lat="43.39014" lon="-5.94505">
        <ele>201.8</ele>
        <time>2016-07-06T08:29:53Z</time>
      </trkpt>
      <trkpt lat="43.39024" lon="-5.94507">
        <ele>202.3</ele>
        <time>2016-07-06T08:30:00Z</time>
      </trkpt>
      <trkpt lat="43.39033" lon="-5.94503">
        <ele>202.9</ele>
        <time>2016-07-06T08:30:08Z</time>
      </trkpt>
      <trkpt lat="43.39042" lon="-5.94499">
        <ele>203.6</ele>
        <time>2016-07-06T08:30:17Z</time>
      </trkpt>
      <trkpt lat="43.3905" lon="-5.94506">
        <ele>204.3</ele>
        <time>2016-07-06T08:30:27Z</time>
      </trkpt>
      <trkpt lat="43.39057" lon="-5.94514">
        <ele>205</ele>
        <time>2016-07-06T08:30:38Z</time>
      </trkpt>
      <trkpt lat="43.39062" lon="-5.94526">
        <ele>205.8</ele>
        <time>2016-07-06T08:30:47Z</time>
      </trkpt>
      <trkpt lat="43.39064" lon="-5.94538">
        <ele>206.4</ele>
        <time>2016-07-06T08:30:55Z</time>
      </trkpt>
      <trkpt lat="43.39065" lon="-5.94551">
        <ele>207.2</ele>
        <time>2016-07-06T08:31:03Z</time>
      </trkpt>
      <trkpt lat="43.39065" lon="-5.94564">
        <ele>208.4</ele>
        <time>2016-07-06T08:31:13Z</time>
      </trkpt>
      <trkpt lat="43.39066" lon="-5.94578">
        <ele>209.7</ele>
        <time>2016-07-06T08:31:25Z</time>
      </trkpt>
      <trkpt lat="43.39065" lon="-5.94592">
        <ele>211.1</ele>
        <time>2016-07-06T08:31:36Z</time>
      </trkpt>
      <trkpt lat="43.39059" lon="-5.94603">
        <ele>212.5</ele>
        <time>2016-07-06T08:31:48Z</time>
      </trkpt>
      <trkpt lat="43.39051" lon="-5.9461">
        <ele>214.4</ele>
        <time>2016-07-06T08:32:00Z</time>
      </trkpt>
      <trkpt lat="43.39042" lon="-5.94613">
        <ele>216.5</ele>
        <time>2016-07-06T08:32:26Z</time>
      </trkpt>
      <trkpt lat="43.39033" lon="-5.94619">
        <ele>216.9</ele>
        <time>2016-07-06T08:32:35Z</time>
      </trkpt>
      <trkpt lat="43.39026" lon="-5.94627">
        <ele>217.8</ele>
        <time>2016-07-06T08:32:44Z</time>
      </trkpt>
      <trkpt lat="43.39017" lon="-5.94633">
        <ele>218.8</ele>
        <time>2016-07-06T08:32:53Z</time>
      </trkpt>
      <trkpt lat="43.39009" lon="-5.9464">
        <ele>219.9</ele>
        <time>2016-07-06T08:33:03Z</time>
      </trkpt>
      <trkpt lat="43.39004" lon="-5.9465">
        <ele>222.2</ele>
        <time>2016-07-06T08:33:18Z</time>
      </trkpt>
      <trkpt lat="43.39009" lon="-5.94663">
        <ele>224.1</ele>
        <time>2016-07-06T08:33:30Z</time>
      </trkpt>
      <trkpt lat="43.39013" lon="-5.94674">
        <ele>225.8</ele>
        <time>2016-07-06T08:33:41Z</time>
      </trkpt>
      <trkpt lat="43.39019" lon="-5.94684">
        <ele>226.3</ele>
        <time>2016-07-06T08:33:49Z</time>
      </trkpt>
      <trkpt lat="43.39026" lon="-5.94693">
        <ele>227.4</ele>
        <time>2016-07-06T08:33:58Z</time>
      </trkpt>
      <trkpt lat="43.39031" lon="-5.94704">
        <ele>228.8</ele>
        <time>2016-07-06T08:34:08Z</time>
      </trkpt>
      <trkpt lat="43.39037" lon="-5.94715">
        <ele>230.4</ele>
        <time>2016-07-06T08:34:23Z</time>
      </trkpt>
      <trkpt lat="43.39042" lon="-5.94727">
        <ele>231.4</ele>
        <time>2016-07-06T08:34:32Z</time>
      </trkpt>
      <trkpt lat="43.39049" lon="-5.94738">
        <ele>232.5</ele>
        <time>2016-07-06T08:34:41Z</time>
      </trkpt>
      <trkpt lat="43.39055" lon="-5.94748">
        <ele>233.4</ele>
        <time>2016-07-06T08:34:50Z</time>
      </trkpt>
      <trkpt lat="43.39058" lon="-5.94761">
        <ele>234.2</ele>
        <time>2016-07-06T08:34:58Z</time>
      </trkpt>
      <trkpt lat="43.39061" lon="-5.94773">
        <ele>235.3</ele>
        <time>2016-07-06T08:35:07Z</time>
      </trkpt>
      <trkpt lat="43.39065" lon="-5.94785">
        <ele>236.7</ele>
        <time>2016-07-06T08:35:16Z</time>
      </trkpt>
      <trkpt lat="43.39071" lon="-5.94795">
        <ele>237.8</ele>
        <time>2016-07-06T08:35:26Z</time>
      </trkpt>
      <trkpt lat="43.39079" lon="-5.94802">
        <ele>238.5</ele>
        <time>2016-07-06T08:35:35Z</time>
      </trkpt>
      <trkpt lat="43.39086" lon="-5.94812">
        <ele>240.2</ele>
        <time>2016-07-06T08:35:43Z</time>
      </trkpt>
      <trkpt lat="43.39094" lon="-5.94817">
        <ele>239.4</ele>
        <time>2016-07-06T08:35:51Z</time>
      </trkpt>
      <trkpt lat="43.39103" lon="-5.94822">
        <ele>238.4</ele>
        <time>2016-07-06T08:35:58Z</time>
      </trkpt>
      <trkpt lat="43.3911" lon="-5.94832">
        <ele>240.6</ele>
        <time>2016-07-06T08:36:13Z</time>
      </trkpt>
      <trkpt lat="43.39117" lon="-5.94839">
        <ele>241.2</ele>
        <time>2016-07-06T08:36:23Z</time>
      </trkpt>
      <trkpt lat="43.39126" lon="-5.9484">
        <ele>241.7</ele>
        <time>2016-07-06T08:36:34Z</time>
      </trkpt>
      <trkpt lat="43.39136" lon="-5.94841">
        <ele>242.3</ele>
        <time>2016-07-06T08:36:44Z</time>
      </trkpt>
      <trkpt lat="43.39146" lon="-5.94842">
        <ele>242.6</ele>
        <time>2016-07-06T08:36:52Z</time>
      </trkpt>
      <trkpt lat="43.39155" lon="-5.94845">
        <ele>243</ele>
        <time>2016-07-06T08:36:58Z</time>
      </trkpt>
      <trkpt lat="43.39164" lon="-5.9485">
        <ele>243.3</ele>
        <time>2016-07-06T08:37:05Z</time>
      </trkpt>
      <trkpt lat="43.39174" lon="-5.94852">
        <ele>243.5</ele>
        <time>2016-07-06T08:37:12Z</time>
      </trkpt>
      <trkpt lat="43.39183" lon="-5.94854">
        <ele>243.5</ele>
        <time>2016-07-06T08:37:19Z</time>
      </trkpt>
      <trkpt lat="43.39193" lon="-5.94855">
        <ele>243.2</ele>
        <time>2016-07-06T08:37:28Z</time>
      </trkpt>
      <trkpt lat="43.39202" lon="-5.94856">
        <ele>243.2</ele>
        <time>2016-07-06T08:37:38Z</time>
      </trkpt>
      <trkpt lat="43.39212" lon="-5.94854">
        <ele>243.1</ele>
        <time>2016-07-06T08:37:49Z</time>
      </trkpt>
      <trkpt lat="43.39221" lon="-5.94854">
        <ele>243.2</ele>
        <time>2016-07-06T08:37:57Z</time>
      </trkpt>
      <trkpt lat="43.3923" lon="-5.94855">
        <ele>242.9</ele>
        <time>2016-07-06T08:38:05Z</time>
      </trkpt>
      <trkpt lat="43.3924" lon="-5.94854">
        <ele>242.5</ele>
        <time>2016-07-06T08:38:12Z</time>
      </trkpt>
      <trkpt lat="43.3925" lon="-5.94853">
        <ele>242</ele>
        <time>2016-07-06T08:38:20Z</time>
      </trkpt>
      <trkpt lat="43.3926" lon="-5.94855">
        <ele>241.8</ele>
        <time>2016-07-06T08:38:27Z</time>
      </trkpt>
      <trkpt lat="43.39269" lon="-5.94858">
        <ele>241.7</ele>
        <time>2016-07-06T08:38:33Z</time>
      </trkpt>
      <trkpt lat="43.39278" lon="-5.94864">
        <ele>241.7</ele>
        <time>2016-07-06T08:38:40Z</time>
      </trkpt>
      <trkpt lat="43.39287" lon="-5.9487">
        <ele>241.7</ele>
        <time>2016-07-06T08:38:48Z</time>
      </trkpt>
      <trkpt lat="43.39295" lon="-5.94877">
        <ele>241.8</ele>
        <time>2016-07-06T08:38:55Z</time>
      </trkpt>
      <trkpt lat="43.39302" lon="-5.94885">
        <ele>241.5</ele>
        <time>2016-07-06T08:39:02Z</time>
      </trkpt>
      <trkpt lat="43.39309" lon="-5.94894">
        <ele>241.2</ele>
        <time>2016-07-06T08:39:09Z</time>
      </trkpt>
      <trkpt lat="43.39316" lon="-5.94902">
        <ele>240.8</ele>
        <time>2016-07-06T08:39:20Z</time>
      </trkpt>
      <trkpt lat="43.39323" lon="-5.94911">
        <ele>240.8</ele>
        <time>2016-07-06T08:39:30Z</time>
      </trkpt>
      <trkpt lat="43.3933" lon="-5.94918">
        <ele>240.8</ele>
        <time>2016-07-06T08:39:59Z</time>
      </trkpt>
      <trkpt lat="43.39335" lon="-5.94928">
        <ele>240.8</ele>
        <time>2016-07-06T08:40:08Z</time>
      </trkpt>
      <trkpt lat="43.39342" lon="-5.94937">
        <ele>240.9</ele>
        <time>2016-07-06T08:40:15Z</time>
      </trkpt>
      <trkpt lat="43.3935" lon="-5.94947">
        <ele>241</ele>
        <time>2016-07-06T08:40:24Z</time>
      </trkpt>
      <trkpt lat="43.39356" lon="-5.94957">
        <ele>240.8</ele>
        <time>2016-07-06T08:40:33Z</time>
      </trkpt>
      <trkpt lat="43.3936" lon="-5.94968">
        <ele>240.8</ele>
        <time>2016-07-06T08:40:40Z</time>
      </trkpt>
      <trkpt lat="43.39365" lon="-5.9498">
        <ele>241</ele>
        <time>2016-07-06T08:40:47Z</time>
      </trkpt>
      <trkpt lat="43.39372" lon="-5.9499">
        <ele>241.1</ele>
        <time>2016-07-06T08:40:54Z</time>
      </trkpt>
      <trkpt lat="43.39377" lon="-5.95001">
        <ele>241.3</ele>
        <time>2016-07-06T08:41:01Z</time>
      </trkpt>
      <trkpt lat="43.39382" lon="-5.95012">
        <ele>241.1</ele>
        <time>2016-07-06T08:41:07Z</time>
      </trkpt>
      <trkpt lat="43.39388" lon="-5.95024">
        <ele>241.2</ele>
        <time>2016-07-06T08:41:14Z</time>
      </trkpt>
      <trkpt lat="43.39392" lon="-5.95036">
        <ele>241.1</ele>
        <time>2016-07-06T08:41:20Z</time>
      </trkpt>
      <trkpt lat="43.39395" lon="-5.95048">
        <ele>241.1</ele>
        <time>2016-07-06T08:41:26Z</time>
      </trkpt>
      <trkpt lat="43.39398" lon="-5.95059">
        <ele>241.3</ele>
        <time>2016-07-06T08:41:34Z</time>
      </trkpt>
      <trkpt lat="43.39403" lon="-5.95071">
        <ele>241</ele>
        <time>2016-07-06T08:41:41Z</time>
      </trkpt>
      <trkpt lat="43.39407" lon="-5.95082">
        <ele>240.7</ele>
        <time>2016-07-06T08:41:47Z</time>
      </trkpt>
      <trkpt lat="43.39412" lon="-5.95095">
        <ele>240.5</ele>
        <time>2016-07-06T08:41:54Z</time>
      </trkpt>
      <trkpt lat="43.39417" lon="-5.95106">
        <ele>240.4</ele>
        <time>2016-07-06T08:42:01Z</time>
      </trkpt>
      <trkpt lat="43.39422" lon="-5.95118">
        <ele>240.7</ele>
        <time>2016-07-06T08:42:09Z</time>
      </trkpt>
      <trkpt lat="43.39426" lon="-5.9513">
        <ele>240.2</ele>
        <time>2016-07-06T08:42:18Z</time>
      </trkpt>
      <trkpt lat="43.39426" lon="-5.95143">
        <ele>239.8</ele>
        <time>2016-07-06T08:42:27Z</time>
      </trkpt>
      <trkpt lat="43.3943" lon="-5.95155">
        <ele>239.7</ele>
        <time>2016-07-06T08:42:35Z</time>
      </trkpt>
      <trkpt lat="43.39436" lon="-5.95165">
        <ele>239.6</ele>
        <time>2016-07-06T08:42:42Z</time>
      </trkpt>
      <trkpt lat="43.39444" lon="-5.95173">
        <ele>239.6</ele>
        <time>2016-07-06T08:42:49Z</time>
      </trkpt>
      <trkpt lat="43.39452" lon="-5.95181">
        <ele>239.6</ele>
        <time>2016-07-06T08:42:54Z</time>
      </trkpt>
      <trkpt lat="43.3946" lon="-5.95188">
        <ele>239.7</ele>
        <time>2016-07-06T08:43:00Z</time>
      </trkpt>
      <trkpt lat="43.39468" lon="-5.95194">
        <ele>239.7</ele>
        <time>2016-07-06T08:43:06Z</time>
      </trkpt>
      <trkpt lat="43.39476" lon="-5.95201">
        <ele>239.7</ele>
        <time>2016-07-06T08:43:12Z</time>
      </trkpt>
      <trkpt lat="43.39484" lon="-5.95208">
        <ele>239.8</ele>
        <time>2016-07-06T08:43:19Z</time>
      </trkpt>
      <trkpt lat="43.39492" lon="-5.95215">
        <ele>239.9</ele>
        <time>2016-07-06T08:43:26Z</time>
      </trkpt>
      <trkpt lat="43.39501" lon="-5.95223">
        <ele>240</ele>
        <time>2016-07-06T08:43:34Z</time>
      </trkpt>
      <trkpt lat="43.39509" lon="-5.9523">
        <ele>240</ele>
        <time>2016-07-06T08:43:42Z</time>
      </trkpt>
      <trkpt lat="43.39518" lon="-5.95234">
        <ele>240.1</ele>
        <time>2016-07-06T08:43:51Z</time>
      </trkpt>
      <trkpt lat="43.39527" lon="-5.95239">
        <ele>240</ele>
        <time>2016-07-06T08:43:58Z</time>
      </trkpt>
      <trkpt lat="43.39536" lon="-5.95241">
        <ele>240</ele>
        <time>2016-07-06T08:44:06Z</time>
      </trkpt>
      <trkpt lat="43.39545" lon="-5.95242">
        <ele>239.9</ele>
        <time>2016-07-06T08:44:13Z</time>
      </trkpt>
      <trkpt lat="43.39555" lon="-5.95244">
        <ele>239.7</ele>
        <time>2016-07-06T08:44:21Z</time>
      </trkpt>
      <trkpt lat="43.39564" lon="-5.95244">
        <ele>239.8</ele>
        <time>2016-07-06T08:44:28Z</time>
      </trkpt>
      <trkpt lat="43.39574" lon="-5.95241">
        <ele>240</ele>
        <time>2016-07-06T08:44:35Z</time>
      </trkpt>
      <trkpt lat="43.39583" lon="-5.95238">
        <ele>240.1</ele>
        <time>2016-07-06T08:44:43Z</time>
      </trkpt>
      <trkpt lat="43.39592" lon="-5.95235">
        <ele>240.3</ele>
        <time>2016-07-06T08:44:50Z</time>
      </trkpt>
      <trkpt lat="43.39602" lon="-5.95235">
        <ele>240.4</ele>
        <time>2016-07-06T08:44:57Z</time>
      </trkpt>
      <trkpt lat="43.39612" lon="-5.95236">
        <ele>240.4</ele>
        <time>2016-07-06T08:45:04Z</time>
      </trkpt>
      <trkpt lat="43.39622" lon="-5.95236">
        <ele>240.5</ele>
        <time>2016-07-06T08:45:11Z</time>
      </trkpt>
      <trkpt lat="43.39631" lon="-5.95237">
        <ele>240.5</ele>
        <time>2016-07-06T08:45:18Z</time>
      </trkpt>
      <trkpt lat="43.39641" lon="-5.95238">
        <ele>240.7</ele>
        <time>2016-07-06T08:45:26Z</time>
      </trkpt>
      <trkpt lat="43.39651" lon="-5.95239">
        <ele>240.8</ele>
        <time>2016-07-06T08:45:33Z</time>
      </trkpt>
      <trkpt lat="43.39661" lon="-5.95241">
        <ele>241.1</ele>
        <time>2016-07-06T08:45:41Z</time>
      </trkpt>
      <trkpt lat="43.3967" lon="-5.95241">
        <ele>241.3</ele>
        <time>2016-07-06T08:45:49Z</time>
      </trkpt>
      <trkpt lat="43.39679" lon="-5.95242">
        <ele>241.5</ele>
        <time>2016-07-06T08:45:57Z</time>
      </trkpt>
      <trkpt lat="43.39689" lon="-5.95246">
        <ele>241.7</ele>
        <time>2016-07-06T08:46:07Z</time>
      </trkpt>
      <trkpt lat="43.39698" lon="-5.95248">
        <ele>241.7</ele>
        <time>2016-07-06T08:46:15Z</time>
      </trkpt>
      <trkpt lat="43.39708" lon="-5.95251">
        <ele>241.8</ele>
        <time>2016-07-06T08:46:23Z</time>
      </trkpt>
      <trkpt lat="43.39717" lon="-5.95255">
        <ele>241.9</ele>
        <time>2016-07-06T08:46:31Z</time>
      </trkpt>
      <trkpt lat="43.39726" lon="-5.95263">
        <ele>241.8</ele>
        <time>2016-07-06T08:46:40Z</time>
      </trkpt>
      <trkpt lat="43.39733" lon="-5.95272">
        <ele>241.5</ele>
        <time>2016-07-06T08:46:49Z</time>
      </trkpt>
      <trkpt lat="43.39739" lon="-5.95281">
        <ele>240.3</ele>
        <time>2016-07-06T08:46:58Z</time>
      </trkpt>
      <trkpt lat="43.39746" lon="-5.95289">
        <ele>239.3</ele>
        <time>2016-07-06T08:47:08Z</time>
      </trkpt>
      <trkpt lat="43.39754" lon="-5.95297">
        <ele>238.8</ele>
        <time>2016-07-06T08:47:16Z</time>
      </trkpt>
      <trkpt lat="43.39762" lon="-5.95305">
        <ele>238.4</ele>
        <time>2016-07-06T08:47:24Z</time>
      </trkpt>
      <trkpt lat="43.39769" lon="-5.95313">
        <ele>238.2</ele>
        <time>2016-07-06T08:47:31Z</time>
      </trkpt>
      <trkpt lat="43.39776" lon="-5.95321">
        <ele>237.8</ele>
        <time>2016-07-06T08:47:38Z</time>
      </trkpt>
      <trkpt lat="43.39786" lon="-5.95325">
        <ele>237.5</ele>
        <time>2016-07-06T08:47:44Z</time>
      </trkpt>
      <trkpt lat="43.39794" lon="-5.95332">
        <ele>237.2</ele>
        <time>2016-07-06T08:47:50Z</time>
      </trkpt>
      <trkpt lat="43.39802" lon="-5.95339">
        <ele>236.8</ele>
        <time>2016-07-06T08:47:57Z</time>
      </trkpt>
      <trkpt lat="43.3981" lon="-5.95348">
        <ele>236.6</ele>
        <time>2016-07-06T08:48:05Z</time>
      </trkpt>
      <trkpt lat="43.39817" lon="-5.95356">
        <ele>236.2</ele>
        <time>2016-07-06T08:48:13Z</time>
      </trkpt>
      <trkpt lat="43.39826" lon="-5.95362">
        <ele>235.7</ele>
        <time>2016-07-06T08:48:21Z</time>
      </trkpt>
      <trkpt lat="43.39833" lon="-5.95371">
        <ele>235.2</ele>
        <time>2016-07-06T08:48:30Z</time>
      </trkpt>
      <trkpt lat="43.3984" lon="-5.9538">
        <ele>234.8</ele>
        <time>2016-07-06T08:48:40Z</time>
      </trkpt>
      <trkpt lat="43.39847" lon="-5.95389">
        <ele>234.2</ele>
        <time>2016-07-06T08:48:49Z</time>
      </trkpt>
      <trkpt lat="43.39854" lon="-5.95397">
        <ele>233.8</ele>
        <time>2016-07-06T08:48:56Z</time>
      </trkpt>
      <trkpt lat="43.39862" lon="-5.95406">
        <ele>233.4</ele>
        <time>2016-07-06T08:49:05Z</time>
      </trkpt>
      <trkpt lat="43.3987" lon="-5.95415">
        <ele>233.3</ele>
        <time>2016-07-06T08:49:12Z</time>
      </trkpt>
      <trkpt lat="43.39876" lon="-5.95424">
        <ele>233.2</ele>
        <time>2016-07-06T08:49:19Z</time>
      </trkpt>
      <trkpt lat="43.39883" lon="-5.95435">
        <ele>232.5</ele>
        <time>2016-07-06T08:49:28Z</time>
      </trkpt>
      <trkpt lat="43.3989" lon="-5.95445">
        <ele>232.1</ele>
        <time>2016-07-06T08:49:37Z</time>
      </trkpt>
      <trkpt lat="43.39895" lon="-5.95455">
        <ele>232.1</ele>
        <time>2016-07-06T08:49:44Z</time>
      </trkpt>
      <trkpt lat="43.399" lon="-5.95467">
        <ele>232</ele>
        <time>2016-07-06T08:49:52Z</time>
      </trkpt>
      <trkpt lat="43.39904" lon="-5.95478">
        <ele>232</ele>
        <time>2016-07-06T08:50:02Z</time>
      </trkpt>
      <trkpt lat="43.39907" lon="-5.9549">
        <ele>232.2</ele>
        <time>2016-07-06T08:50:10Z</time>
      </trkpt>
      <trkpt lat="43.39911" lon="-5.95502">
        <ele>232.4</ele>
        <time>2016-07-06T08:50:20Z</time>
      </trkpt>
      <trkpt lat="43.39916" lon="-5.95513">
        <ele>232.5</ele>
        <time>2016-07-06T08:50:29Z</time>
      </trkpt>
      <trkpt lat="43.39921" lon="-5.95524">
        <ele>232.3</ele>
        <time>2016-07-06T08:50:39Z</time>
      </trkpt>
      <trkpt lat="43.39927" lon="-5.95533">
        <ele>231.6</ele>
        <time>2016-07-06T08:50:48Z</time>
      </trkpt>
      <trkpt lat="43.39934" lon="-5.95543">
        <ele>231</ele>
        <time>2016-07-06T08:50:55Z</time>
      </trkpt>
      <trkpt lat="43.39942" lon="-5.95551">
        <ele>230.1</ele>
        <time>2016-07-06T08:51:01Z</time>
      </trkpt>
      <trkpt lat="43.3995" lon="-5.95559">
        <ele>229.1</ele>
        <time>2016-07-06T08:51:08Z</time>
      </trkpt>
      <trkpt lat="43.39959" lon="-5.95564">
        <ele>228.5</ele>
        <time>2016-07-06T08:51:15Z</time>
      </trkpt>
      <trkpt lat="43.39968" lon="-5.95569">
        <ele>227.8</ele>
        <time>2016-07-06T08:51:24Z</time>
      </trkpt>
      <trkpt lat="43.39978" lon="-5.95571">
        <ele>226.2</ele>
        <time>2016-07-06T08:51:33Z</time>
      </trkpt>
      <trkpt lat="43.39987" lon="-5.95574">
        <ele>224.1</ele>
        <time>2016-07-06T08:51:44Z</time>
      </trkpt>
      <trkpt lat="43.39995" lon="-5.9558">
        <ele>221.3</ele>
        <time>2016-07-06T08:52:01Z</time>
      </trkpt>
      <trkpt lat="43.40002" lon="-5.95589">
        <ele>219.5</ele>
        <time>2016-07-06T08:52:11Z</time>
      </trkpt>
      <trkpt lat="43.40005" lon="-5.95601">
        <ele>218</ele>
        <time>2016-07-06T08:52:18Z</time>
      </trkpt>
      <trkpt lat="43.40008" lon="-5.95614">
        <ele>215.9</ele>
        <time>2016-07-06T08:52:27Z</time>
      </trkpt>
      <trkpt lat="43.40012" lon="-5.95626">
        <ele>213.2</ele>
        <time>2016-07-06T08:52:38Z</time>
      </trkpt>
      <trkpt lat="43.40019" lon="-5.95636">
        <ele>210.8</ele>
        <time>2016-07-06T08:52:48Z</time>
      </trkpt>
      <trkpt lat="43.40024" lon="-5.95646">
        <ele>208.9</ele>
        <time>2016-07-06T08:52:56Z</time>
      </trkpt>
      <trkpt lat="43.40028" lon="-5.95657">
        <ele>206.8</ele>
        <time>2016-07-06T08:53:05Z</time>
      </trkpt>
      <trkpt lat="43.40028" lon="-5.95671">
        <ele>203.8</ele>
        <time>2016-07-06T08:53:16Z</time>
      </trkpt>
      <trkpt lat="43.40034" lon="-5.95683">
        <ele>202.5</ele>
        <time>2016-07-06T08:53:23Z</time>
      </trkpt>
      <trkpt lat="43.40041" lon="-5.95692">
        <ele>200.8</ele>
        <time>2016-07-06T08:53:31Z</time>
      </trkpt>
      <trkpt lat="43.40047" lon="-5.95701">
        <ele>199.3</ele>
        <time>2016-07-06T08:53:38Z</time>
      </trkpt>
      <trkpt lat="43.40052" lon="-5.95712">
        <ele>196.5</ele>
        <time>2016-07-06T08:53:58Z</time>
      </trkpt>
      <trkpt lat="43.40058" lon="-5.95722">
        <ele>195.7</ele>
        <time>2016-07-06T08:54:06Z</time>
      </trkpt>
      <trkpt lat="43.40062" lon="-5.95735">
        <ele>195</ele>
        <time>2016-07-06T08:54:13Z</time>
      </trkpt>
      <trkpt lat="43.40066" lon="-5.95748">
        <ele>194.3</ele>
        <time>2016-07-06T08:54:21Z</time>
      </trkpt>
      <trkpt lat="43.4007" lon="-5.95759">
        <ele>193.9</ele>
        <time>2016-07-06T08:54:29Z</time>
      </trkpt>
      <trkpt lat="43.40072" lon="-5.95772">
        <ele>194</ele>
        <time>2016-07-06T08:54:38Z</time>
      </trkpt>
      <trkpt lat="43.40075" lon="-5.95785">
        <ele>194.1</ele>
        <time>2016-07-06T08:54:46Z</time>
      </trkpt>
      <trkpt lat="43.40075" lon="-5.95798">
        <ele>194.3</ele>
        <time>2016-07-06T08:54:55Z</time>
      </trkpt>
      <trkpt lat="43.40077" lon="-5.9581">
        <ele>194.8</ele>
        <time>2016-07-06T08:55:02Z</time>
      </trkpt>
      <trkpt lat="43.40078" lon="-5.95823">
        <ele>194.8</ele>
        <time>2016-07-06T08:55:08Z</time>
      </trkpt>
      <trkpt lat="43.40081" lon="-5.95836">
        <ele>194.7</ele>
        <time>2016-07-06T08:55:15Z</time>
      </trkpt>
      <trkpt lat="43.40088" lon="-5.95845">
        <ele>194.8</ele>
        <time>2016-07-06T08:55:22Z</time>
      </trkpt>
      <trkpt lat="43.40096" lon="-5.95851">
        <ele>195.1</ele>
        <time>2016-07-06T08:55:28Z</time>
      </trkpt>
      <trkpt lat="43.40106" lon="-5.95857">
        <ele>195</ele>
        <time>2016-07-06T08:55:35Z</time>
      </trkpt>
      <trkpt lat="43.40115" lon="-5.9586">
        <ele>194.6</ele>
        <time>2016-07-06T08:55:43Z</time>
      </trkpt>
      <trkpt lat="43.40124" lon="-5.95858">
        <ele>194.5</ele>
        <time>2016-07-06T08:55:51Z</time>
      </trkpt>
      <trkpt lat="43.40134" lon="-5.9586">
        <ele>194.4</ele>
        <time>2016-07-06T08:55:58Z</time>
      </trkpt>
      <trkpt lat="43.40143" lon="-5.95862">
        <ele>194.2</ele>
        <time>2016-07-06T08:56:06Z</time>
      </trkpt>
      <trkpt lat="43.40152" lon="-5.95866">
        <ele>193.7</ele>
        <time>2016-07-06T08:56:14Z</time>
      </trkpt>
      <trkpt lat="43.40161" lon="-5.95868">
        <ele>192.8</ele>
        <time>2016-07-06T08:56:24Z</time>
      </trkpt>
      <trkpt lat="43.4017" lon="-5.9587">
        <ele>192.2</ele>
        <time>2016-07-06T08:56:34Z</time>
      </trkpt>
      <trkpt lat="43.40179" lon="-5.95875">
        <ele>193.2</ele>
        <time>2016-07-06T08:57:02Z</time>
      </trkpt>
      <trkpt lat="43.40188" lon="-5.95875">
        <ele>192.8</ele>
        <time>2016-07-06T08:57:17Z</time>
      </trkpt>
      <trkpt lat="43.40195" lon="-5.95882">
        <ele>192.6</ele>
        <time>2016-07-06T08:57:27Z</time>
      </trkpt>
      <trkpt lat="43.40192" lon="-5.95894">
        <ele>189.7</ele>
        <time>2016-07-06T08:58:25Z</time>
      </trkpt>
      <trkpt lat="43.40196" lon="-5.95905">
        <ele>188.3</ele>
        <time>2016-07-06T08:58:37Z</time>
      </trkpt>
      <trkpt lat="43.40198" lon="-5.95918">
        <ele>186.6</ele>
        <time>2016-07-06T08:59:10Z</time>
      </trkpt>
      <trkpt lat="43.40197" lon="-5.9593">
        <ele>185.4</ele>
        <time>2016-07-06T08:59:22Z</time>
      </trkpt>
      <trkpt lat="43.4019" lon="-5.95939">
        <ele>185.3</ele>
        <time>2016-07-06T08:59:31Z</time>
      </trkpt>
      <trkpt lat="43.40183" lon="-5.95948">
        <ele>185</ele>
        <time>2016-07-06T08:59:42Z</time>
      </trkpt>
      <trkpt lat="43.40176" lon="-5.95957">
        <ele>184.8</ele>
        <time>2016-07-06T08:59:53Z</time>
      </trkpt>
      <trkpt lat="43.40166" lon="-5.95956">
        <ele>184.1</ele>
        <time>2016-07-06T09:00:03Z</time>
      </trkpt>
      <trkpt lat="43.40157" lon="-5.95953">
        <ele>183.7</ele>
        <time>2016-07-06T09:00:10Z</time>
      </trkpt>
      <trkpt lat="43.40148" lon="-5.9595">
        <ele>183.8</ele>
        <time>2016-07-06T09:00:17Z</time>
      </trkpt>
      <trkpt lat="43.40139" lon="-5.9595">
        <ele>183.9</ele>
        <time>2016-07-06T09:00:27Z</time>
      </trkpt>
      <trkpt lat="43.40129" lon="-5.95948">
        <ele>184</ele>
        <time>2016-07-06T09:00:37Z</time>
      </trkpt>
      <trkpt lat="43.4012" lon="-5.9595">
        <ele>183.6</ele>
        <time>2016-07-06T09:00:46Z</time>
      </trkpt>
      <trkpt lat="43.40111" lon="-5.95953">
        <ele>183.2</ele>
        <time>2016-07-06T09:00:53Z</time>
      </trkpt>
      <trkpt lat="43.40102" lon="-5.95953">
        <ele>182.4</ele>
        <time>2016-07-06T09:01:01Z</time>
      </trkpt>
      <trkpt lat="43.40093" lon="-5.95957">
        <ele>179.2</ele>
        <time>2016-07-06T09:01:18Z</time>
      </trkpt>
      <trkpt lat="43.4009" lon="-5.95968">
        <ele>176.8</ele>
        <time>2016-07-06T09:02:01Z</time>
      </trkpt>
      <trkpt lat="43.40082" lon="-5.95974">
        <ele>176.9</ele>
        <time>2016-07-06T09:02:20Z</time>
      </trkpt>
      <trkpt lat="43.40079" lon="-5.9599">
        <ele>176.3</ele>
        <time>2016-07-06T09:02:29Z</time>
      </trkpt>
      <trkpt lat="43.40071" lon="-5.96001">
        <ele>175.8</ele>
        <time>2016-07-06T09:02:33Z</time>
      </trkpt>
      <trkpt lat="43.40064" lon="-5.9601">
        <ele>175.2</ele>
        <time>2016-07-06T09:02:36Z</time>
      </trkpt>
      <trkpt lat="43.40058" lon="-5.96022">
        <ele>174.3</ele>
        <time>2016-07-06T09:02:40Z</time>
      </trkpt>
      <trkpt lat="43.40055" lon="-5.96036">
        <ele>172.9</ele>
        <time>2016-07-06T09:02:44Z</time>
      </trkpt>
      <trkpt lat="43.40054" lon="-5.9605">
        <ele>169.9</ele>
        <time>2016-07-06T09:02:53Z</time>
      </trkpt>
      <trkpt lat="43.40052" lon="-5.96063">
        <ele>168</ele>
        <time>2016-07-06T09:03:00Z</time>
      </trkpt>
      <trkpt lat="43.40051" lon="-5.96075">
        <ele>165.7</ele>
        <time>2016-07-06T09:03:07Z</time>
      </trkpt>
      <trkpt lat="43.40052" lon="-5.96089">
        <ele>163.5</ele>
        <time>2016-07-06T09:03:16Z</time>
      </trkpt>
      <trkpt lat="43.40051" lon="-5.96102">
        <ele>161.4</ele>
        <time>2016-07-06T09:03:26Z</time>
      </trkpt>
      <trkpt lat="43.4005" lon="-5.96115">
        <ele>159.5</ele>
        <time>2016-07-06T09:03:34Z</time>
      </trkpt>
      <trkpt lat="43.40049" lon="-5.96128">
        <ele>158.4</ele>
        <time>2016-07-06T09:03:41Z</time>
      </trkpt>
      <trkpt lat="43.40047" lon="-5.96142">
        <ele>157.2</ele>
        <time>2016-07-06T09:03:48Z</time>
      </trkpt>
      <trkpt lat="43.40043" lon="-5.96155">
        <ele>155.6</ele>
        <time>2016-07-06T09:03:55Z</time>
      </trkpt>
      <trkpt lat="43.40039" lon="-5.96168">
        <ele>154.4</ele>
        <time>2016-07-06T09:04:02Z</time>
      </trkpt>
      <trkpt lat="43.40035" lon="-5.96179">
        <ele>153.6</ele>
        <time>2016-07-06T09:04:10Z</time>
      </trkpt>
      <trkpt lat="43.40032" lon="-5.96192">
        <ele>152.7</ele>
        <time>2016-07-06T09:04:18Z</time>
      </trkpt>
      <trkpt lat="43.40031" lon="-5.96204">
        <ele>151.2</ele>
        <time>2016-07-06T09:04:38Z</time>
      </trkpt>
      <trkpt lat="43.40031" lon="-5.96217">
        <ele>150.1</ele>
        <time>2016-07-06T09:04:47Z</time>
      </trkpt>
      <trkpt lat="43.40029" lon="-5.9623">
        <ele>149.3</ele>
        <time>2016-07-06T09:04:55Z</time>
      </trkpt>
      <trkpt lat="43.40029" lon="-5.96243">
        <ele>148.9</ele>
        <time>2016-07-06T09:05:03Z</time>
      </trkpt>
      <trkpt lat="43.40029" lon="-5.96256">
        <ele>148.2</ele>
        <time>2016-07-06T09:05:11Z</time>
      </trkpt>
      <trkpt lat="43.40029" lon="-5.9627">
        <ele>147.7</ele>
        <time>2016-07-06T09:05:19Z</time>
      </trkpt>
      <trkpt lat="43.40032" lon="-5.96283">
        <ele>146.9</ele>
        <time>2016-07-06T09:05:28Z</time>
      </trkpt>
      <trkpt lat="43.40035" lon="-5.96297">
        <ele>146</ele>
        <time>2016-07-06T09:05:35Z</time>
      </trkpt>
      <trkpt lat="43.40038" lon="-5.9631">
        <ele>145.3</ele>
        <time>2016-07-06T09:05:42Z</time>
      </trkpt>
      <trkpt lat="43.4004" lon="-5.96322">
        <ele>144.8</ele>
        <time>2016-07-06T09:05:49Z</time>
      </trkpt>
      <trkpt lat="43.40042" lon="-5.96335">
        <ele>144.2</ele>
        <time>2016-07-06T09:05:57Z</time>
      </trkpt>
      <trkpt lat="43.40045" lon="-5.96348">
        <ele>143.7</ele>
        <time>2016-07-06T09:06:05Z</time>
      </trkpt>
      <trkpt lat="43.40046" lon="-5.96361">
        <ele>143.3</ele>
        <time>2016-07-06T09:06:12Z</time>
      </trkpt>
      <trkpt lat="43.40044" lon="-5.96374">
        <ele>142.5</ele>
        <time>2016-07-06T09:06:19Z</time>
      </trkpt>
      <trkpt lat="43.40041" lon="-5.96386">
        <ele>141.8</ele>
        <time>2016-07-06T09:06:25Z</time>
      </trkpt>
      <trkpt lat="43.40038" lon="-5.96399">
        <ele>141.2</ele>
        <time>2016-07-06T09:06:32Z</time>
      </trkpt>
      <trkpt lat="43.4004" lon="-5.96412">
        <ele>139.8</ele>
        <time>2016-07-06T09:06:42Z</time>
      </trkpt>
      <trkpt lat="43.40042" lon="-5.96425">
        <ele>138.6</ele>
        <time>2016-07-06T09:06:50Z</time>
      </trkpt>
      <trkpt lat="43.40047" lon="-5.96436">
        <ele>137.4</ele>
        <time>2016-07-06T09:06:57Z</time>
      </trkpt>
      <trkpt lat="43.40054" lon="-5.96445">
        <ele>136.1</ele>
        <time>2016-07-06T09:07:03Z</time>
      </trkpt>
      <trkpt lat="43.4006" lon="-5.96455">
        <ele>134.7</ele>
        <time>2016-07-06T09:07:09Z</time>
      </trkpt>
      <trkpt lat="43.40064" lon="-5.96468">
        <ele>133.7</ele>
        <time>2016-07-06T09:07:15Z</time>
      </trkpt>
      <trkpt lat="43.40069" lon="-5.96479">
        <ele>132.8</ele>
        <time>2016-07-06T09:07:22Z</time>
      </trkpt>
      <trkpt lat="43.40071" lon="-5.96493">
        <ele>132.2</ele>
        <time>2016-07-06T09:07:29Z</time>
      </trkpt>
      <trkpt lat="43.40074" lon="-5.96505">
        <ele>131.5</ele>
        <time>2016-07-06T09:07:36Z</time>
      </trkpt>
      <trkpt lat="43.40078" lon="-5.96516">
        <ele>130.7</ele>
        <time>2016-07-06T09:07:44Z</time>
      </trkpt>
      <trkpt lat="43.40081" lon="-5.9653">
        <ele>130.2</ele>
        <time>2016-07-06T09:07:51Z</time>
      </trkpt>
      <trkpt lat="43.40084" lon="-5.96542">
        <ele>129</ele>
        <time>2016-07-06T09:07:59Z</time>
      </trkpt>
      <trkpt lat="43.40088" lon="-5.96555">
        <ele>128.2</ele>
        <time>2016-07-06T09:08:07Z</time>
      </trkpt>
      <trkpt lat="43.40093" lon="-5.96566">
        <ele>127.9</ele>
        <time>2016-07-06T09:08:15Z</time>
      </trkpt>
      <trkpt lat="43.40098" lon="-5.96577">
        <ele>127.6</ele>
        <time>2016-07-06T09:08:22Z</time>
      </trkpt>
      <trkpt lat="43.40103" lon="-5.96588">
        <ele>127.6</ele>
        <time>2016-07-06T09:08:29Z</time>
      </trkpt>
      <trkpt lat="43.4011" lon="-5.96597">
        <ele>127.6</ele>
        <time>2016-07-06T09:08:36Z</time>
      </trkpt>
      <trkpt lat="43.40116" lon="-5.96607">
        <ele>127</ele>
        <time>2016-07-06T09:08:44Z</time>
      </trkpt>
      <trkpt lat="43.40124" lon="-5.96616">
        <ele>127</ele>
        <time>2016-07-06T09:08:52Z</time>
      </trkpt>
      <trkpt lat="43.40131" lon="-5.96626">
        <ele>127</ele>
        <time>2016-07-06T09:09:00Z</time>
      </trkpt>
      <trkpt lat="43.40137" lon="-5.96636">
        <ele>126.9</ele>
        <time>2016-07-06T09:09:08Z</time>
      </trkpt>
      <trkpt lat="43.40142" lon="-5.96648">
        <ele>126.5</ele>
        <time>2016-07-06T09:09:15Z</time>
      </trkpt>
      <trkpt lat="43.40146" lon="-5.9666">
        <ele>126.3</ele>
        <time>2016-07-06T09:09:22Z</time>
      </trkpt>
      <trkpt lat="43.40149" lon="-5.96672">
        <ele>126.6</ele>
        <time>2016-07-06T09:09:30Z</time>
      </trkpt>
      <trkpt lat="43.40153" lon="-5.96684">
        <ele>126.7</ele>
        <time>2016-07-06T09:09:38Z</time>
      </trkpt>
      <trkpt lat="43.40159" lon="-5.96694">
        <ele>126.7</ele>
        <time>2016-07-06T09:09:45Z</time>
      </trkpt>
      <trkpt lat="43.40167" lon="-5.96699">
        <ele>126.7</ele>
        <time>2016-07-06T09:09:52Z</time>
      </trkpt>
      <trkpt lat="43.40176" lon="-5.96705">
        <ele>126.4</ele>
        <time>2016-07-06T09:10:00Z</time>
      </trkpt>
      <trkpt lat="43.40185" lon="-5.9671">
        <ele>126.2</ele>
        <time>2016-07-06T09:10:07Z</time>
      </trkpt>
      <trkpt lat="43.40194" lon="-5.96713">
        <ele>125.9</ele>
        <time>2016-07-06T09:10:14Z</time>
      </trkpt>
      <trkpt lat="43.40202" lon="-5.9672">
        <ele>125.4</ele>
        <time>2016-07-06T09:10:23Z</time>
      </trkpt>
      <trkpt lat="43.40209" lon="-5.96729">
        <ele>124.8</ele>
        <time>2016-07-06T09:10:32Z</time>
      </trkpt>
      <trkpt lat="43.40218" lon="-5.9673">
        <ele>124.1</ele>
        <time>2016-07-06T09:10:55Z</time>
      </trkpt>
      <trkpt lat="43.40227" lon="-5.96735">
        <ele>122.9</ele>
        <time>2016-07-06T09:11:05Z</time>
      </trkpt>
      <trkpt lat="43.40233" lon="-5.96746">
        <ele>122.5</ele>
        <time>2016-07-06T09:11:14Z</time>
      </trkpt>
      <trkpt lat="43.40239" lon="-5.96757">
        <ele>122.3</ele>
        <time>2016-07-06T09:11:22Z</time>
      </trkpt>
      <trkpt lat="43.40244" lon="-5.96768">
        <ele>122.5</ele>
        <time>2016-07-06T09:11:31Z</time>
      </trkpt>
      <trkpt lat="43.40249" lon="-5.96778">
        <ele>122.6</ele>
        <time>2016-07-06T09:11:38Z</time>
      </trkpt>
      <trkpt lat="43.40255" lon="-5.9679">
        <ele>122.7</ele>
        <time>2016-07-06T09:11:46Z</time>
      </trkpt>
      <trkpt lat="43.4026" lon="-5.96801">
        <ele>123.2</ele>
        <time>2016-07-06T09:11:53Z</time>
      </trkpt>
      <trkpt lat="43.40263" lon="-5.96814">
        <ele>123.5</ele>
        <time>2016-07-06T09:12:02Z</time>
      </trkpt>
      <trkpt lat="43.40267" lon="-5.96826">
        <ele>123.2</ele>
        <time>2016-07-06T09:12:12Z</time>
      </trkpt>
      <trkpt lat="43.40268" lon="-5.9684">
        <ele>122.6</ele>
        <time>2016-07-06T09:12:20Z</time>
      </trkpt>
      <trkpt lat="43.4027" lon="-5.96852">
        <ele>122.1</ele>
        <time>2016-07-06T09:12:30Z</time>
      </trkpt>
      <trkpt lat="43.40272" lon="-5.96865">
        <ele>121.3</ele>
        <time>2016-07-06T09:12:39Z</time>
      </trkpt>
      <trkpt lat="43.40271" lon="-5.96878">
        <ele>120.1</ele>
        <time>2016-07-06T09:12:50Z</time>
      </trkpt>
      <trkpt lat="43.40269" lon="-5.96891">
        <ele>118.4</ele>
        <time>2016-07-06T09:13:00Z</time>
      </trkpt>
      <trkpt lat="43.40266" lon="-5.96903">
        <ele>117.3</ele>
        <time>2016-07-06T09:13:09Z</time>
      </trkpt>
      <trkpt lat="43.40265" lon="-5.96917">
        <ele>116.5</ele>
        <time>2016-07-06T09:13:19Z</time>
      </trkpt>
      <trkpt lat="43.40262" lon="-5.9693">
        <ele>116</ele>
        <time>2016-07-06T09:13:26Z</time>
      </trkpt>
      <trkpt lat="43.40258" lon="-5.96943">
        <ele>115.8</ele>
        <time>2016-07-06T09:13:33Z</time>
      </trkpt>
      <trkpt lat="43.40253" lon="-5.96955">
        <ele>115.2</ele>
        <time>2016-07-06T09:13:40Z</time>
      </trkpt>
      <trkpt lat="43.40247" lon="-5.96967">
        <ele>114.5</ele>
        <time>2016-07-06T09:13:46Z</time>
      </trkpt>
      <trkpt lat="43.40242" lon="-5.96978">
        <ele>113.2</ele>
        <time>2016-07-06T09:13:52Z</time>
      </trkpt>
      <trkpt lat="43.40235" lon="-5.96989">
        <ele>112</ele>
        <time>2016-07-06T09:13:59Z</time>
      </trkpt>
      <trkpt lat="43.4023" lon="-5.97">
        <ele>111.1</ele>
        <time>2016-07-06T09:14:08Z</time>
      </trkpt>
      <trkpt lat="43.40225" lon="-5.97012">
        <ele>110.6</ele>
        <time>2016-07-06T09:14:15Z</time>
      </trkpt>
      <trkpt lat="43.4022" lon="-5.97022">
        <ele>109.7</ele>
        <time>2016-07-06T09:14:24Z</time>
      </trkpt>
      <trkpt lat="43.40214" lon="-5.97033">
        <ele>108.8</ele>
        <time>2016-07-06T09:14:32Z</time>
      </trkpt>
      <trkpt lat="43.40208" lon="-5.97043">
        <ele>108.1</ele>
        <time>2016-07-06T09:14:40Z</time>
      </trkpt>
      <trkpt lat="43.40201" lon="-5.97053">
        <ele>107.7</ele>
        <time>2016-07-06T09:14:47Z</time>
      </trkpt>
      <trkpt lat="43.40194" lon="-5.97063">
        <ele>107.7</ele>
        <time>2016-07-06T09:14:55Z</time>
      </trkpt>
      <trkpt lat="43.40188" lon="-5.97075">
        <ele>108</ele>
        <time>2016-07-06T09:15:03Z</time>
      </trkpt>
      <trkpt lat="43.40184" lon="-5.97086">
        <ele>108.5</ele>
        <time>2016-07-06T09:15:11Z</time>
      </trkpt>
      <trkpt lat="43.40181" lon="-5.97099">
        <ele>109</ele>
        <time>2016-07-06T09:15:20Z</time>
      </trkpt>
      <trkpt lat="43.40178" lon="-5.97111">
        <ele>109.4</ele>
        <time>2016-07-06T09:15:29Z</time>
      </trkpt>
      <trkpt lat="43.40175" lon="-5.97123">
        <ele>109.7</ele>
        <time>2016-07-06T09:15:36Z</time>
      </trkpt>
      <trkpt lat="43.4017" lon="-5.97136">
        <ele>110.2</ele>
        <time>2016-07-06T09:15:44Z</time>
      </trkpt>
      <trkpt lat="43.40166" lon="-5.97149">
        <ele>110.9</ele>
        <time>2016-07-06T09:15:53Z</time>
      </trkpt>
      <trkpt lat="43.40164" lon="-5.97162">
        <ele>111.2</ele>
        <time>2016-07-06T09:16:02Z</time>
      </trkpt>
      <trkpt lat="43.40161" lon="-5.97174">
        <ele>111.5</ele>
        <time>2016-07-06T09:16:09Z</time>
      </trkpt>
      <trkpt lat="43.40157" lon="-5.97186">
        <ele>111.7</ele>
        <time>2016-07-06T09:16:17Z</time>
      </trkpt>
      <trkpt lat="43.40153" lon="-5.97198">
        <ele>111.7</ele>
        <time>2016-07-06T09:16:25Z</time>
      </trkpt>
      <trkpt lat="43.4015" lon="-5.9721">
        <ele>111.5</ele>
        <time>2016-07-06T09:16:33Z</time>
      </trkpt>
      <trkpt lat="43.40145" lon="-5.97221">
        <ele>111.4</ele>
        <time>2016-07-06T09:16:38Z</time>
      </trkpt>
      <trkpt lat="43.40139" lon="-5.97231">
        <ele>110.8</ele>
        <time>2016-07-06T09:16:46Z</time>
      </trkpt>
      <trkpt lat="43.40133" lon="-5.9724">
        <ele>110.2</ele>
        <time>2016-07-06T09:16:53Z</time>
      </trkpt>
      <trkpt lat="43.40126" lon="-5.9725">
        <ele>109.1</ele>
        <time>2016-07-06T09:17:03Z</time>
      </trkpt>
      <trkpt lat="43.40119" lon="-5.9726">
        <ele>108.4</ele>
        <time>2016-07-06T09:17:12Z</time>
      </trkpt>
      <trkpt lat="43.40111" lon="-5.97265">
        <ele>107.7</ele>
        <time>2016-07-06T09:17:24Z</time>
      </trkpt>
      <trkpt lat="43.40101" lon="-5.97269">
        <ele>107.3</ele>
        <time>2016-07-06T09:17:32Z</time>
      </trkpt>
      <trkpt lat="43.40093" lon="-5.97273">
        <ele>107.3</ele>
        <time>2016-07-06T09:17:40Z</time>
      </trkpt>
      <trkpt lat="43.40084" lon="-5.9728">
        <ele>107</ele>
        <time>2016-07-06T09:17:49Z</time>
      </trkpt>
      <trkpt lat="43.40076" lon="-5.97289">
        <ele>106.4</ele>
        <time>2016-07-06T09:17:55Z</time>
      </trkpt>
      <trkpt lat="43.40069" lon="-5.97297">
        <ele>105.9</ele>
        <time>2016-07-06T09:18:03Z</time>
      </trkpt>
      <trkpt lat="43.40061" lon="-5.97304">
        <ele>104.8</ele>
        <time>2016-07-06T09:18:11Z</time>
      </trkpt>
      <trkpt lat="43.40054" lon="-5.97313">
        <ele>103.8</ele>
        <time>2016-07-06T09:18:22Z</time>
      </trkpt>
      <trkpt lat="43.40048" lon="-5.97322">
        <ele>103.2</ele>
        <time>2016-07-06T09:18:30Z</time>
      </trkpt>
      <trkpt lat="43.40043" lon="-5.97332">
        <ele>102.7</ele>
        <time>2016-07-06T09:18:37Z</time>
      </trkpt>
      <trkpt lat="43.4004" lon="-5.97345">
        <ele>102.3</ele>
        <time>2016-07-06T09:18:44Z</time>
      </trkpt>
      <trkpt lat="43.40036" lon="-5.97357">
        <ele>102</ele>
        <time>2016-07-06T09:18:53Z</time>
      </trkpt>
      <trkpt lat="43.40033" lon="-5.97369">
        <ele>101.6</ele>
        <time>2016-07-06T09:19:01Z</time>
      </trkpt>
      <trkpt lat="43.4003" lon="-5.97382">
        <ele>101.8</ele>
        <time>2016-07-06T09:19:10Z</time>
      </trkpt>
      <trkpt lat="43.40028" lon="-5.97395">
        <ele>102</ele>
        <time>2016-07-06T09:19:18Z</time>
      </trkpt>
      <trkpt lat="43.40023" lon="-5.97406">
        <ele>102.3</ele>
        <time>2016-07-06T09:19:24Z</time>
      </trkpt>
      <trkpt lat="43.40017" lon="-5.97417">
        <ele>103</ele>
        <time>2016-07-06T09:19:34Z</time>
      </trkpt>
      <trkpt lat="43.40012" lon="-5.97429">
        <ele>103.7</ele>
        <time>2016-07-06T09:19:42Z</time>
      </trkpt>
      <trkpt lat="43.40009" lon="-5.97441">
        <ele>104.2</ele>
        <time>2016-07-06T09:19:50Z</time>
      </trkpt>
      <trkpt lat="43.40003" lon="-5.97453">
        <ele>104.7</ele>
        <time>2016-07-06T09:19:58Z</time>
      </trkpt>
      <trkpt lat="43.39997" lon="-5.97463">
        <ele>104.7</ele>
        <time>2016-07-06T09:20:06Z</time>
      </trkpt>
      <trkpt lat="43.39992" lon="-5.97474">
        <ele>104.7</ele>
        <time>2016-07-06T09:20:17Z</time>
      </trkpt>
      <trkpt lat="43.39986" lon="-5.97484">
        <ele>104.8</ele>
        <time>2016-07-06T09:20:36Z</time>
      </trkpt>
      <trkpt lat="43.39979" lon="-5.97491">
        <ele>103.6</ele>
        <time>2016-07-06T09:20:58Z</time>
      </trkpt>
      <trkpt lat="43.39969" lon="-5.97495">
        <ele>103.2</ele>
        <time>2016-07-06T09:21:18Z</time>
      </trkpt>
      <trkpt lat="43.3996" lon="-5.975">
        <ele>104</ele>
        <time>2016-07-06T09:21:29Z</time>
      </trkpt>
      <trkpt lat="43.39952" lon="-5.97507">
        <ele>104.5</ele>
        <time>2016-07-06T09:21:37Z</time>
      </trkpt>
      <trkpt lat="43.39944" lon="-5.97513">
        <ele>104.8</ele>
        <time>2016-07-06T09:21:45Z</time>
      </trkpt>
      <trkpt lat="43.39936" lon="-5.97522">
        <ele>105.9</ele>
        <time>2016-07-06T09:21:56Z</time>
      </trkpt>
      <trkpt lat="43.39929" lon="-5.9753">
        <ele>106.6</ele>
        <time>2016-07-06T09:22:06Z</time>
      </trkpt>
      <trkpt lat="43.3992" lon="-5.97538">
        <ele>107</ele>
        <time>2016-07-06T09:22:14Z</time>
      </trkpt>
      <trkpt lat="43.39911" lon="-5.97544">
        <ele>107.6</ele>
        <time>2016-07-06T09:22:21Z</time>
      </trkpt>
      <trkpt lat="43.39904" lon="-5.97554">
        <ele>108.5</ele>
        <time>2016-07-06T09:22:28Z</time>
      </trkpt>
      <trkpt lat="43.39897" lon="-5.97562">
        <ele>108.3</ele>
        <time>2016-07-06T09:22:34Z</time>
      </trkpt>
      <trkpt lat="43.3989" lon="-5.97572">
        <ele>106.9</ele>
        <time>2016-07-06T09:22:45Z</time>
      </trkpt>
      <trkpt lat="43.39886" lon="-5.97583">
        <ele>105.6</ele>
        <time>2016-07-06T09:22:53Z</time>
      </trkpt>
      <trkpt lat="43.39884" lon="-5.97596">
        <ele>104.6</ele>
        <time>2016-07-06T09:23:00Z</time>
      </trkpt>
      <trkpt lat="43.39879" lon="-5.97608">
        <ele>102.2</ele>
        <time>2016-07-06T09:23:08Z</time>
      </trkpt>
      <trkpt lat="43.39874" lon="-5.97621">
        <ele>101.8</ele>
        <time>2016-07-06T09:23:18Z</time>
      </trkpt>
      <trkpt lat="43.39867" lon="-5.97629">
        <ele>101.1</ele>
        <time>2016-07-06T09:23:29Z</time>
      </trkpt>
      <trkpt lat="43.39859" lon="-5.97636">
        <ele>100.8</ele>
        <time>2016-07-06T09:23:40Z</time>
      </trkpt>
      <trkpt lat="43.39851" lon="-5.97645">
        <ele>101</ele>
        <time>2016-07-06T09:23:50Z</time>
      </trkpt>
      <trkpt lat="43.39844" lon="-5.97653">
        <ele>101</ele>
        <time>2016-07-06T09:23:57Z</time>
      </trkpt>
      <trkpt lat="43.3984" lon="-5.97665">
        <ele>100.7</ele>
        <time>2016-07-06T09:24:07Z</time>
      </trkpt>
      <trkpt lat="43.39839" lon="-5.97678">
        <ele>99.6</ele>
        <time>2016-07-06T09:24:16Z</time>
      </trkpt>
      <trkpt lat="43.39838" lon="-5.97692">
        <ele>98.6</ele>
        <time>2016-07-06T09:24:25Z</time>
      </trkpt>
      <trkpt lat="43.3984" lon="-5.97705">
        <ele>96.9</ele>
        <time>2016-07-06T09:24:34Z</time>
      </trkpt>
      <trkpt lat="43.39838" lon="-5.97717">
        <ele>95.5</ele>
        <time>2016-07-06T09:24:43Z</time>
      </trkpt>
      <trkpt lat="43.3984" lon="-5.97729">
        <ele>94.6</ele>
        <time>2016-07-06T09:24:51Z</time>
      </trkpt>
      <trkpt lat="43.39844" lon="-5.97742">
        <ele>93.1</ele>
        <time>2016-07-06T09:25:00Z</time>
      </trkpt>
      <trkpt lat="43.39848" lon="-5.97753">
        <ele>91.6</ele>
        <time>2016-07-06T09:25:08Z</time>
      </trkpt>
      <trkpt lat="43.3985" lon="-5.97765">
        <ele>90.1</ele>
        <time>2016-07-06T09:25:17Z</time>
      </trkpt>
      <trkpt lat="43.39847" lon="-5.97777">
        <ele>88.8</ele>
        <time>2016-07-06T09:25:27Z</time>
      </trkpt>
      <trkpt lat="43.39841" lon="-5.97787">
        <ele>87.4</ele>
        <time>2016-07-06T09:25:35Z</time>
      </trkpt>
      <trkpt lat="43.39835" lon="-5.97796">
        <ele>86.3</ele>
        <time>2016-07-06T09:25:41Z</time>
      </trkpt>
      <trkpt lat="43.39829" lon="-5.97806">
        <ele>85.4</ele>
        <time>2016-07-06T09:25:47Z</time>
      </trkpt>
      <trkpt lat="43.39822" lon="-5.97815">
        <ele>84</ele>
        <time>2016-07-06T09:25:55Z</time>
      </trkpt>
      <trkpt lat="43.39813" lon="-5.97822">
        <ele>83</ele>
        <time>2016-07-06T09:26:03Z</time>
      </trkpt>
      <trkpt lat="43.39805" lon="-5.97829">
        <ele>81.9</ele>
        <time>2016-07-06T09:26:11Z</time>
      </trkpt>
      <trkpt lat="43.39798" lon="-5.97836">
        <ele>80.5</ele>
        <time>2016-07-06T09:26:17Z</time>
      </trkpt>
      <trkpt lat="43.3979" lon="-5.97843">
        <ele>79.4</ele>
        <time>2016-07-06T09:26:25Z</time>
      </trkpt>
      <trkpt lat="43.39782" lon="-5.97851">
        <ele>78.8</ele>
        <time>2016-07-06T09:26:32Z</time>
      </trkpt>
      <trkpt lat="43.39774" lon="-5.97858">
        <ele>77.9</ele>
        <time>2016-07-06T09:26:39Z</time>
      </trkpt>
      <trkpt lat="43.39766" lon="-5.97865">
        <ele>77.2</ele>
        <time>2016-07-06T09:26:47Z</time>
      </trkpt>
      <trkpt lat="43.39759" lon="-5.97875">
        <ele>76.8</ele>
        <time>2016-07-06T09:26:55Z</time>
      </trkpt>
      <trkpt lat="43.39754" lon="-5.97885">
        <ele>76</ele>
        <time>2016-07-06T09:27:05Z</time>
      </trkpt>
      <trkpt lat="43.39748" lon="-5.97895">
        <ele>75.6</ele>
        <time>2016-07-06T09:27:16Z</time>
      </trkpt>
      <trkpt lat="43.39743" lon="-5.97905">
        <ele>75.2</ele>
        <time>2016-07-06T09:27:24Z</time>
      </trkpt>
      <trkpt lat="43.39737" lon="-5.97916">
        <ele>74.1</ele>
        <time>2016-07-06T09:27:34Z</time>
      </trkpt>
      <trkpt lat="43.39731" lon="-5.97926">
        <ele>73.3</ele>
        <time>2016-07-06T09:27:41Z</time>
      </trkpt>
      <trkpt lat="43.39724" lon="-5.97936">
        <ele>71.9</ele>
        <time>2016-07-06T09:27:49Z</time>
      </trkpt>
      <trkpt lat="43.3972" lon="-5.97949">
        <ele>70.4</ele>
        <time>2016-07-06T09:27:57Z</time>
      </trkpt>
      <trkpt lat="43.39717" lon="-5.9796">
        <ele>69</ele>
        <time>2016-07-06T09:28:05Z</time>
      </trkpt>
      <trkpt lat="43.39711" lon="-5.9797">
        <ele>68.1</ele>
        <time>2016-07-06T09:28:12Z</time>
      </trkpt>
      <trkpt lat="43.39703" lon="-5.97979">
        <ele>67.3</ele>
        <time>2016-07-06T09:28:21Z</time>
      </trkpt>
      <trkpt lat="43.39694" lon="-5.97986">
        <ele>66.9</ele>
        <time>2016-07-06T09:28:28Z</time>
      </trkpt>
      <trkpt lat="43.39686" lon="-5.97992">
        <ele>66.6</ele>
        <time>2016-07-06T09:28:35Z</time>
      </trkpt>
      <trkpt lat="43.39678" lon="-5.98">
        <ele>66.2</ele>
        <time>2016-07-06T09:28:42Z</time>
      </trkpt>
      <trkpt lat="43.39671" lon="-5.9801">
        <ele>66</ele>
        <time>2016-07-06T09:28:48Z</time>
      </trkpt>
      <trkpt lat="43.39666" lon="-5.9802">
        <ele>65.8</ele>
        <time>2016-07-06T09:28:57Z</time>
      </trkpt>
      <trkpt lat="43.39662" lon="-5.98031">
        <ele>65.4</ele>
        <time>2016-07-06T09:29:04Z</time>
      </trkpt>
      <trkpt lat="43.39656" lon="-5.98042">
        <ele>65</ele>
        <time>2016-07-06T09:29:12Z</time>
      </trkpt>
      <trkpt lat="43.39651" lon="-5.98052">
        <ele>65.1</ele>
        <time>2016-07-06T09:29:29Z</time>
      </trkpt>
      <trkpt lat="43.39643" lon="-5.98044">
        <ele>66.6</ele>
        <time>2016-07-06T09:29:54Z</time>
      </trkpt>
      <trkpt lat="43.39639" lon="-5.98055">
        <ele>65.6</ele>
        <time>2016-07-06T09:30:23Z</time>
      </trkpt>
      <trkpt lat="43.39632" lon="-5.98064">
        <ele>66.3</ele>
        <time>2016-07-06T09:30:35Z</time>
      </trkpt>
      <trkpt lat="43.39626" lon="-5.98073">
        <ele>67.1</ele>
        <time>2016-07-06T09:30:46Z</time>
      </trkpt>
      <trkpt lat="43.39619" lon="-5.98082">
        <ele>68.6</ele>
        <time>2016-07-06T09:30:53Z</time>
      </trkpt>
      <trkpt lat="43.39612" lon="-5.98091">
        <ele>70.1</ele>
        <time>2016-07-06T09:31:00Z</time>
      </trkpt>
      <trkpt lat="43.39606" lon="-5.98102">
        <ele>72</ele>
        <time>2016-07-06T09:31:09Z</time>
      </trkpt>
      <trkpt lat="43.39599" lon="-5.98112">
        <ele>73.4</ele>
        <time>2016-07-06T09:31:16Z</time>
      </trkpt>
      <trkpt lat="43.39592" lon="-5.9812">
        <ele>74.6</ele>
        <time>2016-07-06T09:31:24Z</time>
      </trkpt>
      <trkpt lat="43.39585" lon="-5.9813">
        <ele>76.1</ele>
        <time>2016-07-06T09:31:32Z</time>
      </trkpt>
      <trkpt lat="43.39577" lon="-5.98136">
        <ele>77.6</ele>
        <time>2016-07-06T09:31:42Z</time>
      </trkpt>
      <trkpt lat="43.39568" lon="-5.98143">
        <ele>79</ele>
        <time>2016-07-06T09:31:51Z</time>
      </trkpt>
      <trkpt lat="43.3956" lon="-5.9815">
        <ele>80.6</ele>
        <time>2016-07-06T09:32:01Z</time>
      </trkpt>
      <trkpt lat="43.39552" lon="-5.98155">
        <ele>82.8</ele>
        <time>2016-07-06T09:32:12Z</time>
      </trkpt>
      <trkpt lat="43.39547" lon="-5.98165">
        <ele>84.7</ele>
        <time>2016-07-06T09:32:26Z</time>
      </trkpt>
      <trkpt lat="43.39543" lon="-5.98177">
        <ele>85.4</ele>
        <time>2016-07-06T09:32:34Z</time>
      </trkpt>
      <trkpt lat="43.39541" lon="-5.9819">
        <ele>86.3</ele>
        <time>2016-07-06T09:32:42Z</time>
      </trkpt>
      <trkpt lat="43.39538" lon="-5.98202">
        <ele>87.1</ele>
        <time>2016-07-06T09:32:48Z</time>
      </trkpt>
      <trkpt lat="43.39536" lon="-5.98214">
        <ele>87.9</ele>
        <time>2016-07-06T09:32:55Z</time>
      </trkpt>
      <trkpt lat="43.39536" lon="-5.98227">
        <ele>88.9</ele>
        <time>2016-07-06T09:33:04Z</time>
      </trkpt>
      <trkpt lat="43.3954" lon="-5.98239">
        <ele>89.6</ele>
        <time>2016-07-06T09:33:13Z</time>
      </trkpt>
      <trkpt lat="43.39542" lon="-5.98252">
        <ele>90.4</ele>
        <time>2016-07-06T09:33:21Z</time>
      </trkpt>
      <trkpt lat="43.39545" lon="-5.98264">
        <ele>91.3</ele>
        <time>2016-07-06T09:33:29Z</time>
      </trkpt>
      <trkpt lat="43.3955" lon="-5.98275">
        <ele>92.8</ele>
        <time>2016-07-06T09:33:37Z</time>
      </trkpt>
      <trkpt lat="43.39555" lon="-5.98286">
        <ele>94</ele>
        <time>2016-07-06T09:33:45Z</time>
      </trkpt>
      <trkpt lat="43.3956" lon="-5.98297">
        <ele>95</ele>
        <time>2016-07-06T09:33:52Z</time>
      </trkpt>
      <trkpt lat="43.39565" lon="-5.98308">
        <ele>95.7</ele>
        <time>2016-07-06T09:33:59Z</time>
      </trkpt>
      <trkpt lat="43.3957" lon="-5.9832">
        <ele>96.7</ele>
        <time>2016-07-06T09:34:07Z</time>
      </trkpt>
      <trkpt lat="43.3957" lon="-5.98333">
        <ele>97.5</ele>
        <time>2016-07-06T09:34:14Z</time>
      </trkpt>
      <trkpt lat="43.39573" lon="-5.98345">
        <ele>98.7</ele>
        <time>2016-07-06T09:34:23Z</time>
      </trkpt>
      <trkpt lat="43.39572" lon="-5.98359">
        <ele>99.9</ele>
        <time>2016-07-06T09:34:31Z</time>
      </trkpt>
      <trkpt lat="43.39573" lon="-5.98373">
        <ele>100.9</ele>
        <time>2016-07-06T09:34:40Z</time>
      </trkpt>
      <trkpt lat="43.39571" lon="-5.98387">
        <ele>102</ele>
        <time>2016-07-06T09:34:48Z</time>
      </trkpt>
      <trkpt lat="43.3957" lon="-5.98399">
        <ele>103.1</ele>
        <time>2016-07-06T09:34:56Z</time>
      </trkpt>
      <trkpt lat="43.39569" lon="-5.98413">
        <ele>104</ele>
        <time>2016-07-06T09:35:05Z</time>
      </trkpt>
      <trkpt lat="43.39568" lon="-5.98426">
        <ele>104.9</ele>
        <time>2016-07-06T09:35:12Z</time>
      </trkpt>
      <trkpt lat="43.39567" lon="-5.98439">
        <ele>105.6</ele>
        <time>2016-07-06T09:35:19Z</time>
      </trkpt>
      <trkpt lat="43.39567" lon="-5.98452">
        <ele>106.5</ele>
        <time>2016-07-06T09:35:27Z</time>
      </trkpt>
      <trkpt lat="43.39566" lon="-5.98464">
        <ele>107.3</ele>
        <time>2016-07-06T09:35:35Z</time>
      </trkpt>
      <trkpt lat="43.39565" lon="-5.98477">
        <ele>108.1</ele>
        <time>2016-07-06T09:35:43Z</time>
      </trkpt>
      <trkpt lat="43.39563" lon="-5.9849">
        <ele>108.7</ele>
        <time>2016-07-06T09:35:50Z</time>
      </trkpt>
      <trkpt lat="43.3956" lon="-5.98502">
        <ele>109.4</ele>
        <time>2016-07-06T09:35:57Z</time>
      </trkpt>
      <trkpt lat="43.3956" lon="-5.98515">
        <ele>110.8</ele>
        <time>2016-07-06T09:36:11Z</time>
      </trkpt>
      <trkpt lat="43.39557" lon="-5.98527">
        <ele>111.6</ele>
        <time>2016-07-06T09:36:21Z</time>
      </trkpt>
      <trkpt lat="43.39553" lon="-5.9854">
        <ele>112.5</ele>
        <time>2016-07-06T09:36:30Z</time>
      </trkpt>
      <trkpt lat="43.39549" lon="-5.98551">
        <ele>112.8</ele>
        <time>2016-07-06T09:36:38Z</time>
      </trkpt>
      <trkpt lat="43.39546" lon="-5.98563">
        <ele>113.7</ele>
        <time>2016-07-06T09:36:50Z</time>
      </trkpt>
      <trkpt lat="43.39543" lon="-5.98575">
        <ele>114.1</ele>
        <time>2016-07-06T09:36:59Z</time>
      </trkpt>
      <trkpt lat="43.3954" lon="-5.98587">
        <ele>116.1</ele>
        <time>2016-07-06T09:37:21Z</time>
      </trkpt>
      <trkpt lat="43.39538" lon="-5.986">
        <ele>116.2</ele>
        <time>2016-07-06T09:37:31Z</time>
      </trkpt>
      <trkpt lat="43.39536" lon="-5.98613">
        <ele>116</ele>
        <time>2016-07-06T09:37:39Z</time>
      </trkpt>
      <trkpt lat="43.39534" lon="-5.98627">
        <ele>116</ele>
        <time>2016-07-06T09:37:47Z</time>
      </trkpt>
      <trkpt lat="43.39535" lon="-5.98641">
        <ele>116.8</ele>
        <time>2016-07-06T09:38:00Z</time>
      </trkpt>
      <trkpt lat="43.39537" lon="-5.98653">
        <ele>116.8</ele>
        <time>2016-07-06T09:38:09Z</time>
      </trkpt>
      <trkpt lat="43.3954" lon="-5.98666">
        <ele>116.8</ele>
        <time>2016-07-06T09:38:19Z</time>
      </trkpt>
      <trkpt lat="43.3954" lon="-5.98679">
        <ele>117.1</ele>
        <time>2016-07-06T09:38:27Z</time>
      </trkpt>
      <trkpt lat="43.39541" lon="-5.98692">
        <ele>117.2</ele>
        <time>2016-07-06T09:38:35Z</time>
      </trkpt>
      <trkpt lat="43.39539" lon="-5.98705">
        <ele>117.5</ele>
        <time>2016-07-06T09:38:42Z</time>
      </trkpt>
      <trkpt lat="43.39536" lon="-5.98718">
        <ele>117.9</ele>
        <time>2016-07-06T09:38:49Z</time>
      </trkpt>
      <trkpt lat="43.39532" lon="-5.98731">
        <ele>118.2</ele>
        <time>2016-07-06T09:38:56Z</time>
      </trkpt>
      <trkpt lat="43.39527" lon="-5.98742">
        <ele>119.1</ele>
        <time>2016-07-06T09:39:03Z</time>
      </trkpt>
      <trkpt lat="43.39522" lon="-5.98753">
        <ele>119.9</ele>
        <time>2016-07-06T09:39:13Z</time>
      </trkpt>
      <trkpt lat="43.39516" lon="-5.98763">
        <ele>120.7</ele>
        <time>2016-07-06T09:39:23Z</time>
      </trkpt>
      <trkpt lat="43.39511" lon="-5.98773">
        <ele>121.2</ele>
        <time>2016-07-06T09:39:31Z</time>
      </trkpt>
      <trkpt lat="43.39506" lon="-5.98784">
        <ele>121.8</ele>
        <time>2016-07-06T09:39:39Z</time>
      </trkpt>
      <trkpt lat="43.39502" lon="-5.98797">
        <ele>122.2</ele>
        <time>2016-07-06T09:39:47Z</time>
      </trkpt>
      <trkpt lat="43.39498" lon="-5.98808">
        <ele>124.8</ele>
        <time>2016-07-06T09:39:56Z</time>
      </trkpt>
      <trkpt lat="43.39493" lon="-5.9882">
        <ele>124.7</ele>
        <time>2016-07-06T09:40:06Z</time>
      </trkpt>
      <trkpt lat="43.39487" lon="-5.9883">
        <ele>119.5</ele>
        <time>2016-07-06T09:40:14Z</time>
      </trkpt>
      <trkpt lat="43.39482" lon="-5.98841">
        <ele>123.3</ele>
        <time>2016-07-06T09:40:23Z</time>
      </trkpt>
      <trkpt lat="43.39476" lon="-5.98851">
        <ele>125</ele>
        <time>2016-07-06T09:40:30Z</time>
      </trkpt>
      <trkpt lat="43.39469" lon="-5.9886">
        <ele>125.7</ele>
        <time>2016-07-06T09:40:38Z</time>
      </trkpt>
      <trkpt lat="43.39464" lon="-5.98871">
        <ele>125.8</ele>
        <time>2016-07-06T09:40:47Z</time>
      </trkpt>
      <trkpt lat="43.39459" lon="-5.98882">
        <ele>125.8</ele>
        <time>2016-07-06T09:40:54Z</time>
      </trkpt>
      <trkpt lat="43.39457" lon="-5.98896">
        <ele>126.1</ele>
        <time>2016-07-06T09:41:01Z</time>
      </trkpt>
      <trkpt lat="43.39459" lon="-5.98909">
        <ele>125.6</ele>
        <time>2016-07-06T09:41:09Z</time>
      </trkpt>
      <trkpt lat="43.39458" lon="-5.98922">
        <ele>127.6</ele>
        <time>2016-07-06T09:41:17Z</time>
      </trkpt>
      <trkpt lat="43.39458" lon="-5.98938">
        <ele>124.7</ele>
        <time>2016-07-06T09:41:24Z</time>
      </trkpt>
      <trkpt lat="43.39462" lon="-5.9895">
        <ele>127.7</ele>
        <time>2016-07-06T09:41:47Z</time>
      </trkpt>
      <trkpt lat="43.39461" lon="-5.98963">
        <ele>127.2</ele>
        <time>2016-07-06T09:41:59Z</time>
      </trkpt>
      <trkpt lat="43.39457" lon="-5.98975">
        <ele>126.9</ele>
        <time>2016-07-06T09:42:07Z</time>
      </trkpt>
      <trkpt lat="43.39453" lon="-5.98987">
        <ele>127.4</ele>
        <time>2016-07-06T09:42:15Z</time>
      </trkpt>
      <trkpt lat="43.39448" lon="-5.98998">
        <ele>128.1</ele>
        <time>2016-07-06T09:42:23Z</time>
      </trkpt>
      <trkpt lat="43.39446" lon="-5.99011">
        <ele>128.8</ele>
        <time>2016-07-06T09:42:31Z</time>
      </trkpt>
      <trkpt lat="43.39442" lon="-5.99022">
        <ele>130.2</ele>
        <time>2016-07-06T09:42:42Z</time>
      </trkpt>
      <trkpt lat="43.39441" lon="-5.99037">
        <ele>131.5</ele>
        <time>2016-07-06T09:42:53Z</time>
      </trkpt>
      <trkpt lat="43.39441" lon="-5.9905">
        <ele>132.5</ele>
        <time>2016-07-06T09:43:01Z</time>
      </trkpt>
      <trkpt lat="43.39443" lon="-5.99063">
        <ele>133.2</ele>
        <time>2016-07-06T09:43:10Z</time>
      </trkpt>
      <trkpt lat="43.39446" lon="-5.99075">
        <ele>133.9</ele>
        <time>2016-07-06T09:43:20Z</time>
      </trkpt>
      <trkpt lat="43.39449" lon="-5.99087">
        <ele>134.4</ele>
        <time>2016-07-06T09:43:42Z</time>
      </trkpt>
      <trkpt lat="43.39442" lon="-5.99103">
        <ele>135.2</ele>
        <time>2016-07-06T09:44:35Z</time>
      </trkpt>
      <trkpt lat="43.39447" lon="-5.99114">
        <ele>138.9</ele>
        <time>2016-07-06T09:44:45Z</time>
      </trkpt>
      <trkpt lat="43.3945" lon="-5.99126">
        <ele>135.9</ele>
        <time>2016-07-06T09:45:04Z</time>
      </trkpt>
      <trkpt lat="43.39449" lon="-5.99139">
        <ele>134.8</ele>
        <time>2016-07-06T09:45:14Z</time>
      </trkpt>
      <trkpt lat="43.39448" lon="-5.99152">
        <ele>133.9</ele>
        <time>2016-07-06T09:45:22Z</time>
      </trkpt>
      <trkpt lat="43.39448" lon="-5.99166">
        <ele>133.3</ele>
        <time>2016-07-06T09:45:30Z</time>
      </trkpt>
      <trkpt lat="43.39448" lon="-5.99179">
        <ele>133</ele>
        <time>2016-07-06T09:45:37Z</time>
      </trkpt>
      <trkpt lat="43.39448" lon="-5.99192">
        <ele>132.6</ele>
        <time>2016-07-06T09:45:44Z</time>
      </trkpt>
      <trkpt lat="43.3945" lon="-5.99205">
        <ele>131.9</ele>
        <time>2016-07-06T09:45:52Z</time>
      </trkpt>
      <trkpt lat="43.3945" lon="-5.99218">
        <ele>131.4</ele>
        <time>2016-07-06T09:46:01Z</time>
      </trkpt>
      <trkpt lat="43.39448" lon="-5.99231">
        <ele>130.2</ele>
        <time>2016-07-06T09:46:09Z</time>
      </trkpt>
      <trkpt lat="43.39445" lon="-5.99244">
        <ele>129.6</ele>
        <time>2016-07-06T09:46:16Z</time>
      </trkpt>
      <trkpt lat="43.39442" lon="-5.99257">
        <ele>129.5</ele>
        <time>2016-07-06T09:46:24Z</time>
      </trkpt>
      <trkpt lat="43.39439" lon="-5.9927">
        <ele>129.3</ele>
        <time>2016-07-06T09:46:32Z</time>
      </trkpt>
      <trkpt lat="43.39439" lon="-5.99284">
        <ele>128.3</ele>
        <time>2016-07-06T09:46:41Z</time>
      </trkpt>
      <trkpt lat="43.39438" lon="-5.99296">
        <ele>127.3</ele>
        <time>2016-07-06T09:46:49Z</time>
      </trkpt>
      <trkpt lat="43.39435" lon="-5.99309">
        <ele>126.6</ele>
        <time>2016-07-06T09:46:57Z</time>
      </trkpt>
      <trkpt lat="43.39434" lon="-5.99321">
        <ele>126</ele>
        <time>2016-07-06T09:47:06Z</time>
      </trkpt>
      <trkpt lat="43.39429" lon="-5.99334">
        <ele>125.3</ele>
        <time>2016-07-06T09:47:13Z</time>
      </trkpt>
      <trkpt lat="43.39425" lon="-5.99346">
        <ele>124.6</ele>
        <time>2016-07-06T09:47:20Z</time>
      </trkpt>
      <trkpt lat="43.39424" lon="-5.99358">
        <ele>124.2</ele>
        <time>2016-07-06T09:47:27Z</time>
      </trkpt>
      <trkpt lat="43.39424" lon="-5.99371">
        <ele>123.1</ele>
        <time>2016-07-06T09:47:35Z</time>
      </trkpt>
      <trkpt lat="43.39427" lon="-5.99384">
        <ele>122.5</ele>
        <time>2016-07-06T09:47:43Z</time>
      </trkpt>
      <trkpt lat="43.39431" lon="-5.99396">
        <ele>122</ele>
        <time>2016-07-06T09:47:50Z</time>
      </trkpt>
      <trkpt lat="43.39435" lon="-5.99408">
        <ele>121.9</ele>
        <time>2016-07-06T09:47:57Z</time>
      </trkpt>
      <trkpt lat="43.39438" lon="-5.99421">
        <ele>121.5</ele>
        <time>2016-07-06T09:48:04Z</time>
      </trkpt>
      <trkpt lat="43.39442" lon="-5.99434">
        <ele>121</ele>
        <time>2016-07-06T09:48:11Z</time>
      </trkpt>
      <trkpt lat="43.39446" lon="-5.99446">
        <ele>120.6</ele>
        <time>2016-07-06T09:48:18Z</time>
      </trkpt>
      <trkpt lat="43.39452" lon="-5.99457">
        <ele>119.7</ele>
        <time>2016-07-06T09:48:27Z</time>
      </trkpt>
      <trkpt lat="43.39456" lon="-5.99469">
        <ele>118.5</ele>
        <time>2016-07-06T09:48:36Z</time>
      </trkpt>
      <trkpt lat="43.39461" lon="-5.9948">
        <ele>117.6</ele>
        <time>2016-07-06T09:48:45Z</time>
      </trkpt>
      <trkpt lat="43.39463" lon="-5.99492">
        <ele>116.5</ele>
        <time>2016-07-06T09:48:55Z</time>
      </trkpt>
      <trkpt lat="43.39467" lon="-5.99504">
        <ele>114.5</ele>
        <time>2016-07-06T09:49:07Z</time>
      </trkpt>
      <trkpt lat="43.39469" lon="-5.99517">
        <ele>113.5</ele>
        <time>2016-07-06T09:49:16Z</time>
      </trkpt>
      <trkpt lat="43.39471" lon="-5.99529">
        <ele>112.2</ele>
        <time>2016-07-06T09:49:24Z</time>
      </trkpt>
      <trkpt lat="43.39474" lon="-5.99542">
        <ele>111.2</ele>
        <time>2016-07-06T09:49:33Z</time>
      </trkpt>
      <trkpt lat="43.39478" lon="-5.99554">
        <ele>110.1</ele>
        <time>2016-07-06T09:49:42Z</time>
      </trkpt>
      <trkpt lat="43.3948" lon="-5.99568">
        <ele>109.3</ele>
        <time>2016-07-06T09:49:50Z</time>
      </trkpt>
      <trkpt lat="43.39481" lon="-5.9958">
        <ele>108.1</ele>
        <time>2016-07-06T09:49:57Z</time>
      </trkpt>
      <trkpt lat="43.39482" lon="-5.99593">
        <ele>107.2</ele>
        <time>2016-07-06T09:50:06Z</time>
      </trkpt>
      <trkpt lat="43.3948" lon="-5.99605">
        <ele>106.2</ele>
        <time>2016-07-06T09:50:15Z</time>
      </trkpt>
      <trkpt lat="43.39476" lon="-5.99618">
        <ele>104.4</ele>
        <time>2016-07-06T09:50:26Z</time>
      </trkpt>
      <trkpt lat="43.39472" lon="-5.9963">
        <ele>102.6</ele>
        <time>2016-07-06T09:50:37Z</time>
      </trkpt>
      <trkpt lat="43.39467" lon="-5.9964">
        <ele>101</ele>
        <time>2016-07-06T09:50:46Z</time>
      </trkpt>
      <trkpt lat="43.39462" lon="-5.99652">
        <ele>99.3</ele>
        <time>2016-07-06T09:50:57Z</time>
      </trkpt>
      <trkpt lat="43.39456" lon="-5.99662">
        <ele>97.9</ele>
        <time>2016-07-06T09:51:05Z</time>
      </trkpt>
      <trkpt lat="43.3945" lon="-5.99673">
        <ele>96.9</ele>
        <time>2016-07-06T09:51:13Z</time>
      </trkpt>
      <trkpt lat="43.39443" lon="-5.99682">
        <ele>95.8</ele>
        <time>2016-07-06T09:51:22Z</time>
      </trkpt>
      <trkpt lat="43.39437" lon="-5.99693">
        <ele>94.4</ele>
        <time>2016-07-06T09:51:32Z</time>
      </trkpt>
      <trkpt lat="43.39432" lon="-5.99703">
        <ele>93.7</ele>
        <time>2016-07-06T09:51:40Z</time>
      </trkpt>
      <trkpt lat="43.39426" lon="-5.99713">
        <ele>92.4</ele>
        <time>2016-07-06T09:51:49Z</time>
      </trkpt>
      <trkpt lat="43.3942" lon="-5.99724">
        <ele>91.3</ele>
        <time>2016-07-06T09:51:58Z</time>
      </trkpt>
      <trkpt lat="43.39421" lon="-5.99736">
        <ele>89.2</ele>
        <time>2016-07-06T09:52:10Z</time>
      </trkpt>
      <trkpt lat="43.3942" lon="-5.9975">
        <ele>87.7</ele>
        <time>2016-07-06T09:52:22Z</time>
      </trkpt>
      <trkpt lat="43.39417" lon="-5.99762">
        <ele>86.5</ele>
        <time>2016-07-06T09:52:31Z</time>
      </trkpt>
      <trkpt lat="43.39416" lon="-5.99776">
        <ele>85.1</ele>
        <time>2016-07-06T09:52:40Z</time>
      </trkpt>
      <trkpt lat="43.39415" lon="-5.99789">
        <ele>83.5</ele>
        <time>2016-07-06T09:52:48Z</time>
      </trkpt>
      <trkpt lat="43.39412" lon="-5.99802">
        <ele>82.3</ele>
        <time>2016-07-06T09:52:56Z</time>
      </trkpt>
      <trkpt lat="43.39409" lon="-5.99815">
        <ele>80.4</ele>
        <time>2016-07-06T09:53:05Z</time>
      </trkpt>
      <trkpt lat="43.39407" lon="-5.99828">
        <ele>78.8</ele>
        <time>2016-07-06T09:53:13Z</time>
      </trkpt>
      <trkpt lat="43.39406" lon="-5.9984">
        <ele>77.5</ele>
        <time>2016-07-06T09:53:21Z</time>
      </trkpt>
      <trkpt lat="43.39407" lon="-5.99853">
        <ele>76.5</ele>
        <time>2016-07-06T09:53:29Z</time>
      </trkpt>
      <trkpt lat="43.39405" lon="-5.99866">
        <ele>75.6</ele>
        <time>2016-07-06T09:53:36Z</time>
      </trkpt>
      <trkpt lat="43.39402" lon="-5.99879">
        <ele>74.8</ele>
        <time>2016-07-06T09:53:43Z</time>
      </trkpt>
      <trkpt lat="43.39399" lon="-5.99891">
        <ele>74.3</ele>
        <time>2016-07-06T09:53:51Z</time>
      </trkpt>
      <trkpt lat="43.39397" lon="-5.99905">
        <ele>73.4</ele>
        <time>2016-07-06T09:53:59Z</time>
      </trkpt>
      <trkpt lat="43.39398" lon="-5.99918">
        <ele>72.2</ele>
        <time>2016-07-06T09:54:08Z</time>
      </trkpt>
      <trkpt lat="43.39398" lon="-5.99931">
        <ele>71.8</ele>
        <time>2016-07-06T09:54:16Z</time>
      </trkpt>
      <trkpt lat="43.39398" lon="-5.99944">
        <ele>71.9</ele>
        <time>2016-07-06T09:54:24Z</time>
      </trkpt>
      <trkpt lat="43.39398" lon="-5.99957">
        <ele>71.3</ele>
        <time>2016-07-06T09:54:35Z</time>
      </trkpt>
      <trkpt lat="43.39394" lon="-5.99969">
        <ele>70.5</ele>
        <time>2016-07-06T09:54:48Z</time>
      </trkpt>
      <trkpt lat="43.39393" lon="-5.99982">
        <ele>69.6</ele>
        <time>2016-07-06T09:54:59Z</time>
      </trkpt>
      <trkpt lat="43.3939" lon="-5.99994">
        <ele>69.5</ele>
        <time>2016-07-06T09:55:08Z</time>
      </trkpt>
      <trkpt lat="43.39386" lon="-6.00006">
        <ele>69.3</ele>
        <time>2016-07-06T09:55:16Z</time>
      </trkpt>
      <trkpt lat="43.39382" lon="-6.00017">
        <ele>69.5</ele>
        <time>2016-07-06T09:55:24Z</time>
      </trkpt>
      <trkpt lat="43.39381" lon="-6.0003">
        <ele>68.7</ele>
        <time>2016-07-06T09:55:36Z</time>
      </trkpt>
      <trkpt lat="43.3938" lon="-6.00043">
        <ele>68.1</ele>
        <time>2016-07-06T09:55:45Z</time>
      </trkpt>
      <trkpt lat="43.39382" lon="-6.00056">
        <ele>67.9</ele>
        <time>2016-07-06T09:55:53Z</time>
      </trkpt>
      <trkpt lat="43.3938" lon="-6.00069">
        <ele>67.6</ele>
        <time>2016-07-06T09:56:07Z</time>
      </trkpt>
      <trkpt lat="43.39381" lon="-6.00082">
        <ele>65.9</ele>
        <time>2016-07-06T09:56:33Z</time>
      </trkpt>
      <trkpt lat="43.39376" lon="-6.00093">
        <ele>65.7</ele>
        <time>2016-07-06T09:56:44Z</time>
      </trkpt>
      <trkpt lat="43.39371" lon="-6.00103">
        <ele>65.4</ele>
        <time>2016-07-06T09:56:57Z</time>
      </trkpt>
      <trkpt lat="43.39365" lon="-6.00114">
        <ele>65.1</ele>
        <time>2016-07-06T09:57:07Z</time>
      </trkpt>
      <trkpt lat="43.39359" lon="-6.00124">
        <ele>64.6</ele>
        <time>2016-07-06T09:57:14Z</time>
      </trkpt>
      <trkpt lat="43.39353" lon="-6.00135">
        <ele>64</ele>
        <time>2016-07-06T09:57:22Z</time>
      </trkpt>
      <trkpt lat="43.39348" lon="-6.00146">
        <ele>63.5</ele>
        <time>2016-07-06T09:57:31Z</time>
      </trkpt>
      <trkpt lat="43.39344" lon="-6.00158">
        <ele>63.2</ele>
        <time>2016-07-06T09:57:39Z</time>
      </trkpt>
      <trkpt lat="43.39342" lon="-6.00172">
        <ele>62.9</ele>
        <time>2016-07-06T09:57:47Z</time>
      </trkpt>
      <trkpt lat="43.39339" lon="-6.00184">
        <ele>62.4</ele>
        <time>2016-07-06T09:57:55Z</time>
      </trkpt>
      <trkpt lat="43.39337" lon="-6.00197">
        <ele>62</ele>
        <time>2016-07-06T09:58:03Z</time>
      </trkpt>
      <trkpt lat="43.39337" lon="-6.00212">
        <ele>61.7</ele>
        <time>2016-07-06T09:58:11Z</time>
      </trkpt>
      <trkpt lat="43.39338" lon="-6.00224">
        <ele>61.5</ele>
        <time>2016-07-06T09:58:18Z</time>
      </trkpt>
      <trkpt lat="43.39342" lon="-6.00237">
        <ele>61.3</ele>
        <time>2016-07-06T09:58:25Z</time>
      </trkpt>
      <trkpt lat="43.39347" lon="-6.00248">
        <ele>61.2</ele>
        <time>2016-07-06T09:58:33Z</time>
      </trkpt>
      <trkpt lat="43.39351" lon="-6.00261">
        <ele>60.7</ele>
        <time>2016-07-06T09:58:43Z</time>
      </trkpt>
      <trkpt lat="43.39358" lon="-6.0027">
        <ele>60.5</ele>
        <time>2016-07-06T09:58:50Z</time>
      </trkpt>
      <trkpt lat="43.39365" lon="-6.00279">
        <ele>60.3</ele>
        <time>2016-07-06T09:58:57Z</time>
      </trkpt>
      <trkpt lat="43.39372" lon="-6.00288">
        <ele>59.7</ele>
        <time>2016-07-06T09:59:08Z</time>
      </trkpt>
      <trkpt lat="43.39381" lon="-6.0029">
        <ele>59.4</ele>
        <time>2016-07-06T09:59:16Z</time>
      </trkpt>
      <trkpt lat="43.39391" lon="-6.0029">
        <ele>59.3</ele>
        <time>2016-07-06T09:59:24Z</time>
      </trkpt>
      <trkpt lat="43.394" lon="-6.00289">
        <ele>59</ele>
        <time>2016-07-06T09:59:34Z</time>
      </trkpt>
      <trkpt lat="43.39409" lon="-6.00287">
        <ele>59.2</ele>
        <time>2016-07-06T09:59:44Z</time>
      </trkpt>
      <trkpt lat="43.39418" lon="-6.00286">
        <ele>59.2</ele>
        <time>2016-07-06T09:59:53Z</time>
      </trkpt>
      <trkpt lat="43.39428" lon="-6.00287">
        <ele>59.2</ele>
        <time>2016-07-06T10:00:03Z</time>
      </trkpt>
      <trkpt lat="43.39438" lon="-6.00287">
        <ele>59.2</ele>
        <time>2016-07-06T10:00:10Z</time>
      </trkpt>
      <trkpt lat="43.39447" lon="-6.00288">
        <ele>58.9</ele>
        <time>2016-07-06T10:00:19Z</time>
      </trkpt>
      <trkpt lat="43.39456" lon="-6.00288">
        <ele>58.9</ele>
        <time>2016-07-06T10:00:30Z</time>
      </trkpt>
      <trkpt lat="43.39466" lon="-6.0029">
        <ele>59.2</ele>
        <time>2016-07-06T10:00:42Z</time>
      </trkpt>
      <trkpt lat="43.39475" lon="-6.00293">
        <ele>58.9</ele>
        <time>2016-07-06T10:00:52Z</time>
      </trkpt>
      <trkpt lat="43.39484" lon="-6.00296">
        <ele>58.7</ele>
        <time>2016-07-06T10:01:00Z</time>
      </trkpt>
      <trkpt lat="43.39493" lon="-6.00299">
        <ele>58.9</ele>
        <time>2016-07-06T10:01:09Z</time>
      </trkpt>
      <trkpt lat="43.39502" lon="-6.00304">
        <ele>58.7</ele>
        <time>2016-07-06T10:01:18Z</time>
      </trkpt>
      <trkpt lat="43.39512" lon="-6.00309">
        <ele>58.2</ele>
        <time>2016-07-06T10:01:25Z</time>
      </trkpt>
      <trkpt lat="43.3952" lon="-6.00315">
        <ele>57.7</ele>
        <time>2016-07-06T10:01:34Z</time>
      </trkpt>
      <trkpt lat="43.39529" lon="-6.0032">
        <ele>57.7</ele>
        <time>2016-07-06T10:01:41Z</time>
      </trkpt>
      <trkpt lat="43.39537" lon="-6.00327">
        <ele>57.8</ele>
        <time>2016-07-06T10:01:48Z</time>
      </trkpt>
      <trkpt lat="43.39545" lon="-6.00334">
        <ele>57.9</ele>
        <time>2016-07-06T10:01:55Z</time>
      </trkpt>
      <trkpt lat="43.39554" lon="-6.00341">
        <ele>57.9</ele>
        <time>2016-07-06T10:02:02Z</time>
      </trkpt>
      <trkpt lat="43.39563" lon="-6.00346">
        <ele>58.2</ele>
        <time>2016-07-06T10:02:09Z</time>
      </trkpt>
      <trkpt lat="43.39571" lon="-6.00355">
        <ele>58.2</ele>
        <time>2016-07-06T10:02:17Z</time>
      </trkpt>
      <trkpt lat="43.39579" lon="-6.00362">
        <ele>58.3</ele>
        <time>2016-07-06T10:02:26Z</time>
      </trkpt>
      <trkpt lat="43.39588" lon="-6.00366">
        <ele>57.8</ele>
        <time>2016-07-06T10:02:36Z</time>
      </trkpt>
      <trkpt lat="43.39597" lon="-6.00369">
        <ele>57.3</ele>
        <time>2016-07-06T10:02:45Z</time>
      </trkpt>
      <trkpt lat="43.39606" lon="-6.00373">
        <ele>57.1</ele>
        <time>2016-07-06T10:02:54Z</time>
      </trkpt>
      <trkpt lat="43.39615" lon="-6.00378">
        <ele>57.1</ele>
        <time>2016-07-06T10:03:02Z</time>
      </trkpt>
      <trkpt lat="43.39624" lon="-6.00382">
        <ele>57.2</ele>
        <time>2016-07-06T10:03:10Z</time>
      </trkpt>
      <trkpt lat="43.39632" lon="-6.00387">
        <ele>57.4</ele>
        <time>2016-07-06T10:03:18Z</time>
      </trkpt>
      <trkpt lat="43.39641" lon="-6.00392">
        <ele>57.9</ele>
        <time>2016-07-06T10:03:27Z</time>
      </trkpt>
      <trkpt lat="43.39649" lon="-6.00402">
        <ele>58.3</ele>
        <time>2016-07-06T10:03:36Z</time>
      </trkpt>
      <trkpt lat="43.39656" lon="-6.00409">
        <ele>58.4</ele>
        <time>2016-07-06T10:03:43Z</time>
      </trkpt>
      <trkpt lat="43.39663" lon="-6.00418">
        <ele>58.5</ele>
        <time>2016-07-06T10:03:49Z</time>
      </trkpt>
      <trkpt lat="43.3967" lon="-6.00427">
        <ele>58.5</ele>
        <time>2016-07-06T10:03:55Z</time>
      </trkpt>
      <trkpt lat="43.39677" lon="-6.00437">
        <ele>58.5</ele>
        <time>2016-07-06T10:04:02Z</time>
      </trkpt>
      <trkpt lat="43.39683" lon="-6.00447">
        <ele>58.3</ele>
        <time>2016-07-06T10:04:09Z</time>
      </trkpt>
      <trkpt lat="43.39689" lon="-6.00457">
        <ele>58.1</ele>
        <time>2016-07-06T10:04:16Z</time>
      </trkpt>
      <trkpt lat="43.39694" lon="-6.00469">
        <ele>58.1</ele>
        <time>2016-07-06T10:04:23Z</time>
      </trkpt>
      <trkpt lat="43.39697" lon="-6.00483">
        <ele>57.8</ele>
        <time>2016-07-06T10:04:31Z</time>
      </trkpt>
      <trkpt lat="43.39698" lon="-6.00495">
        <ele>57.6</ele>
        <time>2016-07-06T10:04:37Z</time>
      </trkpt>
      <trkpt lat="43.39699" lon="-6.00509">
        <ele>57.2</ele>
        <time>2016-07-06T10:04:44Z</time>
      </trkpt>
      <trkpt lat="43.397" lon="-6.00522">
        <ele>56.7</ele>
        <time>2016-07-06T10:04:52Z</time>
      </trkpt>
      <trkpt lat="43.397" lon="-6.00536">
        <ele>56.2</ele>
        <time>2016-07-06T10:04:58Z</time>
      </trkpt>
      <trkpt lat="43.39702" lon="-6.00549">
        <ele>55.9</ele>
        <time>2016-07-06T10:05:07Z</time>
      </trkpt>
      <trkpt lat="43.39704" lon="-6.00561">
        <ele>55.7</ele>
        <time>2016-07-06T10:05:16Z</time>
      </trkpt>
      <trkpt lat="43.39705" lon="-6.00574">
        <ele>55.5</ele>
        <time>2016-07-06T10:05:24Z</time>
      </trkpt>
      <trkpt lat="43.39703" lon="-6.00588">
        <ele>55.2</ele>
        <time>2016-07-06T10:05:33Z</time>
      </trkpt>
      <trkpt lat="43.39701" lon="-6.006">
        <ele>55</ele>
        <time>2016-07-06T10:05:41Z</time>
      </trkpt>
      <trkpt lat="43.39706" lon="-6.00612">
        <ele>55</ele>
        <time>2016-07-06T10:06:21Z</time>
      </trkpt>
      <trkpt lat="43.39701" lon="-6.00623">
        <ele>54.6</ele>
        <time>2016-07-06T10:06:31Z</time>
      </trkpt>
      <trkpt lat="43.39696" lon="-6.00633">
        <ele>54.3</ele>
        <time>2016-07-06T10:06:40Z</time>
      </trkpt>
      <trkpt lat="43.3969" lon="-6.00645">
        <ele>54.1</ele>
        <time>2016-07-06T10:06:48Z</time>
      </trkpt>
      <trkpt lat="43.39683" lon="-6.00652">
        <ele>54</ele>
        <time>2016-07-06T10:06:55Z</time>
      </trkpt>
      <trkpt lat="43.39676" lon="-6.0066">
        <ele>53.9</ele>
        <time>2016-07-06T10:07:02Z</time>
      </trkpt>
      <trkpt lat="43.39668" lon="-6.00669">
        <ele>53.9</ele>
        <time>2016-07-06T10:07:10Z</time>
      </trkpt>
      <trkpt lat="43.39662" lon="-6.00679">
        <ele>53.8</ele>
        <time>2016-07-06T10:07:18Z</time>
      </trkpt>
      <trkpt lat="43.39657" lon="-6.0069">
        <ele>53.8</ele>
        <time>2016-07-06T10:07:26Z</time>
      </trkpt>
      <trkpt lat="43.39653" lon="-6.00702">
        <ele>54</ele>
        <time>2016-07-06T10:07:35Z</time>
      </trkpt>
      <trkpt lat="43.39648" lon="-6.00715">
        <ele>53.8</ele>
        <time>2016-07-06T10:07:43Z</time>
      </trkpt>
      <trkpt lat="43.39644" lon="-6.00726">
        <ele>53.6</ele>
        <time>2016-07-06T10:07:52Z</time>
      </trkpt>
      <trkpt lat="43.39642" lon="-6.00739">
        <ele>53.6</ele>
        <time>2016-07-06T10:08:04Z</time>
      </trkpt>
      <trkpt lat="43.39642" lon="-6.00751">
        <ele>53.6</ele>
        <time>2016-07-06T10:08:12Z</time>
      </trkpt>
      <trkpt lat="43.3964" lon="-6.00763">
        <ele>53.6</ele>
        <time>2016-07-06T10:08:19Z</time>
      </trkpt>
      <trkpt lat="43.39638" lon="-6.00777">
        <ele>53.4</ele>
        <time>2016-07-06T10:08:28Z</time>
      </trkpt>
      <trkpt lat="43.39634" lon="-6.0079">
        <ele>53.6</ele>
        <time>2016-07-06T10:08:37Z</time>
      </trkpt>
      <trkpt lat="43.39633" lon="-6.00803">
        <ele>53.4</ele>
        <time>2016-07-06T10:08:46Z</time>
      </trkpt>
      <trkpt lat="43.39633" lon="-6.00816">
        <ele>53.4</ele>
        <time>2016-07-06T10:08:57Z</time>
      </trkpt>
      <trkpt lat="43.39633" lon="-6.0083">
        <ele>53.6</ele>
        <time>2016-07-06T10:09:04Z</time>
      </trkpt>
      <trkpt lat="43.39633" lon="-6.00844">
        <ele>53.7</ele>
        <time>2016-07-06T10:09:11Z</time>
      </trkpt>
      <trkpt lat="43.39637" lon="-6.00856">
        <ele>53.6</ele>
        <time>2016-07-06T10:09:18Z</time>
      </trkpt>
      <trkpt lat="43.39643" lon="-6.00867">
        <ele>53.5</ele>
        <time>2016-07-06T10:09:24Z</time>
      </trkpt>
      <trkpt lat="43.39649" lon="-6.00877">
        <ele>53.4</ele>
        <time>2016-07-06T10:09:31Z</time>
      </trkpt>
      <trkpt lat="43.39656" lon="-6.00886">
        <ele>53.6</ele>
        <time>2016-07-06T10:09:40Z</time>
      </trkpt>
      <trkpt lat="43.39662" lon="-6.00896">
        <ele>53.6</ele>
        <time>2016-07-06T10:09:49Z</time>
      </trkpt>
      <trkpt lat="43.39663" lon="-6.00908">
        <ele>54.7</ele>
        <time>2016-07-06T10:10:16Z</time>
      </trkpt>
      <trkpt lat="43.3967" lon="-6.00918">
        <ele>54.3</ele>
        <time>2016-07-06T10:10:35Z</time>
      </trkpt>
      <trkpt lat="43.39673" lon="-6.00929">
        <ele>54.7</ele>
        <time>2016-07-06T10:10:57Z</time>
      </trkpt>
      <trkpt lat="43.3967" lon="-6.00941">
        <ele>55</ele>
        <time>2016-07-06T10:11:27Z</time>
      </trkpt>
      <trkpt lat="43.39671" lon="-6.00953">
        <ele>55.4</ele>
        <time>2016-07-06T10:11:55Z</time>
      </trkpt>
      <trkpt lat="43.39663" lon="-6.00962">
        <ele>55.2</ele>
        <time>2016-07-06T10:12:05Z</time>
      </trkpt>
      <trkpt lat="43.39655" lon="-6.00968">
        <ele>54.8</ele>
        <time>2016-07-06T10:12:14Z</time>
      </trkpt>
      <trkpt lat="43.39658" lon="-6.0098">
        <ele>54.4</ele>
        <time>2016-07-06T10:12:24Z</time>
      </trkpt>
      <trkpt lat="43.39663" lon="-6.00992">
        <ele>54.7</ele>
        <time>2016-07-06T10:12:34Z</time>
      </trkpt>
      <trkpt lat="43.39669" lon="-6.01001">
        <ele>54.8</ele>
        <time>2016-07-06T10:12:42Z</time>
      </trkpt>
      <trkpt lat="43.39675" lon="-6.01012">
        <ele>55</ele>
        <time>2016-07-06T10:12:51Z</time>
      </trkpt>
      <trkpt lat="43.39677" lon="-6.01025">
        <ele>55.5</ele>
        <time>2016-07-06T10:13:06Z</time>
      </trkpt>
      <trkpt lat="43.39682" lon="-6.01036">
        <ele>55.4</ele>
        <time>2016-07-06T10:13:17Z</time>
      </trkpt>
      <trkpt lat="43.39688" lon="-6.01047">
        <ele>55.3</ele>
        <time>2016-07-06T10:13:26Z</time>
      </trkpt>
      <trkpt lat="43.39692" lon="-6.01058">
        <ele>55.2</ele>
        <time>2016-07-06T10:13:44Z</time>
      </trkpt>
      <trkpt lat="43.39697" lon="-6.01071">
        <ele>55.8</ele>
        <time>2016-07-06T10:13:53Z</time>
      </trkpt>
      <trkpt lat="43.39701" lon="-6.01083">
        <ele>55.7</ele>
        <time>2016-07-06T10:14:01Z</time>
      </trkpt>
      <trkpt lat="43.39703" lon="-6.01096">
        <ele>55.1</ele>
        <time>2016-07-06T10:14:09Z</time>
      </trkpt>
      <trkpt lat="43.39705" lon="-6.01109">
        <ele>54.5</ele>
        <time>2016-07-06T10:14:17Z</time>
      </trkpt>
      <trkpt lat="43.39708" lon="-6.01121">
        <ele>53.6</ele>
        <time>2016-07-06T10:14:26Z</time>
      </trkpt>
      <trkpt lat="43.39712" lon="-6.01133">
        <ele>53.7</ele>
        <time>2016-07-06T10:14:35Z</time>
      </trkpt>
      <trkpt lat="43.39715" lon="-6.01145">
        <ele>56</ele>
        <time>2016-07-06T10:14:44Z</time>
      </trkpt>
      <trkpt lat="43.39715" lon="-6.01158">
        <ele>57.6</ele>
        <time>2016-07-06T10:14:55Z</time>
      </trkpt>
      <trkpt lat="43.39717" lon="-6.01171">
        <ele>58.2</ele>
        <time>2016-07-06T10:15:05Z</time>
      </trkpt>
      <trkpt lat="43.39715" lon="-6.01183">
        <ele>59.3</ele>
        <time>2016-07-06T10:15:16Z</time>
      </trkpt>
      <trkpt lat="43.39709" lon="-6.01173">
        <ele>62.3</ele>
        <time>2016-07-06T10:16:17Z</time>
      </trkpt>
      <trkpt lat="43.39703" lon="-6.01182">
        <ele>62</ele>
        <time>2016-07-06T10:16:28Z</time>
      </trkpt>
      <trkpt lat="43.397" lon="-6.01195">
        <ele>62.2</ele>
        <time>2016-07-06T10:16:37Z</time>
      </trkpt>
      <trkpt lat="43.39704" lon="-6.01207">
        <ele>62.2</ele>
        <time>2016-07-06T10:16:47Z</time>
      </trkpt>
      <trkpt lat="43.39706" lon="-6.0122">
        <ele>62.6</ele>
        <time>2016-07-06T10:16:56Z</time>
      </trkpt>
      <trkpt lat="43.3971" lon="-6.01232">
        <ele>63</ele>
        <time>2016-07-06T10:17:03Z</time>
      </trkpt>
      <trkpt lat="43.39714" lon="-6.01244">
        <ele>63.1</ele>
        <time>2016-07-06T10:17:11Z</time>
      </trkpt>
      <trkpt lat="43.39715" lon="-6.01257">
        <ele>63.4</ele>
        <time>2016-07-06T10:17:19Z</time>
      </trkpt>
      <trkpt lat="43.39715" lon="-6.01271">
        <ele>63.6</ele>
        <time>2016-07-06T10:17:27Z</time>
      </trkpt>
      <trkpt lat="43.39716" lon="-6.01284">
        <ele>63.7</ele>
        <time>2016-07-06T10:17:34Z</time>
      </trkpt>
      <trkpt lat="43.39717" lon="-6.01297">
        <ele>64.1</ele>
        <time>2016-07-06T10:17:42Z</time>
      </trkpt>
      <trkpt lat="43.39718" lon="-6.0131">
        <ele>64.3</ele>
        <time>2016-07-06T10:17:50Z</time>
      </trkpt>
      <trkpt lat="43.39717" lon="-6.01323">
        <ele>64.7</ele>
        <time>2016-07-06T10:17:58Z</time>
      </trkpt>
      <trkpt lat="43.39716" lon="-6.01336">
        <ele>65.1</ele>
        <time>2016-07-06T10:18:05Z</time>
      </trkpt>
      <trkpt lat="43.39713" lon="-6.01348">
        <ele>65.5</ele>
        <time>2016-07-06T10:18:13Z</time>
      </trkpt>
      <trkpt lat="43.39711" lon="-6.0136">
        <ele>65.5</ele>
        <time>2016-07-06T10:18:21Z</time>
      </trkpt>
      <trkpt lat="43.39711" lon="-6.01373">
        <ele>65.6</ele>
        <time>2016-07-06T10:18:28Z</time>
      </trkpt>
      <trkpt lat="43.39712" lon="-6.01387">
        <ele>65.8</ele>
        <time>2016-07-06T10:18:37Z</time>
      </trkpt>
      <trkpt lat="43.39714" lon="-6.014">
        <ele>66</ele>
        <time>2016-07-06T10:18:46Z</time>
      </trkpt>
      <trkpt lat="43.39722" lon="-6.01407">
        <ele>66.3</ele>
        <time>2016-07-06T10:18:55Z</time>
      </trkpt>
      <trkpt lat="43.39731" lon="-6.01408">
        <ele>66.5</ele>
        <time>2016-07-06T10:19:08Z</time>
      </trkpt>
      <trkpt lat="43.3974" lon="-6.01404">
        <ele>66.7</ele>
        <time>2016-07-06T10:19:18Z</time>
      </trkpt>
      <trkpt lat="43.3975" lon="-6.01401">
        <ele>66.6</ele>
        <time>2016-07-06T10:19:26Z</time>
      </trkpt>
      <trkpt lat="43.39759" lon="-6.01399">
        <ele>66.4</ele>
        <time>2016-07-06T10:19:33Z</time>
      </trkpt>
      <trkpt lat="43.39769" lon="-6.01396">
        <ele>66.4</ele>
        <time>2016-07-06T10:19:41Z</time>
      </trkpt>
      <trkpt lat="43.39778" lon="-6.01393">
        <ele>65.6</ele>
        <time>2016-07-06T10:19:48Z</time>
      </trkpt>
      <trkpt lat="43.39787" lon="-6.0139">
        <ele>64.7</ele>
        <time>2016-07-06T10:19:53Z</time>
      </trkpt>
      <trkpt lat="43.39797" lon="-6.01385">
        <ele>63.8</ele>
        <time>2016-07-06T10:19:59Z</time>
      </trkpt>
      <trkpt lat="43.39806" lon="-6.01381">
        <ele>63</ele>
        <time>2016-07-06T10:20:06Z</time>
      </trkpt>
      <trkpt lat="43.39816" lon="-6.01377">
        <ele>62.3</ele>
        <time>2016-07-06T10:20:13Z</time>
      </trkpt>
      <trkpt lat="43.39826" lon="-6.01373">
        <ele>61.4</ele>
        <time>2016-07-06T10:20:19Z</time>
      </trkpt>
      <trkpt lat="43.39836" lon="-6.01371">
        <ele>60.7</ele>
        <time>2016-07-06T10:20:25Z</time>
      </trkpt>
      <trkpt lat="43.39846" lon="-6.01373">
        <ele>59.9</ele>
        <time>2016-07-06T10:20:33Z</time>
      </trkpt>
      <trkpt lat="43.39854" lon="-6.01378">
        <ele>58.8</ele>
        <time>2016-07-06T10:20:41Z</time>
      </trkpt>
      <trkpt lat="43.39863" lon="-6.01384">
        <ele>57.7</ele>
        <time>2016-07-06T10:20:49Z</time>
      </trkpt>
      <trkpt lat="43.3987" lon="-6.01392">
        <ele>56.8</ele>
        <time>2016-07-06T10:20:58Z</time>
      </trkpt>
      <trkpt lat="43.39879" lon="-6.01399">
        <ele>56.4</ele>
        <time>2016-07-06T10:21:06Z</time>
      </trkpt>
      <trkpt lat="43.39887" lon="-6.01406">
        <ele>56.2</ele>
        <time>2016-07-06T10:21:14Z</time>
      </trkpt>
      <trkpt lat="43.39895" lon="-6.01412">
        <ele>55.6</ele>
        <time>2016-07-06T10:21:21Z</time>
      </trkpt>
      <trkpt lat="43.39902" lon="-6.0142">
        <ele>55.2</ele>
        <time>2016-07-06T10:21:31Z</time>
      </trkpt>
      <trkpt lat="43.39909" lon="-6.01429">
        <ele>55.1</ele>
        <time>2016-07-06T10:21:41Z</time>
      </trkpt>
      <trkpt lat="43.39913" lon="-6.0144">
        <ele>55</ele>
        <time>2016-07-06T10:21:51Z</time>
      </trkpt>
      <trkpt lat="43.3991" lon="-6.01451">
        <ele>55.4</ele>
        <time>2016-07-06T10:22:25Z</time>
      </trkpt>
      <trkpt lat="43.39902" lon="-6.0146">
        <ele>54.5</ele>
        <time>2016-07-06T10:23:05Z</time>
      </trkpt>
      <trkpt lat="43.39892" lon="-6.01463">
        <ele>54.2</ele>
        <time>2016-07-06T10:23:14Z</time>
      </trkpt>
      <trkpt lat="43.39883" lon="-6.01467">
        <ele>54.1</ele>
        <time>2016-07-06T10:23:22Z</time>
      </trkpt>
      <trkpt lat="43.39874" lon="-6.0147">
        <ele>53.9</ele>
        <time>2016-07-06T10:23:31Z</time>
      </trkpt>
      <trkpt lat="43.39867" lon="-6.01477">
        <ele>53.5</ele>
        <time>2016-07-06T10:23:40Z</time>
      </trkpt>
      <trkpt lat="43.39859" lon="-6.01486">
        <ele>53.6</ele>
        <time>2016-07-06T10:23:49Z</time>
      </trkpt>
      <trkpt lat="43.39851" lon="-6.01494">
        <ele>53.4</ele>
        <time>2016-07-06T10:23:59Z</time>
      </trkpt>
      <trkpt lat="43.39843" lon="-6.01501">
        <ele>53.1</ele>
        <time>2016-07-06T10:24:08Z</time>
      </trkpt>
      <trkpt lat="43.39835" lon="-6.01509">
        <ele>52.7</ele>
        <time>2016-07-06T10:24:17Z</time>
      </trkpt>
      <trkpt lat="43.39829" lon="-6.01517">
        <ele>52</ele>
        <time>2016-07-06T10:24:26Z</time>
      </trkpt>
      <trkpt lat="43.39822" lon="-6.01526">
        <ele>51.6</ele>
        <time>2016-07-06T10:24:35Z</time>
      </trkpt>
      <trkpt lat="43.39814" lon="-6.01536">
        <ele>51.5</ele>
        <time>2016-07-06T10:24:43Z</time>
      </trkpt>
      <trkpt lat="43.39806" lon="-6.01544">
        <ele>51.5</ele>
        <time>2016-07-06T10:24:50Z</time>
      </trkpt>
      <trkpt lat="43.39799" lon="-6.01552">
        <ele>51.6</ele>
        <time>2016-07-06T10:24:57Z</time>
      </trkpt>
      <trkpt lat="43.39793" lon="-6.01561">
        <ele>51.4</ele>
        <time>2016-07-06T10:25:04Z</time>
      </trkpt>
      <trkpt lat="43.39785" lon="-6.01571">
        <ele>51.2</ele>
        <time>2016-07-06T10:25:12Z</time>
      </trkpt>
      <trkpt lat="43.39779" lon="-6.01581">
        <ele>51.4</ele>
        <time>2016-07-06T10:25:18Z</time>
      </trkpt>
      <trkpt lat="43.39771" lon="-6.01588">
        <ele>51.5</ele>
        <time>2016-07-06T10:25:25Z</time>
      </trkpt>
      <trkpt lat="43.39764" lon="-6.01597">
        <ele>51.6</ele>
        <time>2016-07-06T10:25:33Z</time>
      </trkpt>
      <trkpt lat="43.39758" lon="-6.01608">
        <ele>51.8</ele>
        <time>2016-07-06T10:25:42Z</time>
      </trkpt>
      <trkpt lat="43.39754" lon="-6.0162">
        <ele>51.9</ele>
        <time>2016-07-06T10:25:50Z</time>
      </trkpt>
      <trkpt lat="43.39752" lon="-6.01634">
        <ele>52.2</ele>
        <time>2016-07-06T10:25:58Z</time>
      </trkpt>
      <trkpt lat="43.39752" lon="-6.01646">
        <ele>52.6</ele>
        <time>2016-07-06T10:26:06Z</time>
      </trkpt>
      <trkpt lat="43.39752" lon="-6.01659">
        <ele>53.6</ele>
        <time>2016-07-06T10:26:14Z</time>
      </trkpt>
      <trkpt lat="43.39752" lon="-6.01673">
        <ele>54.5</ele>
        <time>2016-07-06T10:26:23Z</time>
      </trkpt>
      <trkpt lat="43.39752" lon="-6.01685">
        <ele>54.9</ele>
        <time>2016-07-06T10:26:32Z</time>
      </trkpt>
      <trkpt lat="43.39753" lon="-6.01699">
        <ele>55.6</ele>
        <time>2016-07-06T10:26:41Z</time>
      </trkpt>
      <trkpt lat="43.39752" lon="-6.01713">
        <ele>56.8</ele>
        <time>2016-07-06T10:26:50Z</time>
      </trkpt>
      <trkpt lat="43.39753" lon="-6.01726">
        <ele>57.6</ele>
        <time>2016-07-06T10:27:02Z</time>
      </trkpt>
      <trkpt lat="43.39751" lon="-6.01739">
        <ele>58.1</ele>
        <time>2016-07-06T10:27:12Z</time>
      </trkpt>
      <trkpt lat="43.39748" lon="-6.01752">
        <ele>58.3</ele>
        <time>2016-07-06T10:27:21Z</time>
      </trkpt>
      <trkpt lat="43.39743" lon="-6.01763">
        <ele>58.8</ele>
        <time>2016-07-06T10:27:31Z</time>
      </trkpt>
      <trkpt lat="43.39738" lon="-6.01774">
        <ele>59.4</ele>
        <time>2016-07-06T10:27:42Z</time>
      </trkpt>
      <trkpt lat="43.39733" lon="-6.01784">
        <ele>59.9</ele>
        <time>2016-07-06T10:27:50Z</time>
      </trkpt>
      <trkpt lat="43.39728" lon="-6.01794">
        <ele>60.6</ele>
        <time>2016-07-06T10:27:58Z</time>
      </trkpt>
      <trkpt lat="43.39724" lon="-6.01805">
        <ele>62.5</ele>
        <time>2016-07-06T10:28:22Z</time>
      </trkpt>
      <trkpt lat="43.39715" lon="-6.01811">
        <ele>63.9</ele>
        <time>2016-07-06T10:29:40Z</time>
      </trkpt>
      <trkpt lat="43.3971" lon="-6.01823">
        <ele>63</ele>
        <time>2016-07-06T10:29:58Z</time>
      </trkpt>
      <trkpt lat="43.39702" lon="-6.0183">
        <ele>63.3</ele>
        <time>2016-07-06T10:30:10Z</time>
      </trkpt>
      <trkpt lat="43.39696" lon="-6.01838">
        <ele>63.7</ele>
        <time>2016-07-06T10:30:20Z</time>
      </trkpt>
      <trkpt lat="43.39689" lon="-6.01847">
        <ele>65.8</ele>
        <time>2016-07-06T10:30:49Z</time>
      </trkpt>
      <trkpt lat="43.3968" lon="-6.01844">
        <ele>66.1</ele>
        <time>2016-07-06T10:31:10Z</time>
      </trkpt>
      <trkpt lat="43.39673" lon="-6.01852">
        <ele>66.7</ele>
        <time>2016-07-06T10:31:46Z</time>
      </trkpt>
      <trkpt lat="43.39665" lon="-6.01861">
        <ele>67.3</ele>
        <time>2016-07-06T10:31:54Z</time>
      </trkpt>
      <trkpt lat="43.39657" lon="-6.01869">
        <ele>67.6</ele>
        <time>2016-07-06T10:32:03Z</time>
      </trkpt>
      <trkpt lat="43.3965" lon="-6.01877">
        <ele>68</ele>
        <time>2016-07-06T10:32:11Z</time>
      </trkpt>
      <trkpt lat="43.39644" lon="-6.01887">
        <ele>68.7</ele>
        <time>2016-07-06T10:32:20Z</time>
      </trkpt>
      <trkpt lat="43.39639" lon="-6.01898">
        <ele>69.3</ele>
        <time>2016-07-06T10:32:29Z</time>
      </trkpt>
      <trkpt lat="43.39637" lon="-6.0191">
        <ele>69.8</ele>
        <time>2016-07-06T10:32:39Z</time>
      </trkpt>
      <trkpt lat="43.39635" lon="-6.01924">
        <ele>69.7</ele>
        <time>2016-07-06T10:32:49Z</time>
      </trkpt>
      <trkpt lat="43.39634" lon="-6.01938">
        <ele>69.3</ele>
        <time>2016-07-06T10:32:58Z</time>
      </trkpt>
      <trkpt lat="43.39632" lon="-6.01951">
        <ele>68.8</ele>
        <time>2016-07-06T10:33:06Z</time>
      </trkpt>
      <trkpt lat="43.39631" lon="-6.01964">
        <ele>68.2</ele>
        <time>2016-07-06T10:33:16Z</time>
      </trkpt>
      <trkpt lat="43.39632" lon="-6.01977">
        <ele>67.1</ele>
        <time>2016-07-06T10:33:26Z</time>
      </trkpt>
      <trkpt lat="43.39634" lon="-6.01991">
        <ele>66.3</ele>
        <time>2016-07-06T10:33:35Z</time>
      </trkpt>
      <trkpt lat="43.39636" lon="-6.02003">
        <ele>65.6</ele>
        <time>2016-07-06T10:33:43Z</time>
      </trkpt>
      <trkpt lat="43.39639" lon="-6.02015">
        <ele>65.4</ele>
        <time>2016-07-06T10:33:50Z</time>
      </trkpt>
      <trkpt lat="43.39645" lon="-6.02028">
        <ele>65</ele>
        <time>2016-07-06T10:33:58Z</time>
      </trkpt>
      <trkpt lat="43.39648" lon="-6.02039">
        <ele>64.6</ele>
        <time>2016-07-06T10:34:05Z</time>
      </trkpt>
      <trkpt lat="43.39652" lon="-6.02052">
        <ele>63.9</ele>
        <time>2016-07-06T10:34:13Z</time>
      </trkpt>
      <trkpt lat="43.39656" lon="-6.02064">
        <ele>63.3</ele>
        <time>2016-07-06T10:34:20Z</time>
      </trkpt>
      <trkpt lat="43.39661" lon="-6.02077">
        <ele>62.4</ele>
        <time>2016-07-06T10:34:27Z</time>
      </trkpt>
      <trkpt lat="43.39667" lon="-6.02088">
        <ele>61.3</ele>
        <time>2016-07-06T10:34:35Z</time>
      </trkpt>
      <trkpt lat="43.39672" lon="-6.021">
        <ele>60.5</ele>
        <time>2016-07-06T10:34:43Z</time>
      </trkpt>
      <trkpt lat="43.39677" lon="-6.02112">
        <ele>59.6</ele>
        <time>2016-07-06T10:34:51Z</time>
      </trkpt>
      <trkpt lat="43.39681" lon="-6.02123">
        <ele>59</ele>
        <time>2016-07-06T10:34:59Z</time>
      </trkpt>
      <trkpt lat="43.39686" lon="-6.02135">
        <ele>58.3</ele>
        <time>2016-07-06T10:35:06Z</time>
      </trkpt>
      <trkpt lat="43.39691" lon="-6.02146">
        <ele>57.9</ele>
        <time>2016-07-06T10:35:13Z</time>
      </trkpt>
      <trkpt lat="43.39697" lon="-6.02157">
        <ele>57.7</ele>
        <time>2016-07-06T10:35:20Z</time>
      </trkpt>
      <trkpt lat="43.39701" lon="-6.02168">
        <ele>57.3</ele>
        <time>2016-07-06T10:35:28Z</time>
      </trkpt>
      <trkpt lat="43.39707" lon="-6.02179">
        <ele>57.1</ele>
        <time>2016-07-06T10:35:37Z</time>
      </trkpt>
      <trkpt lat="43.39712" lon="-6.0219">
        <ele>56.7</ele>
        <time>2016-07-06T10:35:47Z</time>
      </trkpt>
      <trkpt lat="43.3972" lon="-6.02198">
        <ele>56.5</ele>
        <time>2016-07-06T10:35:56Z</time>
      </trkpt>
      <trkpt lat="43.39727" lon="-6.02207">
        <ele>56</ele>
        <time>2016-07-06T10:36:04Z</time>
      </trkpt>
      <trkpt lat="43.39732" lon="-6.02217">
        <ele>55.7</ele>
        <time>2016-07-06T10:36:13Z</time>
      </trkpt>
      <trkpt lat="43.39736" lon="-6.02229">
        <ele>55.5</ele>
        <time>2016-07-06T10:36:22Z</time>
      </trkpt>
      <trkpt lat="43.39739" lon="-6.02241">
        <ele>55.4</ele>
        <time>2016-07-06T10:36:33Z</time>
      </trkpt>
      <trkpt lat="43.39742" lon="-6.02254">
        <ele>55</ele>
        <time>2016-07-06T10:36:46Z</time>
      </trkpt>
      <trkpt lat="43.39742" lon="-6.02266">
        <ele>54.8</ele>
        <time>2016-07-06T10:36:55Z</time>
      </trkpt>
      <trkpt lat="43.39741" lon="-6.02279">
        <ele>54.6</ele>
        <time>2016-07-06T10:37:06Z</time>
      </trkpt>
      <trkpt lat="43.39741" lon="-6.02292">
        <ele>54.6</ele>
        <time>2016-07-06T10:37:13Z</time>
      </trkpt>
      <trkpt lat="43.39738" lon="-6.02305">
        <ele>54.6</ele>
        <time>2016-07-06T10:37:20Z</time>
      </trkpt>
      <trkpt lat="43.39737" lon="-6.02317">
        <ele>54.1</ele>
        <time>2016-07-06T10:37:28Z</time>
      </trkpt>
      <trkpt lat="43.39736" lon="-6.0233">
        <ele>53.6</ele>
        <time>2016-07-06T10:37:38Z</time>
      </trkpt>
      <trkpt lat="43.39732" lon="-6.02342">
        <ele>53.2</ele>
        <time>2016-07-06T10:37:47Z</time>
      </trkpt>
      <trkpt lat="43.39727" lon="-6.02354">
        <ele>52.6</ele>
        <time>2016-07-06T10:37:55Z</time>
      </trkpt>
      <trkpt lat="43.39725" lon="-6.02366">
        <ele>52.2</ele>
        <time>2016-07-06T10:38:02Z</time>
      </trkpt>
      <trkpt lat="43.39723" lon="-6.02379">
        <ele>51.4</ele>
        <time>2016-07-06T10:38:11Z</time>
      </trkpt>
      <trkpt lat="43.39725" lon="-6.02391">
        <ele>50.7</ele>
        <time>2016-07-06T10:38:19Z</time>
      </trkpt>
      <trkpt lat="43.39729" lon="-6.02403">
        <ele>50.1</ele>
        <time>2016-07-06T10:38:27Z</time>
      </trkpt>
      <trkpt lat="43.39733" lon="-6.02414">
        <ele>49.7</ele>
        <time>2016-07-06T10:38:35Z</time>
      </trkpt>
      <trkpt lat="43.39739" lon="-6.02425">
        <ele>49</ele>
        <time>2016-07-06T10:38:43Z</time>
      </trkpt>
      <trkpt lat="43.39745" lon="-6.02435">
        <ele>48</ele>
        <time>2016-07-06T10:38:51Z</time>
      </trkpt>
      <trkpt lat="43.39752" lon="-6.02444">
        <ele>47.5</ele>
        <time>2016-07-06T10:39:00Z</time>
      </trkpt>
      <trkpt lat="43.39757" lon="-6.02456">
        <ele>47</ele>
        <time>2016-07-06T10:39:10Z</time>
      </trkpt>
      <trkpt lat="43.39763" lon="-6.02466">
        <ele>46.2</ele>
        <time>2016-07-06T10:39:26Z</time>
      </trkpt>
      <trkpt lat="43.39771" lon="-6.02472">
        <ele>44.9</ele>
        <time>2016-07-06T10:39:42Z</time>
      </trkpt>
      <trkpt lat="43.39761" lon="-6.0247">
        <ele>42.1</ele>
        <time>2016-07-06T10:46:46Z</time>
      </trkpt>
      <trkpt lat="43.39767" lon="-6.02479">
        <ele>42.7</ele>
        <time>2016-07-06T10:47:41Z</time>
      </trkpt>
      <trkpt lat="43.39761" lon="-6.02471">
        <ele>43.4</ele>
        <time>2016-07-06T10:50:28Z</time>
      </trkpt>
      <trkpt lat="43.39769" lon="-6.02477">
        <ele>43.9</ele>
        <time>2016-07-06T10:50:51Z</time>
      </trkpt>
      <trkpt lat="43.3976" lon="-6.02468">
        <ele>43</ele>
        <time>2016-07-06T10:51:35Z</time>
      </trkpt>
      <trkpt lat="43.39769" lon="-6.02473">
        <ele>43.9</ele>
        <time>2016-07-06T11:04:18Z</time>
      </trkpt>
      <trkpt lat="43.39777" lon="-6.02467">
        <ele>45</ele>
        <time>2016-07-06T11:04:53Z</time>
      </trkpt>
      <trkpt lat="43.39786" lon="-6.02473">
        <ele>45.9</ele>
        <time>2016-07-06T11:05:05Z</time>
      </trkpt>
      <trkpt lat="43.39793" lon="-6.0248">
        <ele>46.4</ele>
        <time>2016-07-06T11:05:13Z</time>
      </trkpt>
      <trkpt lat="43.39801" lon="-6.02486">
        <ele>46.6</ele>
        <time>2016-07-06T11:05:22Z</time>
      </trkpt>
      <trkpt lat="43.3981" lon="-6.02492">
        <ele>46.5</ele>
        <time>2016-07-06T11:05:33Z</time>
      </trkpt>
      <trkpt lat="43.39817" lon="-6.02499">
        <ele>46.4</ele>
        <time>2016-07-06T11:05:42Z</time>
      </trkpt>
      <trkpt lat="43.39826" lon="-6.02504">
        <ele>46.4</ele>
        <time>2016-07-06T11:05:50Z</time>
      </trkpt>
      <trkpt lat="43.39834" lon="-6.02511">
        <ele>46.3</ele>
        <time>2016-07-06T11:05:59Z</time>
      </trkpt>
      <trkpt lat="43.39842" lon="-6.02519">
        <ele>46.7</ele>
        <time>2016-07-06T11:06:07Z</time>
      </trkpt>
      <trkpt lat="43.39849" lon="-6.02527">
        <ele>46.7</ele>
        <time>2016-07-06T11:06:15Z</time>
      </trkpt>
      <trkpt lat="43.39857" lon="-6.02535">
        <ele>46.7</ele>
        <time>2016-07-06T11:06:23Z</time>
      </trkpt>
      <trkpt lat="43.39864" lon="-6.02544">
        <ele>46.6</ele>
        <time>2016-07-06T11:06:31Z</time>
      </trkpt>
      <trkpt lat="43.39873" lon="-6.0255">
        <ele>46.5</ele>
        <time>2016-07-06T11:06:39Z</time>
      </trkpt>
      <trkpt lat="43.39882" lon="-6.02554">
        <ele>46.4</ele>
        <time>2016-07-06T11:06:46Z</time>
      </trkpt>
      <trkpt lat="43.39891" lon="-6.02558">
        <ele>46.4</ele>
        <time>2016-07-06T11:06:52Z</time>
      </trkpt>
      <trkpt lat="43.39899" lon="-6.02564">
        <ele>46.4</ele>
        <time>2016-07-06T11:07:00Z</time>
      </trkpt>
      <trkpt lat="43.39907" lon="-6.02571">
        <ele>46.4</ele>
        <time>2016-07-06T11:07:07Z</time>
      </trkpt>
      <trkpt lat="43.39915" lon="-6.02576">
        <ele>46.6</ele>
        <time>2016-07-06T11:07:15Z</time>
      </trkpt>
      <trkpt lat="43.39924" lon="-6.02584">
        <ele>47.1</ele>
        <time>2016-07-06T11:07:24Z</time>
      </trkpt>
      <trkpt lat="43.39933" lon="-6.0259">
        <ele>47.8</ele>
        <time>2016-07-06T11:07:34Z</time>
      </trkpt>
      <trkpt lat="43.39941" lon="-6.02597">
        <ele>48.3</ele>
        <time>2016-07-06T11:07:43Z</time>
      </trkpt>
      <trkpt lat="43.39949" lon="-6.02603">
        <ele>48.8</ele>
        <time>2016-07-06T11:07:52Z</time>
      </trkpt>
      <trkpt lat="43.39957" lon="-6.0261">
        <ele>49.6</ele>
        <time>2016-07-06T11:08:02Z</time>
      </trkpt>
      <trkpt lat="43.39964" lon="-6.02618">
        <ele>49.9</ele>
        <time>2016-07-06T11:08:12Z</time>
      </trkpt>
      <trkpt lat="43.39972" lon="-6.02625">
        <ele>49.9</ele>
        <time>2016-07-06T11:08:20Z</time>
      </trkpt>
      <trkpt lat="43.39981" lon="-6.02631">
        <ele>49.9</ele>
        <time>2016-07-06T11:08:28Z</time>
      </trkpt>
      <trkpt lat="43.39989" lon="-6.02637">
        <ele>49.9</ele>
        <time>2016-07-06T11:08:36Z</time>
      </trkpt>
      <trkpt lat="43.39998" lon="-6.02643">
        <ele>49.6</ele>
        <time>2016-07-06T11:08:45Z</time>
      </trkpt>
      <trkpt lat="43.40005" lon="-6.0265">
        <ele>49.4</ele>
        <time>2016-07-06T11:08:53Z</time>
      </trkpt>
      <trkpt lat="43.40015" lon="-6.02656">
        <ele>49.2</ele>
        <time>2016-07-06T11:09:03Z</time>
      </trkpt>
      <trkpt lat="43.40023" lon="-6.0266">
        <ele>49</ele>
        <time>2016-07-06T11:09:09Z</time>
      </trkpt>
      <trkpt lat="43.40032" lon="-6.02666">
        <ele>48.8</ele>
        <time>2016-07-06T11:09:16Z</time>
      </trkpt>
      <trkpt lat="43.40041" lon="-6.02671">
        <ele>48.7</ele>
        <time>2016-07-06T11:09:23Z</time>
      </trkpt>
      <trkpt lat="43.40049" lon="-6.02678">
        <ele>48.7</ele>
        <time>2016-07-06T11:09:32Z</time>
      </trkpt>
      <trkpt lat="43.40058" lon="-6.02683">
        <ele>48.7</ele>
        <time>2016-07-06T11:09:38Z</time>
      </trkpt>
      <trkpt lat="43.40067" lon="-6.02689">
        <ele>48.7</ele>
        <time>2016-07-06T11:09:45Z</time>
      </trkpt>
      <trkpt lat="43.40076" lon="-6.02696">
        <ele>49</ele>
        <time>2016-07-06T11:09:52Z</time>
      </trkpt>
      <trkpt lat="43.40084" lon="-6.02702">
        <ele>49.1</ele>
        <time>2016-07-06T11:09:58Z</time>
      </trkpt>
      <trkpt lat="43.40092" lon="-6.02707">
        <ele>49.3</ele>
        <time>2016-07-06T11:10:05Z</time>
      </trkpt>
      <trkpt lat="43.40101" lon="-6.02714">
        <ele>49.3</ele>
        <time>2016-07-06T11:10:13Z</time>
      </trkpt>
      <trkpt lat="43.4011" lon="-6.02719">
        <ele>49.4</ele>
        <time>2016-07-06T11:10:20Z</time>
      </trkpt>
      <trkpt lat="43.40118" lon="-6.02726">
        <ele>49.4</ele>
        <time>2016-07-06T11:10:27Z</time>
      </trkpt>
      <trkpt lat="43.40126" lon="-6.02732">
        <ele>49.6</ele>
        <time>2016-07-06T11:10:37Z</time>
      </trkpt>
      <trkpt lat="43.40134" lon="-6.0274">
        <ele>49.5</ele>
        <time>2016-07-06T11:10:48Z</time>
      </trkpt>
      <trkpt lat="43.40142" lon="-6.02746">
        <ele>49.3</ele>
        <time>2016-07-06T11:10:56Z</time>
      </trkpt>
      <trkpt lat="43.4015" lon="-6.02752">
        <ele>49</ele>
        <time>2016-07-06T11:11:06Z</time>
      </trkpt>
      <trkpt lat="43.40159" lon="-6.02758">
        <ele>48.9</ele>
        <time>2016-07-06T11:11:13Z</time>
      </trkpt>
      <trkpt lat="43.40169" lon="-6.02763">
        <ele>48.8</ele>
        <time>2016-07-06T11:11:21Z</time>
      </trkpt>
      <trkpt lat="43.40177" lon="-6.02768">
        <ele>48.5</ele>
        <time>2016-07-06T11:11:28Z</time>
      </trkpt>
      <trkpt lat="43.40187" lon="-6.02773">
        <ele>48.2</ele>
        <time>2016-07-06T11:11:38Z</time>
      </trkpt>
      <trkpt lat="43.40196" lon="-6.02779">
        <ele>48.1</ele>
        <time>2016-07-06T11:11:45Z</time>
      </trkpt>
      <trkpt lat="43.40205" lon="-6.02784">
        <ele>47.9</ele>
        <time>2016-07-06T11:11:53Z</time>
      </trkpt>
      <trkpt lat="43.40214" lon="-6.02788">
        <ele>47.8</ele>
        <time>2016-07-06T11:11:59Z</time>
      </trkpt>
      <trkpt lat="43.40223" lon="-6.02793">
        <ele>47.6</ele>
        <time>2016-07-06T11:12:07Z</time>
      </trkpt>
      <trkpt lat="43.40232" lon="-6.02799">
        <ele>47.5</ele>
        <time>2016-07-06T11:12:14Z</time>
      </trkpt>
      <trkpt lat="43.4024" lon="-6.02805">
        <ele>47.2</ele>
        <time>2016-07-06T11:12:23Z</time>
      </trkpt>
      <trkpt lat="43.4025" lon="-6.0281">
        <ele>47</ele>
        <time>2016-07-06T11:12:30Z</time>
      </trkpt>
      <trkpt lat="43.40256" lon="-6.02821">
        <ele>46.8</ele>
        <time>2016-07-06T11:12:40Z</time>
      </trkpt>
      <trkpt lat="43.40263" lon="-6.0283">
        <ele>47.1</ele>
        <time>2016-07-06T11:12:51Z</time>
      </trkpt>
      <trkpt lat="43.40271" lon="-6.02836">
        <ele>47.4</ele>
        <time>2016-07-06T11:12:58Z</time>
      </trkpt>
      <trkpt lat="43.4028" lon="-6.02842">
        <ele>47.2</ele>
        <time>2016-07-06T11:13:06Z</time>
      </trkpt>
      <trkpt lat="43.40289" lon="-6.02848">
        <ele>46.8</ele>
        <time>2016-07-06T11:13:14Z</time>
      </trkpt>
      <trkpt lat="43.40297" lon="-6.02854">
        <ele>46.5</ele>
        <time>2016-07-06T11:13:22Z</time>
      </trkpt>
      <trkpt lat="43.40304" lon="-6.02863">
        <ele>46.2</ele>
        <time>2016-07-06T11:13:32Z</time>
      </trkpt>
      <trkpt lat="43.4031" lon="-6.02871">
        <ele>46.4</ele>
        <time>2016-07-06T11:13:39Z</time>
      </trkpt>
      <trkpt lat="43.40319" lon="-6.02879">
        <ele>46.7</ele>
        <time>2016-07-06T11:13:48Z</time>
      </trkpt>
      <trkpt lat="43.40325" lon="-6.0289">
        <ele>46.7</ele>
        <time>2016-07-06T11:13:58Z</time>
      </trkpt>
      <trkpt lat="43.40331" lon="-6.02899">
        <ele>46.7</ele>
        <time>2016-07-06T11:14:04Z</time>
      </trkpt>
      <trkpt lat="43.40339" lon="-6.02908">
        <ele>46.8</ele>
        <time>2016-07-06T11:14:12Z</time>
      </trkpt>
      <trkpt lat="43.40346" lon="-6.02915">
        <ele>47</ele>
        <time>2016-07-06T11:14:20Z</time>
      </trkpt>
      <trkpt lat="43.40354" lon="-6.02922">
        <ele>47.9</ele>
        <time>2016-07-06T11:14:28Z</time>
      </trkpt>
      <trkpt lat="43.4036" lon="-6.02933">
        <ele>48.9</ele>
        <time>2016-07-06T11:14:37Z</time>
      </trkpt>
      <trkpt lat="43.40362" lon="-6.02945">
        <ele>50.8</ele>
        <time>2016-07-06T11:14:48Z</time>
      </trkpt>
      <trkpt lat="43.40366" lon="-6.02957">
        <ele>52.9</ele>
        <time>2016-07-06T11:14:59Z</time>
      </trkpt>
      <trkpt lat="43.4037" lon="-6.02969">
        <ele>54.1</ele>
        <time>2016-07-06T11:15:10Z</time>
      </trkpt>
      <trkpt lat="43.40374" lon="-6.02981">
        <ele>54.6</ele>
        <time>2016-07-06T11:15:20Z</time>
      </trkpt>
      <trkpt lat="43.40379" lon="-6.02993">
        <ele>55</ele>
        <time>2016-07-06T11:15:29Z</time>
      </trkpt>
      <trkpt lat="43.40382" lon="-6.03005">
        <ele>55</ele>
        <time>2016-07-06T11:15:37Z</time>
      </trkpt>
      <trkpt lat="43.40384" lon="-6.03017">
        <ele>55</ele>
        <time>2016-07-06T11:15:44Z</time>
      </trkpt>
      <trkpt lat="43.40387" lon="-6.0303">
        <ele>55</ele>
        <time>2016-07-06T11:15:54Z</time>
      </trkpt>
      <trkpt lat="43.40392" lon="-6.0304">
        <ele>55.1</ele>
        <time>2016-07-06T11:16:03Z</time>
      </trkpt>
      <trkpt lat="43.40395" lon="-6.03054">
        <ele>55.5</ele>
        <time>2016-07-06T11:16:12Z</time>
      </trkpt>
      <trkpt lat="43.40395" lon="-6.03068">
        <ele>55.4</ele>
        <time>2016-07-06T11:16:20Z</time>
      </trkpt>
      <trkpt lat="43.40394" lon="-6.03081">
        <ele>55.7</ele>
        <time>2016-07-06T11:16:26Z</time>
      </trkpt>
      <trkpt lat="43.40392" lon="-6.03093">
        <ele>55.9</ele>
        <time>2016-07-06T11:16:32Z</time>
      </trkpt>
      <trkpt lat="43.40387" lon="-6.03104">
        <ele>55.9</ele>
        <time>2016-07-06T11:16:40Z</time>
      </trkpt>
      <trkpt lat="43.40386" lon="-6.03117">
        <ele>56</ele>
        <time>2016-07-06T11:16:48Z</time>
      </trkpt>
      <trkpt lat="43.40386" lon="-6.03131">
        <ele>56.1</ele>
        <time>2016-07-06T11:16:57Z</time>
      </trkpt>
      <trkpt lat="43.40385" lon="-6.03143">
        <ele>56.1</ele>
        <time>2016-07-06T11:17:06Z</time>
      </trkpt>
      <trkpt lat="43.40381" lon="-6.03156">
        <ele>56</ele>
        <time>2016-07-06T11:17:14Z</time>
      </trkpt>
      <trkpt lat="43.40376" lon="-6.03168">
        <ele>56</ele>
        <time>2016-07-06T11:17:24Z</time>
      </trkpt>
      <trkpt lat="43.40372" lon="-6.0318">
        <ele>56</ele>
        <time>2016-07-06T11:17:34Z</time>
      </trkpt>
      <trkpt lat="43.40369" lon="-6.03192">
        <ele>56</ele>
        <time>2016-07-06T11:17:41Z</time>
      </trkpt>
      <trkpt lat="43.40367" lon="-6.03205">
        <ele>56</ele>
        <time>2016-07-06T11:17:48Z</time>
      </trkpt>
      <trkpt lat="43.40365" lon="-6.03219">
        <ele>55.9</ele>
        <time>2016-07-06T11:17:56Z</time>
      </trkpt>
      <trkpt lat="43.40361" lon="-6.0323">
        <ele>56</ele>
        <time>2016-07-06T11:18:02Z</time>
      </trkpt>
      <trkpt lat="43.40358" lon="-6.03243">
        <ele>56</ele>
        <time>2016-07-06T11:18:09Z</time>
      </trkpt>
      <trkpt lat="43.40357" lon="-6.03256">
        <ele>55.9</ele>
        <time>2016-07-06T11:18:17Z</time>
      </trkpt>
      <trkpt lat="43.40357" lon="-6.0327">
        <ele>56</ele>
        <time>2016-07-06T11:18:25Z</time>
      </trkpt>
      <trkpt lat="43.4036" lon="-6.03284">
        <ele>56.3</ele>
        <time>2016-07-06T11:18:33Z</time>
      </trkpt>
      <trkpt lat="43.40361" lon="-6.03297">
        <ele>56.5</ele>
        <time>2016-07-06T11:18:40Z</time>
      </trkpt>
      <trkpt lat="43.40361" lon="-6.03311">
        <ele>56.3</ele>
        <time>2016-07-06T11:18:47Z</time>
      </trkpt>
      <trkpt lat="43.40364" lon="-6.03323">
        <ele>56.2</ele>
        <time>2016-07-06T11:18:54Z</time>
      </trkpt>
      <trkpt lat="43.40369" lon="-6.03334">
        <ele>56.1</ele>
        <time>2016-07-06T11:19:01Z</time>
      </trkpt>
      <trkpt lat="43.40372" lon="-6.03347">
        <ele>56</ele>
        <time>2016-07-06T11:19:08Z</time>
      </trkpt>
      <trkpt lat="43.40375" lon="-6.0336">
        <ele>56.1</ele>
        <time>2016-07-06T11:19:15Z</time>
      </trkpt>
      <trkpt lat="43.40377" lon="-6.03373">
        <ele>56.1</ele>
        <time>2016-07-06T11:19:21Z</time>
      </trkpt>
      <trkpt lat="43.40379" lon="-6.03386">
        <ele>55.9</ele>
        <time>2016-07-06T11:19:28Z</time>
      </trkpt>
      <trkpt lat="43.40381" lon="-6.03399">
        <ele>55.2</ele>
        <time>2016-07-06T11:19:35Z</time>
      </trkpt>
      <trkpt lat="43.40382" lon="-6.03413">
        <ele>51.7</ele>
        <time>2016-07-06T11:19:42Z</time>
      </trkpt>
      <trkpt lat="43.40381" lon="-6.03425">
        <ele>55.4</ele>
        <time>2016-07-06T11:19:49Z</time>
      </trkpt>
      <trkpt lat="43.4038" lon="-6.03439">
        <ele>54.9</ele>
        <time>2016-07-06T11:19:57Z</time>
      </trkpt>
      <trkpt lat="43.4038" lon="-6.03452">
        <ele>54</ele>
        <time>2016-07-06T11:20:05Z</time>
      </trkpt>
      <trkpt lat="43.40382" lon="-6.03465">
        <ele>55.3</ele>
        <time>2016-07-06T11:20:17Z</time>
      </trkpt>
      <trkpt lat="43.40381" lon="-6.03478">
        <ele>55.6</ele>
        <time>2016-07-06T11:20:27Z</time>
      </trkpt>
      <trkpt lat="43.40379" lon="-6.03492">
        <ele>55.6</ele>
        <time>2016-07-06T11:20:36Z</time>
      </trkpt>
      <trkpt lat="43.40378" lon="-6.03505">
        <ele>55.7</ele>
        <time>2016-07-06T11:20:45Z</time>
      </trkpt>
      <trkpt lat="43.4038" lon="-6.03518">
        <ele>55.7</ele>
        <time>2016-07-06T11:20:54Z</time>
      </trkpt>
      <trkpt lat="43.40379" lon="-6.03532">
        <ele>55.6</ele>
        <time>2016-07-06T11:21:03Z</time>
      </trkpt>
      <trkpt lat="43.4038" lon="-6.03544">
        <ele>55.4</ele>
        <time>2016-07-06T11:21:11Z</time>
      </trkpt>
      <trkpt lat="43.40381" lon="-6.03556">
        <ele>55.5</ele>
        <time>2016-07-06T11:21:18Z</time>
      </trkpt>
      <trkpt lat="43.40381" lon="-6.03569">
        <ele>55</ele>
        <time>2016-07-06T11:21:25Z</time>
      </trkpt>
      <trkpt lat="43.40381" lon="-6.03582">
        <ele>55</ele>
        <time>2016-07-06T11:21:33Z</time>
      </trkpt>
      <trkpt lat="43.40383" lon="-6.03596">
        <ele>55.3</ele>
        <time>2016-07-06T11:21:41Z</time>
      </trkpt>
      <trkpt lat="43.40383" lon="-6.03609">
        <ele>55.1</ele>
        <time>2016-07-06T11:21:49Z</time>
      </trkpt>
      <trkpt lat="43.40384" lon="-6.03622">
        <ele>55</ele>
        <time>2016-07-06T11:21:56Z</time>
      </trkpt>
      <trkpt lat="43.40384" lon="-6.03635">
        <ele>55</ele>
        <time>2016-07-06T11:22:03Z</time>
      </trkpt>
      <trkpt lat="43.40385" lon="-6.03648">
        <ele>54.9</ele>
        <time>2016-07-06T11:22:10Z</time>
      </trkpt>
      <trkpt lat="43.40388" lon="-6.03661">
        <ele>54.8</ele>
        <time>2016-07-06T11:22:18Z</time>
      </trkpt>
      <trkpt lat="43.40391" lon="-6.03674">
        <ele>54.8</ele>
        <time>2016-07-06T11:22:26Z</time>
      </trkpt>
      <trkpt lat="43.40396" lon="-6.03685">
        <ele>54.7</ele>
        <time>2016-07-06T11:22:34Z</time>
      </trkpt>
      <trkpt lat="43.40401" lon="-6.03697">
        <ele>54.6</ele>
        <time>2016-07-06T11:22:42Z</time>
      </trkpt>
      <trkpt lat="43.40405" lon="-6.03709">
        <ele>54.6</ele>
        <time>2016-07-06T11:22:51Z</time>
      </trkpt>
      <trkpt lat="43.40409" lon="-6.03722">
        <ele>54.5</ele>
        <time>2016-07-06T11:22:59Z</time>
      </trkpt>
      <trkpt lat="43.40415" lon="-6.03731">
        <ele>54.3</ele>
        <time>2016-07-06T11:23:06Z</time>
      </trkpt>
      <trkpt lat="43.40419" lon="-6.03743">
        <ele>54.1</ele>
        <time>2016-07-06T11:23:13Z</time>
      </trkpt>
      <trkpt lat="43.40419" lon="-6.03756">
        <ele>54.2</ele>
        <time>2016-07-06T11:23:21Z</time>
      </trkpt>
      <trkpt lat="43.40419" lon="-6.03768">
        <ele>54.1</ele>
        <time>2016-07-06T11:23:32Z</time>
      </trkpt>
      <trkpt lat="43.40418" lon="-6.03782">
        <ele>54.2</ele>
        <time>2016-07-06T11:23:40Z</time>
      </trkpt>
      <trkpt lat="43.40417" lon="-6.03795">
        <ele>54.3</ele>
        <time>2016-07-06T11:23:49Z</time>
      </trkpt>
      <trkpt lat="43.40415" lon="-6.03808">
        <ele>54.4</ele>
        <time>2016-07-06T11:23:57Z</time>
      </trkpt>
      <trkpt lat="43.40412" lon="-6.03821">
        <ele>54.4</ele>
        <time>2016-07-06T11:24:07Z</time>
      </trkpt>
      <trkpt lat="43.40413" lon="-6.03834">
        <ele>54.2</ele>
        <time>2016-07-06T11:24:15Z</time>
      </trkpt>
      <trkpt lat="43.40411" lon="-6.03847">
        <ele>54.2</ele>
        <time>2016-07-06T11:24:23Z</time>
      </trkpt>
      <trkpt lat="43.40408" lon="-6.0386">
        <ele>54.2</ele>
        <time>2016-07-06T11:24:31Z</time>
      </trkpt>
      <trkpt lat="43.40408" lon="-6.03873">
        <ele>54.1</ele>
        <time>2016-07-06T11:24:38Z</time>
      </trkpt>
      <trkpt lat="43.40407" lon="-6.03886">
        <ele>53.8</ele>
        <time>2016-07-06T11:24:48Z</time>
      </trkpt>
      <trkpt lat="43.40406" lon="-6.03899">
        <ele>53.9</ele>
        <time>2016-07-06T11:24:57Z</time>
      </trkpt>
      <trkpt lat="43.40406" lon="-6.03913">
        <ele>54</ele>
        <time>2016-07-06T11:25:05Z</time>
      </trkpt>
      <trkpt lat="43.40407" lon="-6.03927">
        <ele>53.9</ele>
        <time>2016-07-06T11:25:13Z</time>
      </trkpt>
      <trkpt lat="43.40406" lon="-6.0394">
        <ele>53.8</ele>
        <time>2016-07-06T11:25:21Z</time>
      </trkpt>
      <trkpt lat="43.40406" lon="-6.03953">
        <ele>53.8</ele>
        <time>2016-07-06T11:25:28Z</time>
      </trkpt>
      <trkpt lat="43.40404" lon="-6.03966">
        <ele>53.8</ele>
        <time>2016-07-06T11:25:37Z</time>
      </trkpt>
      <trkpt lat="43.40407" lon="-6.03978">
        <ele>53.6</ele>
        <time>2016-07-06T11:25:45Z</time>
      </trkpt>
      <trkpt lat="43.4041" lon="-6.0399">
        <ele>53.5</ele>
        <time>2016-07-06T11:25:53Z</time>
      </trkpt>
      <trkpt lat="43.40416" lon="-6.04">
        <ele>53.5</ele>
        <time>2016-07-06T11:26:00Z</time>
      </trkpt>
      <trkpt lat="43.4042" lon="-6.04013">
        <ele>53.6</ele>
        <time>2016-07-06T11:26:06Z</time>
      </trkpt>
      <trkpt lat="43.40421" lon="-6.04025">
        <ele>53.7</ele>
        <time>2016-07-06T11:26:14Z</time>
      </trkpt>
      <trkpt lat="43.40411" lon="-6.04029">
        <ele>53.5</ele>
        <time>2016-07-06T11:26:21Z</time>
      </trkpt>
      <trkpt lat="43.40401" lon="-6.04032">
        <ele>53.3</ele>
        <time>2016-07-06T11:26:27Z</time>
      </trkpt>
      <trkpt lat="43.40399" lon="-6.04044">
        <ele>53</ele>
        <time>2016-07-06T11:26:34Z</time>
      </trkpt>
      <trkpt lat="43.40399" lon="-6.04058">
        <ele>52.9</ele>
        <time>2016-07-06T11:26:40Z</time>
      </trkpt>
      <trkpt lat="43.40399" lon="-6.04072">
        <ele>52.8</ele>
        <time>2016-07-06T11:26:46Z</time>
      </trkpt>
      <trkpt lat="43.40394" lon="-6.04083">
        <ele>52.6</ele>
        <time>2016-07-06T11:26:54Z</time>
      </trkpt>
      <trkpt lat="43.40385" lon="-6.04086">
        <ele>52.6</ele>
        <time>2016-07-06T11:27:02Z</time>
      </trkpt>
      <trkpt lat="43.40376" lon="-6.04091">
        <ele>52.8</ele>
        <time>2016-07-06T11:27:13Z</time>
      </trkpt>
      <trkpt lat="43.40367" lon="-6.04096">
        <ele>53.2</ele>
        <time>2016-07-06T11:27:24Z</time>
      </trkpt>
      <trkpt lat="43.40358" lon="-6.04096">
        <ele>53.7</ele>
        <time>2016-07-06T11:27:32Z</time>
      </trkpt>
      <trkpt lat="43.40348" lon="-6.04096">
        <ele>54.1</ele>
        <time>2016-07-06T11:27:41Z</time>
      </trkpt>
      <trkpt lat="43.40339" lon="-6.04097">
        <ele>54.5</ele>
        <time>2016-07-06T11:27:51Z</time>
      </trkpt>
      <trkpt lat="43.40329" lon="-6.04098">
        <ele>55.1</ele>
        <time>2016-07-06T11:28:05Z</time>
      </trkpt>
      <trkpt lat="43.40319" lon="-6.04099">
        <ele>55.2</ele>
        <time>2016-07-06T11:28:13Z</time>
      </trkpt>
      <trkpt lat="43.40312" lon="-6.04108">
        <ele>55.2</ele>
        <time>2016-07-06T11:28:22Z</time>
      </trkpt>
      <trkpt lat="43.40307" lon="-6.04119">
        <ele>55</ele>
        <time>2016-07-06T11:28:31Z</time>
      </trkpt>
      <trkpt lat="43.40304" lon="-6.04131">
        <ele>54.3</ele>
        <time>2016-07-06T11:28:42Z</time>
      </trkpt>
      <trkpt lat="43.40304" lon="-6.04145">
        <ele>54</ele>
        <time>2016-07-06T11:28:50Z</time>
      </trkpt>
      <trkpt lat="43.40304" lon="-6.04158">
        <ele>53.6</ele>
        <time>2016-07-06T11:28:59Z</time>
      </trkpt>
      <trkpt lat="43.40308" lon="-6.04171">
        <ele>52.9</ele>
        <time>2016-07-06T11:29:08Z</time>
      </trkpt>
      <trkpt lat="43.40311" lon="-6.04184">
        <ele>52.3</ele>
        <time>2016-07-06T11:29:16Z</time>
      </trkpt>
      <trkpt lat="43.40311" lon="-6.04198">
        <ele>51.7</ele>
        <time>2016-07-06T11:29:23Z</time>
      </trkpt>
      <trkpt lat="43.40316" lon="-6.04209">
        <ele>51.4</ele>
        <time>2016-07-06T11:29:29Z</time>
      </trkpt>
      <trkpt lat="43.4032" lon="-6.0422">
        <ele>51.2</ele>
        <time>2016-07-06T11:29:35Z</time>
      </trkpt>
      <trkpt lat="43.40321" lon="-6.04233">
        <ele>50.8</ele>
        <time>2016-07-06T11:29:42Z</time>
      </trkpt>
      <trkpt lat="43.4032" lon="-6.04246">
        <ele>50.5</ele>
        <time>2016-07-06T11:29:49Z</time>
      </trkpt>
      <trkpt lat="43.40323" lon="-6.04258">
        <ele>50.3</ele>
        <time>2016-07-06T11:29:55Z</time>
      </trkpt>
      <trkpt lat="43.40323" lon="-6.04271">
        <ele>49.8</ele>
        <time>2016-07-06T11:30:02Z</time>
      </trkpt>
      <trkpt lat="43.4032" lon="-6.04284">
        <ele>49.2</ele>
        <time>2016-07-06T11:30:09Z</time>
      </trkpt>
      <trkpt lat="43.40318" lon="-6.04296">
        <ele>48.7</ele>
        <time>2016-07-06T11:30:15Z</time>
      </trkpt>
      <trkpt lat="43.40315" lon="-6.04309">
        <ele>48.3</ele>
        <time>2016-07-06T11:30:22Z</time>
      </trkpt>
      <trkpt lat="43.40312" lon="-6.04321">
        <ele>48</ele>
        <time>2016-07-06T11:30:31Z</time>
      </trkpt>
      <trkpt lat="43.40309" lon="-6.04333">
        <ele>47.9</ele>
        <time>2016-07-06T11:30:38Z</time>
      </trkpt>
      <trkpt lat="43.40307" lon="-6.04346">
        <ele>47.5</ele>
        <time>2016-07-06T11:30:45Z</time>
      </trkpt>
      <trkpt lat="43.40304" lon="-6.04359">
        <ele>47.1</ele>
        <time>2016-07-06T11:30:53Z</time>
      </trkpt>
      <trkpt lat="43.40301" lon="-6.04372">
        <ele>46.8</ele>
        <time>2016-07-06T11:31:01Z</time>
      </trkpt>
      <trkpt lat="43.40297" lon="-6.04385">
        <ele>46.6</ele>
        <time>2016-07-06T11:31:09Z</time>
      </trkpt>
      <trkpt lat="43.40294" lon="-6.04397">
        <ele>46.3</ele>
        <time>2016-07-06T11:31:16Z</time>
      </trkpt>
      <trkpt lat="43.40288" lon="-6.04409">
        <ele>46.1</ele>
        <time>2016-07-06T11:31:23Z</time>
      </trkpt>
      <trkpt lat="43.40283" lon="-6.04419">
        <ele>46.1</ele>
        <time>2016-07-06T11:31:30Z</time>
      </trkpt>
      <trkpt lat="43.40277" lon="-6.04429">
        <ele>46.1</ele>
        <time>2016-07-06T11:31:41Z</time>
      </trkpt>
      <trkpt lat="43.40278" lon="-6.04441">
        <ele>46.3</ele>
        <time>2016-07-06T11:31:59Z</time>
      </trkpt>
      <trkpt lat="43.40275" lon="-6.04455">
        <ele>45.8</ele>
        <time>2016-07-06T11:32:09Z</time>
      </trkpt>
      <trkpt lat="43.40274" lon="-6.04468">
        <ele>45.4</ele>
        <time>2016-07-06T11:32:16Z</time>
      </trkpt>
      <trkpt lat="43.40271" lon="-6.0448">
        <ele>45.1</ele>
        <time>2016-07-06T11:32:24Z</time>
      </trkpt>
      <trkpt lat="43.4027" lon="-6.04494">
        <ele>44.9</ele>
        <time>2016-07-06T11:32:31Z</time>
      </trkpt>
      <trkpt lat="43.40267" lon="-6.04506">
        <ele>44.7</ele>
        <time>2016-07-06T11:32:43Z</time>
      </trkpt>
      <trkpt lat="43.40265" lon="-6.04519">
        <ele>44.4</ele>
        <time>2016-07-06T11:32:51Z</time>
      </trkpt>
      <trkpt lat="43.40261" lon="-6.04531">
        <ele>44.6</ele>
        <time>2016-07-06T11:33:02Z</time>
      </trkpt>
      <trkpt lat="43.40256" lon="-6.04543">
        <ele>44.9</ele>
        <time>2016-07-06T11:33:12Z</time>
      </trkpt>
      <trkpt lat="43.40255" lon="-6.04557">
        <ele>45.1</ele>
        <time>2016-07-06T11:33:19Z</time>
      </trkpt>
      <trkpt lat="43.40253" lon="-6.04569">
        <ele>45</ele>
        <time>2016-07-06T11:33:26Z</time>
      </trkpt>
      <trkpt lat="43.4025" lon="-6.04582">
        <ele>44.9</ele>
        <time>2016-07-06T11:33:33Z</time>
      </trkpt>
      <trkpt lat="43.40249" lon="-6.04595">
        <ele>44.6</ele>
        <time>2016-07-06T11:33:43Z</time>
      </trkpt>
      <trkpt lat="43.40247" lon="-6.04609">
        <ele>44.3</ele>
        <time>2016-07-06T11:33:51Z</time>
      </trkpt>
      <trkpt lat="43.40246" lon="-6.04622">
        <ele>44.4</ele>
        <time>2016-07-06T11:34:01Z</time>
      </trkpt>
      <trkpt lat="43.40248" lon="-6.04635">
        <ele>44.8</ele>
        <time>2016-07-06T11:34:08Z</time>
      </trkpt>
      <trkpt lat="43.40247" lon="-6.04648">
        <ele>44.9</ele>
        <time>2016-07-06T11:34:18Z</time>
      </trkpt>
      <trkpt lat="43.40243" lon="-6.04661">
        <ele>44.9</ele>
        <time>2016-07-06T11:34:24Z</time>
      </trkpt>
      <trkpt lat="43.40238" lon="-6.04673">
        <ele>45</ele>
        <time>2016-07-06T11:34:30Z</time>
      </trkpt>
      <trkpt lat="43.40232" lon="-6.04682">
        <ele>45.1</ele>
        <time>2016-07-06T11:34:38Z</time>
      </trkpt>
      <trkpt lat="43.40228" lon="-6.04694">
        <ele>45</ele>
        <time>2016-07-06T11:34:45Z</time>
      </trkpt>
      <trkpt lat="43.40225" lon="-6.04707">
        <ele>44.9</ele>
        <time>2016-07-06T11:34:52Z</time>
      </trkpt>
      <trkpt lat="43.40221" lon="-6.04719">
        <ele>44.8</ele>
        <time>2016-07-06T11:35:01Z</time>
      </trkpt>
      <trkpt lat="43.40217" lon="-6.04731">
        <ele>44.8</ele>
        <time>2016-07-06T11:35:12Z</time>
      </trkpt>
      <trkpt lat="43.40225" lon="-6.04738">
        <ele>44.6</ele>
        <time>2016-07-06T11:35:23Z</time>
      </trkpt>
      <trkpt lat="43.40233" lon="-6.04744">
        <ele>43.7</ele>
        <time>2016-07-06T11:35:43Z</time>
      </trkpt>
      <trkpt lat="43.40238" lon="-6.04755">
        <ele>43.7</ele>
        <time>2016-07-06T11:35:54Z</time>
      </trkpt>
      <trkpt lat="43.40247" lon="-6.04761">
        <ele>43.6</ele>
        <time>2016-07-06T11:35:59Z</time>
      </trkpt>
      <trkpt lat="43.40253" lon="-6.04771">
        <ele>43.3</ele>
        <time>2016-07-06T11:36:05Z</time>
      </trkpt>
      <trkpt lat="43.40258" lon="-6.04784">
        <ele>43.7</ele>
        <time>2016-07-06T11:36:12Z</time>
      </trkpt>
      <trkpt lat="43.40259" lon="-6.04797">
        <ele>44.2</ele>
        <time>2016-07-06T11:36:20Z</time>
      </trkpt>
      <trkpt lat="43.40256" lon="-6.04811">
        <ele>44.6</ele>
        <time>2016-07-06T11:36:28Z</time>
      </trkpt>
      <trkpt lat="43.40253" lon="-6.04823">
        <ele>44.9</ele>
        <time>2016-07-06T11:36:36Z</time>
      </trkpt>
      <trkpt lat="43.4025" lon="-6.04835">
        <ele>44.7</ele>
        <time>2016-07-06T11:36:44Z</time>
      </trkpt>
      <trkpt lat="43.40248" lon="-6.04848">
        <ele>44.5</ele>
        <time>2016-07-06T11:36:53Z</time>
      </trkpt>
      <trkpt lat="43.40244" lon="-6.0486">
        <ele>44.2</ele>
        <time>2016-07-06T11:37:03Z</time>
      </trkpt>
      <trkpt lat="43.40238" lon="-6.04871">
        <ele>43.9</ele>
        <time>2016-07-06T11:37:11Z</time>
      </trkpt>
      <trkpt lat="43.40234" lon="-6.04884">
        <ele>44</ele>
        <time>2016-07-06T11:37:18Z</time>
      </trkpt>
      <trkpt lat="43.4023" lon="-6.04896">
        <ele>43.9</ele>
        <time>2016-07-06T11:37:25Z</time>
      </trkpt>
      <trkpt lat="43.40226" lon="-6.04908">
        <ele>43.9</ele>
        <time>2016-07-06T11:37:32Z</time>
      </trkpt>
      <trkpt lat="43.40222" lon="-6.04921">
        <ele>43.7</ele>
        <time>2016-07-06T11:37:39Z</time>
      </trkpt>
      <trkpt lat="43.40217" lon="-6.04933">
        <ele>43.5</ele>
        <time>2016-07-06T11:37:46Z</time>
      </trkpt>
      <trkpt lat="43.40212" lon="-6.04944">
        <ele>43.5</ele>
        <time>2016-07-06T11:37:56Z</time>
      </trkpt>
      <trkpt lat="43.40207" lon="-6.04955">
        <ele>43.5</ele>
        <time>2016-07-06T11:38:03Z</time>
      </trkpt>
      <trkpt lat="43.40201" lon="-6.04967">
        <ele>43.6</ele>
        <time>2016-07-06T11:38:11Z</time>
      </trkpt>
      <trkpt lat="43.40195" lon="-6.04977">
        <ele>43.6</ele>
        <time>2016-07-06T11:38:18Z</time>
      </trkpt>
      <trkpt lat="43.4019" lon="-6.04987">
        <ele>43.7</ele>
        <time>2016-07-06T11:38:27Z</time>
      </trkpt>
      <trkpt lat="43.40185" lon="-6.04998">
        <ele>43.7</ele>
        <time>2016-07-06T11:38:34Z</time>
      </trkpt>
      <trkpt lat="43.4018" lon="-6.05009">
        <ele>43.8</ele>
        <time>2016-07-06T11:38:42Z</time>
      </trkpt>
      <trkpt lat="43.40175" lon="-6.0502">
        <ele>43.6</ele>
        <time>2016-07-06T11:38:50Z</time>
      </trkpt>
      <trkpt lat="43.4017" lon="-6.05032">
        <ele>43.7</ele>
        <time>2016-07-06T11:38:58Z</time>
      </trkpt>
      <trkpt lat="43.40165" lon="-6.05043">
        <ele>43.7</ele>
        <time>2016-07-06T11:39:06Z</time>
      </trkpt>
      <trkpt lat="43.40161" lon="-6.05055">
        <ele>43.6</ele>
        <time>2016-07-06T11:39:14Z</time>
      </trkpt>
      <trkpt lat="43.40158" lon="-6.05067">
        <ele>43.6</ele>
        <time>2016-07-06T11:39:22Z</time>
      </trkpt>
      <trkpt lat="43.40154" lon="-6.05079">
        <ele>43.6</ele>
        <time>2016-07-06T11:39:30Z</time>
      </trkpt>
      <trkpt lat="43.40151" lon="-6.05091">
        <ele>43.6</ele>
        <time>2016-07-06T11:39:38Z</time>
      </trkpt>
      <trkpt lat="43.40149" lon="-6.05103">
        <ele>43.7</ele>
        <time>2016-07-06T11:39:46Z</time>
      </trkpt>
      <trkpt lat="43.40146" lon="-6.05116">
        <ele>43.7</ele>
        <time>2016-07-06T11:39:54Z</time>
      </trkpt>
      <trkpt lat="43.40143" lon="-6.05128">
        <ele>43.8</ele>
        <time>2016-07-06T11:40:01Z</time>
      </trkpt>
      <trkpt lat="43.4014" lon="-6.0514">
        <ele>43.7</ele>
        <time>2016-07-06T11:40:08Z</time>
      </trkpt>
      <trkpt lat="43.40136" lon="-6.05152">
        <ele>43.6</ele>
        <time>2016-07-06T11:40:15Z</time>
      </trkpt>
      <trkpt lat="43.40133" lon="-6.05163">
        <ele>43.7</ele>
        <time>2016-07-06T11:40:22Z</time>
      </trkpt>
      <trkpt lat="43.4013" lon="-6.05176">
        <ele>43.9</ele>
        <time>2016-07-06T11:40:29Z</time>
      </trkpt>
      <trkpt lat="43.40127" lon="-6.05189">
        <ele>44.2</ele>
        <time>2016-07-06T11:40:36Z</time>
      </trkpt>
      <trkpt lat="43.40124" lon="-6.05203">
        <ele>43</ele>
        <time>2016-07-06T11:40:43Z</time>
      </trkpt>
      <trkpt lat="43.40123" lon="-6.05216">
        <ele>43.9</ele>
        <time>2016-07-06T11:40:50Z</time>
      </trkpt>
      <trkpt lat="43.40121" lon="-6.05229">
        <ele>46.4</ele>
        <time>2016-07-06T11:40:57Z</time>
      </trkpt>
      <trkpt lat="43.4012" lon="-6.05241">
        <ele>45.8</ele>
        <time>2016-07-06T11:41:04Z</time>
      </trkpt>
      <trkpt lat="43.40118" lon="-6.05255">
        <ele>44.7</ele>
        <time>2016-07-06T11:41:12Z</time>
      </trkpt>
      <trkpt lat="43.40116" lon="-6.05268">
        <ele>42.1</ele>
        <time>2016-07-06T11:41:20Z</time>
      </trkpt>
      <trkpt lat="43.40115" lon="-6.05281">
        <ele>41.3</ele>
        <time>2016-07-06T11:41:28Z</time>
      </trkpt>
      <trkpt lat="43.40113" lon="-6.05294">
        <ele>45.1</ele>
        <time>2016-07-06T11:41:37Z</time>
      </trkpt>
      <trkpt lat="43.40112" lon="-6.05306">
        <ele>45.2</ele>
        <time>2016-07-06T11:41:44Z</time>
      </trkpt>
      <trkpt lat="43.40111" lon="-6.05319">
        <ele>44.8</ele>
        <time>2016-07-06T11:41:52Z</time>
      </trkpt>
      <trkpt lat="43.40109" lon="-6.05333">
        <ele>44.3</ele>
        <time>2016-07-06T11:42:00Z</time>
      </trkpt>
      <trkpt lat="43.40108" lon="-6.05346">
        <ele>43.6</ele>
        <time>2016-07-06T11:42:08Z</time>
      </trkpt>
      <trkpt lat="43.40106" lon="-6.05359">
        <ele>43.1</ele>
        <time>2016-07-06T11:42:16Z</time>
      </trkpt>
      <trkpt lat="43.40104" lon="-6.05372">
        <ele>42.8</ele>
        <time>2016-07-06T11:42:24Z</time>
      </trkpt>
      <trkpt lat="43.40101" lon="-6.05384">
        <ele>42.7</ele>
        <time>2016-07-06T11:42:31Z</time>
      </trkpt>
      <trkpt lat="43.40098" lon="-6.05396">
        <ele>42.6</ele>
        <time>2016-07-06T11:42:38Z</time>
      </trkpt>
      <trkpt lat="43.40095" lon="-6.05408">
        <ele>42.5</ele>
        <time>2016-07-06T11:42:45Z</time>
      </trkpt>
      <trkpt lat="43.40091" lon="-6.05421">
        <ele>42.5</ele>
        <time>2016-07-06T11:42:53Z</time>
      </trkpt>
      <trkpt lat="43.40088" lon="-6.05433">
        <ele>42.6</ele>
        <time>2016-07-06T11:43:00Z</time>
      </trkpt>
      <trkpt lat="43.40084" lon="-6.05446">
        <ele>42.7</ele>
        <time>2016-07-06T11:43:08Z</time>
      </trkpt>
      <trkpt lat="43.40082" lon="-6.05459">
        <ele>42.9</ele>
        <time>2016-07-06T11:43:16Z</time>
      </trkpt>
      <trkpt lat="43.4008" lon="-6.05472">
        <ele>42.9</ele>
        <time>2016-07-06T11:43:24Z</time>
      </trkpt>
      <trkpt lat="43.40077" lon="-6.05485">
        <ele>43</ele>
        <time>2016-07-06T11:43:32Z</time>
      </trkpt>
      <trkpt lat="43.40074" lon="-6.05498">
        <ele>42.7</ele>
        <time>2016-07-06T11:43:40Z</time>
      </trkpt>
      <trkpt lat="43.40072" lon="-6.05511">
        <ele>42.9</ele>
        <time>2016-07-06T11:43:48Z</time>
      </trkpt>
      <trkpt lat="43.4007" lon="-6.05525">
        <ele>42.8</ele>
        <time>2016-07-06T11:43:56Z</time>
      </trkpt>
      <trkpt lat="43.40067" lon="-6.05538">
        <ele>42.7</ele>
        <time>2016-07-06T11:44:04Z</time>
      </trkpt>
      <trkpt lat="43.40064" lon="-6.0555">
        <ele>42.7</ele>
        <time>2016-07-06T11:44:11Z</time>
      </trkpt>
      <trkpt lat="43.40064" lon="-6.05563">
        <ele>42.3</ele>
        <time>2016-07-06T11:44:19Z</time>
      </trkpt>
      <trkpt lat="43.40064" lon="-6.05577">
        <ele>42.1</ele>
        <time>2016-07-06T11:44:27Z</time>
      </trkpt>
      <trkpt lat="43.40064" lon="-6.0559">
        <ele>42</ele>
        <time>2016-07-06T11:44:35Z</time>
      </trkpt>
      <trkpt lat="43.40063" lon="-6.05602">
        <ele>41.8</ele>
        <time>2016-07-06T11:44:43Z</time>
      </trkpt>
      <trkpt lat="43.40059" lon="-6.05614">
        <ele>41.7</ele>
        <time>2016-07-06T11:44:51Z</time>
      </trkpt>
      <trkpt lat="43.40054" lon="-6.05625">
        <ele>41.7</ele>
        <time>2016-07-06T11:44:59Z</time>
      </trkpt>
      <trkpt lat="43.40046" lon="-6.05635">
        <ele>41.4</ele>
        <time>2016-07-06T11:45:07Z</time>
      </trkpt>
      <trkpt lat="43.4004" lon="-6.05643">
        <ele>41.2</ele>
        <time>2016-07-06T11:45:14Z</time>
      </trkpt>
      <trkpt lat="43.40033" lon="-6.05651">
        <ele>41.5</ele>
        <time>2016-07-06T11:45:21Z</time>
      </trkpt>
      <trkpt lat="43.40025" lon="-6.05659">
        <ele>41.7</ele>
        <time>2016-07-06T11:45:28Z</time>
      </trkpt>
      <trkpt lat="43.40018" lon="-6.05669">
        <ele>42</ele>
        <time>2016-07-06T11:45:35Z</time>
      </trkpt>
      <trkpt lat="43.40012" lon="-6.0568">
        <ele>42.4</ele>
        <time>2016-07-06T11:45:43Z</time>
      </trkpt>
      <trkpt lat="43.40006" lon="-6.0569">
        <ele>42.6</ele>
        <time>2016-07-06T11:45:50Z</time>
      </trkpt>
      <trkpt lat="43.40001" lon="-6.057">
        <ele>42.6</ele>
        <time>2016-07-06T11:45:57Z</time>
      </trkpt>
      <trkpt lat="43.39995" lon="-6.05712">
        <ele>42.6</ele>
        <time>2016-07-06T11:46:05Z</time>
      </trkpt>
      <trkpt lat="43.3999" lon="-6.05722">
        <ele>42.4</ele>
        <time>2016-07-06T11:46:12Z</time>
      </trkpt>
      <trkpt lat="43.39983" lon="-6.05732">
        <ele>42</ele>
        <time>2016-07-06T11:46:20Z</time>
      </trkpt>
      <trkpt lat="43.39977" lon="-6.05742">
        <ele>41.9</ele>
        <time>2016-07-06T11:46:28Z</time>
      </trkpt>
      <trkpt lat="43.3997" lon="-6.05752">
        <ele>41.9</ele>
        <time>2016-07-06T11:46:36Z</time>
      </trkpt>
      <trkpt lat="43.39964" lon="-6.05762">
        <ele>41.8</ele>
        <time>2016-07-06T11:46:43Z</time>
      </trkpt>
      <trkpt lat="43.39958" lon="-6.05771">
        <ele>41.8</ele>
        <time>2016-07-06T11:46:50Z</time>
      </trkpt>
      <trkpt lat="43.39951" lon="-6.05782">
        <ele>41.8</ele>
        <time>2016-07-06T11:46:58Z</time>
      </trkpt>
      <trkpt lat="43.39943" lon="-6.0579">
        <ele>41.8</ele>
        <time>2016-07-06T11:47:06Z</time>
      </trkpt>
      <trkpt lat="43.39936" lon="-6.05798">
        <ele>41.8</ele>
        <time>2016-07-06T11:47:13Z</time>
      </trkpt>
      <trkpt lat="43.39929" lon="-6.05805">
        <ele>41.9</ele>
        <time>2016-07-06T11:47:20Z</time>
      </trkpt>
      <trkpt lat="43.39922" lon="-6.05813">
        <ele>42</ele>
        <time>2016-07-06T11:47:27Z</time>
      </trkpt>
      <trkpt lat="43.39916" lon="-6.05824">
        <ele>42.1</ele>
        <time>2016-07-06T11:47:35Z</time>
      </trkpt>
      <trkpt lat="43.39911" lon="-6.05835">
        <ele>42.2</ele>
        <time>2016-07-06T11:47:43Z</time>
      </trkpt>
      <trkpt lat="43.39907" lon="-6.05847">
        <ele>42.3</ele>
        <time>2016-07-06T11:47:50Z</time>
      </trkpt>
      <trkpt lat="43.39904" lon="-6.05859">
        <ele>42.5</ele>
        <time>2016-07-06T11:47:58Z</time>
      </trkpt>
      <trkpt lat="43.39903" lon="-6.05872">
        <ele>42.5</ele>
        <time>2016-07-06T11:48:06Z</time>
      </trkpt>
      <trkpt lat="43.39901" lon="-6.05884">
        <ele>42.4</ele>
        <time>2016-07-06T11:48:14Z</time>
      </trkpt>
      <trkpt lat="43.399" lon="-6.05897">
        <ele>42.3</ele>
        <time>2016-07-06T11:48:22Z</time>
      </trkpt>
      <trkpt lat="43.39898" lon="-6.0591">
        <ele>42.7</ele>
        <time>2016-07-06T11:48:30Z</time>
      </trkpt>
      <trkpt lat="43.39896" lon="-6.05923">
        <ele>42.8</ele>
        <time>2016-07-06T11:48:39Z</time>
      </trkpt>
      <trkpt lat="43.39894" lon="-6.05936">
        <ele>42.9</ele>
        <time>2016-07-06T11:48:47Z</time>
      </trkpt>
      <trkpt lat="43.39893" lon="-6.05949">
        <ele>42.7</ele>
        <time>2016-07-06T11:48:55Z</time>
      </trkpt>
      <trkpt lat="43.39891" lon="-6.05962">
        <ele>42.6</ele>
        <time>2016-07-06T11:49:03Z</time>
      </trkpt>
      <trkpt lat="43.39888" lon="-6.05975">
        <ele>42.8</ele>
        <time>2016-07-06T11:49:11Z</time>
      </trkpt>
      <trkpt lat="43.39885" lon="-6.05988">
        <ele>42.5</ele>
        <time>2016-07-06T11:49:19Z</time>
      </trkpt>
      <trkpt lat="43.39882" lon="-6.06">
        <ele>42.5</ele>
        <time>2016-07-06T11:49:27Z</time>
      </trkpt>
      <trkpt lat="43.39879" lon="-6.06012">
        <ele>42.6</ele>
        <time>2016-07-06T11:49:36Z</time>
      </trkpt>
      <trkpt lat="43.39876" lon="-6.06024">
        <ele>42.6</ele>
        <time>2016-07-06T11:49:44Z</time>
      </trkpt>
      <trkpt lat="43.39872" lon="-6.06036">
        <ele>42.5</ele>
        <time>2016-07-06T11:49:52Z</time>
      </trkpt>
      <trkpt lat="43.39867" lon="-6.06048">
        <ele>42.5</ele>
        <time>2016-07-06T11:50:00Z</time>
      </trkpt>
      <trkpt lat="43.39861" lon="-6.06059">
        <ele>42.3</ele>
        <time>2016-07-06T11:50:08Z</time>
      </trkpt>
      <trkpt lat="43.39855" lon="-6.06069">
        <ele>42.3</ele>
        <time>2016-07-06T11:50:16Z</time>
      </trkpt>
      <trkpt lat="43.39848" lon="-6.06078">
        <ele>42.2</ele>
        <time>2016-07-06T11:50:24Z</time>
      </trkpt>
      <trkpt lat="43.3984" lon="-6.06086">
        <ele>42.2</ele>
        <time>2016-07-06T11:50:32Z</time>
      </trkpt>
      <trkpt lat="43.39832" lon="-6.06094">
        <ele>42.2</ele>
        <time>2016-07-06T11:50:40Z</time>
      </trkpt>
      <trkpt lat="43.39824" lon="-6.061">
        <ele>42.3</ele>
        <time>2016-07-06T11:50:47Z</time>
      </trkpt>
      <trkpt lat="43.39816" lon="-6.06104">
        <ele>42.4</ele>
        <time>2016-07-06T11:50:55Z</time>
      </trkpt>
      <trkpt lat="43.39807" lon="-6.06109">
        <ele>42.4</ele>
        <time>2016-07-06T11:51:03Z</time>
      </trkpt>
      <trkpt lat="43.39799" lon="-6.06116">
        <ele>42.8</ele>
        <time>2016-07-06T11:51:10Z</time>
      </trkpt>
      <trkpt lat="43.3979" lon="-6.06122">
        <ele>42.9</ele>
        <time>2016-07-06T11:51:18Z</time>
      </trkpt>
      <trkpt lat="43.39782" lon="-6.06129">
        <ele>43</ele>
        <time>2016-07-06T11:51:26Z</time>
      </trkpt>
      <trkpt lat="43.39773" lon="-6.06135">
        <ele>42.9</ele>
        <time>2016-07-06T11:51:33Z</time>
      </trkpt>
      <trkpt lat="43.39764" lon="-6.0614">
        <ele>42.9</ele>
        <time>2016-07-06T11:51:40Z</time>
      </trkpt>
      <trkpt lat="43.39755" lon="-6.06145">
        <ele>43.1</ele>
        <time>2016-07-06T11:51:47Z</time>
      </trkpt>
      <trkpt lat="43.39747" lon="-6.0615">
        <ele>43.3</ele>
        <time>2016-07-06T11:51:54Z</time>
      </trkpt>
      <trkpt lat="43.39738" lon="-6.06155">
        <ele>43.6</ele>
        <time>2016-07-06T11:52:01Z</time>
      </trkpt>
      <trkpt lat="43.39729" lon="-6.06161">
        <ele>43.9</ele>
        <time>2016-07-06T11:52:08Z</time>
      </trkpt>
      <trkpt lat="43.3972" lon="-6.06167">
        <ele>44.3</ele>
        <time>2016-07-06T11:52:15Z</time>
      </trkpt>
      <trkpt lat="43.39711" lon="-6.0617">
        <ele>44.4</ele>
        <time>2016-07-06T11:52:22Z</time>
      </trkpt>
      <trkpt lat="43.39702" lon="-6.06174">
        <ele>44.4</ele>
        <time>2016-07-06T11:52:29Z</time>
      </trkpt>
      <trkpt lat="43.39693" lon="-6.06175">
        <ele>44.3</ele>
        <time>2016-07-06T11:52:36Z</time>
      </trkpt>
      <trkpt lat="43.39683" lon="-6.06175">
        <ele>44.1</ele>
        <time>2016-07-06T11:52:44Z</time>
      </trkpt>
      <trkpt lat="43.39674" lon="-6.06176">
        <ele>44</ele>
        <time>2016-07-06T11:52:51Z</time>
      </trkpt>
      <trkpt lat="43.39664" lon="-6.06177">
        <ele>44.2</ele>
        <time>2016-07-06T11:52:59Z</time>
      </trkpt>
      <trkpt lat="43.39655" lon="-6.06179">
        <ele>44.4</ele>
        <time>2016-07-06T11:53:07Z</time>
      </trkpt>
      <trkpt lat="43.39645" lon="-6.06183">
        <ele>44.6</ele>
        <time>2016-07-06T11:53:15Z</time>
      </trkpt>
      <trkpt lat="43.39636" lon="-6.06188">
        <ele>44.7</ele>
        <time>2016-07-06T11:53:23Z</time>
      </trkpt>
      <trkpt lat="43.39628" lon="-6.06194">
        <ele>45</ele>
        <time>2016-07-06T11:53:34Z</time>
      </trkpt>
      <trkpt lat="43.39623" lon="-6.06204">
        <ele>45.1</ele>
        <time>2016-07-06T11:53:42Z</time>
      </trkpt>
      <trkpt lat="43.39622" lon="-6.06217">
        <ele>45.1</ele>
        <time>2016-07-06T11:53:51Z</time>
      </trkpt>
      <trkpt lat="43.39623" lon="-6.06229">
        <ele>45.2</ele>
        <time>2016-07-06T11:54:00Z</time>
      </trkpt>
      <trkpt lat="43.39626" lon="-6.06242">
        <ele>45.2</ele>
        <time>2016-07-06T11:54:09Z</time>
      </trkpt>
      <trkpt lat="43.39627" lon="-6.06255">
        <ele>45.3</ele>
        <time>2016-07-06T11:54:17Z</time>
      </trkpt>
      <trkpt lat="43.39628" lon="-6.06267">
        <ele>45.4</ele>
        <time>2016-07-06T11:54:28Z</time>
      </trkpt>
      <trkpt lat="43.39626" lon="-6.06279">
        <ele>45.2</ele>
        <time>2016-07-06T11:55:05Z</time>
      </trkpt>
      <trkpt lat="43.3962" lon="-6.0629">
        <ele>45</ele>
        <time>2016-07-06T11:55:16Z</time>
      </trkpt>
      <trkpt lat="43.39612" lon="-6.06296">
        <ele>45.4</ele>
        <time>2016-07-06T11:55:28Z</time>
      </trkpt>
      <trkpt lat="43.39603" lon="-6.063">
        <ele>45.4</ele>
        <time>2016-07-06T11:55:48Z</time>
      </trkpt>
      <trkpt lat="43.39594" lon="-6.06302">
        <ele>45.6</ele>
        <time>2016-07-06T11:55:56Z</time>
      </trkpt>
      <trkpt lat="43.39585" lon="-6.06303">
        <ele>45.7</ele>
        <time>2016-07-06T11:56:04Z</time>
      </trkpt>
      <trkpt lat="43.39575" lon="-6.06304">
        <ele>45.8</ele>
        <time>2016-07-06T11:56:11Z</time>
      </trkpt>
      <trkpt lat="43.39565" lon="-6.06303">
        <ele>45.8</ele>
        <time>2016-07-06T11:56:17Z</time>
      </trkpt>
      <trkpt lat="43.39555" lon="-6.06302">
        <ele>45.8</ele>
        <time>2016-07-06T11:56:24Z</time>
      </trkpt>
      <trkpt lat="43.39546" lon="-6.06301">
        <ele>45.7</ele>
        <time>2016-07-06T11:56:31Z</time>
      </trkpt>
      <trkpt lat="43.39536" lon="-6.06301">
        <ele>45.7</ele>
        <time>2016-07-06T11:56:39Z</time>
      </trkpt>
      <trkpt lat="43.39526" lon="-6.06303">
        <ele>46</ele>
        <time>2016-07-06T11:56:46Z</time>
      </trkpt>
      <trkpt lat="43.39516" lon="-6.06302">
        <ele>46.2</ele>
        <time>2016-07-06T11:56:53Z</time>
      </trkpt>
      <trkpt lat="43.39507" lon="-6.06303">
        <ele>46.4</ele>
        <time>2016-07-06T11:57:00Z</time>
      </trkpt>
      <trkpt lat="43.39497" lon="-6.06307">
        <ele>46.5</ele>
        <time>2016-07-06T11:57:08Z</time>
      </trkpt>
      <trkpt lat="43.39492" lon="-6.06317">
        <ele>46.6</ele>
        <time>2016-07-06T11:57:17Z</time>
      </trkpt>
      <trkpt lat="43.39489" lon="-6.06329">
        <ele>47.1</ele>
        <time>2016-07-06T11:57:26Z</time>
      </trkpt>
      <trkpt lat="43.39488" lon="-6.06341">
        <ele>47.3</ele>
        <time>2016-07-06T11:57:34Z</time>
      </trkpt>
      <trkpt lat="43.39491" lon="-6.06354">
        <ele>47.5</ele>
        <time>2016-07-06T11:57:43Z</time>
      </trkpt>
      <trkpt lat="43.39495" lon="-6.06366">
        <ele>47.8</ele>
        <time>2016-07-06T11:57:52Z</time>
      </trkpt>
      <trkpt lat="43.39501" lon="-6.06376">
        <ele>47.5</ele>
        <time>2016-07-06T11:58:03Z</time>
      </trkpt>
      <trkpt lat="43.39508" lon="-6.06387">
        <ele>47.9</ele>
        <time>2016-07-06T11:58:13Z</time>
      </trkpt>
      <trkpt lat="43.39512" lon="-6.06399">
        <ele>47.8</ele>
        <time>2016-07-06T11:58:22Z</time>
      </trkpt>
      <trkpt lat="43.39514" lon="-6.06412">
        <ele>47.8</ele>
        <time>2016-07-06T11:58:31Z</time>
      </trkpt>
      <trkpt lat="43.3951" lon="-6.06424">
        <ele>48</ele>
        <time>2016-07-06T11:58:39Z</time>
      </trkpt>
      <trkpt lat="43.39505" lon="-6.06436">
        <ele>48.3</ele>
        <time>2016-07-06T11:58:47Z</time>
      </trkpt>
      <trkpt lat="43.39502" lon="-6.06448">
        <ele>48.6</ele>
        <time>2016-07-06T11:58:56Z</time>
      </trkpt>
      <trkpt lat="43.39497" lon="-6.06457">
        <ele>48.9</ele>
        <time>2016-07-06T11:59:04Z</time>
      </trkpt>
      <trkpt lat="43.3949" lon="-6.06467">
        <ele>48.9</ele>
        <time>2016-07-06T11:59:12Z</time>
      </trkpt>
      <trkpt lat="43.39481" lon="-6.06469">
        <ele>49</ele>
        <time>2016-07-06T11:59:20Z</time>
      </trkpt>
      <trkpt lat="43.39472" lon="-6.06466">
        <ele>48.9</ele>
        <time>2016-07-06T11:59:28Z</time>
      </trkpt>
      <trkpt lat="43.39463" lon="-6.06468">
        <ele>49</ele>
        <time>2016-07-06T11:59:37Z</time>
      </trkpt>
      <trkpt lat="43.39454" lon="-6.06478">
        <ele>49.2</ele>
        <time>2016-07-06T11:59:45Z</time>
      </trkpt>
      <trkpt lat="43.39446" lon="-6.06487">
        <ele>49.5</ele>
        <time>2016-07-06T11:59:53Z</time>
      </trkpt>
      <trkpt lat="43.39437" lon="-6.06493">
        <ele>49.7</ele>
        <time>2016-07-06T11:59:59Z</time>
      </trkpt>
      <trkpt lat="43.39429" lon="-6.06499">
        <ele>49.8</ele>
        <time>2016-07-06T12:00:06Z</time>
      </trkpt>
      <trkpt lat="43.39426" lon="-6.06511">
        <ele>49.8</ele>
        <time>2016-07-06T12:00:16Z</time>
      </trkpt>
      <trkpt lat="43.39427" lon="-6.06524">
        <ele>49.8</ele>
        <time>2016-07-06T12:00:24Z</time>
      </trkpt>
      <trkpt lat="43.39423" lon="-6.06535">
        <ele>49.8</ele>
        <time>2016-07-06T12:00:34Z</time>
      </trkpt>
      <trkpt lat="43.39415" lon="-6.06541">
        <ele>49.9</ele>
        <time>2016-07-06T12:00:41Z</time>
      </trkpt>
      <trkpt lat="43.39405" lon="-6.06542">
        <ele>49.9</ele>
        <time>2016-07-06T12:00:49Z</time>
      </trkpt>
      <trkpt lat="43.39395" lon="-6.0654">
        <ele>49.8</ele>
        <time>2016-07-06T12:00:58Z</time>
      </trkpt>
      <trkpt lat="43.39386" lon="-6.06542">
        <ele>49.8</ele>
        <time>2016-07-06T12:01:09Z</time>
      </trkpt>
      <trkpt lat="43.39376" lon="-6.06541">
        <ele>49.7</ele>
        <time>2016-07-06T12:01:20Z</time>
      </trkpt>
      <trkpt lat="43.39367" lon="-6.06541">
        <ele>49.8</ele>
        <time>2016-07-06T12:01:30Z</time>
      </trkpt>
      <trkpt lat="43.39357" lon="-6.06542">
        <ele>49.9</ele>
        <time>2016-07-06T12:01:40Z</time>
      </trkpt>
      <trkpt lat="43.39348" lon="-6.06544">
        <ele>50.3</ele>
        <time>2016-07-06T12:01:49Z</time>
      </trkpt>
      <trkpt lat="43.39342" lon="-6.06554">
        <ele>52</ele>
        <time>2016-07-06T12:02:04Z</time>
      </trkpt>
      <trkpt lat="43.39344" lon="-6.06568">
        <ele>53</ele>
        <time>2016-07-06T12:02:16Z</time>
      </trkpt>
      <trkpt lat="43.39346" lon="-6.06581">
        <ele>53.3</ele>
        <time>2016-07-06T12:02:27Z</time>
      </trkpt>
      <trkpt lat="43.39346" lon="-6.06594">
        <ele>53.5</ele>
        <time>2016-07-06T12:02:36Z</time>
      </trkpt>
      <trkpt lat="43.39346" lon="-6.06607">
        <ele>53.8</ele>
        <time>2016-07-06T12:02:44Z</time>
      </trkpt>
      <trkpt lat="43.39346" lon="-6.0662">
        <ele>53.9</ele>
        <time>2016-07-06T12:02:53Z</time>
      </trkpt>
      <trkpt lat="43.39344" lon="-6.06632">
        <ele>53.7</ele>
        <time>2016-07-06T12:03:10Z</time>
      </trkpt>
      <trkpt lat="43.39342" lon="-6.06645">
        <ele>53.7</ele>
        <time>2016-07-06T12:03:21Z</time>
      </trkpt>
      <trkpt lat="43.39337" lon="-6.06656">
        <ele>54</ele>
        <time>2016-07-06T12:03:28Z</time>
      </trkpt>
      <trkpt lat="43.39332" lon="-6.06668">
        <ele>54.1</ele>
        <time>2016-07-06T12:03:36Z</time>
      </trkpt>
      <trkpt lat="43.39326" lon="-6.06678">
        <ele>54.3</ele>
        <time>2016-07-06T12:03:45Z</time>
      </trkpt>
      <trkpt lat="43.39318" lon="-6.06686">
        <ele>54.2</ele>
        <time>2016-07-06T12:03:53Z</time>
      </trkpt>
      <trkpt lat="43.3931" lon="-6.06693">
        <ele>54.1</ele>
        <time>2016-07-06T12:04:02Z</time>
      </trkpt>
      <trkpt lat="43.39301" lon="-6.06696">
        <ele>54.1</ele>
        <time>2016-07-06T12:04:11Z</time>
      </trkpt>
      <trkpt lat="43.393" lon="-6.06708">
        <ele>54.3</ele>
        <time>2016-07-06T12:04:25Z</time>
      </trkpt>
      <trkpt lat="43.39298" lon="-6.06721">
        <ele>54.9</ele>
        <time>2016-07-06T12:04:43Z</time>
      </trkpt>
      <trkpt lat="43.39288" lon="-6.06722">
        <ele>55</ele>
        <time>2016-07-06T12:04:55Z</time>
      </trkpt>
      <trkpt lat="43.39279" lon="-6.06723">
        <ele>57</ele>
        <time>2016-07-06T12:05:29Z</time>
      </trkpt>
      <trkpt lat="43.3927" lon="-6.06723">
        <ele>57</ele>
        <time>2016-07-06T12:05:41Z</time>
      </trkpt>
      <trkpt lat="43.3926" lon="-6.06722">
        <ele>57</ele>
        <time>2016-07-06T12:05:49Z</time>
      </trkpt>
      <trkpt lat="43.3925" lon="-6.06725">
        <ele>57</ele>
        <time>2016-07-06T12:05:58Z</time>
      </trkpt>
      <trkpt lat="43.39241" lon="-6.06726">
        <ele>57.2</ele>
        <time>2016-07-06T12:06:07Z</time>
      </trkpt>
      <trkpt lat="43.39231" lon="-6.06731">
        <ele>57.4</ele>
        <time>2016-07-06T12:06:15Z</time>
      </trkpt>
      <trkpt lat="43.39223" lon="-6.06737">
        <ele>57.4</ele>
        <time>2016-07-06T12:06:24Z</time>
      </trkpt>
      <trkpt lat="43.39214" lon="-6.06739">
        <ele>57.4</ele>
        <time>2016-07-06T12:06:35Z</time>
      </trkpt>
      <trkpt lat="43.39205" lon="-6.06735">
        <ele>58.6</ele>
        <time>2016-07-06T12:07:20Z</time>
      </trkpt>
      <trkpt lat="43.39195" lon="-6.0674">
        <ele>58.6</ele>
        <time>2016-07-06T12:07:29Z</time>
      </trkpt>
      <trkpt lat="43.39186" lon="-6.06743">
        <ele>58.6</ele>
        <time>2016-07-06T12:07:36Z</time>
      </trkpt>
      <trkpt lat="43.39178" lon="-6.0675">
        <ele>58.5</ele>
        <time>2016-07-06T12:07:44Z</time>
      </trkpt>
      <trkpt lat="43.39171" lon="-6.06758">
        <ele>58.5</ele>
        <time>2016-07-06T12:07:58Z</time>
      </trkpt>
      <trkpt lat="43.39167" lon="-6.0677">
        <ele>58.8</ele>
        <time>2016-07-06T12:08:11Z</time>
      </trkpt>
      <trkpt lat="43.3915" lon="-6.06738">
        <ele>58</ele>
        <time>2016-07-06T12:11:23Z</time>
      </trkpt>
      <trkpt lat="43.39136" lon="-6.06689">
        <ele>58</ele>
        <time>2016-07-06T12:11:39Z</time>
      </trkpt>
      <trkpt lat="43.39162" lon="-6.06766">
        <ele>58</ele>
        <time>2016-07-06T12:12:50Z</time>
      </trkpt>
      <trkpt lat="43.39162" lon="-6.0678">
        <ele>57</ele>
        <time>2016-07-06T12:16:42Z</time>
      </trkpt>
      <trkpt lat="43.39147" lon="-6.06789">
        <ele>56</ele>
        <time>2016-07-06T12:17:02Z</time>
      </trkpt>
      <trkpt lat="43.39144" lon="-6.06774">
        <ele>57</ele>
        <time>2016-07-06T12:17:25Z</time>
      </trkpt>
      <trkpt lat="43.39154" lon="-6.06778">
        <ele>56.9</ele>
        <time>2016-07-06T12:17:33Z</time>
      </trkpt>
      <trkpt lat="43.39162" lon="-6.06768">
        <ele>57</ele>
        <time>2016-07-06T12:17:59Z</time>
      </trkpt>
      <trkpt lat="43.3915" lon="-6.06782">
        <ele>57</ele>
        <time>2016-07-06T12:18:37Z</time>
      </trkpt>
      <trkpt lat="43.39151" lon="-6.06795">
        <ele>55.6</ele>
        <time>2016-07-06T12:18:51Z</time>
      </trkpt>
      <trkpt lat="43.39144" lon="-6.06804">
        <ele>58.8</ele>
        <time>2016-07-06T12:19:07Z</time>
      </trkpt>
      <trkpt lat="43.39137" lon="-6.06815">
        <ele>59.1</ele>
        <time>2016-07-06T12:19:17Z</time>
      </trkpt>
      <trkpt lat="43.39129" lon="-6.06822">
        <ele>59.2</ele>
        <time>2016-07-06T12:19:26Z</time>
      </trkpt>
      <trkpt lat="43.39119" lon="-6.06822">
        <ele>59.2</ele>
        <time>2016-07-06T12:19:35Z</time>
      </trkpt>
      <trkpt lat="43.3911" lon="-6.06821">
        <ele>59.4</ele>
        <time>2016-07-06T12:19:42Z</time>
      </trkpt>
      <trkpt lat="43.39101" lon="-6.06816">
        <ele>59.7</ele>
        <time>2016-07-06T12:19:50Z</time>
      </trkpt>
      <trkpt lat="43.39092" lon="-6.06808">
        <ele>59</ele>
        <time>2016-07-06T12:20:01Z</time>
      </trkpt>
      <trkpt lat="43.39088" lon="-6.0682">
        <ele>61.1</ele>
        <time>2016-07-06T12:20:51Z</time>
      </trkpt>
      <trkpt lat="43.39081" lon="-6.06828">
        <ele>61.4</ele>
        <time>2016-07-06T12:21:03Z</time>
      </trkpt>
      <trkpt lat="43.39074" lon="-6.06836">
        <ele>61.5</ele>
        <time>2016-07-06T12:21:12Z</time>
      </trkpt>
      <trkpt lat="43.39065" lon="-6.06842">
        <ele>61.6</ele>
        <time>2016-07-06T12:21:20Z</time>
      </trkpt>
      <trkpt lat="43.39057" lon="-6.06849">
        <ele>61.7</ele>
        <time>2016-07-06T12:21:33Z</time>
      </trkpt>
      <trkpt lat="43.3905" lon="-6.06857">
        <ele>61.6</ele>
        <time>2016-07-06T12:21:42Z</time>
      </trkpt>
      <trkpt lat="43.39046" lon="-6.06868">
        <ele>61.7</ele>
        <time>2016-07-06T12:22:01Z</time>
      </trkpt>
      <trkpt lat="43.39038" lon="-6.06874">
        <ele>61.6</ele>
        <time>2016-07-06T12:22:16Z</time>
      </trkpt>
      <trkpt lat="43.39028" lon="-6.06876">
        <ele>61</ele>
        <time>2016-07-06T12:22:27Z</time>
      </trkpt>
      <trkpt lat="43.39019" lon="-6.06879">
        <ele>61.6</ele>
        <time>2016-07-06T12:22:41Z</time>
      </trkpt>
      <trkpt lat="43.3901" lon="-6.06877">
        <ele>61.4</ele>
        <time>2016-07-06T12:22:51Z</time>
      </trkpt>
      <trkpt lat="43.39" lon="-6.0688">
        <ele>61.4</ele>
        <time>2016-07-06T12:23:00Z</time>
      </trkpt>
      <trkpt lat="43.38991" lon="-6.06882">
        <ele>61.8</ele>
        <time>2016-07-06T12:23:09Z</time>
      </trkpt>
      <trkpt lat="43.38983" lon="-6.06888">
        <ele>62.2</ele>
        <time>2016-07-06T12:23:16Z</time>
      </trkpt>
      <trkpt lat="43.38974" lon="-6.06889">
        <ele>62.6</ele>
        <time>2016-07-06T12:23:25Z</time>
      </trkpt>
      <trkpt lat="43.38962" lon="-6.06891">
        <ele>62</ele>
        <time>2016-07-06T12:23:39Z</time>
      </trkpt>
      <trkpt lat="43.38953" lon="-6.06892">
        <ele>62.9</ele>
        <time>2016-07-06T12:23:48Z</time>
      </trkpt>
      <trkpt lat="43.38944" lon="-6.06889">
        <ele>63.1</ele>
        <time>2016-07-06T12:24:00Z</time>
      </trkpt>
      <trkpt lat="43.38935" lon="-6.06886">
        <ele>63.1</ele>
        <time>2016-07-06T12:24:16Z</time>
      </trkpt>
      <trkpt lat="43.38925" lon="-6.06882">
        <ele>63.1</ele>
        <time>2016-07-06T12:24:25Z</time>
      </trkpt>
      <trkpt lat="43.38916" lon="-6.0688">
        <ele>63.1</ele>
        <time>2016-07-06T12:24:38Z</time>
      </trkpt>
      <trkpt lat="43.38909" lon="-6.06888">
        <ele>63.3</ele>
        <time>2016-07-06T12:24:53Z</time>
      </trkpt>
      <trkpt lat="43.38904" lon="-6.069">
        <ele>63.5</ele>
        <time>2016-07-06T12:25:04Z</time>
      </trkpt>
      <trkpt lat="43.38901" lon="-6.06913">
        <ele>64.1</ele>
        <time>2016-07-06T12:25:13Z</time>
      </trkpt>
      <trkpt lat="43.38899" lon="-6.06926">
        <ele>64.7</ele>
        <time>2016-07-06T12:25:24Z</time>
      </trkpt>
      <trkpt lat="43.38894" lon="-6.06938">
        <ele>65.1</ele>
        <time>2016-07-06T12:25:36Z</time>
      </trkpt>
      <trkpt lat="43.38889" lon="-6.0695">
        <ele>65</ele>
        <time>2016-07-06T12:25:46Z</time>
      </trkpt>
      <trkpt lat="43.38885" lon="-6.06962">
        <ele>65.7</ele>
        <time>2016-07-06T12:25:58Z</time>
      </trkpt>
      <trkpt lat="43.38876" lon="-6.06966">
        <ele>65.9</ele>
        <time>2016-07-06T12:26:09Z</time>
      </trkpt>
      <trkpt lat="43.38855" lon="-6.06964">
        <ele>66</ele>
        <time>2016-07-06T12:27:33Z</time>
      </trkpt>
      <trkpt lat="43.38841" lon="-6.06963">
        <ele>65</ele>
        <time>2016-07-06T12:28:00Z</time>
      </trkpt>
      <trkpt lat="43.38829" lon="-6.06974">
        <ele>65</ele>
        <time>2016-07-06T12:28:39Z</time>
      </trkpt>
      <trkpt lat="43.38826" lon="-6.06955">
        <ele>66</ele>
        <time>2016-07-06T12:29:42Z</time>
      </trkpt>
      <trkpt lat="43.38869" lon="-6.06943">
        <ele>66</ele>
        <time>2016-07-06T12:34:29Z</time>
      </trkpt>
      <trkpt lat="43.38884" lon="-6.06973">
        <ele>66</ele>
        <time>2016-07-06T12:42:47Z</time>
      </trkpt>
      <trkpt lat="43.38875" lon="-6.06976">
        <ele>67</ele>
        <time>2016-07-06T12:43:00Z</time>
      </trkpt>
      <trkpt lat="43.38881" lon="-6.06985">
        <ele>67.1</ele>
        <time>2016-07-06T12:43:16Z</time>
      </trkpt>
      <trkpt lat="43.38881" lon="-6.06997">
        <ele>67.2</ele>
        <time>2016-07-06T12:44:38Z</time>
      </trkpt>
      <trkpt lat="43.38878" lon="-6.07009">
        <ele>67.9</ele>
        <time>2016-07-06T12:44:49Z</time>
      </trkpt>
      <trkpt lat="43.38876" lon="-6.07023">
        <ele>69.8</ele>
        <time>2016-07-06T12:44:59Z</time>
      </trkpt>
      <trkpt lat="43.38873" lon="-6.07037">
        <ele>70.1</ele>
        <time>2016-07-06T12:45:05Z</time>
      </trkpt>
      <trkpt lat="43.3887" lon="-6.07049">
        <ele>70.2</ele>
        <time>2016-07-06T12:45:13Z</time>
      </trkpt>
      <trkpt lat="43.38865" lon="-6.07061">
        <ele>70.2</ele>
        <time>2016-07-06T12:45:20Z</time>
      </trkpt>
      <trkpt lat="43.38861" lon="-6.07073">
        <ele>70.4</ele>
        <time>2016-07-06T12:45:32Z</time>
      </trkpt>
      <trkpt lat="43.38864" lon="-6.07086">
        <ele>71.1</ele>
        <time>2016-07-06T12:45:47Z</time>
      </trkpt>
      <trkpt lat="43.38862" lon="-6.07098">
        <ele>71.2</ele>
        <time>2016-07-06T12:45:53Z</time>
      </trkpt>
      <trkpt lat="43.38859" lon="-6.0711">
        <ele>71.3</ele>
        <time>2016-07-06T12:45:59Z</time>
      </trkpt>
      <trkpt lat="43.38856" lon="-6.07123">
        <ele>71.6</ele>
        <time>2016-07-06T12:46:05Z</time>
      </trkpt>
      <trkpt lat="43.38851" lon="-6.07134">
        <ele>72</ele>
        <time>2016-07-06T12:46:13Z</time>
      </trkpt>
      <trkpt lat="43.38847" lon="-6.07146">
        <ele>72.6</ele>
        <time>2016-07-06T12:46:22Z</time>
      </trkpt>
      <trkpt lat="43.38844" lon="-6.07158">
        <ele>72.8</ele>
        <time>2016-07-06T12:46:27Z</time>
      </trkpt>
      <trkpt lat="43.3884" lon="-6.07172">
        <ele>73</ele>
        <time>2016-07-06T12:46:34Z</time>
      </trkpt>
      <trkpt lat="43.38835" lon="-6.07185">
        <ele>73</ele>
        <time>2016-07-06T12:46:42Z</time>
      </trkpt>
      <trkpt lat="43.38833" lon="-6.07197">
        <ele>73.4</ele>
        <time>2016-07-06T12:46:51Z</time>
      </trkpt>
      <trkpt lat="43.38833" lon="-6.0721">
        <ele>73.4</ele>
        <time>2016-07-06T12:47:06Z</time>
      </trkpt>
      <trkpt lat="43.38826" lon="-6.07216">
        <ele>73.5</ele>
        <time>2016-07-06T12:47:17Z</time>
      </trkpt>
      <trkpt lat="43.38816" lon="-6.0722">
        <ele>73.5</ele>
        <time>2016-07-06T12:47:30Z</time>
      </trkpt>
      <trkpt lat="43.38807" lon="-6.07219">
        <ele>73.1</ele>
        <time>2016-07-06T12:47:40Z</time>
      </trkpt>
      <trkpt lat="43.38799" lon="-6.07213">
        <ele>73.2</ele>
        <time>2016-07-06T12:47:47Z</time>
      </trkpt>
      <trkpt lat="43.38789" lon="-6.07211">
        <ele>73</ele>
        <time>2016-07-06T12:47:57Z</time>
      </trkpt>
      <trkpt lat="43.38779" lon="-6.07221">
        <ele>73.2</ele>
        <time>2016-07-06T12:48:08Z</time>
      </trkpt>
      <trkpt lat="43.38772" lon="-6.0723">
        <ele>73.3</ele>
        <time>2016-07-06T12:48:15Z</time>
      </trkpt>
      <trkpt lat="43.38764" lon="-6.07237">
        <ele>73.3</ele>
        <time>2016-07-06T12:48:24Z</time>
      </trkpt>
      <trkpt lat="43.38762" lon="-6.07249">
        <ele>73.4</ele>
        <time>2016-07-06T12:48:35Z</time>
      </trkpt>
      <trkpt lat="43.38758" lon="-6.07261">
        <ele>73.4</ele>
        <time>2016-07-06T12:48:42Z</time>
      </trkpt>
      <trkpt lat="43.3875" lon="-6.07271">
        <ele>73.4</ele>
        <time>2016-07-06T12:48:48Z</time>
      </trkpt>
      <trkpt lat="43.38743" lon="-6.07279">
        <ele>73.4</ele>
        <time>2016-07-06T12:48:55Z</time>
      </trkpt>
      <trkpt lat="43.38735" lon="-6.07287">
        <ele>73.4</ele>
        <time>2016-07-06T12:49:02Z</time>
      </trkpt>
      <trkpt lat="43.38727" lon="-6.07296">
        <ele>73.4</ele>
        <time>2016-07-06T12:49:12Z</time>
      </trkpt>
      <trkpt lat="43.38735" lon="-6.07314">
        <ele>73</ele>
        <time>2016-07-06T12:50:13Z</time>
      </trkpt>
      <trkpt lat="43.38726" lon="-6.07314">
        <ele>73</ele>
        <time>2016-07-06T12:52:30Z</time>
      </trkpt>
      <trkpt lat="43.38717" lon="-6.07304">
        <ele>73.3</ele>
        <time>2016-07-06T12:52:34Z</time>
      </trkpt>
      <trkpt lat="43.38711" lon="-6.07315">
        <ele>73.3</ele>
        <time>2016-07-06T12:52:40Z</time>
      </trkpt>
      <trkpt lat="43.38706" lon="-6.07327">
        <ele>73.2</ele>
        <time>2016-07-06T12:52:50Z</time>
      </trkpt>
      <trkpt lat="43.38703" lon="-6.07339">
        <ele>73.2</ele>
        <time>2016-07-06T12:52:56Z</time>
      </trkpt>
      <trkpt lat="43.38699" lon="-6.07351">
        <ele>73.2</ele>
        <time>2016-07-06T12:53:01Z</time>
      </trkpt>
      <trkpt lat="43.38692" lon="-6.07364">
        <ele>73.2</ele>
        <time>2016-07-06T12:53:06Z</time>
      </trkpt>
      <trkpt lat="43.38686" lon="-6.07376">
        <ele>73.2</ele>
        <time>2016-07-06T12:53:10Z</time>
      </trkpt>
      <trkpt lat="43.38684" lon="-6.07389">
        <ele>73.6</ele>
        <time>2016-07-06T12:53:18Z</time>
      </trkpt>
      <trkpt lat="43.38682" lon="-6.07402">
        <ele>74</ele>
        <time>2016-07-06T12:53:26Z</time>
      </trkpt>
      <trkpt lat="43.38677" lon="-6.07415">
        <ele>74.7</ele>
        <time>2016-07-06T12:53:34Z</time>
      </trkpt>
      <trkpt lat="43.38677" lon="-6.07429">
        <ele>75.3</ele>
        <time>2016-07-06T12:53:44Z</time>
      </trkpt>
      <trkpt lat="43.38685" lon="-6.07437">
        <ele>76</ele>
        <time>2016-07-06T12:53:54Z</time>
      </trkpt>
      <trkpt lat="43.38695" lon="-6.07439">
        <ele>76.7</ele>
        <time>2016-07-06T12:54:03Z</time>
      </trkpt>
      <trkpt lat="43.38704" lon="-6.07441">
        <ele>77.3</ele>
        <time>2016-07-06T12:54:15Z</time>
      </trkpt>
      <trkpt lat="43.38697" lon="-6.07453">
        <ele>77</ele>
        <time>2016-07-06T12:54:32Z</time>
      </trkpt>
      <trkpt lat="43.38692" lon="-6.07464">
        <ele>77.7</ele>
        <time>2016-07-06T12:54:43Z</time>
      </trkpt>
      <trkpt lat="43.38684" lon="-6.07477">
        <ele>77</ele>
        <time>2016-07-06T12:54:57Z</time>
      </trkpt>
      <trkpt lat="43.38673" lon="-6.07488">
        <ele>77</ele>
        <time>2016-07-06T12:55:09Z</time>
      </trkpt>
      <trkpt lat="43.38664" lon="-6.07492">
        <ele>78</ele>
        <time>2016-07-06T12:55:17Z</time>
      </trkpt>
      <trkpt lat="43.38654" lon="-6.07496">
        <ele>78</ele>
        <time>2016-07-06T12:55:24Z</time>
      </trkpt>
      <trkpt lat="43.38646" lon="-6.07505">
        <ele>78.2</ele>
        <time>2016-07-06T12:55:32Z</time>
      </trkpt>
      <trkpt lat="43.38641" lon="-6.07516">
        <ele>78.4</ele>
        <time>2016-07-06T12:55:42Z</time>
      </trkpt>
      <trkpt lat="43.38633" lon="-6.07524">
        <ele>78.6</ele>
        <time>2016-07-06T12:55:51Z</time>
      </trkpt>
      <trkpt lat="43.38625" lon="-6.07533">
        <ele>79</ele>
        <time>2016-07-06T12:56:03Z</time>
      </trkpt>
      <trkpt lat="43.38618" lon="-6.07542">
        <ele>79.3</ele>
        <time>2016-07-06T12:56:10Z</time>
      </trkpt>
      <trkpt lat="43.38611" lon="-6.07551">
        <ele>79.5</ele>
        <time>2016-07-06T12:56:16Z</time>
      </trkpt>
      <trkpt lat="43.38607" lon="-6.07561">
        <ele>79.5</ele>
        <time>2016-07-06T12:56:23Z</time>
      </trkpt>
      <trkpt lat="43.38607" lon="-6.07574">
        <ele>79.5</ele>
        <time>2016-07-06T12:56:30Z</time>
      </trkpt>
      <trkpt lat="43.38599" lon="-6.07582">
        <ele>79.7</ele>
        <time>2016-07-06T12:56:41Z</time>
      </trkpt>
      <trkpt lat="43.38591" lon="-6.07589">
        <ele>79.8</ele>
        <time>2016-07-06T12:56:50Z</time>
      </trkpt>
      <trkpt lat="43.38584" lon="-6.07597">
        <ele>79.9</ele>
        <time>2016-07-06T12:56:59Z</time>
      </trkpt>
      <trkpt lat="43.38574" lon="-6.07603">
        <ele>79.9</ele>
        <time>2016-07-06T12:57:05Z</time>
      </trkpt>
      <trkpt lat="43.38566" lon="-6.07611">
        <ele>80</ele>
        <time>2016-07-06T12:57:10Z</time>
      </trkpt>
      <trkpt lat="43.38557" lon="-6.07625">
        <ele>80</ele>
        <time>2016-07-06T12:57:17Z</time>
      </trkpt>
      <trkpt lat="43.38552" lon="-6.07637">
        <ele>80.9</ele>
        <time>2016-07-06T12:57:26Z</time>
      </trkpt>
      <trkpt lat="43.38551" lon="-6.07649">
        <ele>80.9</ele>
        <time>2016-07-06T12:57:32Z</time>
      </trkpt>
      <trkpt lat="43.38548" lon="-6.07662">
        <ele>81</ele>
        <time>2016-07-06T12:57:37Z</time>
      </trkpt>
      <trkpt lat="43.38542" lon="-6.07672">
        <ele>82.2</ele>
        <time>2016-07-06T12:57:43Z</time>
      </trkpt>
      <trkpt lat="43.38537" lon="-6.07684">
        <ele>82.6</ele>
        <time>2016-07-06T12:57:49Z</time>
      </trkpt>
      <trkpt lat="43.3853" lon="-6.07692">
        <ele>82</ele>
        <time>2016-07-06T12:58:04Z</time>
      </trkpt>
      <trkpt lat="43.38522" lon="-6.07699">
        <ele>80</ele>
        <time>2016-07-06T12:58:14Z</time>
      </trkpt>
      <trkpt lat="43.38516" lon="-6.07712">
        <ele>77</ele>
        <time>2016-07-06T12:58:23Z</time>
      </trkpt>
      <trkpt lat="43.38513" lon="-6.07724">
        <ele>86.1</ele>
        <time>2016-07-06T12:58:47Z</time>
      </trkpt>
      <trkpt lat="43.3851" lon="-6.07736">
        <ele>86.1</ele>
        <time>2016-07-06T12:58:58Z</time>
      </trkpt>
      <trkpt lat="43.38509" lon="-6.07748">
        <ele>86.1</ele>
        <time>2016-07-06T12:59:03Z</time>
      </trkpt>
      <trkpt lat="43.38505" lon="-6.0776">
        <ele>86.3</ele>
        <time>2016-07-06T12:59:08Z</time>
      </trkpt>
      <trkpt lat="43.38503" lon="-6.07773">
        <ele>86.8</ele>
        <time>2016-07-06T12:59:13Z</time>
      </trkpt>
      <trkpt lat="43.38501" lon="-6.07787">
        <ele>87.5</ele>
        <time>2016-07-06T12:59:21Z</time>
      </trkpt>
      <trkpt lat="43.38496" lon="-6.07798">
        <ele>87.7</ele>
        <time>2016-07-06T12:59:28Z</time>
      </trkpt>
      <trkpt lat="43.38494" lon="-6.07813">
        <ele>88</ele>
        <time>2016-07-06T12:59:39Z</time>
      </trkpt>
      <trkpt lat="43.385" lon="-6.07824">
        <ele>89</ele>
        <time>2016-07-06T12:59:51Z</time>
      </trkpt>
      <trkpt lat="43.38503" lon="-6.07837">
        <ele>92.3</ele>
        <time>2016-07-06T13:00:10Z</time>
      </trkpt>
      <trkpt lat="43.38503" lon="-6.0785">
        <ele>93.7</ele>
        <time>2016-07-06T13:00:20Z</time>
      </trkpt>
      <trkpt lat="43.38504" lon="-6.07863">
        <ele>95.4</ele>
        <time>2016-07-06T13:00:32Z</time>
      </trkpt>
      <trkpt lat="43.38504" lon="-6.07876">
        <ele>96.4</ele>
        <time>2016-07-06T13:00:38Z</time>
      </trkpt>
      <trkpt lat="43.38505" lon="-6.07888">
        <ele>97.4</ele>
        <time>2016-07-06T13:00:45Z</time>
      </trkpt>
      <trkpt lat="43.38506" lon="-6.07901">
        <ele>98.8</ele>
        <time>2016-07-06T13:00:55Z</time>
      </trkpt>
      <trkpt lat="43.38504" lon="-6.07914">
        <ele>100.1</ele>
        <time>2016-07-06T13:01:04Z</time>
      </trkpt>
      <trkpt lat="43.38502" lon="-6.07927">
        <ele>101.5</ele>
        <time>2016-07-06T13:01:12Z</time>
      </trkpt>
      <trkpt lat="43.385" lon="-6.07939">
        <ele>103.3</ele>
        <time>2016-07-06T13:01:24Z</time>
      </trkpt>
      <trkpt lat="43.38499" lon="-6.07952">
        <ele>104.9</ele>
        <time>2016-07-06T13:01:34Z</time>
      </trkpt>
      <trkpt lat="43.38498" lon="-6.07966">
        <ele>106.3</ele>
        <time>2016-07-06T13:01:44Z</time>
      </trkpt>
      <trkpt lat="43.38496" lon="-6.07978">
        <ele>107.4</ele>
        <time>2016-07-06T13:01:54Z</time>
      </trkpt>
      <trkpt lat="43.38494" lon="-6.07991">
        <ele>108.7</ele>
        <time>2016-07-06T13:02:05Z</time>
      </trkpt>
      <trkpt lat="43.38492" lon="-6.08004">
        <ele>110.1</ele>
        <time>2016-07-06T13:02:16Z</time>
      </trkpt>
      <trkpt lat="43.38491" lon="-6.08017">
        <ele>113.4</ele>
        <time>2016-07-06T13:02:47Z</time>
      </trkpt>
      <trkpt lat="43.38489" lon="-6.0803">
        <ele>114.2</ele>
        <time>2016-07-06T13:02:56Z</time>
      </trkpt>
      <trkpt lat="43.38486" lon="-6.08043">
        <ele>115</ele>
        <time>2016-07-06T13:03:06Z</time>
      </trkpt>
      <trkpt lat="43.38482" lon="-6.08055">
        <ele>115.8</ele>
        <time>2016-07-06T13:03:16Z</time>
      </trkpt>
      <trkpt lat="43.38479" lon="-6.08067">
        <ele>117.8</ele>
        <time>2016-07-06T13:03:29Z</time>
      </trkpt>
      <trkpt lat="43.38478" lon="-6.0808">
        <ele>120.3</ele>
        <time>2016-07-06T13:03:45Z</time>
      </trkpt>
      <trkpt lat="43.38475" lon="-6.08092">
        <ele>121.5</ele>
        <time>2016-07-06T13:03:57Z</time>
      </trkpt>
      <trkpt lat="43.38471" lon="-6.08103">
        <ele>123.2</ele>
        <time>2016-07-06T13:04:09Z</time>
      </trkpt>
      <trkpt lat="43.38467" lon="-6.08115">
        <ele>125.2</ele>
        <time>2016-07-06T13:04:20Z</time>
      </trkpt>
      <trkpt lat="43.38465" lon="-6.08127">
        <ele>126.7</ele>
        <time>2016-07-06T13:04:30Z</time>
      </trkpt>
      <trkpt lat="43.38463" lon="-6.0814">
        <ele>128.7</ele>
        <time>2016-07-06T13:04:42Z</time>
      </trkpt>
      <trkpt lat="43.38465" lon="-6.08154">
        <ele>130.6</ele>
        <time>2016-07-06T13:04:54Z</time>
      </trkpt>
      <trkpt lat="43.38465" lon="-6.08167">
        <ele>132.1</ele>
        <time>2016-07-06T13:05:06Z</time>
      </trkpt>
      <trkpt lat="43.38466" lon="-6.08179">
        <ele>134.7</ele>
        <time>2016-07-06T13:05:18Z</time>
      </trkpt>
      <trkpt lat="43.38466" lon="-6.08192">
        <ele>136.4</ele>
        <time>2016-07-06T13:05:29Z</time>
      </trkpt>
      <trkpt lat="43.38466" lon="-6.08205">
        <ele>137.6</ele>
        <time>2016-07-06T13:05:38Z</time>
      </trkpt>
      <trkpt lat="43.38464" lon="-6.08217">
        <ele>138.9</ele>
        <time>2016-07-06T13:05:46Z</time>
      </trkpt>
      <trkpt lat="43.38464" lon="-6.0823">
        <ele>140.2</ele>
        <time>2016-07-06T13:05:53Z</time>
      </trkpt>
      <trkpt lat="43.38467" lon="-6.08243">
        <ele>141.6</ele>
        <time>2016-07-06T13:06:02Z</time>
      </trkpt>
      <trkpt lat="43.38467" lon="-6.08256">
        <ele>143.3</ele>
        <time>2016-07-06T13:06:11Z</time>
      </trkpt>
      <trkpt lat="43.38464" lon="-6.08268">
        <ele>146.2</ele>
        <time>2016-07-06T13:06:34Z</time>
      </trkpt>
      <trkpt lat="43.3846" lon="-6.08279">
        <ele>146.4</ele>
        <time>2016-07-06T13:07:20Z</time>
      </trkpt>
      <trkpt lat="43.38458" lon="-6.08291">
        <ele>146.8</ele>
        <time>2016-07-06T13:07:30Z</time>
      </trkpt>
      <trkpt lat="43.38457" lon="-6.08304">
        <ele>146.8</ele>
        <time>2016-07-06T13:07:42Z</time>
      </trkpt>
      <trkpt lat="43.38455" lon="-6.08317">
        <ele>147.3</ele>
        <time>2016-07-06T13:08:08Z</time>
      </trkpt>
      <trkpt lat="43.38452" lon="-6.08329">
        <ele>147.5</ele>
        <time>2016-07-06T13:08:17Z</time>
      </trkpt>
      <trkpt lat="43.3845" lon="-6.08342">
        <ele>148.1</ele>
        <time>2016-07-06T13:08:27Z</time>
      </trkpt>
      <trkpt lat="43.38445" lon="-6.08353">
        <ele>148.2</ele>
        <time>2016-07-06T13:08:37Z</time>
      </trkpt>
      <trkpt lat="43.3844" lon="-6.08365">
        <ele>148.7</ele>
        <time>2016-07-06T13:08:45Z</time>
      </trkpt>
      <trkpt lat="43.38435" lon="-6.08376">
        <ele>149.1</ele>
        <time>2016-07-06T13:08:52Z</time>
      </trkpt>
      <trkpt lat="43.38431" lon="-6.08388">
        <ele>149.4</ele>
        <time>2016-07-06T13:08:59Z</time>
      </trkpt>
      <trkpt lat="43.38425" lon="-6.084">
        <ele>149.5</ele>
        <time>2016-07-06T13:09:06Z</time>
      </trkpt>
      <trkpt lat="43.38419" lon="-6.0841">
        <ele>149.6</ele>
        <time>2016-07-06T13:09:13Z</time>
      </trkpt>
      <trkpt lat="43.38413" lon="-6.0842">
        <ele>149.9</ele>
        <time>2016-07-06T13:09:22Z</time>
      </trkpt>
      <trkpt lat="43.38407" lon="-6.08431">
        <ele>150.1</ele>
        <time>2016-07-06T13:09:30Z</time>
      </trkpt>
      <trkpt lat="43.384" lon="-6.08441">
        <ele>150.3</ele>
        <time>2016-07-06T13:09:38Z</time>
      </trkpt>
      <trkpt lat="43.38394" lon="-6.08452">
        <ele>150.6</ele>
        <time>2016-07-06T13:09:46Z</time>
      </trkpt>
      <trkpt lat="43.38389" lon="-6.08463">
        <ele>151</ele>
        <time>2016-07-06T13:09:55Z</time>
      </trkpt>
      <trkpt lat="43.38384" lon="-6.08475">
        <ele>151.3</ele>
        <time>2016-07-06T13:10:04Z</time>
      </trkpt>
      <trkpt lat="43.3838" lon="-6.08488">
        <ele>151.4</ele>
        <time>2016-07-06T13:10:14Z</time>
      </trkpt>
      <trkpt lat="43.38374" lon="-6.08498">
        <ele>151.5</ele>
        <time>2016-07-06T13:10:23Z</time>
      </trkpt>
      <trkpt lat="43.38368" lon="-6.08509">
        <ele>151.8</ele>
        <time>2016-07-06T13:10:32Z</time>
      </trkpt>
      <trkpt lat="43.38362" lon="-6.08519">
        <ele>152.3</ele>
        <time>2016-07-06T13:10:41Z</time>
      </trkpt>
      <trkpt lat="43.38357" lon="-6.0853">
        <ele>152.6</ele>
        <time>2016-07-06T13:10:49Z</time>
      </trkpt>
      <trkpt lat="43.38353" lon="-6.08542">
        <ele>153.1</ele>
        <time>2016-07-06T13:10:57Z</time>
      </trkpt>
      <trkpt lat="43.38351" lon="-6.08555">
        <ele>153.5</ele>
        <time>2016-07-06T13:11:06Z</time>
      </trkpt>
      <trkpt lat="43.38347" lon="-6.08566">
        <ele>153.7</ele>
        <time>2016-07-06T13:11:14Z</time>
      </trkpt>
      <trkpt lat="43.38341" lon="-6.08578">
        <ele>154</ele>
        <time>2016-07-06T13:11:22Z</time>
      </trkpt>
      <trkpt lat="43.38336" lon="-6.08588">
        <ele>154.2</ele>
        <time>2016-07-06T13:11:30Z</time>
      </trkpt>
      <trkpt lat="43.3833" lon="-6.08599">
        <ele>154.6</ele>
        <time>2016-07-06T13:11:39Z</time>
      </trkpt>
      <trkpt lat="43.38324" lon="-6.08608">
        <ele>154.8</ele>
        <time>2016-07-06T13:11:47Z</time>
      </trkpt>
      <trkpt lat="43.38316" lon="-6.08617">
        <ele>154.9</ele>
        <time>2016-07-06T13:11:56Z</time>
      </trkpt>
      <trkpt lat="43.38309" lon="-6.08627">
        <ele>155.1</ele>
        <time>2016-07-06T13:12:06Z</time>
      </trkpt>
      <trkpt lat="43.38301" lon="-6.08634">
        <ele>155.5</ele>
        <time>2016-07-06T13:12:13Z</time>
      </trkpt>
      <trkpt lat="43.38294" lon="-6.08643">
        <ele>156</ele>
        <time>2016-07-06T13:12:22Z</time>
      </trkpt>
      <trkpt lat="43.38288" lon="-6.08652">
        <ele>156.3</ele>
        <time>2016-07-06T13:12:31Z</time>
      </trkpt>
      <trkpt lat="43.38281" lon="-6.0866">
        <ele>156.4</ele>
        <time>2016-07-06T13:12:40Z</time>
      </trkpt>
      <trkpt lat="43.38275" lon="-6.08669">
        <ele>156.5</ele>
        <time>2016-07-06T13:12:49Z</time>
      </trkpt>
      <trkpt lat="43.38269" lon="-6.0868">
        <ele>156.9</ele>
        <time>2016-07-06T13:12:58Z</time>
      </trkpt>
      <trkpt lat="43.38264" lon="-6.0869">
        <ele>157</ele>
        <time>2016-07-06T13:13:05Z</time>
      </trkpt>
      <trkpt lat="43.38258" lon="-6.08701">
        <ele>156.8</ele>
        <time>2016-07-06T13:13:13Z</time>
      </trkpt>
      <trkpt lat="43.38252" lon="-6.08712">
        <ele>156.3</ele>
        <time>2016-07-06T13:13:21Z</time>
      </trkpt>
      <trkpt lat="43.38247" lon="-6.08722">
        <ele>155.9</ele>
        <time>2016-07-06T13:13:28Z</time>
      </trkpt>
      <trkpt lat="43.38241" lon="-6.08733">
        <ele>155.5</ele>
        <time>2016-07-06T13:13:36Z</time>
      </trkpt>
      <trkpt lat="43.38236" lon="-6.08744">
        <ele>155.1</ele>
        <time>2016-07-06T13:13:43Z</time>
      </trkpt>
      <trkpt lat="43.38232" lon="-6.08756">
        <ele>154.7</ele>
        <time>2016-07-06T13:13:51Z</time>
      </trkpt>
      <trkpt lat="43.38228" lon="-6.08768">
        <ele>154</ele>
        <time>2016-07-06T13:14:00Z</time>
      </trkpt>
      <trkpt lat="43.38226" lon="-6.08782">
        <ele>153.5</ele>
        <time>2016-07-06T13:14:08Z</time>
      </trkpt>
      <trkpt lat="43.38228" lon="-6.08795">
        <ele>153.5</ele>
        <time>2016-07-06T13:14:16Z</time>
      </trkpt>
      <trkpt lat="43.3823" lon="-6.08808">
        <ele>153.6</ele>
        <time>2016-07-06T13:14:23Z</time>
      </trkpt>
      <trkpt lat="43.38234" lon="-6.08821">
        <ele>153.6</ele>
        <time>2016-07-06T13:14:32Z</time>
      </trkpt>
      <trkpt lat="43.38237" lon="-6.08833">
        <ele>153.6</ele>
        <time>2016-07-06T13:14:39Z</time>
      </trkpt>
      <trkpt lat="43.3824" lon="-6.08845">
        <ele>153.8</ele>
        <time>2016-07-06T13:14:46Z</time>
      </trkpt>
      <trkpt lat="43.38243" lon="-6.08858">
        <ele>153.9</ele>
        <time>2016-07-06T13:14:54Z</time>
      </trkpt>
      <trkpt lat="43.38247" lon="-6.08871">
        <ele>154</ele>
        <time>2016-07-06T13:15:02Z</time>
      </trkpt>
      <trkpt lat="43.38251" lon="-6.08883">
        <ele>154.2</ele>
        <time>2016-07-06T13:15:09Z</time>
      </trkpt>
      <trkpt lat="43.38257" lon="-6.08893">
        <ele>154.6</ele>
        <time>2016-07-06T13:15:16Z</time>
      </trkpt>
      <trkpt lat="43.38264" lon="-6.08902">
        <ele>155.1</ele>
        <time>2016-07-06T13:15:24Z</time>
      </trkpt>
      <trkpt lat="43.38274" lon="-6.08905">
        <ele>155.4</ele>
        <time>2016-07-06T13:15:31Z</time>
      </trkpt>
      <trkpt lat="43.38283" lon="-6.08905">
        <ele>155.6</ele>
        <time>2016-07-06T13:15:39Z</time>
      </trkpt>
      <trkpt lat="43.38293" lon="-6.08905">
        <ele>155.7</ele>
        <time>2016-07-06T13:15:46Z</time>
      </trkpt>
      <trkpt lat="43.38302" lon="-6.08905">
        <ele>156.2</ele>
        <time>2016-07-06T13:15:53Z</time>
      </trkpt>
      <trkpt lat="43.38313" lon="-6.08904">
        <ele>156</ele>
        <time>2016-07-06T13:16:01Z</time>
      </trkpt>
      <trkpt lat="43.38322" lon="-6.08906">
        <ele>154.2</ele>
        <time>2016-07-06T13:16:09Z</time>
      </trkpt>
      <trkpt lat="43.38332" lon="-6.08911">
        <ele>154.2</ele>
        <time>2016-07-06T13:16:18Z</time>
      </trkpt>
      <trkpt lat="43.3834" lon="-6.08918">
        <ele>154.5</ele>
        <time>2016-07-06T13:16:26Z</time>
      </trkpt>
      <trkpt lat="43.38347" lon="-6.08925">
        <ele>155.1</ele>
        <time>2016-07-06T13:16:33Z</time>
      </trkpt>
      <trkpt lat="43.38355" lon="-6.08934">
        <ele>155.9</ele>
        <time>2016-07-06T13:16:41Z</time>
      </trkpt>
      <trkpt lat="43.3836" lon="-6.08946">
        <ele>156.9</ele>
        <time>2016-07-06T13:16:50Z</time>
      </trkpt>
      <trkpt lat="43.38361" lon="-6.08959">
        <ele>157.6</ele>
        <time>2016-07-06T13:16:59Z</time>
      </trkpt>
      <trkpt lat="43.38359" lon="-6.08973">
        <ele>158.6</ele>
        <time>2016-07-06T13:17:07Z</time>
      </trkpt>
      <trkpt lat="43.38357" lon="-6.08985">
        <ele>159.7</ele>
        <time>2016-07-06T13:17:15Z</time>
      </trkpt>
      <trkpt lat="43.38355" lon="-6.08997">
        <ele>160.7</ele>
        <time>2016-07-06T13:17:23Z</time>
      </trkpt>
      <trkpt lat="43.38352" lon="-6.09009">
        <ele>161.6</ele>
        <time>2016-07-06T13:17:31Z</time>
      </trkpt>
      <trkpt lat="43.38348" lon="-6.09021">
        <ele>163.8</ele>
        <time>2016-07-06T13:18:38Z</time>
      </trkpt>
      <trkpt lat="43.38346" lon="-6.09034">
        <ele>163.8</ele>
        <time>2016-07-06T13:18:47Z</time>
      </trkpt>
      <trkpt lat="43.38344" lon="-6.09048">
        <ele>163.2</ele>
        <time>2016-07-06T13:18:56Z</time>
      </trkpt>
      <trkpt lat="43.38342" lon="-6.09061">
        <ele>163.1</ele>
        <time>2016-07-06T13:19:05Z</time>
      </trkpt>
      <trkpt lat="43.3834" lon="-6.09074">
        <ele>163.2</ele>
        <time>2016-07-06T13:19:16Z</time>
      </trkpt>
      <trkpt lat="43.3834" lon="-6.09087">
        <ele>164.1</ele>
        <time>2016-07-06T13:19:26Z</time>
      </trkpt>
      <trkpt lat="43.38343" lon="-6.09099">
        <ele>163.3</ele>
        <time>2016-07-06T13:19:34Z</time>
      </trkpt>
      <trkpt lat="43.38349" lon="-6.0911">
        <ele>162.5</ele>
        <time>2016-07-06T13:19:43Z</time>
      </trkpt>
      <trkpt lat="43.38355" lon="-6.0912">
        <ele>162.9</ele>
        <time>2016-07-06T13:19:52Z</time>
      </trkpt>
      <trkpt lat="43.3836" lon="-6.0913">
        <ele>163.9</ele>
        <time>2016-07-06T13:20:01Z</time>
      </trkpt>
      <trkpt lat="43.38365" lon="-6.09143">
        <ele>167.7</ele>
        <time>2016-07-06T13:20:11Z</time>
      </trkpt>
      <trkpt lat="43.38373" lon="-6.09152">
        <ele>168.4</ele>
        <time>2016-07-06T13:20:21Z</time>
      </trkpt>
      <trkpt lat="43.38379" lon="-6.09162">
        <ele>168.7</ele>
        <time>2016-07-06T13:20:30Z</time>
      </trkpt>
      <trkpt lat="43.38384" lon="-6.09174">
        <ele>169.1</ele>
        <time>2016-07-06T13:20:43Z</time>
      </trkpt>
      <trkpt lat="43.38385" lon="-6.09187">
        <ele>169.8</ele>
        <time>2016-07-06T13:20:52Z</time>
      </trkpt>
      <trkpt lat="43.38384" lon="-6.092">
        <ele>170.4</ele>
        <time>2016-07-06T13:21:01Z</time>
      </trkpt>
      <trkpt lat="43.38384" lon="-6.09213">
        <ele>170.9</ele>
        <time>2016-07-06T13:21:09Z</time>
      </trkpt>
      <trkpt lat="43.38384" lon="-6.09227">
        <ele>170.8</ele>
        <time>2016-07-06T13:21:17Z</time>
      </trkpt>
      <trkpt lat="43.38385" lon="-6.0924">
        <ele>171.1</ele>
        <time>2016-07-06T13:21:26Z</time>
      </trkpt>
      <trkpt lat="43.38386" lon="-6.09253">
        <ele>171.8</ele>
        <time>2016-07-06T13:21:34Z</time>
      </trkpt>
      <trkpt lat="43.3839" lon="-6.09265">
        <ele>172.5</ele>
        <time>2016-07-06T13:21:47Z</time>
      </trkpt>
      <trkpt lat="43.38392" lon="-6.09277">
        <ele>172.4</ele>
        <time>2016-07-06T13:21:56Z</time>
      </trkpt>
      <trkpt lat="43.38394" lon="-6.0929">
        <ele>172.2</ele>
        <time>2016-07-06T13:22:05Z</time>
      </trkpt>
      <trkpt lat="43.38397" lon="-6.09302">
        <ele>172.1</ele>
        <time>2016-07-06T13:22:14Z</time>
      </trkpt>
      <trkpt lat="43.38399" lon="-6.09315">
        <ele>172.1</ele>
        <time>2016-07-06T13:22:23Z</time>
      </trkpt>
      <trkpt lat="43.38399" lon="-6.09327">
        <ele>172</ele>
        <time>2016-07-06T13:22:31Z</time>
      </trkpt>
      <trkpt lat="43.38397" lon="-6.0934">
        <ele>172.2</ele>
        <time>2016-07-06T13:22:38Z</time>
      </trkpt>
      <trkpt lat="43.38395" lon="-6.09353">
        <ele>172.4</ele>
        <time>2016-07-06T13:22:45Z</time>
      </trkpt>
      <trkpt lat="43.38393" lon="-6.09367">
        <ele>172.6</ele>
        <time>2016-07-06T13:22:53Z</time>
      </trkpt>
      <trkpt lat="43.38391" lon="-6.09379">
        <ele>173.1</ele>
        <time>2016-07-06T13:23:01Z</time>
      </trkpt>
      <trkpt lat="43.3839" lon="-6.09393">
        <ele>173.9</ele>
        <time>2016-07-06T13:23:11Z</time>
      </trkpt>
      <trkpt lat="43.38389" lon="-6.09405">
        <ele>174.9</ele>
        <time>2016-07-06T13:23:19Z</time>
      </trkpt>
      <trkpt lat="43.38386" lon="-6.09417">
        <ele>175.6</ele>
        <time>2016-07-06T13:23:28Z</time>
      </trkpt>
      <trkpt lat="43.38382" lon="-6.09429">
        <ele>176.5</ele>
        <time>2016-07-06T13:23:38Z</time>
      </trkpt>
      <trkpt lat="43.38385" lon="-6.09442">
        <ele>177.5</ele>
        <time>2016-07-06T13:23:49Z</time>
      </trkpt>
      <trkpt lat="43.38386" lon="-6.09456">
        <ele>177.9</ele>
        <time>2016-07-06T13:23:59Z</time>
      </trkpt>
      <trkpt lat="43.38383" lon="-6.09468">
        <ele>178.5</ele>
        <time>2016-07-06T13:24:07Z</time>
      </trkpt>
      <trkpt lat="43.3838" lon="-6.09479">
        <ele>180</ele>
        <time>2016-07-06T13:24:21Z</time>
      </trkpt>
      <trkpt lat="43.3838" lon="-6.09492">
        <ele>180.7</ele>
        <time>2016-07-06T13:24:31Z</time>
      </trkpt>
      <trkpt lat="43.3838" lon="-6.09505">
        <ele>181.2</ele>
        <time>2016-07-06T13:24:39Z</time>
      </trkpt>
      <trkpt lat="43.3838" lon="-6.09517">
        <ele>181.9</ele>
        <time>2016-07-06T13:24:48Z</time>
      </trkpt>
      <trkpt lat="43.38382" lon="-6.0953">
        <ele>182.4</ele>
        <time>2016-07-06T13:24:57Z</time>
      </trkpt>
      <trkpt lat="43.38386" lon="-6.09541">
        <ele>183.2</ele>
        <time>2016-07-06T13:25:06Z</time>
      </trkpt>
      <trkpt lat="43.38391" lon="-6.09553">
        <ele>183.7</ele>
        <time>2016-07-06T13:25:14Z</time>
      </trkpt>
      <trkpt lat="43.38394" lon="-6.09565">
        <ele>184.1</ele>
        <time>2016-07-06T13:25:22Z</time>
      </trkpt>
      <trkpt lat="43.384" lon="-6.09577">
        <ele>184.5</ele>
        <time>2016-07-06T13:25:31Z</time>
      </trkpt>
      <trkpt lat="43.38406" lon="-6.09588">
        <ele>185.1</ele>
        <time>2016-07-06T13:25:41Z</time>
      </trkpt>
      <trkpt lat="43.38413" lon="-6.09595">
        <ele>185.3</ele>
        <time>2016-07-06T13:25:51Z</time>
      </trkpt>
      <trkpt lat="43.38422" lon="-6.09602">
        <ele>185.5</ele>
        <time>2016-07-06T13:26:00Z</time>
      </trkpt>
      <trkpt lat="43.38431" lon="-6.09609">
        <ele>185.8</ele>
        <time>2016-07-06T13:26:09Z</time>
      </trkpt>
      <trkpt lat="43.38439" lon="-6.09615">
        <ele>186</ele>
        <time>2016-07-06T13:26:17Z</time>
      </trkpt>
      <trkpt lat="43.38446" lon="-6.09624">
        <ele>186.5</ele>
        <time>2016-07-06T13:26:41Z</time>
      </trkpt>
      <trkpt lat="43.38455" lon="-6.09626">
        <ele>186.5</ele>
        <time>2016-07-06T13:26:55Z</time>
      </trkpt>
      <trkpt lat="43.38464" lon="-6.09632">
        <ele>186.9</ele>
        <time>2016-07-06T13:27:05Z</time>
      </trkpt>
      <trkpt lat="43.38473" lon="-6.09635">
        <ele>187.8</ele>
        <time>2016-07-06T13:27:15Z</time>
      </trkpt>
      <trkpt lat="43.38482" lon="-6.09639">
        <ele>188.7</ele>
        <time>2016-07-06T13:27:25Z</time>
      </trkpt>
      <trkpt lat="43.38493" lon="-6.09643">
        <ele>189.4</ele>
        <time>2016-07-06T13:27:34Z</time>
      </trkpt>
      <trkpt lat="43.38501" lon="-6.09649">
        <ele>189.9</ele>
        <time>2016-07-06T13:27:43Z</time>
      </trkpt>
      <trkpt lat="43.38511" lon="-6.09651">
        <ele>190.6</ele>
        <time>2016-07-06T13:27:52Z</time>
      </trkpt>
      <trkpt lat="43.38516" lon="-6.09662">
        <ele>191.2</ele>
        <time>2016-07-06T13:28:01Z</time>
      </trkpt>
      <trkpt lat="43.38519" lon="-6.09674">
        <ele>191.8</ele>
        <time>2016-07-06T13:28:09Z</time>
      </trkpt>
      <trkpt lat="43.38521" lon="-6.09687">
        <ele>192.1</ele>
        <time>2016-07-06T13:28:18Z</time>
      </trkpt>
      <trkpt lat="43.38523" lon="-6.097">
        <ele>192.3</ele>
        <time>2016-07-06T13:28:26Z</time>
      </trkpt>
      <trkpt lat="43.38524" lon="-6.09714">
        <ele>192.4</ele>
        <time>2016-07-06T13:28:34Z</time>
      </trkpt>
      <trkpt lat="43.38525" lon="-6.09727">
        <ele>192.4</ele>
        <time>2016-07-06T13:28:42Z</time>
      </trkpt>
      <trkpt lat="43.38526" lon="-6.09739">
        <ele>192.5</ele>
        <time>2016-07-06T13:28:50Z</time>
      </trkpt>
      <trkpt lat="43.38526" lon="-6.09752">
        <ele>192.6</ele>
        <time>2016-07-06T13:28:58Z</time>
      </trkpt>
      <trkpt lat="43.38527" lon="-6.09765">
        <ele>192.7</ele>
        <time>2016-07-06T13:29:06Z</time>
      </trkpt>
      <trkpt lat="43.3853" lon="-6.09778">
        <ele>192.7</ele>
        <time>2016-07-06T13:29:14Z</time>
      </trkpt>
      <trkpt lat="43.38531" lon="-6.09791">
        <ele>192.7</ele>
        <time>2016-07-06T13:29:23Z</time>
      </trkpt>
      <trkpt lat="43.38533" lon="-6.09803">
        <ele>192.7</ele>
        <time>2016-07-06T13:29:32Z</time>
      </trkpt>
      <trkpt lat="43.38536" lon="-6.09816">
        <ele>192.7</ele>
        <time>2016-07-06T13:29:41Z</time>
      </trkpt>
      <trkpt lat="43.38539" lon="-6.09829">
        <ele>192.6</ele>
        <time>2016-07-06T13:29:52Z</time>
      </trkpt>
      <trkpt lat="43.38545" lon="-6.09839">
        <ele>192.9</ele>
        <time>2016-07-06T13:30:02Z</time>
      </trkpt>
      <trkpt lat="43.38552" lon="-6.09849">
        <ele>193.3</ele>
        <time>2016-07-06T13:30:10Z</time>
      </trkpt>
      <trkpt lat="43.38558" lon="-6.09858">
        <ele>193.7</ele>
        <time>2016-07-06T13:30:19Z</time>
      </trkpt>
      <trkpt lat="43.38565" lon="-6.09868">
        <ele>194.4</ele>
        <time>2016-07-06T13:30:28Z</time>
      </trkpt>
      <trkpt lat="43.38571" lon="-6.09879">
        <ele>195.4</ele>
        <time>2016-07-06T13:30:39Z</time>
      </trkpt>
      <trkpt lat="43.38577" lon="-6.09889">
        <ele>196.2</ele>
        <time>2016-07-06T13:30:48Z</time>
      </trkpt>
      <trkpt lat="43.38583" lon="-6.099">
        <ele>197.2</ele>
        <time>2016-07-06T13:30:57Z</time>
      </trkpt>
      <trkpt lat="43.38587" lon="-6.09912">
        <ele>197.9</ele>
        <time>2016-07-06T13:31:04Z</time>
      </trkpt>
      <trkpt lat="43.3859" lon="-6.09925">
        <ele>198.6</ele>
        <time>2016-07-06T13:31:12Z</time>
      </trkpt>
      <trkpt lat="43.38594" lon="-6.09938">
        <ele>199.4</ele>
        <time>2016-07-06T13:31:20Z</time>
      </trkpt>
      <trkpt lat="43.38597" lon="-6.0995">
        <ele>200.2</ele>
        <time>2016-07-06T13:31:28Z</time>
      </trkpt>
      <trkpt lat="43.38599" lon="-6.09962">
        <ele>201.1</ele>
        <time>2016-07-06T13:31:37Z</time>
      </trkpt>
      <trkpt lat="43.38602" lon="-6.09974">
        <ele>202.4</ele>
        <time>2016-07-06T13:31:52Z</time>
      </trkpt>
      <trkpt lat="43.38605" lon="-6.09987">
        <ele>203.6</ele>
        <time>2016-07-06T13:32:07Z</time>
      </trkpt>
      <trkpt lat="43.3861" lon="-6.09998">
        <ele>204.1</ele>
        <time>2016-07-06T13:32:18Z</time>
      </trkpt>
      <trkpt lat="43.38615" lon="-6.10009">
        <ele>204.7</ele>
        <time>2016-07-06T13:32:27Z</time>
      </trkpt>
      <trkpt lat="43.38622" lon="-6.10019">
        <ele>205.6</ele>
        <time>2016-07-06T13:32:36Z</time>
      </trkpt>
      <trkpt lat="43.38628" lon="-6.10028">
        <ele>206.9</ele>
        <time>2016-07-06T13:32:44Z</time>
      </trkpt>
      <trkpt lat="43.38634" lon="-6.10038">
        <ele>207.9</ele>
        <time>2016-07-06T13:32:52Z</time>
      </trkpt>
      <trkpt lat="43.38641" lon="-6.10047">
        <ele>209.2</ele>
        <time>2016-07-06T13:33:02Z</time>
      </trkpt>
      <trkpt lat="43.38646" lon="-6.10058">
        <ele>211</ele>
        <time>2016-07-06T13:33:12Z</time>
      </trkpt>
      <trkpt lat="43.38651" lon="-6.10069">
        <ele>212.9</ele>
        <time>2016-07-06T13:33:22Z</time>
      </trkpt>
      <trkpt lat="43.38655" lon="-6.1008">
        <ele>214.3</ele>
        <time>2016-07-06T13:33:34Z</time>
      </trkpt>
      <trkpt lat="43.38659" lon="-6.10093">
        <ele>216.3</ele>
        <time>2016-07-06T13:33:45Z</time>
      </trkpt>
      <trkpt lat="43.38659" lon="-6.10106">
        <ele>219.3</ele>
        <time>2016-07-06T13:34:12Z</time>
      </trkpt>
      <trkpt lat="43.38663" lon="-6.10118">
        <ele>220.2</ele>
        <time>2016-07-06T13:34:23Z</time>
      </trkpt>
      <trkpt lat="43.38667" lon="-6.1013">
        <ele>221.2</ele>
        <time>2016-07-06T13:34:33Z</time>
      </trkpt>
      <trkpt lat="43.38672" lon="-6.10142">
        <ele>223.4</ele>
        <time>2016-07-06T13:34:52Z</time>
      </trkpt>
      <trkpt lat="43.38677" lon="-6.10154">
        <ele>224</ele>
        <time>2016-07-06T13:35:01Z</time>
      </trkpt>
      <trkpt lat="43.38681" lon="-6.10165">
        <ele>225</ele>
        <time>2016-07-06T13:35:09Z</time>
      </trkpt>
      <trkpt lat="43.38684" lon="-6.10178">
        <ele>225.8</ele>
        <time>2016-07-06T13:35:18Z</time>
      </trkpt>
      <trkpt lat="43.38686" lon="-6.10191">
        <ele>226.6</ele>
        <time>2016-07-06T13:35:27Z</time>
      </trkpt>
      <trkpt lat="43.38687" lon="-6.10204">
        <ele>227.5</ele>
        <time>2016-07-06T13:35:36Z</time>
      </trkpt>
      <trkpt lat="43.38689" lon="-6.10217">
        <ele>228.2</ele>
        <time>2016-07-06T13:35:44Z</time>
      </trkpt>
      <trkpt lat="43.38694" lon="-6.10229">
        <ele>228.6</ele>
        <time>2016-07-06T13:35:52Z</time>
      </trkpt>
      <trkpt lat="43.38698" lon="-6.1024">
        <ele>228.7</ele>
        <time>2016-07-06T13:36:00Z</time>
      </trkpt>
      <trkpt lat="43.38703" lon="-6.10251">
        <ele>227.9</ele>
        <time>2016-07-06T13:36:12Z</time>
      </trkpt>
      <trkpt lat="43.38709" lon="-6.10261">
        <ele>227.4</ele>
        <time>2016-07-06T13:36:20Z</time>
      </trkpt>
      <trkpt lat="43.38716" lon="-6.10271">
        <ele>227.1</ele>
        <time>2016-07-06T13:36:29Z</time>
      </trkpt>
      <trkpt lat="43.38723" lon="-6.10281">
        <ele>227</ele>
        <time>2016-07-06T13:36:38Z</time>
      </trkpt>
      <trkpt lat="43.38728" lon="-6.10293">
        <ele>226.7</ele>
        <time>2016-07-06T13:36:47Z</time>
      </trkpt>
      <trkpt lat="43.38731" lon="-6.10305">
        <ele>226.7</ele>
        <time>2016-07-06T13:36:54Z</time>
      </trkpt>
      <trkpt lat="43.38734" lon="-6.10317">
        <ele>225.9</ele>
        <time>2016-07-06T13:37:01Z</time>
      </trkpt>
      <trkpt lat="43.38736" lon="-6.10329">
        <ele>225.4</ele>
        <time>2016-07-06T13:37:09Z</time>
      </trkpt>
      <trkpt lat="43.38738" lon="-6.10342">
        <ele>225.5</ele>
        <time>2016-07-06T13:37:17Z</time>
      </trkpt>
      <trkpt lat="43.3874" lon="-6.10355">
        <ele>225.9</ele>
        <time>2016-07-06T13:37:26Z</time>
      </trkpt>
      <trkpt lat="43.38742" lon="-6.10368">
        <ele>226.1</ele>
        <time>2016-07-06T13:37:34Z</time>
      </trkpt>
      <trkpt lat="43.38744" lon="-6.1038">
        <ele>226.2</ele>
        <time>2016-07-06T13:37:42Z</time>
      </trkpt>
      <trkpt lat="43.38745" lon="-6.10393">
        <ele>226.7</ele>
        <time>2016-07-06T13:37:51Z</time>
      </trkpt>
      <trkpt lat="43.38749" lon="-6.10405">
        <ele>227.3</ele>
        <time>2016-07-06T13:38:00Z</time>
      </trkpt>
      <trkpt lat="43.38754" lon="-6.10416">
        <ele>227.9</ele>
        <time>2016-07-06T13:38:08Z</time>
      </trkpt>
      <trkpt lat="43.38759" lon="-6.10426">
        <ele>228.6</ele>
        <time>2016-07-06T13:38:18Z</time>
      </trkpt>
      <trkpt lat="43.38764" lon="-6.10437">
        <ele>229.5</ele>
        <time>2016-07-06T13:38:33Z</time>
      </trkpt>
      <trkpt lat="43.38768" lon="-6.10449">
        <ele>229.9</ele>
        <time>2016-07-06T13:38:42Z</time>
      </trkpt>
      <trkpt lat="43.38773" lon="-6.10461">
        <ele>229.9</ele>
        <time>2016-07-06T13:38:52Z</time>
      </trkpt>
      <trkpt lat="43.3878" lon="-6.10471">
        <ele>229.8</ele>
        <time>2016-07-06T13:39:00Z</time>
      </trkpt>
      <trkpt lat="43.38783" lon="-6.10483">
        <ele>229.8</ele>
        <time>2016-07-06T13:39:08Z</time>
      </trkpt>
      <trkpt lat="43.38785" lon="-6.10495">
        <ele>229.5</ele>
        <time>2016-07-06T13:39:23Z</time>
      </trkpt>
      <trkpt lat="43.38789" lon="-6.10507">
        <ele>229.3</ele>
        <time>2016-07-06T13:39:59Z</time>
      </trkpt>
      <trkpt lat="43.38797" lon="-6.10514">
        <ele>229</ele>
        <time>2016-07-06T13:40:07Z</time>
      </trkpt>
      <trkpt lat="43.38806" lon="-6.10516">
        <ele>228.8</ele>
        <time>2016-07-06T13:40:18Z</time>
      </trkpt>
      <trkpt lat="43.38816" lon="-6.10516">
        <ele>228.4</ele>
        <time>2016-07-06T13:40:28Z</time>
      </trkpt>
      <trkpt lat="43.38825" lon="-6.10514">
        <ele>227.7</ele>
        <time>2016-07-06T13:40:39Z</time>
      </trkpt>
      <trkpt lat="43.38835" lon="-6.1051">
        <ele>227.1</ele>
        <time>2016-07-06T13:40:48Z</time>
      </trkpt>
      <trkpt lat="43.38843" lon="-6.10502">
        <ele>226.8</ele>
        <time>2016-07-06T13:40:56Z</time>
      </trkpt>
      <trkpt lat="43.38852" lon="-6.10495">
        <ele>227.1</ele>
        <time>2016-07-06T13:41:04Z</time>
      </trkpt>
      <trkpt lat="43.38859" lon="-6.10487">
        <ele>227.4</ele>
        <time>2016-07-06T13:41:13Z</time>
      </trkpt>
      <trkpt lat="43.38868" lon="-6.1048">
        <ele>227.6</ele>
        <time>2016-07-06T13:41:22Z</time>
      </trkpt>
      <trkpt lat="43.38875" lon="-6.10472">
        <ele>227.7</ele>
        <time>2016-07-06T13:41:30Z</time>
      </trkpt>
      <trkpt lat="43.38883" lon="-6.10463">
        <ele>228.3</ele>
        <time>2016-07-06T13:41:42Z</time>
      </trkpt>
      <trkpt lat="43.38889" lon="-6.10454">
        <ele>228.7</ele>
        <time>2016-07-06T13:41:50Z</time>
      </trkpt>
      <trkpt lat="43.38895" lon="-6.10443">
        <ele>228.7</ele>
        <time>2016-07-06T13:41:58Z</time>
      </trkpt>
      <trkpt lat="43.38902" lon="-6.10433">
        <ele>228.9</ele>
        <time>2016-07-06T13:42:06Z</time>
      </trkpt>
      <trkpt lat="43.38907" lon="-6.10423">
        <ele>229.1</ele>
        <time>2016-07-06T13:42:14Z</time>
      </trkpt>
      <trkpt lat="43.38914" lon="-6.10414">
        <ele>229.2</ele>
        <time>2016-07-06T13:42:22Z</time>
      </trkpt>
      <trkpt lat="43.38922" lon="-6.10408">
        <ele>229.1</ele>
        <time>2016-07-06T13:42:31Z</time>
      </trkpt>
      <trkpt lat="43.38932" lon="-6.1041">
        <ele>229</ele>
        <time>2016-07-06T13:42:41Z</time>
      </trkpt>
      <trkpt lat="43.38941" lon="-6.10412">
        <ele>228.4</ele>
        <time>2016-07-06T13:42:49Z</time>
      </trkpt>
      <trkpt lat="43.38948" lon="-6.10419">
        <ele>227.3</ele>
        <time>2016-07-06T13:42:58Z</time>
      </trkpt>
      <trkpt lat="43.38957" lon="-6.10424">
        <ele>226.2</ele>
        <time>2016-07-06T13:43:06Z</time>
      </trkpt>
      <trkpt lat="43.38967" lon="-6.10426">
        <ele>225.2</ele>
        <time>2016-07-06T13:43:15Z</time>
      </trkpt>
      <trkpt lat="43.38975" lon="-6.1042">
        <ele>224</ele>
        <time>2016-07-06T13:43:25Z</time>
      </trkpt>
      <trkpt lat="43.38979" lon="-6.10409">
        <ele>223.4</ele>
        <time>2016-07-06T13:43:34Z</time>
      </trkpt>
      <trkpt lat="43.38981" lon="-6.10396">
        <ele>223.1</ele>
        <time>2016-07-06T13:43:48Z</time>
      </trkpt>
      <trkpt lat="43.38986" lon="-6.10385">
        <ele>223.2</ele>
        <time>2016-07-06T13:43:57Z</time>
      </trkpt>
      <trkpt lat="43.38988" lon="-6.10372">
        <ele>223.5</ele>
        <time>2016-07-06T13:44:06Z</time>
      </trkpt>
      <trkpt lat="43.3899" lon="-6.10359">
        <ele>224.3</ele>
        <time>2016-07-06T13:44:15Z</time>
      </trkpt>
      <trkpt lat="43.38992" lon="-6.10345">
        <ele>225.4</ele>
        <time>2016-07-06T13:44:26Z</time>
      </trkpt>
      <trkpt lat="43.38995" lon="-6.10333">
        <ele>226.3</ele>
        <time>2016-07-06T13:44:35Z</time>
      </trkpt>
      <trkpt lat="43.38997" lon="-6.10319">
        <ele>227.2</ele>
        <time>2016-07-06T13:44:46Z</time>
      </trkpt>
      <trkpt lat="43.38999" lon="-6.10307">
        <ele>229.3</ele>
        <time>2016-07-06T13:45:03Z</time>
      </trkpt>
      <trkpt lat="43.39003" lon="-6.10295">
        <ele>229.8</ele>
        <time>2016-07-06T13:45:13Z</time>
      </trkpt>
      <trkpt lat="43.39006" lon="-6.10283">
        <ele>230.5</ele>
        <time>2016-07-06T13:45:24Z</time>
      </trkpt>
      <trkpt lat="43.39012" lon="-6.10272">
        <ele>231.3</ele>
        <time>2016-07-06T13:45:34Z</time>
      </trkpt>
      <trkpt lat="43.39019" lon="-6.10263">
        <ele>232.3</ele>
        <time>2016-07-06T13:45:44Z</time>
      </trkpt>
      <trkpt lat="43.39023" lon="-6.10252">
        <ele>233.2</ele>
        <time>2016-07-06T13:45:54Z</time>
      </trkpt>
      <trkpt lat="43.39029" lon="-6.1024">
        <ele>233.8</ele>
        <time>2016-07-06T13:46:02Z</time>
      </trkpt>
      <trkpt lat="43.39033" lon="-6.10229">
        <ele>234.3</ele>
        <time>2016-07-06T13:46:10Z</time>
      </trkpt>
      <trkpt lat="43.39037" lon="-6.10218">
        <ele>234.7</ele>
        <time>2016-07-06T13:46:20Z</time>
      </trkpt>
      <trkpt lat="43.39042" lon="-6.10207">
        <ele>234.9</ele>
        <time>2016-07-06T13:46:31Z</time>
      </trkpt>
      <trkpt lat="43.39046" lon="-6.10195">
        <ele>235</ele>
        <time>2016-07-06T13:46:40Z</time>
      </trkpt>
      <trkpt lat="43.39049" lon="-6.10183">
        <ele>235.1</ele>
        <time>2016-07-06T13:46:48Z</time>
      </trkpt>
      <trkpt lat="43.39053" lon="-6.1017">
        <ele>235.1</ele>
        <time>2016-07-06T13:46:56Z</time>
      </trkpt>
      <trkpt lat="43.39056" lon="-6.10158">
        <ele>235.1</ele>
        <time>2016-07-06T13:47:04Z</time>
      </trkpt>
      <trkpt lat="43.39059" lon="-6.10146">
        <ele>235.2</ele>
        <time>2016-07-06T13:47:11Z</time>
      </trkpt>
      <trkpt lat="43.39063" lon="-6.10134">
        <ele>235.2</ele>
        <time>2016-07-06T13:47:18Z</time>
      </trkpt>
      <trkpt lat="43.39067" lon="-6.10121">
        <ele>235.3</ele>
        <time>2016-07-06T13:47:27Z</time>
      </trkpt>
      <trkpt lat="43.39072" lon="-6.1011">
        <ele>235.5</ele>
        <time>2016-07-06T13:47:34Z</time>
      </trkpt>
      <trkpt lat="43.39076" lon="-6.10098">
        <ele>236.1</ele>
        <time>2016-07-06T13:47:43Z</time>
      </trkpt>
      <trkpt lat="43.39082" lon="-6.10088">
        <ele>236.6</ele>
        <time>2016-07-06T13:47:53Z</time>
      </trkpt>
      <trkpt lat="43.39086" lon="-6.10076">
        <ele>237.1</ele>
        <time>2016-07-06T13:48:03Z</time>
      </trkpt>
      <trkpt lat="43.39093" lon="-6.10069">
        <ele>237.5</ele>
        <time>2016-07-06T13:48:11Z</time>
      </trkpt>
      <trkpt lat="43.391" lon="-6.1006">
        <ele>237.8</ele>
        <time>2016-07-06T13:48:19Z</time>
      </trkpt>
      <trkpt lat="43.39104" lon="-6.10047">
        <ele>239</ele>
        <time>2016-07-06T13:48:30Z</time>
      </trkpt>
      <trkpt lat="43.39111" lon="-6.10037">
        <ele>239.5</ele>
        <time>2016-07-06T13:48:39Z</time>
      </trkpt>
      <trkpt lat="43.39119" lon="-6.10029">
        <ele>239.2</ele>
        <time>2016-07-06T13:48:50Z</time>
      </trkpt>
      <trkpt lat="43.39127" lon="-6.10024">
        <ele>239.1</ele>
        <time>2016-07-06T13:48:58Z</time>
      </trkpt>
      <trkpt lat="43.39136" lon="-6.10019">
        <ele>239.1</ele>
        <time>2016-07-06T13:49:10Z</time>
      </trkpt>
      <trkpt lat="43.39146" lon="-6.10013">
        <ele>239.4</ele>
        <time>2016-07-06T13:49:19Z</time>
      </trkpt>
      <trkpt lat="43.39154" lon="-6.10005">
        <ele>239.9</ele>
        <time>2016-07-06T13:49:26Z</time>
      </trkpt>
      <trkpt lat="43.3916" lon="-6.09996">
        <ele>240.2</ele>
        <time>2016-07-06T13:49:33Z</time>
      </trkpt>
      <trkpt lat="43.39167" lon="-6.09988">
        <ele>240.4</ele>
        <time>2016-07-06T13:49:42Z</time>
      </trkpt>
      <trkpt lat="43.39175" lon="-6.0998">
        <ele>241</ele>
        <time>2016-07-06T13:49:51Z</time>
      </trkpt>
      <trkpt lat="43.39182" lon="-6.09971">
        <ele>241.8</ele>
        <time>2016-07-06T13:50:01Z</time>
      </trkpt>
      <trkpt lat="43.39187" lon="-6.09959">
        <ele>243</ele>
        <time>2016-07-06T13:50:13Z</time>
      </trkpt>
      <trkpt lat="43.39193" lon="-6.09948">
        <ele>243.8</ele>
        <time>2016-07-06T13:50:23Z</time>
      </trkpt>
      <trkpt lat="43.39198" lon="-6.09937">
        <ele>244.2</ele>
        <time>2016-07-06T13:50:32Z</time>
      </trkpt>
      <trkpt lat="43.39197" lon="-6.09923">
        <ele>244.4</ele>
        <time>2016-07-06T13:50:40Z</time>
      </trkpt>
      <trkpt lat="43.39196" lon="-6.09911">
        <ele>244.5</ele>
        <time>2016-07-06T13:50:47Z</time>
      </trkpt>
      <trkpt lat="43.39194" lon="-6.09898">
        <ele>244.5</ele>
        <time>2016-07-06T13:50:55Z</time>
      </trkpt>
      <trkpt lat="43.39193" lon="-6.09886">
        <ele>244.7</ele>
        <time>2016-07-06T13:51:03Z</time>
      </trkpt>
      <trkpt lat="43.39189" lon="-6.09873">
        <ele>244.9</ele>
        <time>2016-07-06T13:51:12Z</time>
      </trkpt>
      <trkpt lat="43.39188" lon="-6.0986">
        <ele>244.9</ele>
        <time>2016-07-06T13:51:20Z</time>
      </trkpt>
      <trkpt lat="43.39187" lon="-6.09847">
        <ele>244.8</ele>
        <time>2016-07-06T13:51:29Z</time>
      </trkpt>
      <trkpt lat="43.39186" lon="-6.09833">
        <ele>244.9</ele>
        <time>2016-07-06T13:51:38Z</time>
      </trkpt>
      <trkpt lat="43.39186" lon="-6.09821">
        <ele>245</ele>
        <time>2016-07-06T13:51:46Z</time>
      </trkpt>
      <trkpt lat="43.39187" lon="-6.09807">
        <ele>244.9</ele>
        <time>2016-07-06T13:51:54Z</time>
      </trkpt>
      <trkpt lat="43.39185" lon="-6.09794">
        <ele>244.3</ele>
        <time>2016-07-06T13:52:03Z</time>
      </trkpt>
      <trkpt lat="43.39183" lon="-6.09782">
        <ele>243.7</ele>
        <time>2016-07-06T13:52:10Z</time>
      </trkpt>
      <trkpt lat="43.39181" lon="-6.0977">
        <ele>243</ele>
        <time>2016-07-06T13:52:17Z</time>
      </trkpt>
      <trkpt lat="43.39172" lon="-6.09775">
        <ele>242.3</ele>
        <time>2016-07-06T13:53:34Z</time>
      </trkpt>
      <trkpt lat="43.39181" lon="-6.09776">
        <ele>243</ele>
        <time>2016-07-06T13:56:21Z</time>
      </trkpt>
      <trkpt lat="43.39173" lon="-6.09784">
        <ele>241.1</ele>
        <time>2016-07-06T13:59:16Z</time>
      </trkpt>
      <trkpt lat="43.39156" lon="-6.09779">
        <ele>244</ele>
        <time>2016-07-06T14:02:15Z</time>
      </trkpt>
      <trkpt lat="43.39165" lon="-6.09784">
        <ele>244.8</ele>
        <time>2016-07-06T14:02:26Z</time>
      </trkpt>
      <trkpt lat="43.39174" lon="-6.0979">
        <ele>244.9</ele>
        <time>2016-07-06T14:02:43Z</time>
      </trkpt>
      <trkpt lat="43.39177" lon="-6.09778">
        <ele>245.8</ele>
        <time>2016-07-06T14:04:17Z</time>
      </trkpt>
      <trkpt lat="43.39169" lon="-6.09771">
        <ele>244.9</ele>
        <time>2016-07-06T14:06:06Z</time>
      </trkpt>
      <trkpt lat="43.39178" lon="-6.09777">
        <ele>245</ele>
        <time>2016-07-06T14:06:21Z</time>
      </trkpt>
      <trkpt lat="43.3917" lon="-6.09784">
        <ele>245.7</ele>
        <time>2016-07-06T14:09:22Z</time>
      </trkpt>
      <trkpt lat="43.39175" lon="-6.09774">
        <ele>245.2</ele>
        <time>2016-07-06T14:11:51Z</time>
      </trkpt>
      <trkpt lat="43.39185" lon="-6.09774">
        <ele>245.3</ele>
        <time>2016-07-06T14:12:45Z</time>
      </trkpt>
      <trkpt lat="43.39178" lon="-6.09782">
        <ele>245.8</ele>
        <time>2016-07-06T14:13:56Z</time>
      </trkpt>
      <trkpt lat="43.39185" lon="-6.09774">
        <ele>245</ele>
        <time>2016-07-06T14:15:32Z</time>
      </trkpt>
      <trkpt lat="43.39189" lon="-6.09777">
        <ele>245.9</ele>
        <time>2016-07-06T14:16:18Z</time>
      </trkpt>
    </trkseg>
  </trk>
</gpx>